<?xml version="1.0" encoding="UTF-8" standalone="no" ?>
<gpx xmlns="http://www.topografix.com/GPX/1/1" xmlns:xsi="http://www.w3.org/2001/XMLSchema-instance" xsi:schemaLocation="http://www.topografix.com/GPX/1/1 http://www.topografix.com/GPX/1/1/gpx.xsd" version="1.1" creator="VisuGPX - https://www.visugpx.com">
  <metadata>
    <name>le beaucet-vtt</name>
    <desc><![CDATA[parcours varié et plaisant dans l\'ensemble]]></desc>
  </metadata>
  <trk>
    <name><![CDATA[LE BEI-15 06:46:19 PM]]></name>
    <trkseg>
      <trkpt lat="43.98312" lon="5.11897">
        <ele>254.41</ele>
        <time>2015-05-25T13:42:58Z</time>
      </trkpt>
      <trkpt lat="43.98311" lon="5.11896">
        <ele>254.41</ele>
        <time>2015-05-25T13:42:59Z</time>
      </trkpt>
      <trkpt lat="43.98311" lon="5.11895">
        <ele>254.41</ele>
        <time>2015-05-25T13:43:00Z</time>
      </trkpt>
      <trkpt lat="43.98312" lon="5.11893">
        <ele>253.44</ele>
        <time>2015-05-25T13:43:02Z</time>
      </trkpt>
      <trkpt lat="43.98311" lon="5.1189">
        <ele>252</ele>
        <time>2015-05-25T13:43:07Z</time>
      </trkpt>
      <trkpt lat="43.98311" lon="5.11889">
        <ele>249.12</ele>
        <time>2015-05-25T13:43:18Z</time>
      </trkpt>
      <trkpt lat="43.98312" lon="5.11889">
        <ele>247.68</ele>
        <time>2015-05-25T13:43:23Z</time>
      </trkpt>
      <trkpt lat="43.98312" lon="5.1189">
        <ele>246.23</ele>
        <time>2015-05-25T13:43:43Z</time>
      </trkpt>
      <trkpt lat="43.98312" lon="5.11891">
        <ele>244.79</ele>
        <time>2015-05-25T13:44:01Z</time>
      </trkpt>
      <trkpt lat="43.98312" lon="5.1189">
        <ele>244.31</ele>
        <time>2015-05-25T13:44:20Z</time>
      </trkpt>
      <trkpt lat="43.98312" lon="5.11889">
        <ele>244.31</ele>
        <time>2015-05-25T13:44:37Z</time>
      </trkpt>
      <trkpt lat="43.98311" lon="5.11889">
        <ele>244.31</ele>
        <time>2015-05-25T13:44:53Z</time>
      </trkpt>
      <trkpt lat="43.98311" lon="5.11889">
        <ele>243.83</ele>
        <time>2015-05-25T13:45:07Z</time>
      </trkpt>
      <trkpt lat="43.98311" lon="5.11889">
        <ele>244.79</ele>
        <time>2015-05-25T13:45:23Z</time>
      </trkpt>
      <trkpt lat="43.98311" lon="5.11889">
        <ele>243.83</ele>
        <time>2015-05-25T13:45:39Z</time>
      </trkpt>
      <trkpt lat="43.98312" lon="5.11889">
        <ele>244.31</ele>
        <time>2015-05-25T13:45:58Z</time>
      </trkpt>
      <trkpt lat="43.98311" lon="5.11889">
        <ele>242.87</ele>
        <time>2015-05-25T13:46:14Z</time>
      </trkpt>
      <trkpt lat="43.98311" lon="5.11889">
        <ele>243.35</ele>
        <time>2015-05-25T13:46:30Z</time>
      </trkpt>
      <trkpt lat="43.98312" lon="5.11889">
        <ele>246.72</ele>
        <time>2015-05-25T13:46:33Z</time>
      </trkpt>
      <trkpt lat="43.98312" lon="5.11889">
        <ele>243.35</ele>
        <time>2015-05-25T13:46:35Z</time>
      </trkpt>
      <trkpt lat="43.98312" lon="5.11889">
        <ele>243.35</ele>
        <time>2015-05-25T13:46:49Z</time>
      </trkpt>
      <trkpt lat="43.98312" lon="5.11889">
        <ele>243.83</ele>
        <time>2015-05-25T13:46:59Z</time>
      </trkpt>
      <trkpt lat="43.98312" lon="5.1189">
        <ele>244.31</ele>
        <time>2015-05-25T13:47:13Z</time>
      </trkpt>
      <trkpt lat="43.98312" lon="5.1189">
        <ele>245.27</ele>
        <time>2015-05-25T13:47:18Z</time>
      </trkpt>
      <trkpt lat="43.98312" lon="5.1189">
        <ele>244.31</ele>
        <time>2015-05-25T13:47:35Z</time>
      </trkpt>
      <trkpt lat="43.98312" lon="5.11891">
        <ele>243.83</ele>
        <time>2015-05-25T13:47:46Z</time>
      </trkpt>
      <trkpt lat="43.98312" lon="5.11891">
        <ele>244.31</ele>
        <time>2015-05-25T13:47:58Z</time>
      </trkpt>
      <trkpt lat="43.98312" lon="5.11891">
        <ele>245.27</ele>
        <time>2015-05-25T13:48:11Z</time>
      </trkpt>
      <trkpt lat="43.98312" lon="5.11891">
        <ele>244.31</ele>
        <time>2015-05-25T13:48:28Z</time>
      </trkpt>
      <trkpt lat="43.98312" lon="5.11891">
        <ele>245.27</ele>
        <time>2015-05-25T13:48:43Z</time>
      </trkpt>
      <trkpt lat="43.98312" lon="5.11892">
        <ele>245.27</ele>
        <time>2015-05-25T13:48:58Z</time>
      </trkpt>
      <trkpt lat="43.98312" lon="5.11891">
        <ele>245.27</ele>
        <time>2015-05-25T13:49:07Z</time>
      </trkpt>
      <trkpt lat="43.98311" lon="5.11892">
        <ele>244.31</ele>
        <time>2015-05-25T13:49:22Z</time>
      </trkpt>
      <trkpt lat="43.98311" lon="5.11893">
        <ele>244.31</ele>
        <time>2015-05-25T13:49:40Z</time>
      </trkpt>
      <trkpt lat="43.9831" lon="5.11893">
        <ele>243.83</ele>
        <time>2015-05-25T13:50:02Z</time>
      </trkpt>
      <trkpt lat="43.9831" lon="5.11893">
        <ele>243.83</ele>
        <time>2015-05-25T13:50:22Z</time>
      </trkpt>
      <trkpt lat="43.9831" lon="5.11892">
        <ele>244.31</ele>
        <time>2015-05-25T13:50:37Z</time>
      </trkpt>
      <trkpt lat="43.98311" lon="5.11892">
        <ele>242.87</ele>
        <time>2015-05-25T13:50:53Z</time>
      </trkpt>
      <trkpt lat="43.98311" lon="5.11892">
        <ele>243.83</ele>
        <time>2015-05-25T13:50:56Z</time>
      </trkpt>
      <trkpt lat="43.98311" lon="5.1189">
        <ele>244.31</ele>
        <time>2015-05-25T13:51:06Z</time>
      </trkpt>
      <trkpt lat="43.98312" lon="5.1189">
        <ele>243.35</ele>
        <time>2015-05-25T13:51:14Z</time>
      </trkpt>
      <trkpt lat="43.98311" lon="5.1189">
        <ele>243.83</ele>
        <time>2015-05-25T13:51:27Z</time>
      </trkpt>
      <trkpt lat="43.98311" lon="5.11889">
        <ele>242.87</ele>
        <time>2015-05-25T13:51:34Z</time>
      </trkpt>
      <trkpt lat="43.98313" lon="5.11887">
        <ele>243.35</ele>
        <time>2015-05-25T13:51:38Z</time>
      </trkpt>
      <trkpt lat="43.98313" lon="5.11886">
        <ele>239.99</ele>
        <time>2015-05-25T13:51:44Z</time>
      </trkpt>
      <trkpt lat="43.98313" lon="5.11886">
        <ele>245.75</ele>
        <time>2015-05-25T13:51:45Z</time>
      </trkpt>
      <trkpt lat="43.98314" lon="5.11886">
        <ele>242.87</ele>
        <time>2015-05-25T13:51:48Z</time>
      </trkpt>
      <trkpt lat="43.98314" lon="5.11888">
        <ele>244.31</ele>
        <time>2015-05-25T13:52:08Z</time>
      </trkpt>
      <trkpt lat="43.98315" lon="5.11889">
        <ele>243.83</ele>
        <time>2015-05-25T13:52:27Z</time>
      </trkpt>
      <trkpt lat="43.98314" lon="5.11889">
        <ele>243.83</ele>
        <time>2015-05-25T13:52:47Z</time>
      </trkpt>
      <trkpt lat="43.98314" lon="5.11889">
        <ele>243.83</ele>
        <time>2015-05-25T13:53:06Z</time>
      </trkpt>
      <trkpt lat="43.98314" lon="5.11889">
        <ele>244.31</ele>
        <time>2015-05-25T13:53:25Z</time>
      </trkpt>
      <trkpt lat="43.98314" lon="5.11889">
        <ele>243.83</ele>
        <time>2015-05-25T13:53:44Z</time>
      </trkpt>
      <trkpt lat="43.98314" lon="5.11888">
        <ele>243.83</ele>
        <time>2015-05-25T13:54:06Z</time>
      </trkpt>
      <trkpt lat="43.98314" lon="5.11887">
        <ele>243.83</ele>
        <time>2015-05-25T13:54:26Z</time>
      </trkpt>
      <trkpt lat="43.98314" lon="5.11886">
        <ele>244.31</ele>
        <time>2015-05-25T13:54:47Z</time>
      </trkpt>
      <trkpt lat="43.98314" lon="5.11885">
        <ele>244.31</ele>
        <time>2015-05-25T13:55:06Z</time>
      </trkpt>
      <trkpt lat="43.98314" lon="5.11885">
        <ele>244.79</ele>
        <time>2015-05-25T13:55:28Z</time>
      </trkpt>
      <trkpt lat="43.98313" lon="5.11886">
        <ele>245.27</ele>
        <time>2015-05-25T13:55:45Z</time>
      </trkpt>
      <trkpt lat="43.98317" lon="5.11877">
        <ele>244.79</ele>
        <time>2015-05-25T13:55:50Z</time>
      </trkpt>
      <trkpt lat="43.98313" lon="5.11878">
        <ele>245.27</ele>
        <time>2015-05-25T13:55:53Z</time>
      </trkpt>
      <trkpt lat="43.98312" lon="5.11882">
        <ele>245.75</ele>
        <time>2015-05-25T13:55:59Z</time>
      </trkpt>
      <trkpt lat="43.98312" lon="5.11882">
        <ele>245.75</ele>
        <time>2015-05-25T13:56:04Z</time>
      </trkpt>
      <trkpt lat="43.98314" lon="5.11881">
        <ele>245.27</ele>
        <time>2015-05-25T13:56:06Z</time>
      </trkpt>
      <trkpt lat="43.98328" lon="5.11868">
        <ele>243.83</ele>
        <time>2015-05-25T13:56:12Z</time>
      </trkpt>
      <trkpt lat="43.98336" lon="5.11861">
        <ele>242.39</ele>
        <time>2015-05-25T13:56:14Z</time>
      </trkpt>
      <trkpt lat="43.98353" lon="5.11846">
        <ele>240.47</ele>
        <time>2015-05-25T13:56:18Z</time>
      </trkpt>
      <trkpt lat="43.98372" lon="5.1183">
        <ele>238.54</ele>
        <time>2015-05-25T13:56:22Z</time>
      </trkpt>
      <trkpt lat="43.98392" lon="5.11812">
        <ele>236.62</ele>
        <time>2015-05-25T13:56:27Z</time>
      </trkpt>
      <trkpt lat="43.98408" lon="5.11807">
        <ele>235.66</ele>
        <time>2015-05-25T13:56:31Z</time>
      </trkpt>
      <trkpt lat="43.98411" lon="5.1181">
        <ele>235.18</ele>
        <time>2015-05-25T13:56:32Z</time>
      </trkpt>
      <trkpt lat="43.98414" lon="5.11816">
        <ele>234.7</ele>
        <time>2015-05-25T13:56:33Z</time>
      </trkpt>
      <trkpt lat="43.98416" lon="5.11822">
        <ele>234.22</ele>
        <time>2015-05-25T13:56:34Z</time>
      </trkpt>
      <trkpt lat="43.98417" lon="5.11829">
        <ele>233.74</ele>
        <time>2015-05-25T13:56:35Z</time>
      </trkpt>
      <trkpt lat="43.98418" lon="5.11835">
        <ele>233.26</ele>
        <time>2015-05-25T13:56:36Z</time>
      </trkpt>
      <trkpt lat="43.98423" lon="5.11851">
        <ele>231.81</ele>
        <time>2015-05-25T13:56:39Z</time>
      </trkpt>
      <trkpt lat="43.98437" lon="5.1186">
        <ele>229.89</ele>
        <time>2015-05-25T13:56:43Z</time>
      </trkpt>
      <trkpt lat="43.98442" lon="5.11861">
        <ele>229.89</ele>
        <time>2015-05-25T13:56:44Z</time>
      </trkpt>
      <trkpt lat="43.98473" lon="5.1187">
        <ele>227.97</ele>
        <time>2015-05-25T13:56:50Z</time>
      </trkpt>
      <trkpt lat="43.98478" lon="5.11871">
        <ele>227.97</ele>
        <time>2015-05-25T13:56:51Z</time>
      </trkpt>
      <trkpt lat="43.98512" lon="5.11881">
        <ele>225.57</ele>
        <time>2015-05-25T13:56:57Z</time>
      </trkpt>
      <trkpt lat="43.98545" lon="5.11888">
        <ele>223.64</ele>
        <time>2015-05-25T13:57:03Z</time>
      </trkpt>
      <trkpt lat="43.98554" lon="5.1189">
        <ele>222.68</ele>
        <time>2015-05-25T13:57:05Z</time>
      </trkpt>
      <trkpt lat="43.98559" lon="5.11892">
        <ele>222.68</ele>
        <time>2015-05-25T13:57:06Z</time>
      </trkpt>
      <trkpt lat="43.98563" lon="5.11896">
        <ele>223.16</ele>
        <time>2015-05-25T13:57:07Z</time>
      </trkpt>
      <trkpt lat="43.98581" lon="5.11919">
        <ele>224.61</ele>
        <time>2015-05-25T13:57:13Z</time>
      </trkpt>
      <trkpt lat="43.98592" lon="5.11934">
        <ele>226.05</ele>
        <time>2015-05-25T13:57:19Z</time>
      </trkpt>
      <trkpt lat="43.98603" lon="5.11949">
        <ele>227.97</ele>
        <time>2015-05-25T13:57:27Z</time>
      </trkpt>
      <trkpt lat="43.98617" lon="5.11954">
        <ele>229.89</ele>
        <time>2015-05-25T13:57:34Z</time>
      </trkpt>
      <trkpt lat="43.98635" lon="5.1195">
        <ele>231.33</ele>
        <time>2015-05-25T13:57:43Z</time>
      </trkpt>
      <trkpt lat="43.98637" lon="5.11949">
        <ele>231.81</ele>
        <time>2015-05-25T13:57:44Z</time>
      </trkpt>
      <trkpt lat="43.98639" lon="5.11948">
        <ele>231.81</ele>
        <time>2015-05-25T13:57:45Z</time>
      </trkpt>
      <trkpt lat="43.98641" lon="5.11947">
        <ele>231.81</ele>
        <time>2015-05-25T13:57:46Z</time>
      </trkpt>
      <trkpt lat="43.98642" lon="5.11946">
        <ele>232.3</ele>
        <time>2015-05-25T13:57:47Z</time>
      </trkpt>
      <trkpt lat="43.98644" lon="5.11944">
        <ele>232.78</ele>
        <time>2015-05-25T13:57:48Z</time>
      </trkpt>
      <trkpt lat="43.98645" lon="5.11943">
        <ele>232.78</ele>
        <time>2015-05-25T13:57:49Z</time>
      </trkpt>
      <trkpt lat="43.98647" lon="5.11941">
        <ele>232.78</ele>
        <time>2015-05-25T13:57:50Z</time>
      </trkpt>
      <trkpt lat="43.98649" lon="5.1194">
        <ele>233.26</ele>
        <time>2015-05-25T13:57:51Z</time>
      </trkpt>
      <trkpt lat="43.98651" lon="5.11939">
        <ele>233.74</ele>
        <time>2015-05-25T13:57:52Z</time>
      </trkpt>
      <trkpt lat="43.98652" lon="5.11937">
        <ele>233.74</ele>
        <time>2015-05-25T13:57:53Z</time>
      </trkpt>
      <trkpt lat="43.98654" lon="5.11936">
        <ele>234.22</ele>
        <time>2015-05-25T13:57:54Z</time>
      </trkpt>
      <trkpt lat="43.98655" lon="5.11934">
        <ele>234.22</ele>
        <time>2015-05-25T13:57:55Z</time>
      </trkpt>
      <trkpt lat="43.98657" lon="5.11933">
        <ele>234.22</ele>
        <time>2015-05-25T13:57:56Z</time>
      </trkpt>
      <trkpt lat="43.98659" lon="5.11932">
        <ele>234.22</ele>
        <time>2015-05-25T13:57:57Z</time>
      </trkpt>
      <trkpt lat="43.9866" lon="5.11931">
        <ele>234.7</ele>
        <time>2015-05-25T13:57:58Z</time>
      </trkpt>
      <trkpt lat="43.98662" lon="5.1193">
        <ele>234.7</ele>
        <time>2015-05-25T13:57:59Z</time>
      </trkpt>
      <trkpt lat="43.98663" lon="5.11928">
        <ele>235.18</ele>
        <time>2015-05-25T13:58:00Z</time>
      </trkpt>
      <trkpt lat="43.98665" lon="5.11927">
        <ele>235.18</ele>
        <time>2015-05-25T13:58:01Z</time>
      </trkpt>
      <trkpt lat="43.98666" lon="5.11925">
        <ele>235.18</ele>
        <time>2015-05-25T13:58:02Z</time>
      </trkpt>
      <trkpt lat="43.98668" lon="5.11924">
        <ele>235.66</ele>
        <time>2015-05-25T13:58:03Z</time>
      </trkpt>
      <trkpt lat="43.98669" lon="5.11924">
        <ele>235.66</ele>
        <time>2015-05-25T13:58:04Z</time>
      </trkpt>
      <trkpt lat="43.98671" lon="5.11923">
        <ele>235.66</ele>
        <time>2015-05-25T13:58:05Z</time>
      </trkpt>
      <trkpt lat="43.98684" lon="5.11915">
        <ele>237.1</ele>
        <time>2015-05-25T13:58:12Z</time>
      </trkpt>
      <trkpt lat="43.98697" lon="5.11908">
        <ele>238.06</ele>
        <time>2015-05-25T13:58:18Z</time>
      </trkpt>
      <trkpt lat="43.98717" lon="5.11901">
        <ele>239.99</ele>
        <time>2015-05-25T13:58:27Z</time>
      </trkpt>
      <trkpt lat="43.98733" lon="5.11894">
        <ele>239.51</ele>
        <time>2015-05-25T13:58:33Z</time>
      </trkpt>
      <trkpt lat="43.98751" lon="5.11889">
        <ele>239.51</ele>
        <time>2015-05-25T13:58:39Z</time>
      </trkpt>
      <trkpt lat="43.9877" lon="5.11883">
        <ele>240.47</ele>
        <time>2015-05-25T13:58:45Z</time>
      </trkpt>
      <trkpt lat="43.98789" lon="5.11877">
        <ele>239.99</ele>
        <time>2015-05-25T13:58:51Z</time>
      </trkpt>
      <trkpt lat="43.98811" lon="5.1187">
        <ele>240.47</ele>
        <time>2015-05-25T13:58:58Z</time>
      </trkpt>
      <trkpt lat="43.98832" lon="5.11865">
        <ele>240.47</ele>
        <time>2015-05-25T13:59:04Z</time>
      </trkpt>
      <trkpt lat="43.98853" lon="5.11861">
        <ele>240.47</ele>
        <time>2015-05-25T13:59:10Z</time>
      </trkpt>
      <trkpt lat="43.98874" lon="5.11859">
        <ele>240.95</ele>
        <time>2015-05-25T13:59:16Z</time>
      </trkpt>
      <trkpt lat="43.98895" lon="5.11858">
        <ele>241.43</ele>
        <time>2015-05-25T13:59:22Z</time>
      </trkpt>
      <trkpt lat="43.98921" lon="5.11858">
        <ele>242.39</ele>
        <time>2015-05-25T13:59:29Z</time>
      </trkpt>
      <trkpt lat="43.98944" lon="5.11859">
        <ele>242.39</ele>
        <time>2015-05-25T13:59:35Z</time>
      </trkpt>
      <trkpt lat="43.98972" lon="5.11859">
        <ele>242.87</ele>
        <time>2015-05-25T13:59:43Z</time>
      </trkpt>
      <trkpt lat="43.98999" lon="5.11866">
        <ele>241.91</ele>
        <time>2015-05-25T13:59:51Z</time>
      </trkpt>
      <trkpt lat="43.99022" lon="5.11874">
        <ele>242.87</ele>
        <time>2015-05-25T13:59:57Z</time>
      </trkpt>
      <trkpt lat="43.99038" lon="5.11876">
        <ele>241.91</ele>
        <time>2015-05-25T14:00:02Z</time>
      </trkpt>
      <trkpt lat="43.99065" lon="5.11878">
        <ele>242.39</ele>
        <time>2015-05-25T14:00:09Z</time>
      </trkpt>
      <trkpt lat="43.99097" lon="5.11879">
        <ele>243.35</ele>
        <time>2015-05-25T14:00:18Z</time>
      </trkpt>
      <trkpt lat="43.99125" lon="5.11882">
        <ele>243.35</ele>
        <time>2015-05-25T14:00:26Z</time>
      </trkpt>
      <trkpt lat="43.99135" lon="5.11884">
        <ele>243.83</ele>
        <time>2015-05-25T14:00:29Z</time>
      </trkpt>
      <trkpt lat="43.99137" lon="5.11885">
        <ele>243.83</ele>
        <time>2015-05-25T14:00:30Z</time>
      </trkpt>
      <trkpt lat="43.99159" lon="5.11888">
        <ele>244.31</ele>
        <time>2015-05-25T14:00:36Z</time>
      </trkpt>
      <trkpt lat="43.99189" lon="5.11898">
        <ele>245.75</ele>
        <time>2015-05-25T14:00:45Z</time>
      </trkpt>
      <trkpt lat="43.99214" lon="5.1191">
        <ele>246.23</ele>
        <time>2015-05-25T14:00:53Z</time>
      </trkpt>
      <trkpt lat="43.9924" lon="5.11925">
        <ele>246.72</ele>
        <time>2015-05-25T14:01:02Z</time>
      </trkpt>
      <trkpt lat="43.9925" lon="5.11941">
        <ele>247.68</ele>
        <time>2015-05-25T14:01:07Z</time>
      </trkpt>
      <trkpt lat="43.99247" lon="5.11965">
        <ele>248.64</ele>
        <time>2015-05-25T14:01:13Z</time>
      </trkpt>
      <trkpt lat="43.99236" lon="5.11986">
        <ele>250.56</ele>
        <time>2015-05-25T14:01:20Z</time>
      </trkpt>
      <trkpt lat="43.99223" lon="5.12006">
        <ele>252.48</ele>
        <time>2015-05-25T14:01:28Z</time>
      </trkpt>
      <trkpt lat="43.99213" lon="5.1202">
        <ele>254.41</ele>
        <time>2015-05-25T14:01:35Z</time>
      </trkpt>
      <trkpt lat="43.992" lon="5.12032">
        <ele>255.85</ele>
        <time>2015-05-25T14:01:43Z</time>
      </trkpt>
      <trkpt lat="43.99189" lon="5.12042">
        <ele>257.29</ele>
        <time>2015-05-25T14:01:50Z</time>
      </trkpt>
      <trkpt lat="43.99172" lon="5.12054">
        <ele>259.21</ele>
        <time>2015-05-25T14:01:59Z</time>
      </trkpt>
      <trkpt lat="43.99161" lon="5.12063">
        <ele>260.17</ele>
        <time>2015-05-25T14:02:05Z</time>
      </trkpt>
      <trkpt lat="43.99145" lon="5.12077">
        <ele>262.58</ele>
        <time>2015-05-25T14:02:14Z</time>
      </trkpt>
      <trkpt lat="43.99132" lon="5.12089">
        <ele>264.5</ele>
        <time>2015-05-25T14:02:21Z</time>
      </trkpt>
      <trkpt lat="43.99121" lon="5.12097">
        <ele>265.94</ele>
        <time>2015-05-25T14:02:27Z</time>
      </trkpt>
      <trkpt lat="43.99119" lon="5.12099">
        <ele>265.94</ele>
        <time>2015-05-25T14:02:28Z</time>
      </trkpt>
      <trkpt lat="43.99118" lon="5.121">
        <ele>266.9</ele>
        <time>2015-05-25T14:02:29Z</time>
      </trkpt>
      <trkpt lat="43.99103" lon="5.12112">
        <ele>268.83</ele>
        <time>2015-05-25T14:02:38Z</time>
      </trkpt>
      <trkpt lat="43.99091" lon="5.12122">
        <ele>270.75</ele>
        <time>2015-05-25T14:02:45Z</time>
      </trkpt>
      <trkpt lat="43.99075" lon="5.12134">
        <ele>271.71</ele>
        <time>2015-05-25T14:02:54Z</time>
      </trkpt>
      <trkpt lat="43.99061" lon="5.12145">
        <ele>273.63</ele>
        <time>2015-05-25T14:03:02Z</time>
      </trkpt>
      <trkpt lat="43.9905" lon="5.12154">
        <ele>274.59</ele>
        <time>2015-05-25T14:03:09Z</time>
      </trkpt>
      <trkpt lat="43.99037" lon="5.12164">
        <ele>277</ele>
        <time>2015-05-25T14:03:18Z</time>
      </trkpt>
      <trkpt lat="43.99023" lon="5.1217">
        <ele>278.44</ele>
        <time>2015-05-25T14:03:26Z</time>
      </trkpt>
      <trkpt lat="43.99014" lon="5.12173">
        <ele>279.4</ele>
        <time>2015-05-25T14:03:32Z</time>
      </trkpt>
      <trkpt lat="43.99001" lon="5.12178">
        <ele>280.84</ele>
        <time>2015-05-25T14:03:40Z</time>
      </trkpt>
      <trkpt lat="43.98986" lon="5.12181">
        <ele>282.28</ele>
        <time>2015-05-25T14:03:48Z</time>
      </trkpt>
      <trkpt lat="43.98967" lon="5.12187">
        <ele>283.73</ele>
        <time>2015-05-25T14:03:58Z</time>
      </trkpt>
      <trkpt lat="43.98957" lon="5.12189">
        <ele>285.17</ele>
        <time>2015-05-25T14:04:04Z</time>
      </trkpt>
      <trkpt lat="43.98945" lon="5.12193">
        <ele>286.13</ele>
        <time>2015-05-25T14:04:11Z</time>
      </trkpt>
      <trkpt lat="43.98941" lon="5.12194">
        <ele>287.09</ele>
        <time>2015-05-25T14:04:13Z</time>
      </trkpt>
      <trkpt lat="43.98939" lon="5.12195">
        <ele>287.09</ele>
        <time>2015-05-25T14:04:14Z</time>
      </trkpt>
      <trkpt lat="43.98924" lon="5.12203">
        <ele>288.53</ele>
        <time>2015-05-25T14:04:22Z</time>
      </trkpt>
      <trkpt lat="43.98909" lon="5.12216">
        <ele>289.97</ele>
        <time>2015-05-25T14:04:31Z</time>
      </trkpt>
      <trkpt lat="43.98901" lon="5.12227">
        <ele>290.94</ele>
        <time>2015-05-25T14:04:38Z</time>
      </trkpt>
      <trkpt lat="43.9889" lon="5.12244">
        <ele>292.86</ele>
        <time>2015-05-25T14:04:46Z</time>
      </trkpt>
      <trkpt lat="43.98879" lon="5.12259">
        <ele>293.34</ele>
        <time>2015-05-25T14:04:53Z</time>
      </trkpt>
      <trkpt lat="43.98865" lon="5.12281">
        <ele>294.3</ele>
        <time>2015-05-25T14:05:02Z</time>
      </trkpt>
      <trkpt lat="43.98852" lon="5.123">
        <ele>295.26</ele>
        <time>2015-05-25T14:05:10Z</time>
      </trkpt>
      <trkpt lat="43.98838" lon="5.12321">
        <ele>295.26</ele>
        <time>2015-05-25T14:05:19Z</time>
      </trkpt>
      <trkpt lat="43.98827" lon="5.12338">
        <ele>296.22</ele>
        <time>2015-05-25T14:05:26Z</time>
      </trkpt>
      <trkpt lat="43.98815" lon="5.12355">
        <ele>297.18</ele>
        <time>2015-05-25T14:05:34Z</time>
      </trkpt>
      <trkpt lat="43.98814" lon="5.12355">
        <ele>296.7</ele>
        <time>2015-05-25T14:05:35Z</time>
      </trkpt>
      <trkpt lat="43.98812" lon="5.12354">
        <ele>296.7</ele>
        <time>2015-05-25T14:05:36Z</time>
      </trkpt>
      <trkpt lat="43.98808" lon="5.1235">
        <ele>296.7</ele>
        <time>2015-05-25T14:05:43Z</time>
      </trkpt>
      <trkpt lat="43.98807" lon="5.12349">
        <ele>297.18</ele>
        <time>2015-05-25T14:05:53Z</time>
      </trkpt>
      <trkpt lat="43.98808" lon="5.12349">
        <ele>296.7</ele>
        <time>2015-05-25T14:06:02Z</time>
      </trkpt>
      <trkpt lat="43.98808" lon="5.12349">
        <ele>296.22</ele>
        <time>2015-05-25T14:06:12Z</time>
      </trkpt>
      <trkpt lat="43.98807" lon="5.12346">
        <ele>296.22</ele>
        <time>2015-05-25T14:06:13Z</time>
      </trkpt>
      <trkpt lat="43.98805" lon="5.12343">
        <ele>296.7</ele>
        <time>2015-05-25T14:06:14Z</time>
      </trkpt>
      <trkpt lat="43.98804" lon="5.12339">
        <ele>296.22</ele>
        <time>2015-05-25T14:06:15Z</time>
      </trkpt>
      <trkpt lat="43.98803" lon="5.12335">
        <ele>296.22</ele>
        <time>2015-05-25T14:06:16Z</time>
      </trkpt>
      <trkpt lat="43.98802" lon="5.12332">
        <ele>296.22</ele>
        <time>2015-05-25T14:06:17Z</time>
      </trkpt>
      <trkpt lat="43.98801" lon="5.12328">
        <ele>296.22</ele>
        <time>2015-05-25T14:06:18Z</time>
      </trkpt>
      <trkpt lat="43.98799" lon="5.12324">
        <ele>295.74</ele>
        <time>2015-05-25T14:06:19Z</time>
      </trkpt>
      <trkpt lat="43.98798" lon="5.1232">
        <ele>295.74</ele>
        <time>2015-05-25T14:06:20Z</time>
      </trkpt>
      <trkpt lat="43.98797" lon="5.12316">
        <ele>295.74</ele>
        <time>2015-05-25T14:06:21Z</time>
      </trkpt>
      <trkpt lat="43.98795" lon="5.12312">
        <ele>295.74</ele>
        <time>2015-05-25T14:06:22Z</time>
      </trkpt>
      <trkpt lat="43.98793" lon="5.12308">
        <ele>295.74</ele>
        <time>2015-05-25T14:06:23Z</time>
      </trkpt>
      <trkpt lat="43.98792" lon="5.12304">
        <ele>296.22</ele>
        <time>2015-05-25T14:06:24Z</time>
      </trkpt>
      <trkpt lat="43.98784" lon="5.12273">
        <ele>294.78</ele>
        <time>2015-05-25T14:06:31Z</time>
      </trkpt>
      <trkpt lat="43.98778" lon="5.12251">
        <ele>295.74</ele>
        <time>2015-05-25T14:06:37Z</time>
      </trkpt>
      <trkpt lat="43.98774" lon="5.12226">
        <ele>296.22</ele>
        <time>2015-05-25T14:06:43Z</time>
      </trkpt>
      <trkpt lat="43.98768" lon="5.12199">
        <ele>296.22</ele>
        <time>2015-05-25T14:06:50Z</time>
      </trkpt>
      <trkpt lat="43.98764" lon="5.12179">
        <ele>296.7</ele>
        <time>2015-05-25T14:06:57Z</time>
      </trkpt>
      <trkpt lat="43.98757" lon="5.12155">
        <ele>295.74</ele>
        <time>2015-05-25T14:07:03Z</time>
      </trkpt>
      <trkpt lat="43.98747" lon="5.12123">
        <ele>294.3</ele>
        <time>2015-05-25T14:07:10Z</time>
      </trkpt>
      <trkpt lat="43.98743" lon="5.12112">
        <ele>292.38</ele>
        <time>2015-05-25T14:07:15Z</time>
      </trkpt>
      <trkpt lat="43.98742" lon="5.12107">
        <ele>290.94</ele>
        <time>2015-05-25T14:07:19Z</time>
      </trkpt>
      <trkpt lat="43.98741" lon="5.12105">
        <ele>290.46</ele>
        <time>2015-05-25T14:07:20Z</time>
      </trkpt>
      <trkpt lat="43.9874" lon="5.12102">
        <ele>290.46</ele>
        <time>2015-05-25T14:07:21Z</time>
      </trkpt>
      <trkpt lat="43.98739" lon="5.12099">
        <ele>289.97</ele>
        <time>2015-05-25T14:07:22Z</time>
      </trkpt>
      <trkpt lat="43.98738" lon="5.12096">
        <ele>289.49</ele>
        <time>2015-05-25T14:07:23Z</time>
      </trkpt>
      <trkpt lat="43.98736" lon="5.12095">
        <ele>289.49</ele>
        <time>2015-05-25T14:07:24Z</time>
      </trkpt>
      <trkpt lat="43.98734" lon="5.12094">
        <ele>289.01</ele>
        <time>2015-05-25T14:07:25Z</time>
      </trkpt>
      <trkpt lat="43.98716" lon="5.12098">
        <ele>287.57</ele>
        <time>2015-05-25T14:07:30Z</time>
      </trkpt>
      <trkpt lat="43.98688" lon="5.12106">
        <ele>288.05</ele>
        <time>2015-05-25T14:07:37Z</time>
      </trkpt>
      <trkpt lat="43.98666" lon="5.12104">
        <ele>288.53</ele>
        <time>2015-05-25T14:07:43Z</time>
      </trkpt>
      <trkpt lat="43.98641" lon="5.12104">
        <ele>289.49</ele>
        <time>2015-05-25T14:07:50Z</time>
      </trkpt>
      <trkpt lat="43.98617" lon="5.12125">
        <ele>289.97</ele>
        <time>2015-05-25T14:07:58Z</time>
      </trkpt>
      <trkpt lat="43.98609" lon="5.12144">
        <ele>290.46</ele>
        <time>2015-05-25T14:08:02Z</time>
      </trkpt>
      <trkpt lat="43.98608" lon="5.12149">
        <ele>289.97</ele>
        <time>2015-05-25T14:08:03Z</time>
      </trkpt>
      <trkpt lat="43.98601" lon="5.12179">
        <ele>289.97</ele>
        <time>2015-05-25T14:08:08Z</time>
      </trkpt>
      <trkpt lat="43.986" lon="5.12185">
        <ele>289.97</ele>
        <time>2015-05-25T14:08:09Z</time>
      </trkpt>
      <trkpt lat="43.98597" lon="5.1222">
        <ele>289.97</ele>
        <time>2015-05-25T14:08:16Z</time>
      </trkpt>
      <trkpt lat="43.98593" lon="5.12236">
        <ele>290.94</ele>
        <time>2015-05-25T14:08:20Z</time>
      </trkpt>
      <trkpt lat="43.98592" lon="5.12241">
        <ele>290.94</ele>
        <time>2015-05-25T14:08:21Z</time>
      </trkpt>
      <trkpt lat="43.98591" lon="5.12245">
        <ele>290.94</ele>
        <time>2015-05-25T14:08:22Z</time>
      </trkpt>
      <trkpt lat="43.9859" lon="5.1225">
        <ele>290.94</ele>
        <time>2015-05-25T14:08:23Z</time>
      </trkpt>
      <trkpt lat="43.98587" lon="5.12254">
        <ele>290.94</ele>
        <time>2015-05-25T14:08:24Z</time>
      </trkpt>
      <trkpt lat="43.98585" lon="5.12259">
        <ele>290.46</ele>
        <time>2015-05-25T14:08:25Z</time>
      </trkpt>
      <trkpt lat="43.98583" lon="5.12264">
        <ele>290.46</ele>
        <time>2015-05-25T14:08:26Z</time>
      </trkpt>
      <trkpt lat="43.98581" lon="5.12271">
        <ele>290.46</ele>
        <time>2015-05-25T14:08:27Z</time>
      </trkpt>
      <trkpt lat="43.9858" lon="5.12277">
        <ele>290.46</ele>
        <time>2015-05-25T14:08:28Z</time>
      </trkpt>
      <trkpt lat="43.98579" lon="5.12284">
        <ele>290.46</ele>
        <time>2015-05-25T14:08:29Z</time>
      </trkpt>
      <trkpt lat="43.98578" lon="5.12291">
        <ele>289.97</ele>
        <time>2015-05-25T14:08:30Z</time>
      </trkpt>
      <trkpt lat="43.98577" lon="5.12298">
        <ele>289.97</ele>
        <time>2015-05-25T14:08:31Z</time>
      </trkpt>
      <trkpt lat="43.98576" lon="5.12304">
        <ele>289.97</ele>
        <time>2015-05-25T14:08:32Z</time>
      </trkpt>
      <trkpt lat="43.98575" lon="5.12311">
        <ele>289.97</ele>
        <time>2015-05-25T14:08:33Z</time>
      </trkpt>
      <trkpt lat="43.98573" lon="5.12316">
        <ele>289.97</ele>
        <time>2015-05-25T14:08:34Z</time>
      </trkpt>
      <trkpt lat="43.9857" lon="5.12321">
        <ele>289.97</ele>
        <time>2015-05-25T14:08:35Z</time>
      </trkpt>
      <trkpt lat="43.98568" lon="5.12326">
        <ele>289.97</ele>
        <time>2015-05-25T14:08:36Z</time>
      </trkpt>
      <trkpt lat="43.98565" lon="5.12332">
        <ele>289.97</ele>
        <time>2015-05-25T14:08:37Z</time>
      </trkpt>
      <trkpt lat="43.98563" lon="5.12338">
        <ele>289.97</ele>
        <time>2015-05-25T14:08:38Z</time>
      </trkpt>
      <trkpt lat="43.9856" lon="5.12343">
        <ele>289.97</ele>
        <time>2015-05-25T14:08:39Z</time>
      </trkpt>
      <trkpt lat="43.98556" lon="5.12348">
        <ele>289.97</ele>
        <time>2015-05-25T14:08:40Z</time>
      </trkpt>
      <trkpt lat="43.98552" lon="5.12354">
        <ele>289.97</ele>
        <time>2015-05-25T14:08:41Z</time>
      </trkpt>
      <trkpt lat="43.98538" lon="5.12378">
        <ele>289.97</ele>
        <time>2015-05-25T14:08:45Z</time>
      </trkpt>
      <trkpt lat="43.98536" lon="5.12383">
        <ele>289.97</ele>
        <time>2015-05-25T14:08:46Z</time>
      </trkpt>
      <trkpt lat="43.98535" lon="5.12388">
        <ele>289.97</ele>
        <time>2015-05-25T14:08:47Z</time>
      </trkpt>
      <trkpt lat="43.98533" lon="5.12393">
        <ele>289.97</ele>
        <time>2015-05-25T14:08:48Z</time>
      </trkpt>
      <trkpt lat="43.9853" lon="5.12397">
        <ele>289.97</ele>
        <time>2015-05-25T14:08:49Z</time>
      </trkpt>
      <trkpt lat="43.98527" lon="5.12402">
        <ele>289.97</ele>
        <time>2015-05-25T14:08:50Z</time>
      </trkpt>
      <trkpt lat="43.98524" lon="5.12407">
        <ele>289.49</ele>
        <time>2015-05-25T14:08:51Z</time>
      </trkpt>
      <trkpt lat="43.98523" lon="5.12414">
        <ele>289.49</ele>
        <time>2015-05-25T14:08:52Z</time>
      </trkpt>
      <trkpt lat="43.98524" lon="5.12421">
        <ele>289.01</ele>
        <time>2015-05-25T14:08:53Z</time>
      </trkpt>
      <trkpt lat="43.98526" lon="5.12428">
        <ele>289.01</ele>
        <time>2015-05-25T14:08:54Z</time>
      </trkpt>
      <trkpt lat="43.98531" lon="5.12448">
        <ele>288.53</ele>
        <time>2015-05-25T14:08:57Z</time>
      </trkpt>
      <trkpt lat="43.98533" lon="5.12454">
        <ele>288.05</ele>
        <time>2015-05-25T14:08:58Z</time>
      </trkpt>
      <trkpt lat="43.98541" lon="5.12471">
        <ele>287.57</ele>
        <time>2015-05-25T14:09:01Z</time>
      </trkpt>
      <trkpt lat="43.98544" lon="5.12476">
        <ele>287.57</ele>
        <time>2015-05-25T14:09:02Z</time>
      </trkpt>
      <trkpt lat="43.98546" lon="5.12481">
        <ele>287.57</ele>
        <time>2015-05-25T14:09:03Z</time>
      </trkpt>
      <trkpt lat="43.98547" lon="5.12486">
        <ele>287.57</ele>
        <time>2015-05-25T14:09:04Z</time>
      </trkpt>
      <trkpt lat="43.98547" lon="5.1249">
        <ele>287.09</ele>
        <time>2015-05-25T14:09:05Z</time>
      </trkpt>
      <trkpt lat="43.98545" lon="5.12499">
        <ele>287.09</ele>
        <time>2015-05-25T14:09:08Z</time>
      </trkpt>
      <trkpt lat="43.98543" lon="5.125">
        <ele>286.61</ele>
        <time>2015-05-25T14:09:09Z</time>
      </trkpt>
      <trkpt lat="43.9854" lon="5.12502">
        <ele>286.13</ele>
        <time>2015-05-25T14:09:10Z</time>
      </trkpt>
      <trkpt lat="43.98528" lon="5.12506">
        <ele>284.69</ele>
        <time>2015-05-25T14:09:13Z</time>
      </trkpt>
      <trkpt lat="43.98524" lon="5.12506">
        <ele>284.21</ele>
        <time>2015-05-25T14:09:14Z</time>
      </trkpt>
      <trkpt lat="43.9852" lon="5.12505">
        <ele>283.73</ele>
        <time>2015-05-25T14:09:15Z</time>
      </trkpt>
      <trkpt lat="43.98511" lon="5.12504">
        <ele>283.73</ele>
        <time>2015-05-25T14:09:17Z</time>
      </trkpt>
      <trkpt lat="43.98506" lon="5.12502">
        <ele>283.25</ele>
        <time>2015-05-25T14:09:18Z</time>
      </trkpt>
      <trkpt lat="43.98501" lon="5.12501">
        <ele>283.73</ele>
        <time>2015-05-25T14:09:19Z</time>
      </trkpt>
      <trkpt lat="43.98496" lon="5.12502">
        <ele>283.73</ele>
        <time>2015-05-25T14:09:20Z</time>
      </trkpt>
      <trkpt lat="43.98492" lon="5.12503">
        <ele>283.73</ele>
        <time>2015-05-25T14:09:21Z</time>
      </trkpt>
      <trkpt lat="43.98487" lon="5.12506">
        <ele>283.73</ele>
        <time>2015-05-25T14:09:22Z</time>
      </trkpt>
      <trkpt lat="43.98483" lon="5.12509">
        <ele>283.73</ele>
        <time>2015-05-25T14:09:23Z</time>
      </trkpt>
      <trkpt lat="43.98476" lon="5.12516">
        <ele>284.21</ele>
        <time>2015-05-25T14:09:25Z</time>
      </trkpt>
      <trkpt lat="43.98471" lon="5.12527">
        <ele>283.73</ele>
        <time>2015-05-25T14:09:27Z</time>
      </trkpt>
      <trkpt lat="43.98471" lon="5.12533">
        <ele>283.73</ele>
        <time>2015-05-25T14:09:28Z</time>
      </trkpt>
      <trkpt lat="43.9847" lon="5.12539">
        <ele>283.73</ele>
        <time>2015-05-25T14:09:29Z</time>
      </trkpt>
      <trkpt lat="43.98469" lon="5.12544">
        <ele>283.25</ele>
        <time>2015-05-25T14:09:30Z</time>
      </trkpt>
      <trkpt lat="43.98468" lon="5.12547">
        <ele>283.25</ele>
        <time>2015-05-25T14:09:31Z</time>
      </trkpt>
      <trkpt lat="43.98459" lon="5.12568">
        <ele>281.8</ele>
        <time>2015-05-25T14:09:35Z</time>
      </trkpt>
      <trkpt lat="43.98457" lon="5.12574">
        <ele>281.32</ele>
        <time>2015-05-25T14:09:36Z</time>
      </trkpt>
      <trkpt lat="43.98451" lon="5.12597">
        <ele>279.88</ele>
        <time>2015-05-25T14:09:41Z</time>
      </trkpt>
      <trkpt lat="43.98448" lon="5.12602">
        <ele>279.4</ele>
        <time>2015-05-25T14:09:42Z</time>
      </trkpt>
      <trkpt lat="43.98445" lon="5.12607">
        <ele>278.92</ele>
        <time>2015-05-25T14:09:43Z</time>
      </trkpt>
      <trkpt lat="43.98444" lon="5.12612">
        <ele>278.44</ele>
        <time>2015-05-25T14:09:44Z</time>
      </trkpt>
      <trkpt lat="43.98443" lon="5.12619">
        <ele>277.96</ele>
        <time>2015-05-25T14:09:45Z</time>
      </trkpt>
      <trkpt lat="43.98442" lon="5.12625">
        <ele>277.48</ele>
        <time>2015-05-25T14:09:46Z</time>
      </trkpt>
      <trkpt lat="43.98441" lon="5.12631">
        <ele>277</ele>
        <time>2015-05-25T14:09:47Z</time>
      </trkpt>
      <trkpt lat="43.98439" lon="5.12638">
        <ele>276.52</ele>
        <time>2015-05-25T14:09:48Z</time>
      </trkpt>
      <trkpt lat="43.98437" lon="5.12643">
        <ele>276.52</ele>
        <time>2015-05-25T14:09:49Z</time>
      </trkpt>
      <trkpt lat="43.98433" lon="5.12647">
        <ele>276.52</ele>
        <time>2015-05-25T14:09:50Z</time>
      </trkpt>
      <trkpt lat="43.9843" lon="5.1265">
        <ele>276.52</ele>
        <time>2015-05-25T14:09:51Z</time>
      </trkpt>
      <trkpt lat="43.98426" lon="5.12653">
        <ele>276.04</ele>
        <time>2015-05-25T14:09:52Z</time>
      </trkpt>
      <trkpt lat="43.98424" lon="5.12658">
        <ele>276.04</ele>
        <time>2015-05-25T14:09:53Z</time>
      </trkpt>
      <trkpt lat="43.98422" lon="5.12663">
        <ele>276.04</ele>
        <time>2015-05-25T14:09:54Z</time>
      </trkpt>
      <trkpt lat="43.9842" lon="5.12668">
        <ele>276.04</ele>
        <time>2015-05-25T14:09:55Z</time>
      </trkpt>
      <trkpt lat="43.98418" lon="5.12674">
        <ele>276.04</ele>
        <time>2015-05-25T14:09:56Z</time>
      </trkpt>
      <trkpt lat="43.98416" lon="5.1268">
        <ele>275.56</ele>
        <time>2015-05-25T14:09:57Z</time>
      </trkpt>
      <trkpt lat="43.98415" lon="5.12686">
        <ele>275.56</ele>
        <time>2015-05-25T14:09:58Z</time>
      </trkpt>
      <trkpt lat="43.98414" lon="5.12692">
        <ele>276.04</ele>
        <time>2015-05-25T14:09:59Z</time>
      </trkpt>
      <trkpt lat="43.98413" lon="5.12698">
        <ele>275.56</ele>
        <time>2015-05-25T14:10:00Z</time>
      </trkpt>
      <trkpt lat="43.98412" lon="5.12704">
        <ele>275.56</ele>
        <time>2015-05-25T14:10:01Z</time>
      </trkpt>
      <trkpt lat="43.98412" lon="5.1271">
        <ele>275.07</ele>
        <time>2015-05-25T14:10:02Z</time>
      </trkpt>
      <trkpt lat="43.98411" lon="5.12716">
        <ele>275.07</ele>
        <time>2015-05-25T14:10:03Z</time>
      </trkpt>
      <trkpt lat="43.9841" lon="5.12722">
        <ele>275.07</ele>
        <time>2015-05-25T14:10:04Z</time>
      </trkpt>
      <trkpt lat="43.98411" lon="5.12727">
        <ele>275.07</ele>
        <time>2015-05-25T14:10:05Z</time>
      </trkpt>
      <trkpt lat="43.98413" lon="5.12733">
        <ele>274.59</ele>
        <time>2015-05-25T14:10:06Z</time>
      </trkpt>
      <trkpt lat="43.98416" lon="5.12738">
        <ele>274.59</ele>
        <time>2015-05-25T14:10:07Z</time>
      </trkpt>
      <trkpt lat="43.98418" lon="5.12743">
        <ele>274.11</ele>
        <time>2015-05-25T14:10:08Z</time>
      </trkpt>
      <trkpt lat="43.98421" lon="5.12748">
        <ele>273.63</ele>
        <time>2015-05-25T14:10:09Z</time>
      </trkpt>
      <trkpt lat="43.98424" lon="5.12753">
        <ele>273.63</ele>
        <time>2015-05-25T14:10:10Z</time>
      </trkpt>
      <trkpt lat="43.98427" lon="5.12758">
        <ele>273.15</ele>
        <time>2015-05-25T14:10:11Z</time>
      </trkpt>
      <trkpt lat="43.9843" lon="5.12763">
        <ele>273.15</ele>
        <time>2015-05-25T14:10:12Z</time>
      </trkpt>
      <trkpt lat="43.98433" lon="5.12767">
        <ele>273.15</ele>
        <time>2015-05-25T14:10:13Z</time>
      </trkpt>
      <trkpt lat="43.98437" lon="5.12772">
        <ele>273.63</ele>
        <time>2015-05-25T14:10:14Z</time>
      </trkpt>
      <trkpt lat="43.98439" lon="5.12777">
        <ele>273.15</ele>
        <time>2015-05-25T14:10:15Z</time>
      </trkpt>
      <trkpt lat="43.98441" lon="5.12783">
        <ele>273.15</ele>
        <time>2015-05-25T14:10:16Z</time>
      </trkpt>
      <trkpt lat="43.98442" lon="5.12789">
        <ele>272.67</ele>
        <time>2015-05-25T14:10:17Z</time>
      </trkpt>
      <trkpt lat="43.98444" lon="5.12794">
        <ele>272.67</ele>
        <time>2015-05-25T14:10:18Z</time>
      </trkpt>
      <trkpt lat="43.98447" lon="5.128">
        <ele>272.67</ele>
        <time>2015-05-25T14:10:19Z</time>
      </trkpt>
      <trkpt lat="43.98447" lon="5.12806">
        <ele>272.67</ele>
        <time>2015-05-25T14:10:20Z</time>
      </trkpt>
      <trkpt lat="43.98446" lon="5.12811">
        <ele>272.67</ele>
        <time>2015-05-25T14:10:21Z</time>
      </trkpt>
      <trkpt lat="43.98444" lon="5.12815">
        <ele>273.15</ele>
        <time>2015-05-25T14:10:22Z</time>
      </trkpt>
      <trkpt lat="43.98442" lon="5.1282">
        <ele>273.15</ele>
        <time>2015-05-25T14:10:23Z</time>
      </trkpt>
      <trkpt lat="43.98438" lon="5.12822">
        <ele>273.15</ele>
        <time>2015-05-25T14:10:24Z</time>
      </trkpt>
      <trkpt lat="43.98434" lon="5.12824">
        <ele>273.15</ele>
        <time>2015-05-25T14:10:25Z</time>
      </trkpt>
      <trkpt lat="43.98429" lon="5.12826">
        <ele>273.15</ele>
        <time>2015-05-25T14:10:26Z</time>
      </trkpt>
      <trkpt lat="43.98424" lon="5.12828">
        <ele>273.15</ele>
        <time>2015-05-25T14:10:27Z</time>
      </trkpt>
      <trkpt lat="43.98415" lon="5.12834">
        <ele>273.63</ele>
        <time>2015-05-25T14:10:29Z</time>
      </trkpt>
      <trkpt lat="43.98412" lon="5.12838">
        <ele>273.15</ele>
        <time>2015-05-25T14:10:30Z</time>
      </trkpt>
      <trkpt lat="43.98409" lon="5.12844">
        <ele>273.63</ele>
        <time>2015-05-25T14:10:31Z</time>
      </trkpt>
      <trkpt lat="43.98407" lon="5.12849">
        <ele>273.63</ele>
        <time>2015-05-25T14:10:32Z</time>
      </trkpt>
      <trkpt lat="43.98405" lon="5.12854">
        <ele>274.11</ele>
        <time>2015-05-25T14:10:33Z</time>
      </trkpt>
      <trkpt lat="43.98403" lon="5.12859">
        <ele>274.11</ele>
        <time>2015-05-25T14:10:34Z</time>
      </trkpt>
      <trkpt lat="43.98395" lon="5.12872">
        <ele>273.63</ele>
        <time>2015-05-25T14:10:38Z</time>
      </trkpt>
      <trkpt lat="43.98392" lon="5.12877">
        <ele>273.63</ele>
        <time>2015-05-25T14:10:43Z</time>
      </trkpt>
      <trkpt lat="43.98386" lon="5.12881">
        <ele>273.63</ele>
        <time>2015-05-25T14:10:48Z</time>
      </trkpt>
      <trkpt lat="43.98383" lon="5.12882">
        <ele>273.15</ele>
        <time>2015-05-25T14:10:49Z</time>
      </trkpt>
      <trkpt lat="43.98369" lon="5.12881">
        <ele>272.67</ele>
        <time>2015-05-25T14:10:53Z</time>
      </trkpt>
      <trkpt lat="43.98365" lon="5.12884">
        <ele>272.67</ele>
        <time>2015-05-25T14:10:54Z</time>
      </trkpt>
      <trkpt lat="43.98361" lon="5.12886">
        <ele>272.67</ele>
        <time>2015-05-25T14:10:55Z</time>
      </trkpt>
      <trkpt lat="43.98358" lon="5.12887">
        <ele>272.67</ele>
        <time>2015-05-25T14:10:56Z</time>
      </trkpt>
      <trkpt lat="43.98354" lon="5.12889">
        <ele>273.15</ele>
        <time>2015-05-25T14:10:59Z</time>
      </trkpt>
      <trkpt lat="43.98353" lon="5.1289">
        <ele>273.15</ele>
        <time>2015-05-25T14:11:00Z</time>
      </trkpt>
      <trkpt lat="43.98351" lon="5.12892">
        <ele>273.15</ele>
        <time>2015-05-25T14:11:01Z</time>
      </trkpt>
      <trkpt lat="43.98349" lon="5.12895">
        <ele>273.15</ele>
        <time>2015-05-25T14:11:06Z</time>
      </trkpt>
      <trkpt lat="43.98347" lon="5.12895">
        <ele>273.63</ele>
        <time>2015-05-25T14:11:14Z</time>
      </trkpt>
      <trkpt lat="43.98347" lon="5.12894">
        <ele>273.15</ele>
        <time>2015-05-25T14:11:19Z</time>
      </trkpt>
      <trkpt lat="43.98347" lon="5.12894">
        <ele>273.15</ele>
        <time>2015-05-25T14:11:32Z</time>
      </trkpt>
      <trkpt lat="43.98347" lon="5.12894">
        <ele>273.63</ele>
        <time>2015-05-25T14:11:44Z</time>
      </trkpt>
      <trkpt lat="43.98348" lon="5.12894">
        <ele>273.15</ele>
        <time>2015-05-25T14:12:02Z</time>
      </trkpt>
      <trkpt lat="43.98348" lon="5.12893">
        <ele>272.19</ele>
        <time>2015-05-25T14:12:20Z</time>
      </trkpt>
      <trkpt lat="43.98348" lon="5.12893">
        <ele>272.19</ele>
        <time>2015-05-25T14:12:36Z</time>
      </trkpt>
      <trkpt lat="43.98348" lon="5.12893">
        <ele>272.67</ele>
        <time>2015-05-25T14:12:46Z</time>
      </trkpt>
      <trkpt lat="43.98349" lon="5.12896">
        <ele>272.67</ele>
        <time>2015-05-25T14:12:55Z</time>
      </trkpt>
      <trkpt lat="43.98348" lon="5.12896">
        <ele>272.19</ele>
        <time>2015-05-25T14:13:11Z</time>
      </trkpt>
      <trkpt lat="43.98347" lon="5.12898">
        <ele>272.67</ele>
        <time>2015-05-25T14:13:18Z</time>
      </trkpt>
      <trkpt lat="43.98343" lon="5.12905">
        <ele>273.15</ele>
        <time>2015-05-25T14:13:23Z</time>
      </trkpt>
      <trkpt lat="43.98342" lon="5.12909">
        <ele>273.15</ele>
        <time>2015-05-25T14:13:24Z</time>
      </trkpt>
      <trkpt lat="43.98341" lon="5.12912">
        <ele>273.15</ele>
        <time>2015-05-25T14:13:25Z</time>
      </trkpt>
      <trkpt lat="43.98341" lon="5.12922">
        <ele>274.11</ele>
        <time>2015-05-25T14:13:28Z</time>
      </trkpt>
      <trkpt lat="43.98342" lon="5.12924">
        <ele>274.11</ele>
        <time>2015-05-25T14:13:29Z</time>
      </trkpt>
      <trkpt lat="43.9835" lon="5.12927">
        <ele>274.59</ele>
        <time>2015-05-25T14:13:34Z</time>
      </trkpt>
      <trkpt lat="43.98353" lon="5.12928">
        <ele>275.07</ele>
        <time>2015-05-25T14:13:39Z</time>
      </trkpt>
      <trkpt lat="43.98353" lon="5.1293">
        <ele>275.56</ele>
        <time>2015-05-25T14:13:40Z</time>
      </trkpt>
      <trkpt lat="43.9835" lon="5.1294">
        <ele>276.04</ele>
        <time>2015-05-25T14:13:44Z</time>
      </trkpt>
      <trkpt lat="43.9834" lon="5.12966">
        <ele>277</ele>
        <time>2015-05-25T14:13:53Z</time>
      </trkpt>
      <trkpt lat="43.98337" lon="5.12984">
        <ele>277.48</ele>
        <time>2015-05-25T14:13:59Z</time>
      </trkpt>
      <trkpt lat="43.98334" lon="5.1299">
        <ele>277.48</ele>
        <time>2015-05-25T14:14:01Z</time>
      </trkpt>
      <trkpt lat="43.98319" lon="5.13003">
        <ele>278.44</ele>
        <time>2015-05-25T14:14:07Z</time>
      </trkpt>
      <trkpt lat="43.98314" lon="5.1301">
        <ele>279.4</ele>
        <time>2015-05-25T14:14:10Z</time>
      </trkpt>
      <trkpt lat="43.98306" lon="5.1302">
        <ele>279.88</ele>
        <time>2015-05-25T14:14:14Z</time>
      </trkpt>
      <trkpt lat="43.98299" lon="5.13032">
        <ele>280.84</ele>
        <time>2015-05-25T14:14:18Z</time>
      </trkpt>
      <trkpt lat="43.98287" lon="5.1305">
        <ele>280.84</ele>
        <time>2015-05-25T14:14:24Z</time>
      </trkpt>
      <trkpt lat="43.9828" lon="5.13067">
        <ele>281.32</ele>
        <time>2015-05-25T14:14:28Z</time>
      </trkpt>
      <trkpt lat="43.98269" lon="5.13084">
        <ele>281.32</ele>
        <time>2015-05-25T14:14:33Z</time>
      </trkpt>
      <trkpt lat="43.98266" lon="5.13087">
        <ele>281.32</ele>
        <time>2015-05-25T14:14:34Z</time>
      </trkpt>
      <trkpt lat="43.98251" lon="5.13108">
        <ele>281.8</ele>
        <time>2015-05-25T14:14:40Z</time>
      </trkpt>
      <trkpt lat="43.98243" lon="5.13119">
        <ele>282.28</ele>
        <time>2015-05-25T14:14:43Z</time>
      </trkpt>
      <trkpt lat="43.98239" lon="5.13122">
        <ele>282.28</ele>
        <time>2015-05-25T14:14:44Z</time>
      </trkpt>
      <trkpt lat="43.98236" lon="5.13126">
        <ele>282.28</ele>
        <time>2015-05-25T14:14:45Z</time>
      </trkpt>
      <trkpt lat="43.98233" lon="5.1313">
        <ele>282.28</ele>
        <time>2015-05-25T14:14:46Z</time>
      </trkpt>
      <trkpt lat="43.98231" lon="5.13135">
        <ele>282.28</ele>
        <time>2015-05-25T14:14:47Z</time>
      </trkpt>
      <trkpt lat="43.98226" lon="5.13156">
        <ele>283.25</ele>
        <time>2015-05-25T14:14:52Z</time>
      </trkpt>
      <trkpt lat="43.98225" lon="5.13161">
        <ele>284.21</ele>
        <time>2015-05-25T14:14:54Z</time>
      </trkpt>
      <trkpt lat="43.98224" lon="5.13164">
        <ele>284.69</ele>
        <time>2015-05-25T14:14:55Z</time>
      </trkpt>
      <trkpt lat="43.98223" lon="5.13166">
        <ele>284.69</ele>
        <time>2015-05-25T14:14:56Z</time>
      </trkpt>
      <trkpt lat="43.98221" lon="5.13167">
        <ele>285.17</ele>
        <time>2015-05-25T14:14:57Z</time>
      </trkpt>
      <trkpt lat="43.98219" lon="5.13167">
        <ele>284.69</ele>
        <time>2015-05-25T14:14:58Z</time>
      </trkpt>
      <trkpt lat="43.98216" lon="5.13169">
        <ele>284.69</ele>
        <time>2015-05-25T14:14:59Z</time>
      </trkpt>
      <trkpt lat="43.98214" lon="5.13173">
        <ele>284.69</ele>
        <time>2015-05-25T14:15:00Z</time>
      </trkpt>
      <trkpt lat="43.98212" lon="5.13176">
        <ele>284.69</ele>
        <time>2015-05-25T14:15:01Z</time>
      </trkpt>
      <trkpt lat="43.98209" lon="5.1318">
        <ele>284.69</ele>
        <time>2015-05-25T14:15:02Z</time>
      </trkpt>
      <trkpt lat="43.98193" lon="5.13207">
        <ele>284.69</ele>
        <time>2015-05-25T14:15:09Z</time>
      </trkpt>
      <trkpt lat="43.98186" lon="5.13225">
        <ele>285.17</ele>
        <time>2015-05-25T14:15:14Z</time>
      </trkpt>
      <trkpt lat="43.98185" lon="5.13229">
        <ele>284.69</ele>
        <time>2015-05-25T14:15:15Z</time>
      </trkpt>
      <trkpt lat="43.98181" lon="5.13237">
        <ele>284.69</ele>
        <time>2015-05-25T14:15:17Z</time>
      </trkpt>
      <trkpt lat="43.98178" lon="5.1324">
        <ele>284.21</ele>
        <time>2015-05-25T14:15:18Z</time>
      </trkpt>
      <trkpt lat="43.98167" lon="5.13256">
        <ele>285.17</ele>
        <time>2015-05-25T14:15:24Z</time>
      </trkpt>
      <trkpt lat="43.98163" lon="5.13259">
        <ele>284.69</ele>
        <time>2015-05-25T14:15:29Z</time>
      </trkpt>
      <trkpt lat="43.98144" lon="5.13267">
        <ele>282.77</ele>
        <time>2015-05-25T14:15:34Z</time>
      </trkpt>
      <trkpt lat="43.98139" lon="5.13268">
        <ele>282.28</ele>
        <time>2015-05-25T14:15:35Z</time>
      </trkpt>
      <trkpt lat="43.98134" lon="5.1327">
        <ele>281.8</ele>
        <time>2015-05-25T14:15:36Z</time>
      </trkpt>
      <trkpt lat="43.98129" lon="5.13273">
        <ele>281.32</ele>
        <time>2015-05-25T14:15:37Z</time>
      </trkpt>
      <trkpt lat="43.98125" lon="5.13274">
        <ele>281.32</ele>
        <time>2015-05-25T14:15:38Z</time>
      </trkpt>
      <trkpt lat="43.98122" lon="5.13274">
        <ele>280.84</ele>
        <time>2015-05-25T14:15:39Z</time>
      </trkpt>
      <trkpt lat="43.98121" lon="5.13272">
        <ele>280.84</ele>
        <time>2015-05-25T14:15:40Z</time>
      </trkpt>
      <trkpt lat="43.98119" lon="5.1327">
        <ele>280.36</ele>
        <time>2015-05-25T14:15:41Z</time>
      </trkpt>
      <trkpt lat="43.98116" lon="5.13269">
        <ele>279.88</ele>
        <time>2015-05-25T14:15:42Z</time>
      </trkpt>
      <trkpt lat="43.98112" lon="5.13269">
        <ele>279.4</ele>
        <time>2015-05-25T14:15:43Z</time>
      </trkpt>
      <trkpt lat="43.9811" lon="5.13269">
        <ele>279.4</ele>
        <time>2015-05-25T14:15:44Z</time>
      </trkpt>
      <trkpt lat="43.98108" lon="5.1327">
        <ele>278.92</ele>
        <time>2015-05-25T14:15:45Z</time>
      </trkpt>
      <trkpt lat="43.98106" lon="5.13271">
        <ele>278.92</ele>
        <time>2015-05-25T14:15:46Z</time>
      </trkpt>
      <trkpt lat="43.981" lon="5.13274">
        <ele>277.48</ele>
        <time>2015-05-25T14:15:49Z</time>
      </trkpt>
      <trkpt lat="43.98099" lon="5.13276">
        <ele>277</ele>
        <time>2015-05-25T14:15:55Z</time>
      </trkpt>
      <trkpt lat="43.98098" lon="5.13278">
        <ele>276.52</ele>
        <time>2015-05-25T14:15:56Z</time>
      </trkpt>
      <trkpt lat="43.98096" lon="5.13281">
        <ele>276.04</ele>
        <time>2015-05-25T14:15:57Z</time>
      </trkpt>
      <trkpt lat="43.98093" lon="5.13284">
        <ele>275.56</ele>
        <time>2015-05-25T14:15:58Z</time>
      </trkpt>
      <trkpt lat="43.9809" lon="5.13286">
        <ele>275.07</ele>
        <time>2015-05-25T14:15:59Z</time>
      </trkpt>
      <trkpt lat="43.98087" lon="5.13288">
        <ele>274.59</ele>
        <time>2015-05-25T14:16:00Z</time>
      </trkpt>
      <trkpt lat="43.98072" lon="5.13297">
        <ele>273.15</ele>
        <time>2015-05-25T14:16:04Z</time>
      </trkpt>
      <trkpt lat="43.98067" lon="5.13299">
        <ele>272.19</ele>
        <time>2015-05-25T14:16:05Z</time>
      </trkpt>
      <trkpt lat="43.98057" lon="5.13302">
        <ele>271.71</ele>
        <time>2015-05-25T14:16:07Z</time>
      </trkpt>
      <trkpt lat="43.98053" lon="5.13301">
        <ele>271.71</ele>
        <time>2015-05-25T14:16:08Z</time>
      </trkpt>
      <trkpt lat="43.98047" lon="5.13298">
        <ele>271.71</ele>
        <time>2015-05-25T14:16:10Z</time>
      </trkpt>
      <trkpt lat="43.98046" lon="5.13296">
        <ele>272.19</ele>
        <time>2015-05-25T14:16:11Z</time>
      </trkpt>
      <trkpt lat="43.98045" lon="5.13295">
        <ele>272.67</ele>
        <time>2015-05-25T14:16:12Z</time>
      </trkpt>
      <trkpt lat="43.98044" lon="5.13295">
        <ele>272.67</ele>
        <time>2015-05-25T14:16:13Z</time>
      </trkpt>
      <trkpt lat="43.98043" lon="5.13295">
        <ele>273.15</ele>
        <time>2015-05-25T14:16:14Z</time>
      </trkpt>
      <trkpt lat="43.98041" lon="5.13294">
        <ele>273.15</ele>
        <time>2015-05-25T14:16:20Z</time>
      </trkpt>
      <trkpt lat="43.98039" lon="5.13296">
        <ele>273.63</ele>
        <time>2015-05-25T14:16:24Z</time>
      </trkpt>
      <trkpt lat="43.98039" lon="5.13297">
        <ele>274.11</ele>
        <time>2015-05-25T14:16:28Z</time>
      </trkpt>
      <trkpt lat="43.98039" lon="5.13297">
        <ele>274.11</ele>
        <time>2015-05-25T14:16:35Z</time>
      </trkpt>
      <trkpt lat="43.98038" lon="5.13299">
        <ele>274.11</ele>
        <time>2015-05-25T14:16:41Z</time>
      </trkpt>
      <trkpt lat="43.98037" lon="5.133">
        <ele>274.11</ele>
        <time>2015-05-25T14:16:44Z</time>
      </trkpt>
      <trkpt lat="43.98036" lon="5.13301">
        <ele>274.59</ele>
        <time>2015-05-25T14:16:45Z</time>
      </trkpt>
      <trkpt lat="43.98035" lon="5.13302">
        <ele>274.59</ele>
        <time>2015-05-25T14:16:46Z</time>
      </trkpt>
      <trkpt lat="43.98033" lon="5.13302">
        <ele>275.07</ele>
        <time>2015-05-25T14:16:47Z</time>
      </trkpt>
      <trkpt lat="43.98032" lon="5.13302">
        <ele>275.07</ele>
        <time>2015-05-25T14:16:48Z</time>
      </trkpt>
      <trkpt lat="43.98031" lon="5.13302">
        <ele>275.56</ele>
        <time>2015-05-25T14:16:49Z</time>
      </trkpt>
      <trkpt lat="43.9803" lon="5.13302">
        <ele>276.04</ele>
        <time>2015-05-25T14:16:50Z</time>
      </trkpt>
      <trkpt lat="43.98027" lon="5.13305">
        <ele>276.52</ele>
        <time>2015-05-25T14:16:56Z</time>
      </trkpt>
      <trkpt lat="43.98024" lon="5.13306">
        <ele>277</ele>
        <time>2015-05-25T14:16:59Z</time>
      </trkpt>
      <trkpt lat="43.9802" lon="5.13311">
        <ele>277.96</ele>
        <time>2015-05-25T14:17:06Z</time>
      </trkpt>
      <trkpt lat="43.98017" lon="5.13315">
        <ele>278.44</ele>
        <time>2015-05-25T14:17:14Z</time>
      </trkpt>
      <trkpt lat="43.98013" lon="5.1332">
        <ele>280.36</ele>
        <time>2015-05-25T14:17:21Z</time>
      </trkpt>
      <trkpt lat="43.98005" lon="5.13326">
        <ele>281.8</ele>
        <time>2015-05-25T14:17:28Z</time>
      </trkpt>
      <trkpt lat="43.98" lon="5.13328">
        <ele>282.77</ele>
        <time>2015-05-25T14:17:35Z</time>
      </trkpt>
      <trkpt lat="43.97993" lon="5.13334">
        <ele>284.21</ele>
        <time>2015-05-25T14:17:43Z</time>
      </trkpt>
      <trkpt lat="43.97988" lon="5.13335">
        <ele>285.17</ele>
        <time>2015-05-25T14:17:49Z</time>
      </trkpt>
      <trkpt lat="43.97982" lon="5.13336">
        <ele>286.61</ele>
        <time>2015-05-25T14:17:56Z</time>
      </trkpt>
      <trkpt lat="43.97977" lon="5.13336">
        <ele>288.53</ele>
        <time>2015-05-25T14:18:02Z</time>
      </trkpt>
      <trkpt lat="43.97976" lon="5.13337">
        <ele>289.01</ele>
        <time>2015-05-25T14:18:04Z</time>
      </trkpt>
      <trkpt lat="43.97971" lon="5.13338">
        <ele>289.97</ele>
        <time>2015-05-25T14:18:10Z</time>
      </trkpt>
      <trkpt lat="43.97968" lon="5.13339">
        <ele>290.94</ele>
        <time>2015-05-25T14:18:16Z</time>
      </trkpt>
      <trkpt lat="43.97963" lon="5.13338">
        <ele>292.38</ele>
        <time>2015-05-25T14:18:23Z</time>
      </trkpt>
      <trkpt lat="43.97962" lon="5.13339">
        <ele>292.38</ele>
        <time>2015-05-25T14:18:30Z</time>
      </trkpt>
      <trkpt lat="43.97957" lon="5.13338">
        <ele>293.34</ele>
        <time>2015-05-25T14:18:36Z</time>
      </trkpt>
      <trkpt lat="43.97952" lon="5.13337">
        <ele>294.3</ele>
        <time>2015-05-25T14:18:42Z</time>
      </trkpt>
      <trkpt lat="43.97946" lon="5.13335">
        <ele>296.7</ele>
        <time>2015-05-25T14:18:49Z</time>
      </trkpt>
      <trkpt lat="43.97942" lon="5.13336">
        <ele>296.7</ele>
        <time>2015-05-25T14:18:55Z</time>
      </trkpt>
      <trkpt lat="43.9794" lon="5.13337">
        <ele>297.18</ele>
        <time>2015-05-25T14:18:57Z</time>
      </trkpt>
      <trkpt lat="43.97934" lon="5.13333">
        <ele>298.63</ele>
        <time>2015-05-25T14:19:04Z</time>
      </trkpt>
      <trkpt lat="43.97933" lon="5.13331">
        <ele>299.11</ele>
        <time>2015-05-25T14:19:10Z</time>
      </trkpt>
      <trkpt lat="43.97933" lon="5.13331">
        <ele>298.63</ele>
        <time>2015-05-25T14:19:18Z</time>
      </trkpt>
      <trkpt lat="43.97933" lon="5.13331">
        <ele>299.11</ele>
        <time>2015-05-25T14:19:32Z</time>
      </trkpt>
      <trkpt lat="43.97933" lon="5.13332">
        <ele>299.11</ele>
        <time>2015-05-25T14:19:45Z</time>
      </trkpt>
      <trkpt lat="43.97933" lon="5.13332">
        <ele>299.11</ele>
        <time>2015-05-25T14:20:01Z</time>
      </trkpt>
      <trkpt lat="43.97933" lon="5.13332">
        <ele>299.11</ele>
        <time>2015-05-25T14:20:19Z</time>
      </trkpt>
      <trkpt lat="43.97933" lon="5.13332">
        <ele>298.63</ele>
        <time>2015-05-25T14:20:35Z</time>
      </trkpt>
      <trkpt lat="43.97933" lon="5.13332">
        <ele>299.11</ele>
        <time>2015-05-25T14:20:54Z</time>
      </trkpt>
      <trkpt lat="43.97933" lon="5.13331">
        <ele>298.63</ele>
        <time>2015-05-25T14:21:09Z</time>
      </trkpt>
      <trkpt lat="43.97933" lon="5.13331">
        <ele>298.63</ele>
        <time>2015-05-25T14:21:24Z</time>
      </trkpt>
      <trkpt lat="43.97933" lon="5.13331">
        <ele>298.63</ele>
        <time>2015-05-25T14:21:39Z</time>
      </trkpt>
      <trkpt lat="43.97933" lon="5.1333">
        <ele>299.59</ele>
        <time>2015-05-25T14:21:53Z</time>
      </trkpt>
      <trkpt lat="43.97933" lon="5.1333">
        <ele>299.59</ele>
        <time>2015-05-25T14:22:05Z</time>
      </trkpt>
      <trkpt lat="43.97929" lon="5.13328">
        <ele>299.59</ele>
        <time>2015-05-25T14:22:12Z</time>
      </trkpt>
      <trkpt lat="43.97927" lon="5.13327">
        <ele>299.59</ele>
        <time>2015-05-25T14:22:14Z</time>
      </trkpt>
      <trkpt lat="43.97926" lon="5.13325">
        <ele>299.59</ele>
        <time>2015-05-25T14:22:15Z</time>
      </trkpt>
      <trkpt lat="43.97923" lon="5.13319">
        <ele>301.03</ele>
        <time>2015-05-25T14:22:18Z</time>
      </trkpt>
      <trkpt lat="43.97923" lon="5.13317">
        <ele>301.03</ele>
        <time>2015-05-25T14:22:19Z</time>
      </trkpt>
      <trkpt lat="43.97922" lon="5.13315">
        <ele>301.51</ele>
        <time>2015-05-25T14:22:20Z</time>
      </trkpt>
      <trkpt lat="43.97921" lon="5.13314">
        <ele>301.99</ele>
        <time>2015-05-25T14:22:22Z</time>
      </trkpt>
      <trkpt lat="43.97919" lon="5.13313">
        <ele>301.99</ele>
        <time>2015-05-25T14:22:24Z</time>
      </trkpt>
      <trkpt lat="43.97918" lon="5.13313">
        <ele>301.99</ele>
        <time>2015-05-25T14:22:30Z</time>
      </trkpt>
      <trkpt lat="43.97917" lon="5.13313">
        <ele>301.51</ele>
        <time>2015-05-25T14:22:44Z</time>
      </trkpt>
      <trkpt lat="43.97917" lon="5.13314">
        <ele>301.99</ele>
        <time>2015-05-25T14:22:51Z</time>
      </trkpt>
      <trkpt lat="43.97917" lon="5.13315">
        <ele>301.51</ele>
        <time>2015-05-25T14:23:06Z</time>
      </trkpt>
      <trkpt lat="43.97918" lon="5.13315">
        <ele>301.51</ele>
        <time>2015-05-25T14:23:22Z</time>
      </trkpt>
      <trkpt lat="43.97918" lon="5.13316">
        <ele>301.51</ele>
        <time>2015-05-25T14:23:36Z</time>
      </trkpt>
      <trkpt lat="43.97918" lon="5.13316">
        <ele>302.47</ele>
        <time>2015-05-25T14:23:55Z</time>
      </trkpt>
      <trkpt lat="43.97918" lon="5.13316">
        <ele>302.47</ele>
        <time>2015-05-25T14:24:11Z</time>
      </trkpt>
      <trkpt lat="43.97918" lon="5.13316">
        <ele>301.51</ele>
        <time>2015-05-25T14:24:27Z</time>
      </trkpt>
      <trkpt lat="43.97918" lon="5.13316">
        <ele>302.47</ele>
        <time>2015-05-25T14:24:47Z</time>
      </trkpt>
      <trkpt lat="43.97918" lon="5.13316">
        <ele>301.99</ele>
        <time>2015-05-25T14:25:03Z</time>
      </trkpt>
      <trkpt lat="43.97918" lon="5.13317">
        <ele>301.99</ele>
        <time>2015-05-25T14:25:11Z</time>
      </trkpt>
      <trkpt lat="43.97918" lon="5.13319">
        <ele>301.51</ele>
        <time>2015-05-25T14:25:12Z</time>
      </trkpt>
      <trkpt lat="43.97919" lon="5.13321">
        <ele>301.99</ele>
        <time>2015-05-25T14:25:13Z</time>
      </trkpt>
      <trkpt lat="43.9792" lon="5.13323">
        <ele>301.99</ele>
        <time>2015-05-25T14:25:14Z</time>
      </trkpt>
      <trkpt lat="43.97921" lon="5.13325">
        <ele>301.99</ele>
        <time>2015-05-25T14:25:15Z</time>
      </trkpt>
      <trkpt lat="43.97921" lon="5.13327">
        <ele>301.99</ele>
        <time>2015-05-25T14:25:16Z</time>
      </trkpt>
      <trkpt lat="43.97921" lon="5.13329">
        <ele>301.99</ele>
        <time>2015-05-25T14:25:17Z</time>
      </trkpt>
      <trkpt lat="43.97922" lon="5.13346">
        <ele>301.51</ele>
        <time>2015-05-25T14:25:22Z</time>
      </trkpt>
      <trkpt lat="43.97921" lon="5.13386">
        <ele>301.03</ele>
        <time>2015-05-25T14:25:31Z</time>
      </trkpt>
      <trkpt lat="43.97915" lon="5.13415">
        <ele>300.55</ele>
        <time>2015-05-25T14:25:37Z</time>
      </trkpt>
      <trkpt lat="43.97913" lon="5.13421">
        <ele>300.55</ele>
        <time>2015-05-25T14:25:38Z</time>
      </trkpt>
      <trkpt lat="43.97911" lon="5.13427">
        <ele>300.55</ele>
        <time>2015-05-25T14:25:39Z</time>
      </trkpt>
      <trkpt lat="43.97899" lon="5.13465">
        <ele>300.55</ele>
        <time>2015-05-25T14:25:45Z</time>
      </trkpt>
      <trkpt lat="43.97893" lon="5.13481">
        <ele>301.03</ele>
        <time>2015-05-25T14:25:48Z</time>
      </trkpt>
      <trkpt lat="43.97877" lon="5.13509">
        <ele>302.95</ele>
        <time>2015-05-25T14:25:55Z</time>
      </trkpt>
      <trkpt lat="43.97861" lon="5.13546">
        <ele>303.43</ele>
        <time>2015-05-25T14:26:04Z</time>
      </trkpt>
      <trkpt lat="43.97853" lon="5.1357">
        <ele>303.91</ele>
        <time>2015-05-25T14:26:09Z</time>
      </trkpt>
      <trkpt lat="43.97853" lon="5.13576">
        <ele>303.43</ele>
        <time>2015-05-25T14:26:10Z</time>
      </trkpt>
      <trkpt lat="43.97851" lon="5.13595">
        <ele>302.47</ele>
        <time>2015-05-25T14:26:13Z</time>
      </trkpt>
      <trkpt lat="43.97852" lon="5.13601">
        <ele>302.47</ele>
        <time>2015-05-25T14:26:14Z</time>
      </trkpt>
      <trkpt lat="43.97853" lon="5.13607">
        <ele>302.47</ele>
        <time>2015-05-25T14:26:15Z</time>
      </trkpt>
      <trkpt lat="43.97866" lon="5.1365">
        <ele>302.95</ele>
        <time>2015-05-25T14:26:22Z</time>
      </trkpt>
      <trkpt lat="43.97866" lon="5.13657">
        <ele>302.95</ele>
        <time>2015-05-25T14:26:23Z</time>
      </trkpt>
      <trkpt lat="43.97866" lon="5.13663">
        <ele>302.95</ele>
        <time>2015-05-25T14:26:24Z</time>
      </trkpt>
      <trkpt lat="43.97861" lon="5.137">
        <ele>304.88</ele>
        <time>2015-05-25T14:26:31Z</time>
      </trkpt>
      <trkpt lat="43.9786" lon="5.13703">
        <ele>304.88</ele>
        <time>2015-05-25T14:26:32Z</time>
      </trkpt>
      <trkpt lat="43.97859" lon="5.13706">
        <ele>304.88</ele>
        <time>2015-05-25T14:26:33Z</time>
      </trkpt>
      <trkpt lat="43.97859" lon="5.13709">
        <ele>305.36</ele>
        <time>2015-05-25T14:26:34Z</time>
      </trkpt>
      <trkpt lat="43.97858" lon="5.13711">
        <ele>305.36</ele>
        <time>2015-05-25T14:26:35Z</time>
      </trkpt>
      <trkpt lat="43.97858" lon="5.13713">
        <ele>305.84</ele>
        <time>2015-05-25T14:26:36Z</time>
      </trkpt>
      <trkpt lat="43.97858" lon="5.13715">
        <ele>305.84</ele>
        <time>2015-05-25T14:26:37Z</time>
      </trkpt>
      <trkpt lat="43.97858" lon="5.13719">
        <ele>305.84</ele>
        <time>2015-05-25T14:26:38Z</time>
      </trkpt>
      <trkpt lat="43.97857" lon="5.13722">
        <ele>306.32</ele>
        <time>2015-05-25T14:26:39Z</time>
      </trkpt>
      <trkpt lat="43.97857" lon="5.13725">
        <ele>306.32</ele>
        <time>2015-05-25T14:26:40Z</time>
      </trkpt>
      <trkpt lat="43.97857" lon="5.13728">
        <ele>306.8</ele>
        <time>2015-05-25T14:26:41Z</time>
      </trkpt>
      <trkpt lat="43.97857" lon="5.1373">
        <ele>306.8</ele>
        <time>2015-05-25T14:26:42Z</time>
      </trkpt>
      <trkpt lat="43.97857" lon="5.13733">
        <ele>307.28</ele>
        <time>2015-05-25T14:26:43Z</time>
      </trkpt>
      <trkpt lat="43.97855" lon="5.13748">
        <ele>308.72</ele>
        <time>2015-05-25T14:26:49Z</time>
      </trkpt>
      <trkpt lat="43.97852" lon="5.13757">
        <ele>309.68</ele>
        <time>2015-05-25T14:26:55Z</time>
      </trkpt>
      <trkpt lat="43.97851" lon="5.1376">
        <ele>310.64</ele>
        <time>2015-05-25T14:27:01Z</time>
      </trkpt>
      <trkpt lat="43.97851" lon="5.13762">
        <ele>310.64</ele>
        <time>2015-05-25T14:27:02Z</time>
      </trkpt>
      <trkpt lat="43.9785" lon="5.13763">
        <ele>311.12</ele>
        <time>2015-05-25T14:27:06Z</time>
      </trkpt>
      <trkpt lat="43.97848" lon="5.13768">
        <ele>311.6</ele>
        <time>2015-05-25T14:27:10Z</time>
      </trkpt>
      <trkpt lat="43.97846" lon="5.13771">
        <ele>312.09</ele>
        <time>2015-05-25T14:27:15Z</time>
      </trkpt>
      <trkpt lat="43.97845" lon="5.13773">
        <ele>312.09</ele>
        <time>2015-05-25T14:27:16Z</time>
      </trkpt>
      <trkpt lat="43.97844" lon="5.13779">
        <ele>312.57</ele>
        <time>2015-05-25T14:27:20Z</time>
      </trkpt>
      <trkpt lat="43.97843" lon="5.13785">
        <ele>313.05</ele>
        <time>2015-05-25T14:27:26Z</time>
      </trkpt>
      <trkpt lat="43.97842" lon="5.13787">
        <ele>313.53</ele>
        <time>2015-05-25T14:27:31Z</time>
      </trkpt>
      <trkpt lat="43.97842" lon="5.13792">
        <ele>314.49</ele>
        <time>2015-05-25T14:27:36Z</time>
      </trkpt>
      <trkpt lat="43.97842" lon="5.13797">
        <ele>314.49</ele>
        <time>2015-05-25T14:27:43Z</time>
      </trkpt>
      <trkpt lat="43.97841" lon="5.13803">
        <ele>314.97</ele>
        <time>2015-05-25T14:27:49Z</time>
      </trkpt>
      <trkpt lat="43.97838" lon="5.13813">
        <ele>315.45</ele>
        <time>2015-05-25T14:27:55Z</time>
      </trkpt>
      <trkpt lat="43.97838" lon="5.13816">
        <ele>315.93</ele>
        <time>2015-05-25T14:27:57Z</time>
      </trkpt>
      <trkpt lat="43.97837" lon="5.13818">
        <ele>315.45</ele>
        <time>2015-05-25T14:27:58Z</time>
      </trkpt>
      <trkpt lat="43.9783" lon="5.13834">
        <ele>316.41</ele>
        <time>2015-05-25T14:28:05Z</time>
      </trkpt>
      <trkpt lat="43.97826" lon="5.13846">
        <ele>318.33</ele>
        <time>2015-05-25T14:28:11Z</time>
      </trkpt>
      <trkpt lat="43.97824" lon="5.13853">
        <ele>318.33</ele>
        <time>2015-05-25T14:28:17Z</time>
      </trkpt>
      <trkpt lat="43.9782" lon="5.13857">
        <ele>317.85</ele>
        <time>2015-05-25T14:28:24Z</time>
      </trkpt>
      <trkpt lat="43.97819" lon="5.13863">
        <ele>319.78</ele>
        <time>2015-05-25T14:28:31Z</time>
      </trkpt>
      <trkpt lat="43.97814" lon="5.13873">
        <ele>321.22</ele>
        <time>2015-05-25T14:28:36Z</time>
      </trkpt>
      <trkpt lat="43.97812" lon="5.13875">
        <ele>321.22</ele>
        <time>2015-05-25T14:28:37Z</time>
      </trkpt>
      <trkpt lat="43.97811" lon="5.13877">
        <ele>321.7</ele>
        <time>2015-05-25T14:28:38Z</time>
      </trkpt>
      <trkpt lat="43.97807" lon="5.13884">
        <ele>322.18</ele>
        <time>2015-05-25T14:28:42Z</time>
      </trkpt>
      <trkpt lat="43.97805" lon="5.13885">
        <ele>322.18</ele>
        <time>2015-05-25T14:28:43Z</time>
      </trkpt>
      <trkpt lat="43.97804" lon="5.13886">
        <ele>322.18</ele>
        <time>2015-05-25T14:28:44Z</time>
      </trkpt>
      <trkpt lat="43.97802" lon="5.13888">
        <ele>322.66</ele>
        <time>2015-05-25T14:28:45Z</time>
      </trkpt>
      <trkpt lat="43.97801" lon="5.13889">
        <ele>322.66</ele>
        <time>2015-05-25T14:28:46Z</time>
      </trkpt>
      <trkpt lat="43.97799" lon="5.1389">
        <ele>322.66</ele>
        <time>2015-05-25T14:28:47Z</time>
      </trkpt>
      <trkpt lat="43.97798" lon="5.13892">
        <ele>322.66</ele>
        <time>2015-05-25T14:28:48Z</time>
      </trkpt>
      <trkpt lat="43.97797" lon="5.13893">
        <ele>323.14</ele>
        <time>2015-05-25T14:28:49Z</time>
      </trkpt>
      <trkpt lat="43.97795" lon="5.13894">
        <ele>323.62</ele>
        <time>2015-05-25T14:28:50Z</time>
      </trkpt>
      <trkpt lat="43.97791" lon="5.139">
        <ele>324.58</ele>
        <time>2015-05-25T14:28:56Z</time>
      </trkpt>
      <trkpt lat="43.97789" lon="5.13902">
        <ele>324.58</ele>
        <time>2015-05-25T14:29:01Z</time>
      </trkpt>
      <trkpt lat="43.97789" lon="5.13903">
        <ele>323.62</ele>
        <time>2015-05-25T14:29:06Z</time>
      </trkpt>
      <trkpt lat="43.97787" lon="5.13906">
        <ele>323.62</ele>
        <time>2015-05-25T14:29:09Z</time>
      </trkpt>
      <trkpt lat="43.97786" lon="5.13908">
        <ele>324.1</ele>
        <time>2015-05-25T14:29:11Z</time>
      </trkpt>
      <trkpt lat="43.9778" lon="5.13912">
        <ele>325.54</ele>
        <time>2015-05-25T14:29:18Z</time>
      </trkpt>
      <trkpt lat="43.97778" lon="5.13914">
        <ele>326.02</ele>
        <time>2015-05-25T14:29:26Z</time>
      </trkpt>
      <trkpt lat="43.97776" lon="5.13918">
        <ele>325.54</ele>
        <time>2015-05-25T14:29:32Z</time>
      </trkpt>
      <trkpt lat="43.97763" lon="5.13925">
        <ele>327.95</ele>
        <time>2015-05-25T14:29:39Z</time>
      </trkpt>
      <trkpt lat="43.97755" lon="5.13931">
        <ele>328.43</ele>
        <time>2015-05-25T14:29:45Z</time>
      </trkpt>
      <trkpt lat="43.97754" lon="5.13932">
        <ele>328.91</ele>
        <time>2015-05-25T14:29:46Z</time>
      </trkpt>
      <trkpt lat="43.97743" lon="5.13939">
        <ele>330.35</ele>
        <time>2015-05-25T14:29:53Z</time>
      </trkpt>
      <trkpt lat="43.97733" lon="5.13945">
        <ele>331.79</ele>
        <time>2015-05-25T14:30:01Z</time>
      </trkpt>
      <trkpt lat="43.9773" lon="5.13946">
        <ele>331.79</ele>
        <time>2015-05-25T14:30:03Z</time>
      </trkpt>
      <trkpt lat="43.97729" lon="5.13948">
        <ele>332.27</ele>
        <time>2015-05-25T14:30:04Z</time>
      </trkpt>
      <trkpt lat="43.97728" lon="5.13949">
        <ele>332.27</ele>
        <time>2015-05-25T14:30:05Z</time>
      </trkpt>
      <trkpt lat="43.97725" lon="5.13951">
        <ele>334.2</ele>
        <time>2015-05-25T14:30:08Z</time>
      </trkpt>
      <trkpt lat="43.97722" lon="5.13955">
        <ele>333.71</ele>
        <time>2015-05-25T14:30:14Z</time>
      </trkpt>
      <trkpt lat="43.97717" lon="5.13959">
        <ele>334.68</ele>
        <time>2015-05-25T14:30:21Z</time>
      </trkpt>
      <trkpt lat="43.97714" lon="5.13962">
        <ele>335.16</ele>
        <time>2015-05-25T14:30:28Z</time>
      </trkpt>
      <trkpt lat="43.97712" lon="5.13964">
        <ele>335.16</ele>
        <time>2015-05-25T14:30:34Z</time>
      </trkpt>
      <trkpt lat="43.97708" lon="5.13967">
        <ele>336.12</ele>
        <time>2015-05-25T14:30:41Z</time>
      </trkpt>
      <trkpt lat="43.97705" lon="5.13969">
        <ele>336.6</ele>
        <time>2015-05-25T14:30:44Z</time>
      </trkpt>
      <trkpt lat="43.97699" lon="5.13973">
        <ele>337.56</ele>
        <time>2015-05-25T14:30:50Z</time>
      </trkpt>
      <trkpt lat="43.97694" lon="5.1398">
        <ele>339.48</ele>
        <time>2015-05-25T14:30:57Z</time>
      </trkpt>
      <trkpt lat="43.97689" lon="5.13986">
        <ele>339.48</ele>
        <time>2015-05-25T14:31:03Z</time>
      </trkpt>
      <trkpt lat="43.97684" lon="5.13991">
        <ele>339.96</ele>
        <time>2015-05-25T14:31:10Z</time>
      </trkpt>
      <trkpt lat="43.97679" lon="5.13997">
        <ele>341.41</ele>
        <time>2015-05-25T14:31:16Z</time>
      </trkpt>
      <trkpt lat="43.97675" lon="5.14001">
        <ele>342.37</ele>
        <time>2015-05-25T14:31:21Z</time>
      </trkpt>
      <trkpt lat="43.97674" lon="5.14002">
        <ele>342.37</ele>
        <time>2015-05-25T14:31:23Z</time>
      </trkpt>
      <trkpt lat="43.97672" lon="5.14006">
        <ele>342.85</ele>
        <time>2015-05-25T14:31:29Z</time>
      </trkpt>
      <trkpt lat="43.97669" lon="5.14018">
        <ele>344.29</ele>
        <time>2015-05-25T14:31:36Z</time>
      </trkpt>
      <trkpt lat="43.97669" lon="5.1402">
        <ele>344.29</ele>
        <time>2015-05-25T14:31:43Z</time>
      </trkpt>
      <trkpt lat="43.97669" lon="5.14021">
        <ele>344.29</ele>
        <time>2015-05-25T14:31:50Z</time>
      </trkpt>
      <trkpt lat="43.97668" lon="5.14021">
        <ele>343.33</ele>
        <time>2015-05-25T14:32:03Z</time>
      </trkpt>
      <trkpt lat="43.97668" lon="5.14021">
        <ele>343.81</ele>
        <time>2015-05-25T14:32:17Z</time>
      </trkpt>
      <trkpt lat="43.97667" lon="5.1402">
        <ele>343.33</ele>
        <time>2015-05-25T14:32:31Z</time>
      </trkpt>
      <trkpt lat="43.97667" lon="5.1402">
        <ele>343.81</ele>
        <time>2015-05-25T14:32:46Z</time>
      </trkpt>
      <trkpt lat="43.97668" lon="5.14021">
        <ele>343.81</ele>
        <time>2015-05-25T14:33:03Z</time>
      </trkpt>
      <trkpt lat="43.97668" lon="5.14021">
        <ele>344.29</ele>
        <time>2015-05-25T14:33:20Z</time>
      </trkpt>
      <trkpt lat="43.97668" lon="5.14021">
        <ele>344.29</ele>
        <time>2015-05-25T14:33:37Z</time>
      </trkpt>
      <trkpt lat="43.97668" lon="5.14021">
        <ele>343.81</ele>
        <time>2015-05-25T14:33:55Z</time>
      </trkpt>
      <trkpt lat="43.97669" lon="5.14021">
        <ele>344.29</ele>
        <time>2015-05-25T14:34:08Z</time>
      </trkpt>
      <trkpt lat="43.97669" lon="5.14022">
        <ele>344.77</ele>
        <time>2015-05-25T14:34:17Z</time>
      </trkpt>
      <trkpt lat="43.97666" lon="5.14022">
        <ele>345.73</ele>
        <time>2015-05-25T14:34:23Z</time>
      </trkpt>
      <trkpt lat="43.97666" lon="5.14022">
        <ele>345.73</ele>
        <time>2015-05-25T14:34:24Z</time>
      </trkpt>
      <trkpt lat="43.97665" lon="5.14022">
        <ele>345.25</ele>
        <time>2015-05-25T14:34:25Z</time>
      </trkpt>
      <trkpt lat="43.97664" lon="5.14022">
        <ele>345.25</ele>
        <time>2015-05-25T14:34:26Z</time>
      </trkpt>
      <trkpt lat="43.97663" lon="5.14021">
        <ele>345.25</ele>
        <time>2015-05-25T14:34:27Z</time>
      </trkpt>
      <trkpt lat="43.97662" lon="5.14019">
        <ele>345.73</ele>
        <time>2015-05-25T14:34:28Z</time>
      </trkpt>
      <trkpt lat="43.97661" lon="5.14017">
        <ele>345.73</ele>
        <time>2015-05-25T14:34:29Z</time>
      </trkpt>
      <trkpt lat="43.97661" lon="5.14015">
        <ele>346.21</ele>
        <time>2015-05-25T14:34:30Z</time>
      </trkpt>
      <trkpt lat="43.97662" lon="5.14013">
        <ele>346.21</ele>
        <time>2015-05-25T14:34:31Z</time>
      </trkpt>
      <trkpt lat="43.97662" lon="5.14011">
        <ele>346.21</ele>
        <time>2015-05-25T14:34:32Z</time>
      </trkpt>
      <trkpt lat="43.97667" lon="5.13995">
        <ele>347.65</ele>
        <time>2015-05-25T14:34:39Z</time>
      </trkpt>
      <trkpt lat="43.97674" lon="5.13975">
        <ele>349.58</ele>
        <time>2015-05-25T14:34:46Z</time>
      </trkpt>
      <trkpt lat="43.97676" lon="5.13972">
        <ele>349.58</ele>
        <time>2015-05-25T14:34:47Z</time>
      </trkpt>
      <trkpt lat="43.97688" lon="5.13942">
        <ele>348.62</ele>
        <time>2015-05-25T14:34:55Z</time>
      </trkpt>
      <trkpt lat="43.97702" lon="5.13913">
        <ele>349.1</ele>
        <time>2015-05-25T14:35:02Z</time>
      </trkpt>
      <trkpt lat="43.97702" lon="5.13908">
        <ele>349.1</ele>
        <time>2015-05-25T14:35:03Z</time>
      </trkpt>
      <trkpt lat="43.97702" lon="5.13904">
        <ele>349.58</ele>
        <time>2015-05-25T14:35:04Z</time>
      </trkpt>
      <trkpt lat="43.97699" lon="5.13893">
        <ele>351.98</ele>
        <time>2015-05-25T14:35:07Z</time>
      </trkpt>
      <trkpt lat="43.97701" lon="5.13891">
        <ele>351.98</ele>
        <time>2015-05-25T14:35:08Z</time>
      </trkpt>
      <trkpt lat="43.97702" lon="5.13889">
        <ele>351.98</ele>
        <time>2015-05-25T14:35:09Z</time>
      </trkpt>
      <trkpt lat="43.97712" lon="5.13874">
        <ele>351.5</ele>
        <time>2015-05-25T14:35:16Z</time>
      </trkpt>
      <trkpt lat="43.97723" lon="5.13858">
        <ele>351.5</ele>
        <time>2015-05-25T14:35:21Z</time>
      </trkpt>
      <trkpt lat="43.97727" lon="5.13851">
        <ele>351.5</ele>
        <time>2015-05-25T14:35:23Z</time>
      </trkpt>
      <trkpt lat="43.97728" lon="5.13847">
        <ele>351.02</ele>
        <time>2015-05-25T14:35:24Z</time>
      </trkpt>
      <trkpt lat="43.97728" lon="5.13843">
        <ele>351.02</ele>
        <time>2015-05-25T14:35:25Z</time>
      </trkpt>
      <trkpt lat="43.97728" lon="5.1384">
        <ele>351.5</ele>
        <time>2015-05-25T14:35:26Z</time>
      </trkpt>
      <trkpt lat="43.97729" lon="5.13837">
        <ele>351.98</ele>
        <time>2015-05-25T14:35:27Z</time>
      </trkpt>
      <trkpt lat="43.9773" lon="5.13834">
        <ele>351.98</ele>
        <time>2015-05-25T14:35:28Z</time>
      </trkpt>
      <trkpt lat="43.97732" lon="5.13831">
        <ele>351.5</ele>
        <time>2015-05-25T14:35:29Z</time>
      </trkpt>
      <trkpt lat="43.97742" lon="5.13816">
        <ele>350.06</ele>
        <time>2015-05-25T14:35:33Z</time>
      </trkpt>
      <trkpt lat="43.97744" lon="5.13811">
        <ele>350.06</ele>
        <time>2015-05-25T14:35:34Z</time>
      </trkpt>
      <trkpt lat="43.97746" lon="5.13806">
        <ele>349.58</ele>
        <time>2015-05-25T14:35:35Z</time>
      </trkpt>
      <trkpt lat="43.97755" lon="5.13783">
        <ele>347.65</ele>
        <time>2015-05-25T14:35:40Z</time>
      </trkpt>
      <trkpt lat="43.97756" lon="5.13779">
        <ele>346.69</ele>
        <time>2015-05-25T14:35:41Z</time>
      </trkpt>
      <trkpt lat="43.97757" lon="5.13777">
        <ele>346.69</ele>
        <time>2015-05-25T14:35:42Z</time>
      </trkpt>
      <trkpt lat="43.97757" lon="5.13776">
        <ele>348.13</ele>
        <time>2015-05-25T14:35:49Z</time>
      </trkpt>
      <trkpt lat="43.97756" lon="5.13777">
        <ele>348.13</ele>
        <time>2015-05-25T14:36:01Z</time>
      </trkpt>
      <trkpt lat="43.97756" lon="5.13768">
        <ele>347.65</ele>
        <time>2015-05-25T14:36:13Z</time>
      </trkpt>
      <trkpt lat="43.97755" lon="5.13764">
        <ele>347.17</ele>
        <time>2015-05-25T14:36:14Z</time>
      </trkpt>
      <trkpt lat="43.97754" lon="5.1376">
        <ele>347.17</ele>
        <time>2015-05-25T14:36:15Z</time>
      </trkpt>
      <trkpt lat="43.97752" lon="5.13756">
        <ele>346.69</ele>
        <time>2015-05-25T14:36:16Z</time>
      </trkpt>
      <trkpt lat="43.97751" lon="5.13753">
        <ele>346.69</ele>
        <time>2015-05-25T14:36:17Z</time>
      </trkpt>
      <trkpt lat="43.9775" lon="5.13751">
        <ele>347.65</ele>
        <time>2015-05-25T14:36:21Z</time>
      </trkpt>
      <trkpt lat="43.97749" lon="5.1375">
        <ele>347.17</ele>
        <time>2015-05-25T14:36:22Z</time>
      </trkpt>
      <trkpt lat="43.97748" lon="5.1375">
        <ele>346.69</ele>
        <time>2015-05-25T14:36:23Z</time>
      </trkpt>
      <trkpt lat="43.97746" lon="5.13749">
        <ele>346.69</ele>
        <time>2015-05-25T14:36:24Z</time>
      </trkpt>
      <trkpt lat="43.97744" lon="5.13748">
        <ele>347.17</ele>
        <time>2015-05-25T14:36:25Z</time>
      </trkpt>
      <trkpt lat="43.97741" lon="5.13748">
        <ele>347.17</ele>
        <time>2015-05-25T14:36:26Z</time>
      </trkpt>
      <trkpt lat="43.97739" lon="5.13748">
        <ele>347.17</ele>
        <time>2015-05-25T14:36:27Z</time>
      </trkpt>
      <trkpt lat="43.97725" lon="5.13753">
        <ele>347.65</ele>
        <time>2015-05-25T14:36:33Z</time>
      </trkpt>
      <trkpt lat="43.97709" lon="5.13764">
        <ele>347.65</ele>
        <time>2015-05-25T14:36:40Z</time>
      </trkpt>
      <trkpt lat="43.97694" lon="5.1378">
        <ele>348.62</ele>
        <time>2015-05-25T14:36:46Z</time>
      </trkpt>
      <trkpt lat="43.9768" lon="5.13798">
        <ele>350.06</ele>
        <time>2015-05-25T14:36:52Z</time>
      </trkpt>
      <trkpt lat="43.97665" lon="5.13818">
        <ele>351.02</ele>
        <time>2015-05-25T14:36:58Z</time>
      </trkpt>
      <trkpt lat="43.97659" lon="5.13828">
        <ele>351.98</ele>
        <time>2015-05-25T14:37:01Z</time>
      </trkpt>
      <trkpt lat="43.97656" lon="5.1383">
        <ele>351.98</ele>
        <time>2015-05-25T14:37:02Z</time>
      </trkpt>
      <trkpt lat="43.97654" lon="5.13833">
        <ele>352.46</ele>
        <time>2015-05-25T14:37:03Z</time>
      </trkpt>
      <trkpt lat="43.97651" lon="5.13836">
        <ele>352.46</ele>
        <time>2015-05-25T14:37:04Z</time>
      </trkpt>
      <trkpt lat="43.97649" lon="5.13839">
        <ele>352.46</ele>
        <time>2015-05-25T14:37:05Z</time>
      </trkpt>
      <trkpt lat="43.97634" lon="5.1386">
        <ele>353.9</ele>
        <time>2015-05-25T14:37:12Z</time>
      </trkpt>
      <trkpt lat="43.97628" lon="5.13871">
        <ele>355.34</ele>
        <time>2015-05-25T14:37:16Z</time>
      </trkpt>
      <trkpt lat="43.97627" lon="5.13875">
        <ele>355.83</ele>
        <time>2015-05-25T14:37:17Z</time>
      </trkpt>
      <trkpt lat="43.97626" lon="5.13884">
        <ele>357.27</ele>
        <time>2015-05-25T14:37:23Z</time>
      </trkpt>
      <trkpt lat="43.97625" lon="5.13891">
        <ele>358.23</ele>
        <time>2015-05-25T14:37:30Z</time>
      </trkpt>
      <trkpt lat="43.97624" lon="5.13895">
        <ele>358.71</ele>
        <time>2015-05-25T14:37:35Z</time>
      </trkpt>
      <trkpt lat="43.97621" lon="5.13903">
        <ele>360.15</ele>
        <time>2015-05-25T14:37:42Z</time>
      </trkpt>
      <trkpt lat="43.97619" lon="5.13906">
        <ele>360.63</ele>
        <time>2015-05-25T14:37:45Z</time>
      </trkpt>
      <trkpt lat="43.97618" lon="5.13908">
        <ele>360.63</ele>
        <time>2015-05-25T14:37:46Z</time>
      </trkpt>
      <trkpt lat="43.97617" lon="5.1391">
        <ele>360.63</ele>
        <time>2015-05-25T14:37:47Z</time>
      </trkpt>
      <trkpt lat="43.97616" lon="5.13912">
        <ele>360.63</ele>
        <time>2015-05-25T14:37:48Z</time>
      </trkpt>
      <trkpt lat="43.97614" lon="5.13914">
        <ele>360.63</ele>
        <time>2015-05-25T14:37:49Z</time>
      </trkpt>
      <trkpt lat="43.97613" lon="5.13916">
        <ele>361.11</ele>
        <time>2015-05-25T14:37:50Z</time>
      </trkpt>
      <trkpt lat="43.97612" lon="5.13918">
        <ele>361.11</ele>
        <time>2015-05-25T14:37:51Z</time>
      </trkpt>
      <trkpt lat="43.9761" lon="5.1392">
        <ele>361.11</ele>
        <time>2015-05-25T14:37:52Z</time>
      </trkpt>
      <trkpt lat="43.97605" lon="5.13929">
        <ele>361.11</ele>
        <time>2015-05-25T14:37:56Z</time>
      </trkpt>
      <trkpt lat="43.97603" lon="5.13931">
        <ele>361.11</ele>
        <time>2015-05-25T14:37:57Z</time>
      </trkpt>
      <trkpt lat="43.97603" lon="5.13933">
        <ele>361.59</ele>
        <time>2015-05-25T14:37:58Z</time>
      </trkpt>
      <trkpt lat="43.97602" lon="5.13936">
        <ele>361.59</ele>
        <time>2015-05-25T14:37:59Z</time>
      </trkpt>
      <trkpt lat="43.97601" lon="5.13939">
        <ele>361.59</ele>
        <time>2015-05-25T14:38:00Z</time>
      </trkpt>
      <trkpt lat="43.976" lon="5.13941">
        <ele>361.59</ele>
        <time>2015-05-25T14:38:01Z</time>
      </trkpt>
      <trkpt lat="43.97599" lon="5.13944">
        <ele>362.07</ele>
        <time>2015-05-25T14:38:02Z</time>
      </trkpt>
      <trkpt lat="43.97598" lon="5.13946">
        <ele>362.07</ele>
        <time>2015-05-25T14:38:03Z</time>
      </trkpt>
      <trkpt lat="43.97597" lon="5.13948">
        <ele>362.55</ele>
        <time>2015-05-25T14:38:04Z</time>
      </trkpt>
      <trkpt lat="43.97597" lon="5.13951">
        <ele>362.55</ele>
        <time>2015-05-25T14:38:05Z</time>
      </trkpt>
      <trkpt lat="43.97597" lon="5.13954">
        <ele>362.55</ele>
        <time>2015-05-25T14:38:06Z</time>
      </trkpt>
      <trkpt lat="43.97598" lon="5.13956">
        <ele>363.04</ele>
        <time>2015-05-25T14:38:07Z</time>
      </trkpt>
      <trkpt lat="43.97598" lon="5.13958">
        <ele>363.04</ele>
        <time>2015-05-25T14:38:08Z</time>
      </trkpt>
      <trkpt lat="43.97599" lon="5.13959">
        <ele>363.52</ele>
        <time>2015-05-25T14:38:09Z</time>
      </trkpt>
      <trkpt lat="43.97599" lon="5.13962">
        <ele>364</ele>
        <time>2015-05-25T14:38:15Z</time>
      </trkpt>
      <trkpt lat="43.976" lon="5.1397">
        <ele>364.96</ele>
        <time>2015-05-25T14:38:22Z</time>
      </trkpt>
      <trkpt lat="43.97598" lon="5.13985">
        <ele>366.4</ele>
        <time>2015-05-25T14:38:29Z</time>
      </trkpt>
      <trkpt lat="43.97597" lon="5.13987">
        <ele>366.88</ele>
        <time>2015-05-25T14:38:30Z</time>
      </trkpt>
      <trkpt lat="43.97597" lon="5.1399">
        <ele>366.88</ele>
        <time>2015-05-25T14:38:31Z</time>
      </trkpt>
      <trkpt lat="43.97597" lon="5.13992">
        <ele>366.88</ele>
        <time>2015-05-25T14:38:32Z</time>
      </trkpt>
      <trkpt lat="43.97596" lon="5.13993">
        <ele>367.36</ele>
        <time>2015-05-25T14:38:33Z</time>
      </trkpt>
      <trkpt lat="43.97596" lon="5.13995">
        <ele>367.36</ele>
        <time>2015-05-25T14:38:34Z</time>
      </trkpt>
      <trkpt lat="43.97596" lon="5.13997">
        <ele>367.36</ele>
        <time>2015-05-25T14:38:35Z</time>
      </trkpt>
      <trkpt lat="43.97596" lon="5.13998">
        <ele>367.36</ele>
        <time>2015-05-25T14:38:36Z</time>
      </trkpt>
      <trkpt lat="43.97595" lon="5.13999">
        <ele>367.84</ele>
        <time>2015-05-25T14:38:37Z</time>
      </trkpt>
      <trkpt lat="43.97592" lon="5.14003">
        <ele>368.32</ele>
        <time>2015-05-25T14:38:43Z</time>
      </trkpt>
      <trkpt lat="43.97591" lon="5.14004">
        <ele>368.8</ele>
        <time>2015-05-25T14:38:44Z</time>
      </trkpt>
      <trkpt lat="43.97589" lon="5.14011">
        <ele>368.8</ele>
        <time>2015-05-25T14:38:49Z</time>
      </trkpt>
      <trkpt lat="43.97584" lon="5.14017">
        <ele>369.76</ele>
        <time>2015-05-25T14:38:55Z</time>
      </trkpt>
      <trkpt lat="43.97583" lon="5.14017">
        <ele>370.24</ele>
        <time>2015-05-25T14:38:56Z</time>
      </trkpt>
      <trkpt lat="43.97582" lon="5.14018">
        <ele>370.24</ele>
        <time>2015-05-25T14:38:57Z</time>
      </trkpt>
      <trkpt lat="43.9758" lon="5.14019">
        <ele>370.24</ele>
        <time>2015-05-25T14:38:58Z</time>
      </trkpt>
      <trkpt lat="43.97579" lon="5.14021">
        <ele>370.24</ele>
        <time>2015-05-25T14:38:59Z</time>
      </trkpt>
      <trkpt lat="43.97578" lon="5.14023">
        <ele>370.73</ele>
        <time>2015-05-25T14:39:00Z</time>
      </trkpt>
      <trkpt lat="43.97578" lon="5.14025">
        <ele>370.73</ele>
        <time>2015-05-25T14:39:01Z</time>
      </trkpt>
      <trkpt lat="43.97578" lon="5.14027">
        <ele>371.21</ele>
        <time>2015-05-25T14:39:02Z</time>
      </trkpt>
      <trkpt lat="43.97578" lon="5.14029">
        <ele>371.21</ele>
        <time>2015-05-25T14:39:03Z</time>
      </trkpt>
      <trkpt lat="43.97577" lon="5.1403">
        <ele>371.21</ele>
        <time>2015-05-25T14:39:04Z</time>
      </trkpt>
      <trkpt lat="43.97575" lon="5.14031">
        <ele>371.69</ele>
        <time>2015-05-25T14:39:06Z</time>
      </trkpt>
      <trkpt lat="43.97574" lon="5.14032">
        <ele>371.69</ele>
        <time>2015-05-25T14:39:07Z</time>
      </trkpt>
      <trkpt lat="43.97572" lon="5.14033">
        <ele>372.17</ele>
        <time>2015-05-25T14:39:08Z</time>
      </trkpt>
      <trkpt lat="43.9757" lon="5.14035">
        <ele>373.13</ele>
        <time>2015-05-25T14:39:10Z</time>
      </trkpt>
      <trkpt lat="43.97569" lon="5.14037">
        <ele>373.61</ele>
        <time>2015-05-25T14:39:11Z</time>
      </trkpt>
      <trkpt lat="43.97569" lon="5.1404">
        <ele>373.61</ele>
        <time>2015-05-25T14:39:12Z</time>
      </trkpt>
      <trkpt lat="43.97568" lon="5.14042">
        <ele>373.61</ele>
        <time>2015-05-25T14:39:13Z</time>
      </trkpt>
      <trkpt lat="43.97567" lon="5.14043">
        <ele>374.09</ele>
        <time>2015-05-25T14:39:14Z</time>
      </trkpt>
      <trkpt lat="43.97565" lon="5.14043">
        <ele>374.09</ele>
        <time>2015-05-25T14:39:15Z</time>
      </trkpt>
      <trkpt lat="43.97564" lon="5.14043">
        <ele>374.09</ele>
        <time>2015-05-25T14:39:16Z</time>
      </trkpt>
      <trkpt lat="43.97562" lon="5.14044">
        <ele>374.09</ele>
        <time>2015-05-25T14:39:17Z</time>
      </trkpt>
      <trkpt lat="43.97561" lon="5.14045">
        <ele>374.09</ele>
        <time>2015-05-25T14:39:18Z</time>
      </trkpt>
      <trkpt lat="43.9756" lon="5.14046">
        <ele>374.57</ele>
        <time>2015-05-25T14:39:19Z</time>
      </trkpt>
      <trkpt lat="43.97559" lon="5.14047">
        <ele>374.57</ele>
        <time>2015-05-25T14:39:20Z</time>
      </trkpt>
      <trkpt lat="43.97558" lon="5.14049">
        <ele>375.05</ele>
        <time>2015-05-25T14:39:21Z</time>
      </trkpt>
      <trkpt lat="43.97558" lon="5.14051">
        <ele>375.05</ele>
        <time>2015-05-25T14:39:22Z</time>
      </trkpt>
      <trkpt lat="43.97557" lon="5.14052">
        <ele>375.05</ele>
        <time>2015-05-25T14:39:23Z</time>
      </trkpt>
      <trkpt lat="43.97556" lon="5.14055">
        <ele>375.53</ele>
        <time>2015-05-25T14:39:24Z</time>
      </trkpt>
      <trkpt lat="43.97556" lon="5.14057">
        <ele>376.01</ele>
        <time>2015-05-25T14:39:25Z</time>
      </trkpt>
      <trkpt lat="43.97557" lon="5.1406">
        <ele>376.01</ele>
        <time>2015-05-25T14:39:27Z</time>
      </trkpt>
      <trkpt lat="43.97557" lon="5.14064">
        <ele>376.01</ele>
        <time>2015-05-25T14:39:29Z</time>
      </trkpt>
      <trkpt lat="43.97557" lon="5.14067">
        <ele>376.01</ele>
        <time>2015-05-25T14:39:30Z</time>
      </trkpt>
      <trkpt lat="43.97557" lon="5.1407">
        <ele>375.53</ele>
        <time>2015-05-25T14:39:31Z</time>
      </trkpt>
      <trkpt lat="43.97558" lon="5.14073">
        <ele>375.53</ele>
        <time>2015-05-25T14:39:32Z</time>
      </trkpt>
      <trkpt lat="43.9756" lon="5.14077">
        <ele>375.53</ele>
        <time>2015-05-25T14:39:33Z</time>
      </trkpt>
      <trkpt lat="43.97562" lon="5.1408">
        <ele>375.53</ele>
        <time>2015-05-25T14:39:34Z</time>
      </trkpt>
      <trkpt lat="43.97563" lon="5.14084">
        <ele>375.53</ele>
        <time>2015-05-25T14:39:35Z</time>
      </trkpt>
      <trkpt lat="43.97564" lon="5.14087">
        <ele>375.53</ele>
        <time>2015-05-25T14:39:36Z</time>
      </trkpt>
      <trkpt lat="43.97564" lon="5.1409">
        <ele>375.53</ele>
        <time>2015-05-25T14:39:37Z</time>
      </trkpt>
      <trkpt lat="43.97564" lon="5.14093">
        <ele>375.53</ele>
        <time>2015-05-25T14:39:38Z</time>
      </trkpt>
      <trkpt lat="43.97563" lon="5.14096">
        <ele>376.01</ele>
        <time>2015-05-25T14:39:39Z</time>
      </trkpt>
      <trkpt lat="43.97562" lon="5.14098">
        <ele>376.49</ele>
        <time>2015-05-25T14:39:40Z</time>
      </trkpt>
      <trkpt lat="43.97561" lon="5.14101">
        <ele>376.97</ele>
        <time>2015-05-25T14:39:41Z</time>
      </trkpt>
      <trkpt lat="43.97556" lon="5.14114">
        <ele>377.94</ele>
        <time>2015-05-25T14:39:48Z</time>
      </trkpt>
      <trkpt lat="43.97555" lon="5.14123">
        <ele>379.86</ele>
        <time>2015-05-25T14:39:53Z</time>
      </trkpt>
      <trkpt lat="43.97554" lon="5.14125">
        <ele>379.38</ele>
        <time>2015-05-25T14:39:54Z</time>
      </trkpt>
      <trkpt lat="43.97553" lon="5.14126">
        <ele>379.38</ele>
        <time>2015-05-25T14:39:55Z</time>
      </trkpt>
      <trkpt lat="43.97552" lon="5.14128">
        <ele>379.86</ele>
        <time>2015-05-25T14:39:56Z</time>
      </trkpt>
      <trkpt lat="43.97551" lon="5.14129">
        <ele>379.86</ele>
        <time>2015-05-25T14:39:57Z</time>
      </trkpt>
      <trkpt lat="43.97547" lon="5.14133">
        <ele>380.34</ele>
        <time>2015-05-25T14:40:01Z</time>
      </trkpt>
      <trkpt lat="43.97544" lon="5.14136">
        <ele>381.78</ele>
        <time>2015-05-25T14:40:05Z</time>
      </trkpt>
      <trkpt lat="43.97543" lon="5.14138">
        <ele>381.78</ele>
        <time>2015-05-25T14:40:06Z</time>
      </trkpt>
      <trkpt lat="43.97535" lon="5.14152">
        <ele>382.26</ele>
        <time>2015-05-25T14:40:15Z</time>
      </trkpt>
      <trkpt lat="43.9753" lon="5.14163">
        <ele>383.22</ele>
        <time>2015-05-25T14:40:23Z</time>
      </trkpt>
      <trkpt lat="43.97527" lon="5.14167">
        <ele>384.18</ele>
        <time>2015-05-25T14:40:26Z</time>
      </trkpt>
      <trkpt lat="43.97526" lon="5.14167">
        <ele>384.18</ele>
        <time>2015-05-25T14:40:27Z</time>
      </trkpt>
      <trkpt lat="43.97525" lon="5.14168">
        <ele>384.18</ele>
        <time>2015-05-25T14:40:28Z</time>
      </trkpt>
      <trkpt lat="43.97523" lon="5.14169">
        <ele>384.18</ele>
        <time>2015-05-25T14:40:29Z</time>
      </trkpt>
      <trkpt lat="43.97522" lon="5.1417">
        <ele>384.18</ele>
        <time>2015-05-25T14:40:30Z</time>
      </trkpt>
      <trkpt lat="43.97521" lon="5.14171">
        <ele>384.66</ele>
        <time>2015-05-25T14:40:31Z</time>
      </trkpt>
      <trkpt lat="43.97519" lon="5.14172">
        <ele>384.66</ele>
        <time>2015-05-25T14:40:32Z</time>
      </trkpt>
      <trkpt lat="43.97517" lon="5.14173">
        <ele>384.66</ele>
        <time>2015-05-25T14:40:33Z</time>
      </trkpt>
      <trkpt lat="43.97515" lon="5.14174">
        <ele>385.63</ele>
        <time>2015-05-25T14:40:34Z</time>
      </trkpt>
      <trkpt lat="43.97513" lon="5.14175">
        <ele>385.63</ele>
        <time>2015-05-25T14:40:35Z</time>
      </trkpt>
      <trkpt lat="43.97509" lon="5.14177">
        <ele>386.59</ele>
        <time>2015-05-25T14:40:37Z</time>
      </trkpt>
      <trkpt lat="43.97507" lon="5.14176">
        <ele>386.59</ele>
        <time>2015-05-25T14:40:38Z</time>
      </trkpt>
      <trkpt lat="43.97505" lon="5.14176">
        <ele>387.07</ele>
        <time>2015-05-25T14:40:39Z</time>
      </trkpt>
      <trkpt lat="43.97503" lon="5.14175">
        <ele>387.07</ele>
        <time>2015-05-25T14:40:40Z</time>
      </trkpt>
      <trkpt lat="43.97502" lon="5.14175">
        <ele>387.55</ele>
        <time>2015-05-25T14:40:41Z</time>
      </trkpt>
      <trkpt lat="43.975" lon="5.14175">
        <ele>387.55</ele>
        <time>2015-05-25T14:40:42Z</time>
      </trkpt>
      <trkpt lat="43.97498" lon="5.14175">
        <ele>387.55</ele>
        <time>2015-05-25T14:40:43Z</time>
      </trkpt>
      <trkpt lat="43.97497" lon="5.14175">
        <ele>387.55</ele>
        <time>2015-05-25T14:40:44Z</time>
      </trkpt>
      <trkpt lat="43.97495" lon="5.14175">
        <ele>388.03</ele>
        <time>2015-05-25T14:40:45Z</time>
      </trkpt>
      <trkpt lat="43.97493" lon="5.14174">
        <ele>388.51</ele>
        <time>2015-05-25T14:40:46Z</time>
      </trkpt>
      <trkpt lat="43.97491" lon="5.14174">
        <ele>388.51</ele>
        <time>2015-05-25T14:40:47Z</time>
      </trkpt>
      <trkpt lat="43.97489" lon="5.14175">
        <ele>388.51</ele>
        <time>2015-05-25T14:40:48Z</time>
      </trkpt>
      <trkpt lat="43.97487" lon="5.14176">
        <ele>388.99</ele>
        <time>2015-05-25T14:40:49Z</time>
      </trkpt>
      <trkpt lat="43.97485" lon="5.14176">
        <ele>388.99</ele>
        <time>2015-05-25T14:40:50Z</time>
      </trkpt>
      <trkpt lat="43.97483" lon="5.14176">
        <ele>388.99</ele>
        <time>2015-05-25T14:40:51Z</time>
      </trkpt>
      <trkpt lat="43.97481" lon="5.14176">
        <ele>389.47</ele>
        <time>2015-05-25T14:40:52Z</time>
      </trkpt>
      <trkpt lat="43.9748" lon="5.14175">
        <ele>389.47</ele>
        <time>2015-05-25T14:40:53Z</time>
      </trkpt>
      <trkpt lat="43.97478" lon="5.14174">
        <ele>389.47</ele>
        <time>2015-05-25T14:40:54Z</time>
      </trkpt>
      <trkpt lat="43.97476" lon="5.14173">
        <ele>389.95</ele>
        <time>2015-05-25T14:40:55Z</time>
      </trkpt>
      <trkpt lat="43.97468" lon="5.14172">
        <ele>390.43</ele>
        <time>2015-05-25T14:40:59Z</time>
      </trkpt>
      <trkpt lat="43.97467" lon="5.14174">
        <ele>390.43</ele>
        <time>2015-05-25T14:41:00Z</time>
      </trkpt>
      <trkpt lat="43.97458" lon="5.1418">
        <ele>391.39</ele>
        <time>2015-05-25T14:41:06Z</time>
      </trkpt>
      <trkpt lat="43.97456" lon="5.1418">
        <ele>391.87</ele>
        <time>2015-05-25T14:41:07Z</time>
      </trkpt>
      <trkpt lat="43.97454" lon="5.1418">
        <ele>391.87</ele>
        <time>2015-05-25T14:41:08Z</time>
      </trkpt>
      <trkpt lat="43.97452" lon="5.1418">
        <ele>391.87</ele>
        <time>2015-05-25T14:41:09Z</time>
      </trkpt>
      <trkpt lat="43.9745" lon="5.14181">
        <ele>391.87</ele>
        <time>2015-05-25T14:41:10Z</time>
      </trkpt>
      <trkpt lat="43.97448" lon="5.14182">
        <ele>391.87</ele>
        <time>2015-05-25T14:41:11Z</time>
      </trkpt>
      <trkpt lat="43.97446" lon="5.14184">
        <ele>391.87</ele>
        <time>2015-05-25T14:41:12Z</time>
      </trkpt>
      <trkpt lat="43.97435" lon="5.14191">
        <ele>393.32</ele>
        <time>2015-05-25T14:41:19Z</time>
      </trkpt>
      <trkpt lat="43.97427" lon="5.14205">
        <ele>394.76</ele>
        <time>2015-05-25T14:41:27Z</time>
      </trkpt>
      <trkpt lat="43.97426" lon="5.14206">
        <ele>394.76</ele>
        <time>2015-05-25T14:41:28Z</time>
      </trkpt>
      <trkpt lat="43.9742" lon="5.14202">
        <ele>394.76</ele>
        <time>2015-05-25T14:41:34Z</time>
      </trkpt>
      <trkpt lat="43.97415" lon="5.142">
        <ele>394.76</ele>
        <time>2015-05-25T14:41:37Z</time>
      </trkpt>
      <trkpt lat="43.97413" lon="5.142">
        <ele>394.76</ele>
        <time>2015-05-25T14:41:39Z</time>
      </trkpt>
      <trkpt lat="43.97407" lon="5.14203">
        <ele>395.72</ele>
        <time>2015-05-25T14:41:44Z</time>
      </trkpt>
      <trkpt lat="43.97406" lon="5.14208">
        <ele>395.72</ele>
        <time>2015-05-25T14:41:47Z</time>
      </trkpt>
      <trkpt lat="43.97403" lon="5.14212">
        <ele>396.2</ele>
        <time>2015-05-25T14:41:50Z</time>
      </trkpt>
      <trkpt lat="43.97397" lon="5.14213">
        <ele>396.2</ele>
        <time>2015-05-25T14:41:54Z</time>
      </trkpt>
      <trkpt lat="43.9739" lon="5.14218">
        <ele>396.68</ele>
        <time>2015-05-25T14:41:59Z</time>
      </trkpt>
      <trkpt lat="43.97387" lon="5.14221">
        <ele>397.16</ele>
        <time>2015-05-25T14:42:01Z</time>
      </trkpt>
      <trkpt lat="43.97378" lon="5.14229">
        <ele>398.12</ele>
        <time>2015-05-25T14:42:07Z</time>
      </trkpt>
      <trkpt lat="43.97374" lon="5.14232">
        <ele>398.12</ele>
        <time>2015-05-25T14:42:09Z</time>
      </trkpt>
      <trkpt lat="43.97359" lon="5.14239">
        <ele>400.53</ele>
        <time>2015-05-25T14:42:15Z</time>
      </trkpt>
      <trkpt lat="43.97355" lon="5.14246">
        <ele>400.53</ele>
        <time>2015-05-25T14:42:22Z</time>
      </trkpt>
      <trkpt lat="43.97356" lon="5.14249">
        <ele>400.53</ele>
        <time>2015-05-25T14:42:28Z</time>
      </trkpt>
      <trkpt lat="43.97355" lon="5.14266">
        <ele>400.53</ele>
        <time>2015-05-25T14:42:36Z</time>
      </trkpt>
      <trkpt lat="43.97353" lon="5.14282">
        <ele>400.53</ele>
        <time>2015-05-25T14:42:42Z</time>
      </trkpt>
      <trkpt lat="43.97348" lon="5.14279">
        <ele>400.53</ele>
        <time>2015-05-25T14:42:46Z</time>
      </trkpt>
      <trkpt lat="43.97348" lon="5.14277">
        <ele>400.05</ele>
        <time>2015-05-25T14:42:51Z</time>
      </trkpt>
      <trkpt lat="43.97348" lon="5.14277">
        <ele>400.05</ele>
        <time>2015-05-25T14:43:07Z</time>
      </trkpt>
      <trkpt lat="43.97348" lon="5.14276">
        <ele>400.05</ele>
        <time>2015-05-25T14:43:22Z</time>
      </trkpt>
      <trkpt lat="43.97348" lon="5.14276">
        <ele>399.57</ele>
        <time>2015-05-25T14:43:36Z</time>
      </trkpt>
      <trkpt lat="43.97349" lon="5.14277">
        <ele>399.57</ele>
        <time>2015-05-25T14:43:53Z</time>
      </trkpt>
      <trkpt lat="43.97349" lon="5.14277">
        <ele>399.57</ele>
        <time>2015-05-25T14:44:10Z</time>
      </trkpt>
      <trkpt lat="43.97348" lon="5.14277">
        <ele>399.57</ele>
        <time>2015-05-25T14:44:27Z</time>
      </trkpt>
      <trkpt lat="43.97348" lon="5.14277">
        <ele>399.57</ele>
        <time>2015-05-25T14:44:44Z</time>
      </trkpt>
      <trkpt lat="43.97348" lon="5.14277">
        <ele>399.57</ele>
        <time>2015-05-25T14:45:01Z</time>
      </trkpt>
      <trkpt lat="43.97347" lon="5.14277">
        <ele>399.08</ele>
        <time>2015-05-25T14:45:19Z</time>
      </trkpt>
      <trkpt lat="43.97347" lon="5.14278">
        <ele>399.57</ele>
        <time>2015-05-25T14:45:35Z</time>
      </trkpt>
      <trkpt lat="43.97347" lon="5.14277">
        <ele>400.05</ele>
        <time>2015-05-25T14:45:51Z</time>
      </trkpt>
      <trkpt lat="43.97347" lon="5.14277">
        <ele>399.57</ele>
        <time>2015-05-25T14:46:07Z</time>
      </trkpt>
      <trkpt lat="43.97348" lon="5.14277">
        <ele>399.57</ele>
        <time>2015-05-25T14:46:25Z</time>
      </trkpt>
      <trkpt lat="43.97349" lon="5.14278">
        <ele>400.05</ele>
        <time>2015-05-25T14:46:40Z</time>
      </trkpt>
      <trkpt lat="43.97349" lon="5.14278">
        <ele>400.05</ele>
        <time>2015-05-25T14:46:57Z</time>
      </trkpt>
      <trkpt lat="43.97349" lon="5.14278">
        <ele>400.05</ele>
        <time>2015-05-25T14:47:13Z</time>
      </trkpt>
      <trkpt lat="43.97349" lon="5.14278">
        <ele>400.05</ele>
        <time>2015-05-25T14:47:29Z</time>
      </trkpt>
      <trkpt lat="43.97349" lon="5.14278">
        <ele>400.05</ele>
        <time>2015-05-25T14:47:49Z</time>
      </trkpt>
      <trkpt lat="43.97348" lon="5.14277">
        <ele>400.05</ele>
        <time>2015-05-25T14:48:08Z</time>
      </trkpt>
      <trkpt lat="43.97348" lon="5.14276">
        <ele>401.01</ele>
        <time>2015-05-25T14:48:25Z</time>
      </trkpt>
      <trkpt lat="43.97348" lon="5.14276">
        <ele>401.01</ele>
        <time>2015-05-25T14:48:39Z</time>
      </trkpt>
      <trkpt lat="43.97348" lon="5.14277">
        <ele>400.53</ele>
        <time>2015-05-25T14:48:54Z</time>
      </trkpt>
      <trkpt lat="43.97348" lon="5.14277">
        <ele>400.53</ele>
        <time>2015-05-25T14:49:04Z</time>
      </trkpt>
      <trkpt lat="43.97348" lon="5.14278">
        <ele>400.05</ele>
        <time>2015-05-25T14:49:16Z</time>
      </trkpt>
      <trkpt lat="43.97348" lon="5.14278">
        <ele>402.45</ele>
        <time>2015-05-25T14:49:26Z</time>
      </trkpt>
      <trkpt lat="43.97348" lon="5.14278">
        <ele>401.01</ele>
        <time>2015-05-25T14:49:29Z</time>
      </trkpt>
      <trkpt lat="43.97348" lon="5.14277">
        <ele>400.53</ele>
        <time>2015-05-25T14:49:42Z</time>
      </trkpt>
      <trkpt lat="43.97348" lon="5.14277">
        <ele>401.01</ele>
        <time>2015-05-25T14:49:58Z</time>
      </trkpt>
      <trkpt lat="43.97347" lon="5.14264">
        <ele>400.53</ele>
        <time>2015-05-25T14:50:03Z</time>
      </trkpt>
      <trkpt lat="43.97346" lon="5.14252">
        <ele>400.05</ele>
        <time>2015-05-25T14:50:06Z</time>
      </trkpt>
      <trkpt lat="43.97337" lon="5.14237">
        <ele>401.01</ele>
        <time>2015-05-25T14:50:11Z</time>
      </trkpt>
      <trkpt lat="43.97319" lon="5.14232">
        <ele>401.97</ele>
        <time>2015-05-25T14:50:18Z</time>
      </trkpt>
      <trkpt lat="43.97296" lon="5.14234">
        <ele>402.45</ele>
        <time>2015-05-25T14:50:27Z</time>
      </trkpt>
      <trkpt lat="43.97289" lon="5.14237">
        <ele>403.41</ele>
        <time>2015-05-25T14:50:30Z</time>
      </trkpt>
      <trkpt lat="43.97272" lon="5.14241">
        <ele>402.93</ele>
        <time>2015-05-25T14:50:37Z</time>
      </trkpt>
      <trkpt lat="43.9727" lon="5.14253">
        <ele>403.89</ele>
        <time>2015-05-25T14:50:40Z</time>
      </trkpt>
      <trkpt lat="43.97268" lon="5.14281">
        <ele>405.33</ele>
        <time>2015-05-25T14:50:48Z</time>
      </trkpt>
      <trkpt lat="43.97252" lon="5.14301">
        <ele>405.81</ele>
        <time>2015-05-25T14:50:56Z</time>
      </trkpt>
      <trkpt lat="43.97231" lon="5.14314">
        <ele>406.77</ele>
        <time>2015-05-25T14:51:05Z</time>
      </trkpt>
      <trkpt lat="43.97219" lon="5.14327">
        <ele>407.26</ele>
        <time>2015-05-25T14:51:10Z</time>
      </trkpt>
      <trkpt lat="43.97198" lon="5.14346">
        <ele>408.7</ele>
        <time>2015-05-25T14:51:17Z</time>
      </trkpt>
      <trkpt lat="43.97193" lon="5.14357">
        <ele>409.18</ele>
        <time>2015-05-25T14:51:20Z</time>
      </trkpt>
      <trkpt lat="43.9718" lon="5.14367">
        <ele>410.14</ele>
        <time>2015-05-25T14:51:26Z</time>
      </trkpt>
      <trkpt lat="43.97164" lon="5.14376">
        <ele>410.62</ele>
        <time>2015-05-25T14:51:32Z</time>
      </trkpt>
      <trkpt lat="43.97139" lon="5.14381">
        <ele>411.1</ele>
        <time>2015-05-25T14:51:40Z</time>
      </trkpt>
      <trkpt lat="43.97129" lon="5.14387">
        <ele>412.06</ele>
        <time>2015-05-25T14:51:43Z</time>
      </trkpt>
      <trkpt lat="43.97107" lon="5.14399">
        <ele>412.54</ele>
        <time>2015-05-25T14:51:50Z</time>
      </trkpt>
      <trkpt lat="43.97082" lon="5.14399">
        <ele>413.02</ele>
        <time>2015-05-25T14:51:57Z</time>
      </trkpt>
      <trkpt lat="43.97054" lon="5.14404">
        <ele>413.5</ele>
        <time>2015-05-25T14:52:04Z</time>
      </trkpt>
      <trkpt lat="43.97033" lon="5.14395">
        <ele>413.5</ele>
        <time>2015-05-25T14:52:10Z</time>
      </trkpt>
      <trkpt lat="43.9703" lon="5.14391">
        <ele>413.5</ele>
        <time>2015-05-25T14:52:11Z</time>
      </trkpt>
      <trkpt lat="43.97027" lon="5.14387">
        <ele>413.02</ele>
        <time>2015-05-25T14:52:12Z</time>
      </trkpt>
      <trkpt lat="43.97015" lon="5.14361">
        <ele>413.02</ele>
        <time>2015-05-25T14:52:18Z</time>
      </trkpt>
      <trkpt lat="43.97005" lon="5.14341">
        <ele>413.98</ele>
        <time>2015-05-25T14:52:23Z</time>
      </trkpt>
      <trkpt lat="43.97002" lon="5.14339">
        <ele>414.47</ele>
        <time>2015-05-25T14:52:24Z</time>
      </trkpt>
      <trkpt lat="43.96999" lon="5.14338">
        <ele>414.47</ele>
        <time>2015-05-25T14:52:25Z</time>
      </trkpt>
      <trkpt lat="43.96996" lon="5.14338">
        <ele>414.95</ele>
        <time>2015-05-25T14:52:26Z</time>
      </trkpt>
      <trkpt lat="43.96993" lon="5.14338">
        <ele>414.95</ele>
        <time>2015-05-25T14:52:27Z</time>
      </trkpt>
      <trkpt lat="43.9699" lon="5.14339">
        <ele>414.95</ele>
        <time>2015-05-25T14:52:28Z</time>
      </trkpt>
      <trkpt lat="43.96987" lon="5.14339">
        <ele>414.95</ele>
        <time>2015-05-25T14:52:29Z</time>
      </trkpt>
      <trkpt lat="43.96984" lon="5.14339">
        <ele>415.43</ele>
        <time>2015-05-25T14:52:30Z</time>
      </trkpt>
      <trkpt lat="43.96982" lon="5.14339">
        <ele>415.43</ele>
        <time>2015-05-25T14:52:31Z</time>
      </trkpt>
      <trkpt lat="43.96979" lon="5.14339">
        <ele>415.91</ele>
        <time>2015-05-25T14:52:32Z</time>
      </trkpt>
      <trkpt lat="43.96966" lon="5.14349">
        <ele>416.87</ele>
        <time>2015-05-25T14:52:37Z</time>
      </trkpt>
      <trkpt lat="43.9696" lon="5.14362">
        <ele>417.35</ele>
        <time>2015-05-25T14:52:41Z</time>
      </trkpt>
      <trkpt lat="43.9696" lon="5.14374">
        <ele>417.83</ele>
        <time>2015-05-25T14:52:44Z</time>
      </trkpt>
      <trkpt lat="43.96958" lon="5.14377">
        <ele>418.31</ele>
        <time>2015-05-25T14:52:45Z</time>
      </trkpt>
      <trkpt lat="43.96955" lon="5.14378">
        <ele>418.79</ele>
        <time>2015-05-25T14:52:46Z</time>
      </trkpt>
      <trkpt lat="43.96953" lon="5.14379">
        <ele>418.79</ele>
        <time>2015-05-25T14:52:47Z</time>
      </trkpt>
      <trkpt lat="43.96951" lon="5.1438">
        <ele>418.79</ele>
        <time>2015-05-25T14:52:48Z</time>
      </trkpt>
      <trkpt lat="43.9695" lon="5.1438">
        <ele>418.79</ele>
        <time>2015-05-25T14:52:49Z</time>
      </trkpt>
      <trkpt lat="43.96948" lon="5.1438">
        <ele>418.79</ele>
        <time>2015-05-25T14:52:50Z</time>
      </trkpt>
      <trkpt lat="43.96946" lon="5.14379">
        <ele>418.79</ele>
        <time>2015-05-25T14:52:51Z</time>
      </trkpt>
      <trkpt lat="43.96944" lon="5.14378">
        <ele>419.27</ele>
        <time>2015-05-25T14:52:52Z</time>
      </trkpt>
      <trkpt lat="43.96942" lon="5.14376">
        <ele>418.79</ele>
        <time>2015-05-25T14:52:53Z</time>
      </trkpt>
      <trkpt lat="43.96933" lon="5.14364">
        <ele>418.79</ele>
        <time>2015-05-25T14:52:57Z</time>
      </trkpt>
      <trkpt lat="43.9693" lon="5.1436">
        <ele>418.79</ele>
        <time>2015-05-25T14:52:58Z</time>
      </trkpt>
      <trkpt lat="43.96921" lon="5.14345">
        <ele>419.27</ele>
        <time>2015-05-25T14:53:02Z</time>
      </trkpt>
      <trkpt lat="43.96919" lon="5.14343">
        <ele>419.27</ele>
        <time>2015-05-25T14:53:03Z</time>
      </trkpt>
      <trkpt lat="43.96907" lon="5.14327">
        <ele>419.27</ele>
        <time>2015-05-25T14:53:08Z</time>
      </trkpt>
      <trkpt lat="43.96889" lon="5.14308">
        <ele>418.79</ele>
        <time>2015-05-25T14:53:14Z</time>
      </trkpt>
      <trkpt lat="43.96878" lon="5.14298">
        <ele>418.79</ele>
        <time>2015-05-25T14:53:17Z</time>
      </trkpt>
      <trkpt lat="43.96875" lon="5.14293">
        <ele>418.79</ele>
        <time>2015-05-25T14:53:18Z</time>
      </trkpt>
      <trkpt lat="43.96873" lon="5.14289">
        <ele>418.79</ele>
        <time>2015-05-25T14:53:19Z</time>
      </trkpt>
      <trkpt lat="43.96862" lon="5.14256">
        <ele>419.27</ele>
        <time>2015-05-25T14:53:26Z</time>
      </trkpt>
      <trkpt lat="43.96847" lon="5.14217">
        <ele>419.27</ele>
        <time>2015-05-25T14:53:34Z</time>
      </trkpt>
      <trkpt lat="43.96841" lon="5.14202">
        <ele>419.75</ele>
        <time>2015-05-25T14:53:37Z</time>
      </trkpt>
      <trkpt lat="43.96838" lon="5.14198">
        <ele>420.23</ele>
        <time>2015-05-25T14:53:38Z</time>
      </trkpt>
      <trkpt lat="43.96836" lon="5.14194">
        <ele>420.23</ele>
        <time>2015-05-25T14:53:39Z</time>
      </trkpt>
      <trkpt lat="43.96834" lon="5.14189">
        <ele>420.23</ele>
        <time>2015-05-25T14:53:40Z</time>
      </trkpt>
      <trkpt lat="43.96832" lon="5.14184">
        <ele>420.23</ele>
        <time>2015-05-25T14:53:41Z</time>
      </trkpt>
      <trkpt lat="43.96831" lon="5.14179">
        <ele>420.71</ele>
        <time>2015-05-25T14:53:42Z</time>
      </trkpt>
      <trkpt lat="43.96815" lon="5.14141">
        <ele>421.68</ele>
        <time>2015-05-25T14:53:50Z</time>
      </trkpt>
      <trkpt lat="43.96803" lon="5.14113">
        <ele>421.19</ele>
        <time>2015-05-25T14:53:56Z</time>
      </trkpt>
      <trkpt lat="43.96792" lon="5.14078">
        <ele>421.68</ele>
        <time>2015-05-25T14:54:03Z</time>
      </trkpt>
      <trkpt lat="43.96792" lon="5.14064">
        <ele>422.64</ele>
        <time>2015-05-25T14:54:08Z</time>
      </trkpt>
      <trkpt lat="43.96792" lon="5.1406">
        <ele>422.64</ele>
        <time>2015-05-25T14:54:10Z</time>
      </trkpt>
      <trkpt lat="43.96793" lon="5.14057">
        <ele>422.64</ele>
        <time>2015-05-25T14:54:11Z</time>
      </trkpt>
      <trkpt lat="43.96794" lon="5.14054">
        <ele>422.64</ele>
        <time>2015-05-25T14:54:12Z</time>
      </trkpt>
      <trkpt lat="43.96795" lon="5.14051">
        <ele>423.12</ele>
        <time>2015-05-25T14:54:13Z</time>
      </trkpt>
      <trkpt lat="43.96796" lon="5.14048">
        <ele>423.12</ele>
        <time>2015-05-25T14:54:14Z</time>
      </trkpt>
      <trkpt lat="43.96797" lon="5.14044">
        <ele>423.12</ele>
        <time>2015-05-25T14:54:15Z</time>
      </trkpt>
      <trkpt lat="43.96799" lon="5.14041">
        <ele>423.6</ele>
        <time>2015-05-25T14:54:16Z</time>
      </trkpt>
      <trkpt lat="43.968" lon="5.14038">
        <ele>423.6</ele>
        <time>2015-05-25T14:54:17Z</time>
      </trkpt>
      <trkpt lat="43.96802" lon="5.14035">
        <ele>423.6</ele>
        <time>2015-05-25T14:54:18Z</time>
      </trkpt>
      <trkpt lat="43.96803" lon="5.14032">
        <ele>423.6</ele>
        <time>2015-05-25T14:54:19Z</time>
      </trkpt>
      <trkpt lat="43.96804" lon="5.14028">
        <ele>423.6</ele>
        <time>2015-05-25T14:54:20Z</time>
      </trkpt>
      <trkpt lat="43.96805" lon="5.14024">
        <ele>423.6</ele>
        <time>2015-05-25T14:54:21Z</time>
      </trkpt>
      <trkpt lat="43.96807" lon="5.1402">
        <ele>423.12</ele>
        <time>2015-05-25T14:54:22Z</time>
      </trkpt>
      <trkpt lat="43.96809" lon="5.14017">
        <ele>423.6</ele>
        <time>2015-05-25T14:54:23Z</time>
      </trkpt>
      <trkpt lat="43.9681" lon="5.14014">
        <ele>423.6</ele>
        <time>2015-05-25T14:54:24Z</time>
      </trkpt>
      <trkpt lat="43.96812" lon="5.14011">
        <ele>423.6</ele>
        <time>2015-05-25T14:54:25Z</time>
      </trkpt>
      <trkpt lat="43.96817" lon="5.13998">
        <ele>424.56</ele>
        <time>2015-05-25T14:54:29Z</time>
      </trkpt>
      <trkpt lat="43.96819" lon="5.13982">
        <ele>426</ele>
        <time>2015-05-25T14:54:34Z</time>
      </trkpt>
      <trkpt lat="43.96822" lon="5.1397">
        <ele>426</ele>
        <time>2015-05-25T14:54:38Z</time>
      </trkpt>
      <trkpt lat="43.96821" lon="5.13967">
        <ele>426</ele>
        <time>2015-05-25T14:54:39Z</time>
      </trkpt>
      <trkpt lat="43.96819" lon="5.13965">
        <ele>426</ele>
        <time>2015-05-25T14:54:40Z</time>
      </trkpt>
      <trkpt lat="43.96817" lon="5.13965">
        <ele>426</ele>
        <time>2015-05-25T14:54:41Z</time>
      </trkpt>
      <trkpt lat="43.96815" lon="5.13965">
        <ele>426.48</ele>
        <time>2015-05-25T14:54:42Z</time>
      </trkpt>
      <trkpt lat="43.96813" lon="5.13967">
        <ele>426.96</ele>
        <time>2015-05-25T14:54:43Z</time>
      </trkpt>
      <trkpt lat="43.96812" lon="5.13968">
        <ele>426.96</ele>
        <time>2015-05-25T14:54:44Z</time>
      </trkpt>
      <trkpt lat="43.9681" lon="5.13969">
        <ele>426.48</ele>
        <time>2015-05-25T14:54:45Z</time>
      </trkpt>
      <trkpt lat="43.96807" lon="5.1397">
        <ele>426.48</ele>
        <time>2015-05-25T14:54:46Z</time>
      </trkpt>
      <trkpt lat="43.96805" lon="5.13971">
        <ele>426.96</ele>
        <time>2015-05-25T14:54:47Z</time>
      </trkpt>
      <trkpt lat="43.96803" lon="5.1397">
        <ele>427.44</ele>
        <time>2015-05-25T14:54:48Z</time>
      </trkpt>
      <trkpt lat="43.96795" lon="5.13972">
        <ele>428.4</ele>
        <time>2015-05-25T14:54:51Z</time>
      </trkpt>
      <trkpt lat="43.96775" lon="5.13966">
        <ele>429.85</ele>
        <time>2015-05-25T14:54:59Z</time>
      </trkpt>
      <trkpt lat="43.96758" lon="5.13964">
        <ele>430.81</ele>
        <time>2015-05-25T14:55:06Z</time>
      </trkpt>
      <trkpt lat="43.96744" lon="5.13964">
        <ele>431.77</ele>
        <time>2015-05-25T14:55:13Z</time>
      </trkpt>
      <trkpt lat="43.96744" lon="5.13964">
        <ele>431.29</ele>
        <time>2015-05-25T14:55:21Z</time>
      </trkpt>
      <trkpt lat="43.96746" lon="5.13964">
        <ele>431.29</ele>
        <time>2015-05-25T14:55:41Z</time>
      </trkpt>
      <trkpt lat="43.96746" lon="5.13965">
        <ele>431.77</ele>
        <time>2015-05-25T14:56:03Z</time>
      </trkpt>
      <trkpt lat="43.96745" lon="5.13965">
        <ele>431.77</ele>
        <time>2015-05-25T14:56:21Z</time>
      </trkpt>
      <trkpt lat="43.96745" lon="5.13965">
        <ele>431.29</ele>
        <time>2015-05-25T14:56:39Z</time>
      </trkpt>
      <trkpt lat="43.96745" lon="5.13964">
        <ele>431.29</ele>
        <time>2015-05-25T14:56:57Z</time>
      </trkpt>
      <trkpt lat="43.96744" lon="5.13964">
        <ele>431.29</ele>
        <time>2015-05-25T14:57:17Z</time>
      </trkpt>
      <trkpt lat="43.96744" lon="5.13965">
        <ele>431.77</ele>
        <time>2015-05-25T14:57:35Z</time>
      </trkpt>
      <trkpt lat="43.96744" lon="5.13965">
        <ele>431.29</ele>
        <time>2015-05-25T14:57:53Z</time>
      </trkpt>
      <trkpt lat="43.96744" lon="5.13966">
        <ele>431.29</ele>
        <time>2015-05-25T14:58:13Z</time>
      </trkpt>
      <trkpt lat="43.96744" lon="5.13966">
        <ele>430.81</ele>
        <time>2015-05-25T14:58:32Z</time>
      </trkpt>
      <trkpt lat="43.96744" lon="5.13966">
        <ele>432.25</ele>
        <time>2015-05-25T14:58:39Z</time>
      </trkpt>
      <trkpt lat="43.96744" lon="5.13966">
        <ele>433.21</ele>
        <time>2015-05-25T14:58:54Z</time>
      </trkpt>
      <trkpt lat="43.96745" lon="5.13966">
        <ele>433.21</ele>
        <time>2015-05-25T14:58:55Z</time>
      </trkpt>
      <trkpt lat="43.96746" lon="5.13965">
        <ele>433.21</ele>
        <time>2015-05-25T14:58:56Z</time>
      </trkpt>
      <trkpt lat="43.9676" lon="5.13963">
        <ele>430.81</ele>
        <time>2015-05-25T14:59:02Z</time>
      </trkpt>
      <trkpt lat="43.96775" lon="5.13964">
        <ele>429.85</ele>
        <time>2015-05-25T14:59:07Z</time>
      </trkpt>
      <trkpt lat="43.96776" lon="5.13963">
        <ele>429.37</ele>
        <time>2015-05-25T14:59:12Z</time>
      </trkpt>
      <trkpt lat="43.96776" lon="5.13963">
        <ele>429.37</ele>
        <time>2015-05-25T14:59:30Z</time>
      </trkpt>
      <trkpt lat="43.96776" lon="5.13964">
        <ele>429.37</ele>
        <time>2015-05-25T14:59:49Z</time>
      </trkpt>
      <trkpt lat="43.96776" lon="5.13965">
        <ele>429.37</ele>
        <time>2015-05-25T15:00:06Z</time>
      </trkpt>
      <trkpt lat="43.96776" lon="5.13964">
        <ele>429.85</ele>
        <time>2015-05-25T15:00:25Z</time>
      </trkpt>
      <trkpt lat="43.96776" lon="5.13964">
        <ele>429.37</ele>
        <time>2015-05-25T15:00:46Z</time>
      </trkpt>
      <trkpt lat="43.96776" lon="5.13964">
        <ele>429.85</ele>
        <time>2015-05-25T15:01:05Z</time>
      </trkpt>
      <trkpt lat="43.96776" lon="5.13963">
        <ele>430.33</ele>
        <time>2015-05-25T15:01:23Z</time>
      </trkpt>
      <trkpt lat="43.96777" lon="5.13963">
        <ele>430.33</ele>
        <time>2015-05-25T15:01:45Z</time>
      </trkpt>
      <trkpt lat="43.96777" lon="5.13963">
        <ele>430.33</ele>
        <time>2015-05-25T15:02:07Z</time>
      </trkpt>
      <trkpt lat="43.96777" lon="5.13964">
        <ele>430.33</ele>
        <time>2015-05-25T15:02:27Z</time>
      </trkpt>
      <trkpt lat="43.96777" lon="5.13965">
        <ele>430.33</ele>
        <time>2015-05-25T15:02:51Z</time>
      </trkpt>
      <trkpt lat="43.96777" lon="5.13964">
        <ele>430.33</ele>
        <time>2015-05-25T15:03:14Z</time>
      </trkpt>
      <trkpt lat="43.96777" lon="5.13964">
        <ele>431.29</ele>
        <time>2015-05-25T15:03:34Z</time>
      </trkpt>
      <trkpt lat="43.96777" lon="5.13963">
        <ele>431.77</ele>
        <time>2015-05-25T15:03:54Z</time>
      </trkpt>
      <trkpt lat="43.96777" lon="5.13963">
        <ele>430.33</ele>
        <time>2015-05-25T15:04:14Z</time>
      </trkpt>
      <trkpt lat="43.96777" lon="5.13963">
        <ele>430.81</ele>
        <time>2015-05-25T15:04:38Z</time>
      </trkpt>
      <trkpt lat="43.96777" lon="5.13963">
        <ele>431.29</ele>
        <time>2015-05-25T15:04:57Z</time>
      </trkpt>
      <trkpt lat="43.96778" lon="5.13963">
        <ele>431.29</ele>
        <time>2015-05-25T15:05:14Z</time>
      </trkpt>
      <trkpt lat="43.96777" lon="5.13964">
        <ele>431.29</ele>
        <time>2015-05-25T15:05:33Z</time>
      </trkpt>
      <trkpt lat="43.96778" lon="5.13965">
        <ele>431.77</ele>
        <time>2015-05-25T15:05:37Z</time>
      </trkpt>
      <trkpt lat="43.9678" lon="5.13966">
        <ele>431.77</ele>
        <time>2015-05-25T15:05:38Z</time>
      </trkpt>
      <trkpt lat="43.96783" lon="5.13968">
        <ele>431.29</ele>
        <time>2015-05-25T15:05:39Z</time>
      </trkpt>
      <trkpt lat="43.96795" lon="5.13971">
        <ele>429.85</ele>
        <time>2015-05-25T15:05:43Z</time>
      </trkpt>
      <trkpt lat="43.96811" lon="5.13968">
        <ele>428.4</ele>
        <time>2015-05-25T15:05:47Z</time>
      </trkpt>
      <trkpt lat="43.96815" lon="5.13965">
        <ele>427.92</ele>
        <time>2015-05-25T15:05:48Z</time>
      </trkpt>
      <trkpt lat="43.96819" lon="5.13963">
        <ele>427.44</ele>
        <time>2015-05-25T15:05:49Z</time>
      </trkpt>
      <trkpt lat="43.96824" lon="5.13963">
        <ele>427.92</ele>
        <time>2015-05-25T15:05:50Z</time>
      </trkpt>
      <trkpt lat="43.96826" lon="5.13967">
        <ele>427.92</ele>
        <time>2015-05-25T15:05:51Z</time>
      </trkpt>
      <trkpt lat="43.96825" lon="5.13972">
        <ele>427.92</ele>
        <time>2015-05-25T15:05:52Z</time>
      </trkpt>
      <trkpt lat="43.96824" lon="5.13977">
        <ele>427.44</ele>
        <time>2015-05-25T15:05:53Z</time>
      </trkpt>
      <trkpt lat="43.96823" lon="5.1398">
        <ele>427.44</ele>
        <time>2015-05-25T15:05:54Z</time>
      </trkpt>
      <trkpt lat="43.96822" lon="5.13984">
        <ele>427.44</ele>
        <time>2015-05-25T15:05:55Z</time>
      </trkpt>
      <trkpt lat="43.96821" lon="5.13986">
        <ele>426.96</ele>
        <time>2015-05-25T15:05:56Z</time>
      </trkpt>
      <trkpt lat="43.9682" lon="5.13992">
        <ele>426.48</ele>
        <time>2015-05-25T15:05:59Z</time>
      </trkpt>
      <trkpt lat="43.96818" lon="5.13995">
        <ele>426</ele>
        <time>2015-05-25T15:06:03Z</time>
      </trkpt>
      <trkpt lat="43.96819" lon="5.13997">
        <ele>426</ele>
        <time>2015-05-25T15:06:05Z</time>
      </trkpt>
      <trkpt lat="43.9682" lon="5.13997">
        <ele>425.52</ele>
        <time>2015-05-25T15:06:06Z</time>
      </trkpt>
      <trkpt lat="43.96821" lon="5.13995">
        <ele>426</ele>
        <time>2015-05-25T15:06:07Z</time>
      </trkpt>
      <trkpt lat="43.96822" lon="5.13993">
        <ele>426</ele>
        <time>2015-05-25T15:06:08Z</time>
      </trkpt>
      <trkpt lat="43.96824" lon="5.13991">
        <ele>426</ele>
        <time>2015-05-25T15:06:09Z</time>
      </trkpt>
      <trkpt lat="43.96833" lon="5.1398">
        <ele>426</ele>
        <time>2015-05-25T15:06:15Z</time>
      </trkpt>
      <trkpt lat="43.96842" lon="5.13966">
        <ele>426.48</ele>
        <time>2015-05-25T15:06:22Z</time>
      </trkpt>
      <trkpt lat="43.96845" lon="5.13962">
        <ele>425.52</ele>
        <time>2015-05-25T15:06:29Z</time>
      </trkpt>
      <trkpt lat="43.96845" lon="5.13961">
        <ele>425.04</ele>
        <time>2015-05-25T15:06:36Z</time>
      </trkpt>
      <trkpt lat="43.96847" lon="5.1396">
        <ele>425.52</ele>
        <time>2015-05-25T15:06:37Z</time>
      </trkpt>
      <trkpt lat="43.9686" lon="5.13952">
        <ele>424.56</ele>
        <time>2015-05-25T15:06:42Z</time>
      </trkpt>
      <trkpt lat="43.96882" lon="5.1394">
        <ele>425.52</ele>
        <time>2015-05-25T15:06:49Z</time>
      </trkpt>
      <trkpt lat="43.96897" lon="5.13933">
        <ele>425.04</ele>
        <time>2015-05-25T15:06:55Z</time>
      </trkpt>
      <trkpt lat="43.9692" lon="5.13924">
        <ele>423.6</ele>
        <time>2015-05-25T15:07:03Z</time>
      </trkpt>
      <trkpt lat="43.96933" lon="5.13908">
        <ele>423.12</ele>
        <time>2015-05-25T15:07:09Z</time>
      </trkpt>
      <trkpt lat="43.96933" lon="5.13906">
        <ele>423.12</ele>
        <time>2015-05-25T15:07:10Z</time>
      </trkpt>
      <trkpt lat="43.96932" lon="5.13904">
        <ele>422.64</ele>
        <time>2015-05-25T15:07:11Z</time>
      </trkpt>
      <trkpt lat="43.9693" lon="5.13904">
        <ele>422.16</ele>
        <time>2015-05-25T15:07:12Z</time>
      </trkpt>
      <trkpt lat="43.96929" lon="5.13905">
        <ele>422.16</ele>
        <time>2015-05-25T15:07:13Z</time>
      </trkpt>
      <trkpt lat="43.96927" lon="5.13906">
        <ele>422.64</ele>
        <time>2015-05-25T15:07:14Z</time>
      </trkpt>
      <trkpt lat="43.96912" lon="5.13914">
        <ele>422.16</ele>
        <time>2015-05-25T15:07:20Z</time>
      </trkpt>
      <trkpt lat="43.96891" lon="5.13917">
        <ele>420.23</ele>
        <time>2015-05-25T15:07:27Z</time>
      </trkpt>
      <trkpt lat="43.96875" lon="5.13918">
        <ele>419.75</ele>
        <time>2015-05-25T15:07:33Z</time>
      </trkpt>
      <trkpt lat="43.96876" lon="5.13918">
        <ele>420.71</ele>
        <time>2015-05-25T15:07:39Z</time>
      </trkpt>
      <trkpt lat="43.96876" lon="5.13918">
        <ele>421.19</ele>
        <time>2015-05-25T15:07:40Z</time>
      </trkpt>
      <trkpt lat="43.96873" lon="5.13918">
        <ele>419.75</ele>
        <time>2015-05-25T15:07:44Z</time>
      </trkpt>
      <trkpt lat="43.9687" lon="5.13919">
        <ele>419.27</ele>
        <time>2015-05-25T15:07:45Z</time>
      </trkpt>
      <trkpt lat="43.96867" lon="5.1392">
        <ele>418.79</ele>
        <time>2015-05-25T15:07:46Z</time>
      </trkpt>
      <trkpt lat="43.96863" lon="5.13921">
        <ele>418.79</ele>
        <time>2015-05-25T15:07:47Z</time>
      </trkpt>
      <trkpt lat="43.96859" lon="5.13922">
        <ele>417.83</ele>
        <time>2015-05-25T15:07:48Z</time>
      </trkpt>
      <trkpt lat="43.96855" lon="5.13924">
        <ele>417.35</ele>
        <time>2015-05-25T15:07:49Z</time>
      </trkpt>
      <trkpt lat="43.96852" lon="5.13924">
        <ele>416.87</ele>
        <time>2015-05-25T15:07:50Z</time>
      </trkpt>
      <trkpt lat="43.96837" lon="5.13924">
        <ele>414.95</ele>
        <time>2015-05-25T15:07:55Z</time>
      </trkpt>
      <trkpt lat="43.96826" lon="5.13923">
        <ele>414.47</ele>
        <time>2015-05-25T15:08:01Z</time>
      </trkpt>
      <trkpt lat="43.96802" lon="5.13921">
        <ele>412.06</ele>
        <time>2015-05-25T15:08:08Z</time>
      </trkpt>
      <trkpt lat="43.96787" lon="5.13918">
        <ele>409.66</ele>
        <time>2015-05-25T15:08:13Z</time>
      </trkpt>
      <trkpt lat="43.96776" lon="5.13917">
        <ele>408.22</ele>
        <time>2015-05-25T15:08:17Z</time>
      </trkpt>
      <trkpt lat="43.96757" lon="5.13918">
        <ele>408.22</ele>
        <time>2015-05-25T15:08:22Z</time>
      </trkpt>
      <trkpt lat="43.96743" lon="5.13926">
        <ele>406.29</ele>
        <time>2015-05-25T15:08:29Z</time>
      </trkpt>
      <trkpt lat="43.96721" lon="5.13933">
        <ele>403.89</ele>
        <time>2015-05-25T15:08:36Z</time>
      </trkpt>
      <trkpt lat="43.96704" lon="5.13939">
        <ele>403.41</ele>
        <time>2015-05-25T15:08:43Z</time>
      </trkpt>
      <trkpt lat="43.96689" lon="5.13939">
        <ele>404.85</ele>
        <time>2015-05-25T15:08:50Z</time>
      </trkpt>
      <trkpt lat="43.96675" lon="5.13944">
        <ele>405.81</ele>
        <time>2015-05-25T15:08:57Z</time>
      </trkpt>
      <trkpt lat="43.96673" lon="5.13946">
        <ele>406.29</ele>
        <time>2015-05-25T15:08:59Z</time>
      </trkpt>
      <trkpt lat="43.96653" lon="5.13947">
        <ele>404.37</ele>
        <time>2015-05-25T15:09:06Z</time>
      </trkpt>
      <trkpt lat="43.96648" lon="5.13947">
        <ele>403.89</ele>
        <time>2015-05-25T15:09:07Z</time>
      </trkpt>
      <trkpt lat="43.96631" lon="5.13947">
        <ele>402.93</ele>
        <time>2015-05-25T15:09:10Z</time>
      </trkpt>
      <trkpt lat="43.96625" lon="5.13949">
        <ele>401.97</ele>
        <time>2015-05-25T15:09:11Z</time>
      </trkpt>
      <trkpt lat="43.9662" lon="5.1395">
        <ele>401.97</ele>
        <time>2015-05-25T15:09:12Z</time>
      </trkpt>
      <trkpt lat="43.96614" lon="5.13951">
        <ele>401.49</ele>
        <time>2015-05-25T15:09:13Z</time>
      </trkpt>
      <trkpt lat="43.96608" lon="5.13953">
        <ele>401.49</ele>
        <time>2015-05-25T15:09:14Z</time>
      </trkpt>
      <trkpt lat="43.96598" lon="5.13957">
        <ele>400.53</ele>
        <time>2015-05-25T15:09:16Z</time>
      </trkpt>
      <trkpt lat="43.96586" lon="5.13972">
        <ele>399.08</ele>
        <time>2015-05-25T15:09:20Z</time>
      </trkpt>
      <trkpt lat="43.96581" lon="5.13982">
        <ele>397.64</ele>
        <time>2015-05-25T15:09:22Z</time>
      </trkpt>
      <trkpt lat="43.96568" lon="5.14012">
        <ele>396.68</ele>
        <time>2015-05-25T15:09:26Z</time>
      </trkpt>
      <trkpt lat="43.96548" lon="5.1405">
        <ele>394.76</ele>
        <time>2015-05-25T15:09:31Z</time>
      </trkpt>
      <trkpt lat="43.96531" lon="5.14081">
        <ele>392.84</ele>
        <time>2015-05-25T15:09:35Z</time>
      </trkpt>
      <trkpt lat="43.96526" lon="5.14089">
        <ele>392.36</ele>
        <time>2015-05-25T15:09:36Z</time>
      </trkpt>
      <trkpt lat="43.96513" lon="5.14111">
        <ele>392.36</ele>
        <time>2015-05-25T15:09:39Z</time>
      </trkpt>
      <trkpt lat="43.96508" lon="5.14117">
        <ele>392.36</ele>
        <time>2015-05-25T15:09:40Z</time>
      </trkpt>
      <trkpt lat="43.96503" lon="5.14122">
        <ele>392.36</ele>
        <time>2015-05-25T15:09:41Z</time>
      </trkpt>
      <trkpt lat="43.96498" lon="5.14126">
        <ele>391.87</ele>
        <time>2015-05-25T15:09:42Z</time>
      </trkpt>
      <trkpt lat="43.96494" lon="5.1413">
        <ele>392.36</ele>
        <time>2015-05-25T15:09:43Z</time>
      </trkpt>
      <trkpt lat="43.96489" lon="5.14133">
        <ele>392.36</ele>
        <time>2015-05-25T15:09:44Z</time>
      </trkpt>
      <trkpt lat="43.96476" lon="5.1414">
        <ele>391.39</ele>
        <time>2015-05-25T15:09:47Z</time>
      </trkpt>
      <trkpt lat="43.96471" lon="5.14142">
        <ele>391.39</ele>
        <time>2015-05-25T15:09:48Z</time>
      </trkpt>
      <trkpt lat="43.96467" lon="5.14143">
        <ele>391.39</ele>
        <time>2015-05-25T15:09:49Z</time>
      </trkpt>
      <trkpt lat="43.96464" lon="5.14143">
        <ele>390.91</ele>
        <time>2015-05-25T15:09:50Z</time>
      </trkpt>
      <trkpt lat="43.96461" lon="5.14144">
        <ele>390.91</ele>
        <time>2015-05-25T15:09:51Z</time>
      </trkpt>
      <trkpt lat="43.96459" lon="5.14144">
        <ele>390.91</ele>
        <time>2015-05-25T15:09:52Z</time>
      </trkpt>
      <trkpt lat="43.96457" lon="5.14146">
        <ele>390.91</ele>
        <time>2015-05-25T15:09:53Z</time>
      </trkpt>
      <trkpt lat="43.96455" lon="5.14148">
        <ele>390.91</ele>
        <time>2015-05-25T15:09:54Z</time>
      </trkpt>
      <trkpt lat="43.96442" lon="5.14162">
        <ele>391.87</ele>
        <time>2015-05-25T15:10:00Z</time>
      </trkpt>
      <trkpt lat="43.96433" lon="5.14172">
        <ele>392.36</ele>
        <time>2015-05-25T15:10:06Z</time>
      </trkpt>
      <trkpt lat="43.96432" lon="5.14172">
        <ele>392.36</ele>
        <time>2015-05-25T15:10:07Z</time>
      </trkpt>
      <trkpt lat="43.9643" lon="5.14172">
        <ele>392.36</ele>
        <time>2015-05-25T15:10:08Z</time>
      </trkpt>
      <trkpt lat="43.96428" lon="5.14171">
        <ele>392.36</ele>
        <time>2015-05-25T15:10:09Z</time>
      </trkpt>
      <trkpt lat="43.96426" lon="5.1417">
        <ele>392.84</ele>
        <time>2015-05-25T15:10:10Z</time>
      </trkpt>
      <trkpt lat="43.96425" lon="5.14169">
        <ele>392.84</ele>
        <time>2015-05-25T15:10:11Z</time>
      </trkpt>
      <trkpt lat="43.96423" lon="5.14168">
        <ele>392.84</ele>
        <time>2015-05-25T15:10:12Z</time>
      </trkpt>
      <trkpt lat="43.96423" lon="5.14166">
        <ele>392.84</ele>
        <time>2015-05-25T15:10:13Z</time>
      </trkpt>
      <trkpt lat="43.96422" lon="5.14164">
        <ele>393.32</ele>
        <time>2015-05-25T15:10:14Z</time>
      </trkpt>
      <trkpt lat="43.96421" lon="5.14164">
        <ele>393.8</ele>
        <time>2015-05-25T15:10:19Z</time>
      </trkpt>
      <trkpt lat="43.9642" lon="5.14164">
        <ele>394.28</ele>
        <time>2015-05-25T15:10:30Z</time>
      </trkpt>
      <trkpt lat="43.96419" lon="5.14165">
        <ele>394.28</ele>
        <time>2015-05-25T15:10:44Z</time>
      </trkpt>
      <trkpt lat="43.96418" lon="5.14165">
        <ele>394.28</ele>
        <time>2015-05-25T15:10:56Z</time>
      </trkpt>
      <trkpt lat="43.96418" lon="5.14165">
        <ele>394.28</ele>
        <time>2015-05-25T15:11:14Z</time>
      </trkpt>
      <trkpt lat="43.96417" lon="5.14166">
        <ele>393.32</ele>
        <time>2015-05-25T15:11:32Z</time>
      </trkpt>
      <trkpt lat="43.96417" lon="5.14168">
        <ele>393.8</ele>
        <time>2015-05-25T15:11:47Z</time>
      </trkpt>
      <trkpt lat="43.96418" lon="5.14169">
        <ele>393.8</ele>
        <time>2015-05-25T15:12:01Z</time>
      </trkpt>
      <trkpt lat="43.96419" lon="5.14169">
        <ele>393.32</ele>
        <time>2015-05-25T15:12:19Z</time>
      </trkpt>
      <trkpt lat="43.96419" lon="5.1417">
        <ele>394.76</ele>
        <time>2015-05-25T15:12:24Z</time>
      </trkpt>
      <trkpt lat="43.9642" lon="5.14168">
        <ele>393.8</ele>
        <time>2015-05-25T15:12:29Z</time>
      </trkpt>
      <trkpt lat="43.96419" lon="5.14165">
        <ele>393.8</ele>
        <time>2015-05-25T15:12:38Z</time>
      </trkpt>
      <trkpt lat="43.9642" lon="5.14163">
        <ele>393.8</ele>
        <time>2015-05-25T15:12:44Z</time>
      </trkpt>
      <trkpt lat="43.96421" lon="5.14161">
        <ele>393.32</ele>
        <time>2015-05-25T15:12:50Z</time>
      </trkpt>
      <trkpt lat="43.96426" lon="5.14156">
        <ele>393.32</ele>
        <time>2015-05-25T15:12:55Z</time>
      </trkpt>
      <trkpt lat="43.9643" lon="5.14145">
        <ele>394.28</ele>
        <time>2015-05-25T15:13:01Z</time>
      </trkpt>
      <trkpt lat="43.96436" lon="5.14136">
        <ele>396.2</ele>
        <time>2015-05-25T15:13:05Z</time>
      </trkpt>
      <trkpt lat="43.96445" lon="5.14117">
        <ele>397.16</ele>
        <time>2015-05-25T15:13:13Z</time>
      </trkpt>
      <trkpt lat="43.9645" lon="5.14107">
        <ele>398.6</ele>
        <time>2015-05-25T15:13:17Z</time>
      </trkpt>
      <trkpt lat="43.96451" lon="5.14104">
        <ele>399.08</ele>
        <time>2015-05-25T15:13:18Z</time>
      </trkpt>
      <trkpt lat="43.96453" lon="5.14102">
        <ele>399.08</ele>
        <time>2015-05-25T15:13:19Z</time>
      </trkpt>
      <trkpt lat="43.96457" lon="5.14078">
        <ele>401.01</ele>
        <time>2015-05-25T15:13:27Z</time>
      </trkpt>
      <trkpt lat="43.96455" lon="5.14052">
        <ele>401.49</ele>
        <time>2015-05-25T15:13:35Z</time>
      </trkpt>
      <trkpt lat="43.96456" lon="5.14018">
        <ele>401.97</ele>
        <time>2015-05-25T15:13:44Z</time>
      </trkpt>
      <trkpt lat="43.9646" lon="5.13989">
        <ele>403.41</ele>
        <time>2015-05-25T15:13:51Z</time>
      </trkpt>
      <trkpt lat="43.96453" lon="5.13957">
        <ele>403.89</ele>
        <time>2015-05-25T15:13:58Z</time>
      </trkpt>
      <trkpt lat="43.96442" lon="5.13931">
        <ele>404.37</ele>
        <time>2015-05-25T15:14:05Z</time>
      </trkpt>
      <trkpt lat="43.96423" lon="5.13912">
        <ele>405.81</ele>
        <time>2015-05-25T15:14:13Z</time>
      </trkpt>
      <trkpt lat="43.96408" lon="5.139">
        <ele>407.74</ele>
        <time>2015-05-25T15:14:20Z</time>
      </trkpt>
      <trkpt lat="43.96396" lon="5.13893">
        <ele>409.66</ele>
        <time>2015-05-25T15:14:27Z</time>
      </trkpt>
      <trkpt lat="43.96385" lon="5.13886">
        <ele>412.54</ele>
        <time>2015-05-25T15:14:34Z</time>
      </trkpt>
      <trkpt lat="43.96374" lon="5.1388">
        <ele>413.5</ele>
        <time>2015-05-25T15:14:41Z</time>
      </trkpt>
      <trkpt lat="43.96371" lon="5.13878">
        <ele>413.98</ele>
        <time>2015-05-25T15:14:43Z</time>
      </trkpt>
      <trkpt lat="43.96356" lon="5.13869">
        <ele>415.91</ele>
        <time>2015-05-25T15:14:52Z</time>
      </trkpt>
      <trkpt lat="43.96345" lon="5.13861">
        <ele>417.35</ele>
        <time>2015-05-25T15:14:59Z</time>
      </trkpt>
      <trkpt lat="43.96332" lon="5.13851">
        <ele>418.31</ele>
        <time>2015-05-25T15:15:07Z</time>
      </trkpt>
      <trkpt lat="43.9632" lon="5.13843">
        <ele>420.23</ele>
        <time>2015-05-25T15:15:14Z</time>
      </trkpt>
      <trkpt lat="43.96307" lon="5.13834">
        <ele>422.16</ele>
        <time>2015-05-25T15:15:22Z</time>
      </trkpt>
      <trkpt lat="43.96295" lon="5.13825">
        <ele>423.6</ele>
        <time>2015-05-25T15:15:29Z</time>
      </trkpt>
      <trkpt lat="43.96278" lon="5.13814">
        <ele>426</ele>
        <time>2015-05-25T15:15:37Z</time>
      </trkpt>
      <trkpt lat="43.96263" lon="5.13805">
        <ele>427.92</ele>
        <time>2015-05-25T15:15:44Z</time>
      </trkpt>
      <trkpt lat="43.9626" lon="5.13802">
        <ele>428.89</ele>
        <time>2015-05-25T15:15:46Z</time>
      </trkpt>
      <trkpt lat="43.96244" lon="5.1379">
        <ele>430.33</ele>
        <time>2015-05-25T15:15:54Z</time>
      </trkpt>
      <trkpt lat="43.96225" lon="5.13775">
        <ele>432.25</ele>
        <time>2015-05-25T15:16:04Z</time>
      </trkpt>
      <trkpt lat="43.96213" lon="5.13764">
        <ele>433.69</ele>
        <time>2015-05-25T15:16:11Z</time>
      </trkpt>
      <trkpt lat="43.96199" lon="5.13753">
        <ele>435.61</ele>
        <time>2015-05-25T15:16:18Z</time>
      </trkpt>
      <trkpt lat="43.96185" lon="5.13742">
        <ele>437.54</ele>
        <time>2015-05-25T15:16:26Z</time>
      </trkpt>
      <trkpt lat="43.96172" lon="5.13729">
        <ele>438.98</ele>
        <time>2015-05-25T15:16:35Z</time>
      </trkpt>
      <trkpt lat="43.9616" lon="5.13715">
        <ele>441.38</ele>
        <time>2015-05-25T15:16:44Z</time>
      </trkpt>
      <trkpt lat="43.9615" lon="5.13704">
        <ele>442.82</ele>
        <time>2015-05-25T15:16:51Z</time>
      </trkpt>
      <trkpt lat="43.96144" lon="5.13697">
        <ele>444.27</ele>
        <time>2015-05-25T15:16:56Z</time>
      </trkpt>
      <trkpt lat="43.96141" lon="5.13694">
        <ele>444.75</ele>
        <time>2015-05-25T15:16:58Z</time>
      </trkpt>
      <trkpt lat="43.9614" lon="5.13693">
        <ele>444.75</ele>
        <time>2015-05-25T15:16:59Z</time>
      </trkpt>
      <trkpt lat="43.96139" lon="5.13692">
        <ele>445.23</ele>
        <time>2015-05-25T15:17:00Z</time>
      </trkpt>
      <trkpt lat="43.96133" lon="5.13685">
        <ele>446.19</ele>
        <time>2015-05-25T15:17:04Z</time>
      </trkpt>
      <trkpt lat="43.96131" lon="5.13684">
        <ele>446.19</ele>
        <time>2015-05-25T15:17:05Z</time>
      </trkpt>
      <trkpt lat="43.9613" lon="5.13682">
        <ele>446.19</ele>
        <time>2015-05-25T15:17:06Z</time>
      </trkpt>
      <trkpt lat="43.96117" lon="5.13674">
        <ele>449.07</ele>
        <time>2015-05-25T15:17:15Z</time>
      </trkpt>
      <trkpt lat="43.96106" lon="5.13667">
        <ele>450.52</ele>
        <time>2015-05-25T15:17:22Z</time>
      </trkpt>
      <trkpt lat="43.961" lon="5.13662">
        <ele>451</ele>
        <time>2015-05-25T15:17:26Z</time>
      </trkpt>
      <trkpt lat="43.96088" lon="5.1365">
        <ele>451.96</ele>
        <time>2015-05-25T15:17:33Z</time>
      </trkpt>
      <trkpt lat="43.96075" lon="5.1364">
        <ele>453.4</ele>
        <time>2015-05-25T15:17:40Z</time>
      </trkpt>
      <trkpt lat="43.96064" lon="5.13633">
        <ele>454.84</ele>
        <time>2015-05-25T15:17:46Z</time>
      </trkpt>
      <trkpt lat="43.96047" lon="5.1362">
        <ele>456.76</ele>
        <time>2015-05-25T15:17:53Z</time>
      </trkpt>
      <trkpt lat="43.96028" lon="5.13612">
        <ele>457.72</ele>
        <time>2015-05-25T15:18:01Z</time>
      </trkpt>
      <trkpt lat="43.96009" lon="5.13599">
        <ele>459.17</ele>
        <time>2015-05-25T15:18:09Z</time>
      </trkpt>
      <trkpt lat="43.95987" lon="5.1358">
        <ele>460.61</ele>
        <time>2015-05-25T15:18:17Z</time>
      </trkpt>
      <trkpt lat="43.95968" lon="5.13557">
        <ele>463.01</ele>
        <time>2015-05-25T15:18:25Z</time>
      </trkpt>
      <trkpt lat="43.95958" lon="5.13535">
        <ele>464.45</ele>
        <time>2015-05-25T15:18:33Z</time>
      </trkpt>
      <trkpt lat="43.95946" lon="5.13516">
        <ele>466.38</ele>
        <time>2015-05-25T15:18:41Z</time>
      </trkpt>
      <trkpt lat="43.95936" lon="5.13501">
        <ele>467.82</ele>
        <time>2015-05-25T15:18:48Z</time>
      </trkpt>
      <trkpt lat="43.95921" lon="5.13483">
        <ele>470.22</ele>
        <time>2015-05-25T15:18:57Z</time>
      </trkpt>
      <trkpt lat="43.95907" lon="5.13469">
        <ele>472.14</ele>
        <time>2015-05-25T15:19:05Z</time>
      </trkpt>
      <trkpt lat="43.95905" lon="5.13467">
        <ele>472.14</ele>
        <time>2015-05-25T15:19:06Z</time>
      </trkpt>
      <trkpt lat="43.95904" lon="5.13465">
        <ele>472.63</ele>
        <time>2015-05-25T15:19:07Z</time>
      </trkpt>
      <trkpt lat="43.95889" lon="5.13449">
        <ele>475.03</ele>
        <time>2015-05-25T15:19:16Z</time>
      </trkpt>
      <trkpt lat="43.9588" lon="5.13443">
        <ele>476.47</ele>
        <time>2015-05-25T15:19:22Z</time>
      </trkpt>
      <trkpt lat="43.95864" lon="5.13439">
        <ele>477.91</ele>
        <time>2015-05-25T15:19:30Z</time>
      </trkpt>
      <trkpt lat="43.95862" lon="5.13438">
        <ele>477.91</ele>
        <time>2015-05-25T15:19:31Z</time>
      </trkpt>
      <trkpt lat="43.9586" lon="5.13438">
        <ele>477.91</ele>
        <time>2015-05-25T15:19:32Z</time>
      </trkpt>
      <trkpt lat="43.95857" lon="5.13438">
        <ele>477.91</ele>
        <time>2015-05-25T15:19:33Z</time>
      </trkpt>
      <trkpt lat="43.95855" lon="5.13439">
        <ele>478.39</ele>
        <time>2015-05-25T15:19:34Z</time>
      </trkpt>
      <trkpt lat="43.95853" lon="5.13438">
        <ele>478.39</ele>
        <time>2015-05-25T15:19:35Z</time>
      </trkpt>
      <trkpt lat="43.95851" lon="5.13437">
        <ele>478.39</ele>
        <time>2015-05-25T15:19:36Z</time>
      </trkpt>
      <trkpt lat="43.95849" lon="5.13437">
        <ele>478.39</ele>
        <time>2015-05-25T15:19:37Z</time>
      </trkpt>
      <trkpt lat="43.95833" lon="5.13435">
        <ele>480.8</ele>
        <time>2015-05-25T15:19:46Z</time>
      </trkpt>
      <trkpt lat="43.95815" lon="5.13436">
        <ele>482.24</ele>
        <time>2015-05-25T15:19:54Z</time>
      </trkpt>
      <trkpt lat="43.95801" lon="5.13434">
        <ele>484.16</ele>
        <time>2015-05-25T15:20:01Z</time>
      </trkpt>
      <trkpt lat="43.95794" lon="5.13432">
        <ele>485.12</ele>
        <time>2015-05-25T15:20:04Z</time>
      </trkpt>
      <trkpt lat="43.95793" lon="5.1343">
        <ele>485.6</ele>
        <time>2015-05-25T15:20:05Z</time>
      </trkpt>
      <trkpt lat="43.95791" lon="5.13429">
        <ele>485.6</ele>
        <time>2015-05-25T15:20:06Z</time>
      </trkpt>
      <trkpt lat="43.95789" lon="5.13429">
        <ele>486.08</ele>
        <time>2015-05-25T15:20:07Z</time>
      </trkpt>
      <trkpt lat="43.95787" lon="5.13429">
        <ele>486.56</ele>
        <time>2015-05-25T15:20:08Z</time>
      </trkpt>
      <trkpt lat="43.95784" lon="5.13428">
        <ele>487.05</ele>
        <time>2015-05-25T15:20:09Z</time>
      </trkpt>
      <trkpt lat="43.95782" lon="5.13427">
        <ele>487.05</ele>
        <time>2015-05-25T15:20:10Z</time>
      </trkpt>
      <trkpt lat="43.9578" lon="5.13427">
        <ele>487.53</ele>
        <time>2015-05-25T15:20:11Z</time>
      </trkpt>
      <trkpt lat="43.95779" lon="5.13427">
        <ele>488.01</ele>
        <time>2015-05-25T15:20:12Z</time>
      </trkpt>
      <trkpt lat="43.95778" lon="5.13428">
        <ele>488.01</ele>
        <time>2015-05-25T15:20:13Z</time>
      </trkpt>
      <trkpt lat="43.95777" lon="5.1343">
        <ele>488.49</ele>
        <time>2015-05-25T15:20:14Z</time>
      </trkpt>
      <trkpt lat="43.95776" lon="5.13431">
        <ele>488.49</ele>
        <time>2015-05-25T15:20:15Z</time>
      </trkpt>
      <trkpt lat="43.95775" lon="5.1343">
        <ele>488.97</ele>
        <time>2015-05-25T15:20:16Z</time>
      </trkpt>
      <trkpt lat="43.95773" lon="5.13429">
        <ele>488.97</ele>
        <time>2015-05-25T15:20:17Z</time>
      </trkpt>
      <trkpt lat="43.95771" lon="5.13428">
        <ele>488.49</ele>
        <time>2015-05-25T15:20:18Z</time>
      </trkpt>
      <trkpt lat="43.95769" lon="5.13428">
        <ele>488.97</ele>
        <time>2015-05-25T15:20:19Z</time>
      </trkpt>
      <trkpt lat="43.95767" lon="5.13428">
        <ele>488.97</ele>
        <time>2015-05-25T15:20:20Z</time>
      </trkpt>
      <trkpt lat="43.95765" lon="5.13428">
        <ele>489.45</ele>
        <time>2015-05-25T15:20:21Z</time>
      </trkpt>
      <trkpt lat="43.95764" lon="5.13429">
        <ele>489.45</ele>
        <time>2015-05-25T15:20:22Z</time>
      </trkpt>
      <trkpt lat="43.95762" lon="5.13429">
        <ele>489.45</ele>
        <time>2015-05-25T15:20:23Z</time>
      </trkpt>
      <trkpt lat="43.95761" lon="5.1343">
        <ele>490.41</ele>
        <time>2015-05-25T15:20:24Z</time>
      </trkpt>
      <trkpt lat="43.9576" lon="5.13431">
        <ele>490.41</ele>
        <time>2015-05-25T15:20:25Z</time>
      </trkpt>
      <trkpt lat="43.95759" lon="5.13432">
        <ele>490.41</ele>
        <time>2015-05-25T15:20:26Z</time>
      </trkpt>
      <trkpt lat="43.95757" lon="5.13434">
        <ele>490.41</ele>
        <time>2015-05-25T15:20:27Z</time>
      </trkpt>
      <trkpt lat="43.95756" lon="5.13436">
        <ele>490.41</ele>
        <time>2015-05-25T15:20:28Z</time>
      </trkpt>
      <trkpt lat="43.95755" lon="5.13437">
        <ele>490.89</ele>
        <time>2015-05-25T15:20:29Z</time>
      </trkpt>
      <trkpt lat="43.95754" lon="5.1344">
        <ele>490.89</ele>
        <time>2015-05-25T15:20:30Z</time>
      </trkpt>
      <trkpt lat="43.95753" lon="5.13442">
        <ele>490.89</ele>
        <time>2015-05-25T15:20:31Z</time>
      </trkpt>
      <trkpt lat="43.95752" lon="5.13445">
        <ele>491.37</ele>
        <time>2015-05-25T15:20:32Z</time>
      </trkpt>
      <trkpt lat="43.95751" lon="5.13447">
        <ele>490.89</ele>
        <time>2015-05-25T15:20:33Z</time>
      </trkpt>
      <trkpt lat="43.95746" lon="5.13465">
        <ele>491.37</ele>
        <time>2015-05-25T15:20:40Z</time>
      </trkpt>
      <trkpt lat="43.95744" lon="5.13487">
        <ele>493.29</ele>
        <time>2015-05-25T15:20:48Z</time>
      </trkpt>
      <trkpt lat="43.95744" lon="5.13493">
        <ele>493.29</ele>
        <time>2015-05-25T15:20:50Z</time>
      </trkpt>
      <trkpt lat="43.95744" lon="5.13496">
        <ele>493.77</ele>
        <time>2015-05-25T15:20:51Z</time>
      </trkpt>
      <trkpt lat="43.95744" lon="5.13499">
        <ele>493.77</ele>
        <time>2015-05-25T15:20:52Z</time>
      </trkpt>
      <trkpt lat="43.95744" lon="5.13503">
        <ele>493.29</ele>
        <time>2015-05-25T15:20:53Z</time>
      </trkpt>
      <trkpt lat="43.95744" lon="5.13506">
        <ele>493.29</ele>
        <time>2015-05-25T15:20:54Z</time>
      </trkpt>
      <trkpt lat="43.95744" lon="5.1351">
        <ele>493.29</ele>
        <time>2015-05-25T15:20:55Z</time>
      </trkpt>
      <trkpt lat="43.95748" lon="5.13542">
        <ele>494.26</ele>
        <time>2015-05-25T15:21:04Z</time>
      </trkpt>
      <trkpt lat="43.95741" lon="5.13563">
        <ele>494.74</ele>
        <time>2015-05-25T15:21:09Z</time>
      </trkpt>
      <trkpt lat="43.9573" lon="5.13575">
        <ele>496.18</ele>
        <time>2015-05-25T15:21:15Z</time>
      </trkpt>
      <trkpt lat="43.95721" lon="5.1358">
        <ele>496.66</ele>
        <time>2015-05-25T15:21:20Z</time>
      </trkpt>
      <trkpt lat="43.95709" lon="5.1359">
        <ele>498.1</ele>
        <time>2015-05-25T15:21:27Z</time>
      </trkpt>
      <trkpt lat="43.95693" lon="5.13608">
        <ele>499.54</ele>
        <time>2015-05-25T15:21:35Z</time>
      </trkpt>
      <trkpt lat="43.95686" lon="5.13628">
        <ele>501.95</ele>
        <time>2015-05-25T15:21:42Z</time>
      </trkpt>
      <trkpt lat="43.95684" lon="5.13634">
        <ele>501.95</ele>
        <time>2015-05-25T15:21:46Z</time>
      </trkpt>
      <trkpt lat="43.95683" lon="5.13635">
        <ele>501.95</ele>
        <time>2015-05-25T15:21:47Z</time>
      </trkpt>
      <trkpt lat="43.95683" lon="5.13638">
        <ele>501.95</ele>
        <time>2015-05-25T15:21:48Z</time>
      </trkpt>
      <trkpt lat="43.95683" lon="5.1364">
        <ele>501.95</ele>
        <time>2015-05-25T15:21:49Z</time>
      </trkpt>
      <trkpt lat="43.95682" lon="5.13643">
        <ele>501.95</ele>
        <time>2015-05-25T15:21:50Z</time>
      </trkpt>
      <trkpt lat="43.95681" lon="5.13645">
        <ele>502.43</ele>
        <time>2015-05-25T15:21:51Z</time>
      </trkpt>
      <trkpt lat="43.95681" lon="5.13648">
        <ele>502.43</ele>
        <time>2015-05-25T15:21:52Z</time>
      </trkpt>
      <trkpt lat="43.95675" lon="5.13671">
        <ele>504.83</ele>
        <time>2015-05-25T15:22:00Z</time>
      </trkpt>
      <trkpt lat="43.95673" lon="5.13695">
        <ele>506.27</ele>
        <time>2015-05-25T15:22:08Z</time>
      </trkpt>
      <trkpt lat="43.95669" lon="5.13709">
        <ele>507.23</ele>
        <time>2015-05-25T15:22:13Z</time>
      </trkpt>
      <trkpt lat="43.95668" lon="5.13712">
        <ele>507.23</ele>
        <time>2015-05-25T15:22:14Z</time>
      </trkpt>
      <trkpt lat="43.95668" lon="5.13715">
        <ele>507.23</ele>
        <time>2015-05-25T15:22:15Z</time>
      </trkpt>
      <trkpt lat="43.95667" lon="5.13717">
        <ele>507.71</ele>
        <time>2015-05-25T15:22:16Z</time>
      </trkpt>
      <trkpt lat="43.95666" lon="5.1372">
        <ele>507.71</ele>
        <time>2015-05-25T15:22:17Z</time>
      </trkpt>
      <trkpt lat="43.95665" lon="5.13723">
        <ele>507.71</ele>
        <time>2015-05-25T15:22:18Z</time>
      </trkpt>
      <trkpt lat="43.95664" lon="5.13725">
        <ele>508.19</ele>
        <time>2015-05-25T15:22:19Z</time>
      </trkpt>
      <trkpt lat="43.95664" lon="5.13728">
        <ele>508.19</ele>
        <time>2015-05-25T15:22:20Z</time>
      </trkpt>
      <trkpt lat="43.95664" lon="5.13732">
        <ele>508.67</ele>
        <time>2015-05-25T15:22:21Z</time>
      </trkpt>
      <trkpt lat="43.95663" lon="5.1375">
        <ele>510.12</ele>
        <time>2015-05-25T15:22:28Z</time>
      </trkpt>
      <trkpt lat="43.95661" lon="5.13755">
        <ele>510.6</ele>
        <time>2015-05-25T15:22:30Z</time>
      </trkpt>
      <trkpt lat="43.95659" lon="5.13757">
        <ele>511.08</ele>
        <time>2015-05-25T15:22:31Z</time>
      </trkpt>
      <trkpt lat="43.95658" lon="5.13759">
        <ele>511.56</ele>
        <time>2015-05-25T15:22:32Z</time>
      </trkpt>
      <trkpt lat="43.95658" lon="5.13761">
        <ele>511.56</ele>
        <time>2015-05-25T15:22:33Z</time>
      </trkpt>
      <trkpt lat="43.95657" lon="5.13763">
        <ele>511.56</ele>
        <time>2015-05-25T15:22:34Z</time>
      </trkpt>
      <trkpt lat="43.95656" lon="5.13765">
        <ele>511.56</ele>
        <time>2015-05-25T15:22:35Z</time>
      </trkpt>
      <trkpt lat="43.95654" lon="5.1377">
        <ele>512.04</ele>
        <time>2015-05-25T15:22:37Z</time>
      </trkpt>
      <trkpt lat="43.95653" lon="5.13773">
        <ele>512.52</ele>
        <time>2015-05-25T15:22:40Z</time>
      </trkpt>
      <trkpt lat="43.95667" lon="5.13764">
        <ele>513.48</ele>
        <time>2015-05-25T15:22:47Z</time>
      </trkpt>
      <trkpt lat="43.95681" lon="5.13751">
        <ele>514.92</ele>
        <time>2015-05-25T15:22:54Z</time>
      </trkpt>
      <trkpt lat="43.95696" lon="5.13735">
        <ele>517.33</ele>
        <time>2015-05-25T15:23:02Z</time>
      </trkpt>
      <trkpt lat="43.95707" lon="5.1372">
        <ele>517.81</ele>
        <time>2015-05-25T15:23:09Z</time>
      </trkpt>
      <trkpt lat="43.95717" lon="5.13709">
        <ele>519.25</ele>
        <time>2015-05-25T15:23:15Z</time>
      </trkpt>
      <trkpt lat="43.95719" lon="5.13708">
        <ele>518.77</ele>
        <time>2015-05-25T15:23:16Z</time>
      </trkpt>
      <trkpt lat="43.95727" lon="5.13713">
        <ele>520.21</ele>
        <time>2015-05-25T15:23:20Z</time>
      </trkpt>
      <trkpt lat="43.95741" lon="5.1373">
        <ele>521.65</ele>
        <time>2015-05-25T15:23:29Z</time>
      </trkpt>
      <trkpt lat="43.95742" lon="5.13733">
        <ele>521.65</ele>
        <time>2015-05-25T15:23:30Z</time>
      </trkpt>
      <trkpt lat="43.9575" lon="5.13753">
        <ele>522.13</ele>
        <time>2015-05-25T15:23:38Z</time>
      </trkpt>
      <trkpt lat="43.95753" lon="5.13772">
        <ele>524.06</ele>
        <time>2015-05-25T15:23:45Z</time>
      </trkpt>
      <trkpt lat="43.95757" lon="5.1379">
        <ele>525.02</ele>
        <time>2015-05-25T15:23:51Z</time>
      </trkpt>
      <trkpt lat="43.95761" lon="5.13809">
        <ele>526.46</ele>
        <time>2015-05-25T15:23:58Z</time>
      </trkpt>
      <trkpt lat="43.95762" lon="5.13829">
        <ele>526.94</ele>
        <time>2015-05-25T15:24:05Z</time>
      </trkpt>
      <trkpt lat="43.95755" lon="5.13848">
        <ele>528.38</ele>
        <time>2015-05-25T15:24:13Z</time>
      </trkpt>
      <trkpt lat="43.9575" lon="5.13867">
        <ele>529.82</ele>
        <time>2015-05-25T15:24:21Z</time>
      </trkpt>
      <trkpt lat="43.95749" lon="5.13869">
        <ele>530.79</ele>
        <time>2015-05-25T15:24:26Z</time>
      </trkpt>
      <trkpt lat="43.95749" lon="5.13869">
        <ele>530.79</ele>
        <time>2015-05-25T15:24:30Z</time>
      </trkpt>
      <trkpt lat="43.95749" lon="5.13871">
        <ele>530.79</ele>
        <time>2015-05-25T15:24:36Z</time>
      </trkpt>
      <trkpt lat="43.9575" lon="5.13874">
        <ele>530.3</ele>
        <time>2015-05-25T15:24:41Z</time>
      </trkpt>
      <trkpt lat="43.9575" lon="5.13874">
        <ele>531.27</ele>
        <time>2015-05-25T15:24:49Z</time>
      </trkpt>
      <trkpt lat="43.95749" lon="5.13874">
        <ele>531.27</ele>
        <time>2015-05-25T15:25:02Z</time>
      </trkpt>
      <trkpt lat="43.95749" lon="5.13874">
        <ele>529.82</ele>
        <time>2015-05-25T15:25:11Z</time>
      </trkpt>
      <trkpt lat="43.95749" lon="5.13875">
        <ele>530.79</ele>
        <time>2015-05-25T15:25:19Z</time>
      </trkpt>
      <trkpt lat="43.95749" lon="5.13875">
        <ele>530.79</ele>
        <time>2015-05-25T15:25:31Z</time>
      </trkpt>
      <trkpt lat="43.95749" lon="5.13874">
        <ele>531.27</ele>
        <time>2015-05-25T15:25:43Z</time>
      </trkpt>
      <trkpt lat="43.9575" lon="5.13877">
        <ele>531.27</ele>
        <time>2015-05-25T15:25:49Z</time>
      </trkpt>
      <trkpt lat="43.9575" lon="5.13878">
        <ele>530.79</ele>
        <time>2015-05-25T15:25:56Z</time>
      </trkpt>
      <trkpt lat="43.9575" lon="5.13879">
        <ele>531.27</ele>
        <time>2015-05-25T15:26:09Z</time>
      </trkpt>
      <trkpt lat="43.9575" lon="5.13879">
        <ele>531.27</ele>
        <time>2015-05-25T15:26:25Z</time>
      </trkpt>
      <trkpt lat="43.9575" lon="5.13882">
        <ele>531.27</ele>
        <time>2015-05-25T15:26:35Z</time>
      </trkpt>
      <trkpt lat="43.9575" lon="5.13882">
        <ele>530.79</ele>
        <time>2015-05-25T15:26:37Z</time>
      </trkpt>
      <trkpt lat="43.9575" lon="5.13892">
        <ele>531.75</ele>
        <time>2015-05-25T15:26:42Z</time>
      </trkpt>
      <trkpt lat="43.95747" lon="5.13905">
        <ele>533.19</ele>
        <time>2015-05-25T15:26:47Z</time>
      </trkpt>
      <trkpt lat="43.95746" lon="5.13917">
        <ele>534.15</ele>
        <time>2015-05-25T15:26:53Z</time>
      </trkpt>
      <trkpt lat="43.95743" lon="5.13931">
        <ele>536.55</ele>
        <time>2015-05-25T15:27:00Z</time>
      </trkpt>
      <trkpt lat="43.95743" lon="5.13933">
        <ele>533.67</ele>
        <time>2015-05-25T15:27:01Z</time>
      </trkpt>
      <trkpt lat="43.95738" lon="5.13947">
        <ele>537.03</ele>
        <time>2015-05-25T15:27:08Z</time>
      </trkpt>
      <trkpt lat="43.95734" lon="5.13964">
        <ele>537.99</ele>
        <time>2015-05-25T15:27:16Z</time>
      </trkpt>
      <trkpt lat="43.95729" lon="5.13978">
        <ele>539.92</ele>
        <time>2015-05-25T15:27:24Z</time>
      </trkpt>
      <trkpt lat="43.95723" lon="5.13993">
        <ele>542.32</ele>
        <time>2015-05-25T15:27:33Z</time>
      </trkpt>
      <trkpt lat="43.95722" lon="5.14001">
        <ele>541.84</ele>
        <time>2015-05-25T15:27:38Z</time>
      </trkpt>
      <trkpt lat="43.9572" lon="5.14007">
        <ele>541.84</ele>
        <time>2015-05-25T15:27:42Z</time>
      </trkpt>
      <trkpt lat="43.95716" lon="5.14015">
        <ele>542.8</ele>
        <time>2015-05-25T15:27:48Z</time>
      </trkpt>
      <trkpt lat="43.95712" lon="5.14025">
        <ele>544.24</ele>
        <time>2015-05-25T15:27:57Z</time>
      </trkpt>
      <trkpt lat="43.95712" lon="5.14026">
        <ele>546.17</ele>
        <time>2015-05-25T15:28:08Z</time>
      </trkpt>
      <trkpt lat="43.9571" lon="5.14029">
        <ele>547.61</ele>
        <time>2015-05-25T15:28:12Z</time>
      </trkpt>
      <trkpt lat="43.95709" lon="5.14029">
        <ele>547.61</ele>
        <time>2015-05-25T15:28:13Z</time>
      </trkpt>
      <trkpt lat="43.95708" lon="5.14037">
        <ele>544.72</ele>
        <time>2015-05-25T15:28:22Z</time>
      </trkpt>
      <trkpt lat="43.95707" lon="5.14043">
        <ele>547.13</ele>
        <time>2015-05-25T15:28:29Z</time>
      </trkpt>
      <trkpt lat="43.95706" lon="5.14045">
        <ele>545.69</ele>
        <time>2015-05-25T15:28:31Z</time>
      </trkpt>
      <trkpt lat="43.95702" lon="5.14056">
        <ele>547.61</ele>
        <time>2015-05-25T15:28:40Z</time>
      </trkpt>
      <trkpt lat="43.95701" lon="5.14063">
        <ele>547.61</ele>
        <time>2015-05-25T15:28:47Z</time>
      </trkpt>
      <trkpt lat="43.95701" lon="5.14066">
        <ele>548.09</ele>
        <time>2015-05-25T15:28:49Z</time>
      </trkpt>
      <trkpt lat="43.95697" lon="5.14079">
        <ele>550.49</ele>
        <time>2015-05-25T15:28:57Z</time>
      </trkpt>
      <trkpt lat="43.95694" lon="5.14092">
        <ele>551.93</ele>
        <time>2015-05-25T15:29:04Z</time>
      </trkpt>
      <trkpt lat="43.95694" lon="5.14094">
        <ele>552.9</ele>
        <time>2015-05-25T15:29:05Z</time>
      </trkpt>
      <trkpt lat="43.95703" lon="5.14109">
        <ele>552.9</ele>
        <time>2015-05-25T15:29:13Z</time>
      </trkpt>
      <trkpt lat="43.95707" lon="5.1411">
        <ele>554.82</ele>
        <time>2015-05-25T15:29:15Z</time>
      </trkpt>
      <trkpt lat="43.95719" lon="5.14112">
        <ele>554.34</ele>
        <time>2015-05-25T15:29:21Z</time>
      </trkpt>
      <trkpt lat="43.95723" lon="5.14114">
        <ele>555.78</ele>
        <time>2015-05-25T15:29:23Z</time>
      </trkpt>
      <trkpt lat="43.95728" lon="5.14117">
        <ele>554.34</ele>
        <time>2015-05-25T15:29:26Z</time>
      </trkpt>
      <trkpt lat="43.95743" lon="5.14131">
        <ele>555.3</ele>
        <time>2015-05-25T15:29:36Z</time>
      </trkpt>
      <trkpt lat="43.95754" lon="5.1414">
        <ele>556.26</ele>
        <time>2015-05-25T15:29:42Z</time>
      </trkpt>
      <trkpt lat="43.95772" lon="5.14136">
        <ele>556.26</ele>
        <time>2015-05-25T15:29:51Z</time>
      </trkpt>
      <trkpt lat="43.95801" lon="5.14129">
        <ele>556.74</ele>
        <time>2015-05-25T15:30:00Z</time>
      </trkpt>
      <trkpt lat="43.95831" lon="5.14117">
        <ele>556.26</ele>
        <time>2015-05-25T15:30:09Z</time>
      </trkpt>
      <trkpt lat="43.95841" lon="5.14112">
        <ele>557.22</ele>
        <time>2015-05-25T15:30:12Z</time>
      </trkpt>
      <trkpt lat="43.95851" lon="5.14113">
        <ele>559.14</ele>
        <time>2015-05-25T15:30:17Z</time>
      </trkpt>
      <trkpt lat="43.9585" lon="5.14113">
        <ele>557.22</ele>
        <time>2015-05-25T15:30:20Z</time>
      </trkpt>
      <trkpt lat="43.9585" lon="5.14113">
        <ele>557.7</ele>
        <time>2015-05-25T15:30:24Z</time>
      </trkpt>
      <trkpt lat="43.95855" lon="5.14108">
        <ele>556.26</ele>
        <time>2015-05-25T15:30:28Z</time>
      </trkpt>
      <trkpt lat="43.95879" lon="5.14092">
        <ele>556.74</ele>
        <time>2015-05-25T15:30:36Z</time>
      </trkpt>
      <trkpt lat="43.95903" lon="5.14077">
        <ele>556.26</ele>
        <time>2015-05-25T15:30:43Z</time>
      </trkpt>
      <trkpt lat="43.95907" lon="5.14075">
        <ele>555.78</ele>
        <time>2015-05-25T15:30:44Z</time>
      </trkpt>
      <trkpt lat="43.95911" lon="5.14073">
        <ele>555.78</ele>
        <time>2015-05-25T15:30:45Z</time>
      </trkpt>
      <trkpt lat="43.95915" lon="5.14072">
        <ele>555.78</ele>
        <time>2015-05-25T15:30:46Z</time>
      </trkpt>
      <trkpt lat="43.95919" lon="5.14071">
        <ele>555.78</ele>
        <time>2015-05-25T15:30:47Z</time>
      </trkpt>
      <trkpt lat="43.95922" lon="5.14072">
        <ele>556.26</ele>
        <time>2015-05-25T15:30:48Z</time>
      </trkpt>
      <trkpt lat="43.95925" lon="5.14075">
        <ele>556.26</ele>
        <time>2015-05-25T15:30:49Z</time>
      </trkpt>
      <trkpt lat="43.95927" lon="5.14079">
        <ele>556.74</ele>
        <time>2015-05-25T15:30:50Z</time>
      </trkpt>
      <trkpt lat="43.95927" lon="5.14084">
        <ele>557.22</ele>
        <time>2015-05-25T15:30:51Z</time>
      </trkpt>
      <trkpt lat="43.95927" lon="5.14088">
        <ele>558.18</ele>
        <time>2015-05-25T15:30:52Z</time>
      </trkpt>
      <trkpt lat="43.95927" lon="5.14097">
        <ele>559.14</ele>
        <time>2015-05-25T15:30:57Z</time>
      </trkpt>
      <trkpt lat="43.95925" lon="5.14101">
        <ele>560.59</ele>
        <time>2015-05-25T15:31:01Z</time>
      </trkpt>
      <trkpt lat="43.95924" lon="5.14102">
        <ele>560.59</ele>
        <time>2015-05-25T15:31:02Z</time>
      </trkpt>
      <trkpt lat="43.95923" lon="5.14107">
        <ele>561.07</ele>
        <time>2015-05-25T15:31:05Z</time>
      </trkpt>
      <trkpt lat="43.95922" lon="5.14119">
        <ele>562.03</ele>
        <time>2015-05-25T15:31:11Z</time>
      </trkpt>
      <trkpt lat="43.95912" lon="5.14128">
        <ele>562.51</ele>
        <time>2015-05-25T15:31:17Z</time>
      </trkpt>
      <trkpt lat="43.959" lon="5.14138">
        <ele>562.99</ele>
        <time>2015-05-25T15:31:24Z</time>
      </trkpt>
      <trkpt lat="43.95896" lon="5.14143">
        <ele>563.47</ele>
        <time>2015-05-25T15:31:27Z</time>
      </trkpt>
      <trkpt lat="43.9588" lon="5.14147">
        <ele>563.95</ele>
        <time>2015-05-25T15:31:33Z</time>
      </trkpt>
      <trkpt lat="43.95862" lon="5.14149">
        <ele>564.91</ele>
        <time>2015-05-25T15:31:40Z</time>
      </trkpt>
      <trkpt lat="43.95858" lon="5.14148">
        <ele>564.91</ele>
        <time>2015-05-25T15:31:50Z</time>
      </trkpt>
      <trkpt lat="43.95857" lon="5.14147">
        <ele>564.91</ele>
        <time>2015-05-25T15:31:59Z</time>
      </trkpt>
      <trkpt lat="43.95857" lon="5.14147">
        <ele>564.43</ele>
        <time>2015-05-25T15:32:19Z</time>
      </trkpt>
      <trkpt lat="43.95857" lon="5.14147">
        <ele>564.91</ele>
        <time>2015-05-25T15:32:33Z</time>
      </trkpt>
      <trkpt lat="43.95857" lon="5.14147">
        <ele>564.43</ele>
        <time>2015-05-25T15:32:46Z</time>
      </trkpt>
      <trkpt lat="43.95857" lon="5.14147">
        <ele>564.43</ele>
        <time>2015-05-25T15:33:06Z</time>
      </trkpt>
      <trkpt lat="43.95857" lon="5.14147">
        <ele>564.43</ele>
        <time>2015-05-25T15:33:21Z</time>
      </trkpt>
      <trkpt lat="43.95857" lon="5.14147">
        <ele>564.91</ele>
        <time>2015-05-25T15:33:39Z</time>
      </trkpt>
      <trkpt lat="43.95857" lon="5.14147">
        <ele>564.91</ele>
        <time>2015-05-25T15:33:54Z</time>
      </trkpt>
      <trkpt lat="43.95857" lon="5.14147">
        <ele>564.91</ele>
        <time>2015-05-25T15:34:04Z</time>
      </trkpt>
      <trkpt lat="43.95857" lon="5.14147">
        <ele>564.43</ele>
        <time>2015-05-25T15:34:19Z</time>
      </trkpt>
      <trkpt lat="43.95856" lon="5.14147">
        <ele>564.91</ele>
        <time>2015-05-25T15:34:31Z</time>
      </trkpt>
      <trkpt lat="43.95856" lon="5.14147">
        <ele>564.91</ele>
        <time>2015-05-25T15:34:36Z</time>
      </trkpt>
      <trkpt lat="43.95854" lon="5.14149">
        <ele>564.91</ele>
        <time>2015-05-25T15:34:43Z</time>
      </trkpt>
      <trkpt lat="43.95853" lon="5.14149">
        <ele>564.91</ele>
        <time>2015-05-25T15:34:45Z</time>
      </trkpt>
      <trkpt lat="43.9584" lon="5.14157">
        <ele>565.87</ele>
        <time>2015-05-25T15:34:54Z</time>
      </trkpt>
      <trkpt lat="43.95837" lon="5.14159">
        <ele>566.35</ele>
        <time>2015-05-25T15:34:56Z</time>
      </trkpt>
      <trkpt lat="43.95834" lon="5.14161">
        <ele>566.35</ele>
        <time>2015-05-25T15:34:58Z</time>
      </trkpt>
      <trkpt lat="43.95827" lon="5.14164">
        <ele>566.83</ele>
        <time>2015-05-25T15:35:02Z</time>
      </trkpt>
      <trkpt lat="43.95808" lon="5.14171">
        <ele>568.76</ele>
        <time>2015-05-25T15:35:11Z</time>
      </trkpt>
      <trkpt lat="43.95794" lon="5.14177">
        <ele>569.24</ele>
        <time>2015-05-25T15:35:17Z</time>
      </trkpt>
      <trkpt lat="43.95786" lon="5.14181">
        <ele>569.72</ele>
        <time>2015-05-25T15:35:21Z</time>
      </trkpt>
      <trkpt lat="43.95773" lon="5.14187">
        <ele>570.68</ele>
        <time>2015-05-25T15:35:27Z</time>
      </trkpt>
      <trkpt lat="43.95756" lon="5.14194">
        <ele>573.08</ele>
        <time>2015-05-25T15:35:35Z</time>
      </trkpt>
      <trkpt lat="43.95739" lon="5.14194">
        <ele>574.04</ele>
        <time>2015-05-25T15:35:42Z</time>
      </trkpt>
      <trkpt lat="43.9572" lon="5.1419">
        <ele>575.97</ele>
        <time>2015-05-25T15:35:50Z</time>
      </trkpt>
      <trkpt lat="43.95703" lon="5.14191">
        <ele>578.37</ele>
        <time>2015-05-25T15:35:58Z</time>
      </trkpt>
      <trkpt lat="43.95685" lon="5.14193">
        <ele>579.81</ele>
        <time>2015-05-25T15:36:06Z</time>
      </trkpt>
      <trkpt lat="43.95669" lon="5.14195">
        <ele>581.25</ele>
        <time>2015-05-25T15:36:14Z</time>
      </trkpt>
      <trkpt lat="43.95658" lon="5.14195">
        <ele>582.7</ele>
        <time>2015-05-25T15:36:20Z</time>
      </trkpt>
      <trkpt lat="43.95639" lon="5.14186">
        <ele>583.66</ele>
        <time>2015-05-25T15:36:30Z</time>
      </trkpt>
      <trkpt lat="43.95629" lon="5.1417">
        <ele>585.1</ele>
        <time>2015-05-25T15:36:38Z</time>
      </trkpt>
      <trkpt lat="43.9562" lon="5.1415">
        <ele>586.54</ele>
        <time>2015-05-25T15:36:46Z</time>
      </trkpt>
      <trkpt lat="43.95611" lon="5.14128">
        <ele>588.46</ele>
        <time>2015-05-25T15:36:56Z</time>
      </trkpt>
      <trkpt lat="43.95602" lon="5.14112">
        <ele>588.46</ele>
        <time>2015-05-25T15:37:03Z</time>
      </trkpt>
      <trkpt lat="43.95586" lon="5.14095">
        <ele>590.87</ele>
        <time>2015-05-25T15:37:13Z</time>
      </trkpt>
      <trkpt lat="43.95582" lon="5.14093">
        <ele>590.87</ele>
        <time>2015-05-25T15:37:15Z</time>
      </trkpt>
      <trkpt lat="43.95567" lon="5.14092">
        <ele>592.31</ele>
        <time>2015-05-25T15:37:23Z</time>
      </trkpt>
      <trkpt lat="43.95564" lon="5.14092">
        <ele>593.75</ele>
        <time>2015-05-25T15:37:25Z</time>
      </trkpt>
      <trkpt lat="43.95549" lon="5.14095">
        <ele>594.71</ele>
        <time>2015-05-25T15:37:33Z</time>
      </trkpt>
      <trkpt lat="43.95536" lon="5.14097">
        <ele>596.64</ele>
        <time>2015-05-25T15:37:40Z</time>
      </trkpt>
      <trkpt lat="43.95523" lon="5.1409">
        <ele>597.6</ele>
        <time>2015-05-25T15:37:48Z</time>
      </trkpt>
      <trkpt lat="43.9551" lon="5.14078">
        <ele>600</ele>
        <time>2015-05-25T15:37:56Z</time>
      </trkpt>
      <trkpt lat="43.95502" lon="5.14074">
        <ele>601.92</ele>
        <time>2015-05-25T15:38:00Z</time>
      </trkpt>
      <trkpt lat="43.95487" lon="5.14068">
        <ele>602.88</ele>
        <time>2015-05-25T15:38:07Z</time>
      </trkpt>
      <trkpt lat="43.95472" lon="5.14069">
        <ele>604.33</ele>
        <time>2015-05-25T15:38:14Z</time>
      </trkpt>
      <trkpt lat="43.95466" lon="5.14069">
        <ele>603.85</ele>
        <time>2015-05-25T15:38:17Z</time>
      </trkpt>
      <trkpt lat="43.95451" lon="5.14079">
        <ele>604.33</ele>
        <time>2015-05-25T15:38:25Z</time>
      </trkpt>
      <trkpt lat="43.95437" lon="5.14098">
        <ele>605.77</ele>
        <time>2015-05-25T15:38:33Z</time>
      </trkpt>
      <trkpt lat="43.95423" lon="5.14125">
        <ele>607.69</ele>
        <time>2015-05-25T15:38:42Z</time>
      </trkpt>
      <trkpt lat="43.95409" lon="5.14147">
        <ele>610.09</ele>
        <time>2015-05-25T15:38:51Z</time>
      </trkpt>
      <trkpt lat="43.95405" lon="5.14151">
        <ele>610.09</ele>
        <time>2015-05-25T15:38:53Z</time>
      </trkpt>
      <trkpt lat="43.95389" lon="5.14167">
        <ele>612.02</ele>
        <time>2015-05-25T15:39:02Z</time>
      </trkpt>
      <trkpt lat="43.95374" lon="5.14165">
        <ele>613.46</ele>
        <time>2015-05-25T15:39:09Z</time>
      </trkpt>
      <trkpt lat="43.95353" lon="5.14168">
        <ele>614.9</ele>
        <time>2015-05-25T15:39:18Z</time>
      </trkpt>
      <trkpt lat="43.95338" lon="5.14181">
        <ele>617.3</ele>
        <time>2015-05-25T15:39:26Z</time>
      </trkpt>
      <trkpt lat="43.95325" lon="5.14195">
        <ele>618.75</ele>
        <time>2015-05-25T15:39:34Z</time>
      </trkpt>
      <trkpt lat="43.95313" lon="5.14215">
        <ele>620.67</ele>
        <time>2015-05-25T15:39:43Z</time>
      </trkpt>
      <trkpt lat="43.95312" lon="5.14217">
        <ele>620.67</ele>
        <time>2015-05-25T15:39:44Z</time>
      </trkpt>
      <trkpt lat="43.95299" lon="5.14231">
        <ele>622.59</ele>
        <time>2015-05-25T15:39:52Z</time>
      </trkpt>
      <trkpt lat="43.9529" lon="5.14249">
        <ele>624.51</ele>
        <time>2015-05-25T15:40:00Z</time>
      </trkpt>
      <trkpt lat="43.95282" lon="5.14268">
        <ele>625.47</ele>
        <time>2015-05-25T15:40:09Z</time>
      </trkpt>
      <trkpt lat="43.95272" lon="5.14282">
        <ele>626.92</ele>
        <time>2015-05-25T15:40:17Z</time>
      </trkpt>
      <trkpt lat="43.95262" lon="5.14297">
        <ele>627.4</ele>
        <time>2015-05-25T15:40:25Z</time>
      </trkpt>
      <trkpt lat="43.95252" lon="5.14314">
        <ele>628.84</ele>
        <time>2015-05-25T15:40:33Z</time>
      </trkpt>
      <trkpt lat="43.95245" lon="5.14323">
        <ele>629.32</ele>
        <time>2015-05-25T15:40:39Z</time>
      </trkpt>
      <trkpt lat="43.95239" lon="5.14329">
        <ele>629.8</ele>
        <time>2015-05-25T15:40:43Z</time>
      </trkpt>
      <trkpt lat="43.95224" lon="5.14341">
        <ele>631.72</ele>
        <time>2015-05-25T15:40:53Z</time>
      </trkpt>
      <trkpt lat="43.95214" lon="5.14349">
        <ele>633.17</ele>
        <time>2015-05-25T15:41:00Z</time>
      </trkpt>
      <trkpt lat="43.95204" lon="5.14355">
        <ele>634.13</ele>
        <time>2015-05-25T15:41:07Z</time>
      </trkpt>
      <trkpt lat="43.95191" lon="5.14361">
        <ele>636.05</ele>
        <time>2015-05-25T15:41:15Z</time>
      </trkpt>
      <trkpt lat="43.9518" lon="5.14364">
        <ele>636.05</ele>
        <time>2015-05-25T15:41:22Z</time>
      </trkpt>
      <trkpt lat="43.95167" lon="5.14362">
        <ele>637.97</ele>
        <time>2015-05-25T15:41:31Z</time>
      </trkpt>
      <trkpt lat="43.95161" lon="5.1436">
        <ele>639.41</ele>
        <time>2015-05-25T15:41:35Z</time>
      </trkpt>
      <trkpt lat="43.95146" lon="5.14347">
        <ele>639.41</ele>
        <time>2015-05-25T15:41:44Z</time>
      </trkpt>
      <trkpt lat="43.95137" lon="5.14336">
        <ele>641.82</ele>
        <time>2015-05-25T15:41:51Z</time>
      </trkpt>
      <trkpt lat="43.95128" lon="5.14322">
        <ele>641.34</ele>
        <time>2015-05-25T15:41:58Z</time>
      </trkpt>
      <trkpt lat="43.95124" lon="5.14315">
        <ele>643.26</ele>
        <time>2015-05-25T15:42:02Z</time>
      </trkpt>
      <trkpt lat="43.95116" lon="5.14302">
        <ele>642.78</ele>
        <time>2015-05-25T15:42:09Z</time>
      </trkpt>
      <trkpt lat="43.95111" lon="5.14294">
        <ele>644.7</ele>
        <time>2015-05-25T15:42:14Z</time>
      </trkpt>
      <trkpt lat="43.95107" lon="5.14287">
        <ele>645.66</ele>
        <time>2015-05-25T15:42:18Z</time>
      </trkpt>
      <trkpt lat="43.95102" lon="5.14279">
        <ele>646.14</ele>
        <time>2015-05-25T15:42:22Z</time>
      </trkpt>
      <trkpt lat="43.95095" lon="5.14265">
        <ele>645.66</ele>
        <time>2015-05-25T15:42:29Z</time>
      </trkpt>
      <trkpt lat="43.95086" lon="5.14248">
        <ele>648.07</ele>
        <time>2015-05-25T15:42:37Z</time>
      </trkpt>
      <trkpt lat="43.95076" lon="5.14233">
        <ele>649.51</ele>
        <time>2015-05-25T15:42:45Z</time>
      </trkpt>
      <trkpt lat="43.95069" lon="5.14221">
        <ele>648.07</ele>
        <time>2015-05-25T15:42:50Z</time>
      </trkpt>
      <trkpt lat="43.95063" lon="5.14207">
        <ele>649.51</ele>
        <time>2015-05-25T15:42:57Z</time>
      </trkpt>
      <trkpt lat="43.9506" lon="5.14203">
        <ele>650.47</ele>
        <time>2015-05-25T15:43:01Z</time>
      </trkpt>
      <trkpt lat="43.95058" lon="5.14203">
        <ele>649.51</ele>
        <time>2015-05-25T15:43:03Z</time>
      </trkpt>
      <trkpt lat="43.95058" lon="5.14203">
        <ele>648.55</ele>
        <time>2015-05-25T15:43:09Z</time>
      </trkpt>
      <trkpt lat="43.95057" lon="5.14204">
        <ele>648.07</ele>
        <time>2015-05-25T15:43:15Z</time>
      </trkpt>
      <trkpt lat="43.95057" lon="5.14204">
        <ele>648.55</ele>
        <time>2015-05-25T15:43:29Z</time>
      </trkpt>
      <trkpt lat="43.95058" lon="5.14203">
        <ele>648.55</ele>
        <time>2015-05-25T15:43:46Z</time>
      </trkpt>
      <trkpt lat="43.95058" lon="5.14203">
        <ele>649.51</ele>
        <time>2015-05-25T15:43:56Z</time>
      </trkpt>
      <trkpt lat="43.95058" lon="5.14203">
        <ele>649.03</ele>
        <time>2015-05-25T15:44:04Z</time>
      </trkpt>
      <trkpt lat="43.95057" lon="5.14204">
        <ele>649.03</ele>
        <time>2015-05-25T15:44:19Z</time>
      </trkpt>
      <trkpt lat="43.95057" lon="5.14204">
        <ele>648.55</ele>
        <time>2015-05-25T15:44:34Z</time>
      </trkpt>
      <trkpt lat="43.95057" lon="5.14204">
        <ele>650.47</ele>
        <time>2015-05-25T15:44:42Z</time>
      </trkpt>
      <trkpt lat="43.95057" lon="5.14205">
        <ele>648.55</ele>
        <time>2015-05-25T15:44:52Z</time>
      </trkpt>
      <trkpt lat="43.95057" lon="5.14205">
        <ele>647.59</ele>
        <time>2015-05-25T15:45:06Z</time>
      </trkpt>
      <trkpt lat="43.95057" lon="5.14205">
        <ele>648.55</ele>
        <time>2015-05-25T15:45:20Z</time>
      </trkpt>
      <trkpt lat="43.95057" lon="5.14205">
        <ele>649.03</ele>
        <time>2015-05-25T15:45:28Z</time>
      </trkpt>
      <trkpt lat="43.95051" lon="5.14218">
        <ele>649.51</ele>
        <time>2015-05-25T15:45:35Z</time>
      </trkpt>
      <trkpt lat="43.95051" lon="5.14221">
        <ele>649.03</ele>
        <time>2015-05-25T15:45:36Z</time>
      </trkpt>
      <trkpt lat="43.95057" lon="5.1424">
        <ele>649.03</ele>
        <time>2015-05-25T15:45:43Z</time>
      </trkpt>
      <trkpt lat="43.95061" lon="5.14258">
        <ele>649.51</ele>
        <time>2015-05-25T15:45:49Z</time>
      </trkpt>
      <trkpt lat="43.95065" lon="5.14278">
        <ele>650.47</ele>
        <time>2015-05-25T15:45:56Z</time>
      </trkpt>
      <trkpt lat="43.95069" lon="5.14298">
        <ele>652.39</ele>
        <time>2015-05-25T15:46:03Z</time>
      </trkpt>
      <trkpt lat="43.95073" lon="5.14317">
        <ele>654.8</ele>
        <time>2015-05-25T15:46:10Z</time>
      </trkpt>
      <trkpt lat="43.95078" lon="5.14333">
        <ele>653.83</ele>
        <time>2015-05-25T15:46:16Z</time>
      </trkpt>
      <trkpt lat="43.95086" lon="5.14355">
        <ele>653.35</ele>
        <time>2015-05-25T15:46:24Z</time>
      </trkpt>
      <trkpt lat="43.95089" lon="5.14361">
        <ele>654.31</ele>
        <time>2015-05-25T15:46:26Z</time>
      </trkpt>
      <trkpt lat="43.95098" lon="5.14383">
        <ele>656.72</ele>
        <time>2015-05-25T15:46:34Z</time>
      </trkpt>
      <trkpt lat="43.95104" lon="5.14397">
        <ele>655.28</ele>
        <time>2015-05-25T15:46:39Z</time>
      </trkpt>
      <trkpt lat="43.95112" lon="5.14421">
        <ele>656.24</ele>
        <time>2015-05-25T15:46:47Z</time>
      </trkpt>
      <trkpt lat="43.9512" lon="5.14438">
        <ele>657.2</ele>
        <time>2015-05-25T15:46:53Z</time>
      </trkpt>
      <trkpt lat="43.95129" lon="5.14458">
        <ele>658.64</ele>
        <time>2015-05-25T15:47:01Z</time>
      </trkpt>
      <trkpt lat="43.95139" lon="5.1448">
        <ele>659.12</ele>
        <time>2015-05-25T15:47:09Z</time>
      </trkpt>
      <trkpt lat="43.95149" lon="5.145">
        <ele>660.08</ele>
        <time>2015-05-25T15:47:17Z</time>
      </trkpt>
      <trkpt lat="43.9516" lon="5.14518">
        <ele>661.04</ele>
        <time>2015-05-25T15:47:24Z</time>
      </trkpt>
      <trkpt lat="43.9517" lon="5.14534">
        <ele>661.52</ele>
        <time>2015-05-25T15:47:30Z</time>
      </trkpt>
      <trkpt lat="43.95181" lon="5.14551">
        <ele>660.56</ele>
        <time>2015-05-25T15:47:36Z</time>
      </trkpt>
      <trkpt lat="43.95197" lon="5.1457">
        <ele>661.52</ele>
        <time>2015-05-25T15:47:43Z</time>
      </trkpt>
      <trkpt lat="43.95212" lon="5.14592">
        <ele>661.52</ele>
        <time>2015-05-25T15:47:49Z</time>
      </trkpt>
      <trkpt lat="43.95214" lon="5.14597">
        <ele>661.04</ele>
        <time>2015-05-25T15:47:50Z</time>
      </trkpt>
      <trkpt lat="43.95216" lon="5.14602">
        <ele>661.52</ele>
        <time>2015-05-25T15:47:51Z</time>
      </trkpt>
      <trkpt lat="43.95218" lon="5.14606">
        <ele>661.52</ele>
        <time>2015-05-25T15:47:52Z</time>
      </trkpt>
      <trkpt lat="43.95241" lon="5.14645">
        <ele>661.52</ele>
        <time>2015-05-25T15:48:02Z</time>
      </trkpt>
      <trkpt lat="43.95243" lon="5.14649">
        <ele>661.52</ele>
        <time>2015-05-25T15:48:03Z</time>
      </trkpt>
      <trkpt lat="43.95246" lon="5.14654">
        <ele>661.04</ele>
        <time>2015-05-25T15:48:04Z</time>
      </trkpt>
      <trkpt lat="43.95254" lon="5.14667">
        <ele>661.52</ele>
        <time>2015-05-25T15:48:07Z</time>
      </trkpt>
      <trkpt lat="43.95258" lon="5.14671">
        <ele>661.52</ele>
        <time>2015-05-25T15:48:08Z</time>
      </trkpt>
      <trkpt lat="43.95262" lon="5.14674">
        <ele>661.52</ele>
        <time>2015-05-25T15:48:09Z</time>
      </trkpt>
      <trkpt lat="43.95265" lon="5.14678">
        <ele>661.52</ele>
        <time>2015-05-25T15:48:10Z</time>
      </trkpt>
      <trkpt lat="43.95268" lon="5.14682">
        <ele>661.52</ele>
        <time>2015-05-25T15:48:11Z</time>
      </trkpt>
      <trkpt lat="43.95271" lon="5.14686">
        <ele>661.04</ele>
        <time>2015-05-25T15:48:12Z</time>
      </trkpt>
      <trkpt lat="43.95274" lon="5.14689">
        <ele>661.52</ele>
        <time>2015-05-25T15:48:13Z</time>
      </trkpt>
      <trkpt lat="43.95276" lon="5.14694">
        <ele>661.52</ele>
        <time>2015-05-25T15:48:14Z</time>
      </trkpt>
      <trkpt lat="43.95276" lon="5.14699">
        <ele>661.04</ele>
        <time>2015-05-25T15:48:15Z</time>
      </trkpt>
      <trkpt lat="43.95277" lon="5.14705">
        <ele>661.04</ele>
        <time>2015-05-25T15:48:16Z</time>
      </trkpt>
      <trkpt lat="43.95276" lon="5.1471">
        <ele>660.56</ele>
        <time>2015-05-25T15:48:17Z</time>
      </trkpt>
      <trkpt lat="43.95275" lon="5.14715">
        <ele>661.04</ele>
        <time>2015-05-25T15:48:18Z</time>
      </trkpt>
      <trkpt lat="43.95274" lon="5.1472">
        <ele>661.52</ele>
        <time>2015-05-25T15:48:19Z</time>
      </trkpt>
      <trkpt lat="43.95273" lon="5.14726">
        <ele>661.04</ele>
        <time>2015-05-25T15:48:20Z</time>
      </trkpt>
      <trkpt lat="43.95272" lon="5.14733">
        <ele>660.56</ele>
        <time>2015-05-25T15:48:21Z</time>
      </trkpt>
      <trkpt lat="43.9527" lon="5.14739">
        <ele>660.08</ele>
        <time>2015-05-25T15:48:22Z</time>
      </trkpt>
      <trkpt lat="43.9527" lon="5.14745">
        <ele>660.08</ele>
        <time>2015-05-25T15:48:23Z</time>
      </trkpt>
      <trkpt lat="43.95268" lon="5.14751">
        <ele>660.08</ele>
        <time>2015-05-25T15:48:24Z</time>
      </trkpt>
      <trkpt lat="43.95266" lon="5.14757">
        <ele>659.6</ele>
        <time>2015-05-25T15:48:25Z</time>
      </trkpt>
      <trkpt lat="43.95265" lon="5.14763">
        <ele>659.6</ele>
        <time>2015-05-25T15:48:26Z</time>
      </trkpt>
      <trkpt lat="43.95263" lon="5.14769">
        <ele>660.08</ele>
        <time>2015-05-25T15:48:27Z</time>
      </trkpt>
      <trkpt lat="43.95251" lon="5.14821">
        <ele>659.12</ele>
        <time>2015-05-25T15:48:35Z</time>
      </trkpt>
      <trkpt lat="43.9525" lon="5.14828">
        <ele>659.12</ele>
        <time>2015-05-25T15:48:36Z</time>
      </trkpt>
      <trkpt lat="43.95248" lon="5.14835">
        <ele>658.64</ele>
        <time>2015-05-25T15:48:37Z</time>
      </trkpt>
      <trkpt lat="43.95227" lon="5.14892">
        <ele>656.72</ele>
        <time>2015-05-25T15:48:46Z</time>
      </trkpt>
      <trkpt lat="43.95225" lon="5.14898">
        <ele>656.24</ele>
        <time>2015-05-25T15:48:47Z</time>
      </trkpt>
      <trkpt lat="43.95224" lon="5.14905">
        <ele>655.76</ele>
        <time>2015-05-25T15:48:48Z</time>
      </trkpt>
      <trkpt lat="43.95223" lon="5.14912">
        <ele>655.76</ele>
        <time>2015-05-25T15:48:49Z</time>
      </trkpt>
      <trkpt lat="43.95222" lon="5.14919">
        <ele>655.76</ele>
        <time>2015-05-25T15:48:50Z</time>
      </trkpt>
      <trkpt lat="43.95221" lon="5.14927">
        <ele>655.76</ele>
        <time>2015-05-25T15:48:51Z</time>
      </trkpt>
      <trkpt lat="43.9522" lon="5.14934">
        <ele>655.76</ele>
        <time>2015-05-25T15:48:52Z</time>
      </trkpt>
      <trkpt lat="43.95219" lon="5.14941">
        <ele>655.28</ele>
        <time>2015-05-25T15:48:53Z</time>
      </trkpt>
      <trkpt lat="43.95217" lon="5.14948">
        <ele>655.28</ele>
        <time>2015-05-25T15:48:54Z</time>
      </trkpt>
      <trkpt lat="43.95213" lon="5.14953">
        <ele>654.8</ele>
        <time>2015-05-25T15:48:55Z</time>
      </trkpt>
      <trkpt lat="43.95209" lon="5.14958">
        <ele>654.8</ele>
        <time>2015-05-25T15:48:56Z</time>
      </trkpt>
      <trkpt lat="43.95205" lon="5.14962">
        <ele>654.8</ele>
        <time>2015-05-25T15:48:57Z</time>
      </trkpt>
      <trkpt lat="43.952" lon="5.14966">
        <ele>654.31</ele>
        <time>2015-05-25T15:48:58Z</time>
      </trkpt>
      <trkpt lat="43.95195" lon="5.1497">
        <ele>654.31</ele>
        <time>2015-05-25T15:48:59Z</time>
      </trkpt>
      <trkpt lat="43.95191" lon="5.14974">
        <ele>654.31</ele>
        <time>2015-05-25T15:49:00Z</time>
      </trkpt>
      <trkpt lat="43.95187" lon="5.14979">
        <ele>654.8</ele>
        <time>2015-05-25T15:49:01Z</time>
      </trkpt>
      <trkpt lat="43.95184" lon="5.14985">
        <ele>653.83</ele>
        <time>2015-05-25T15:49:02Z</time>
      </trkpt>
      <trkpt lat="43.95177" lon="5.14998">
        <ele>653.35</ele>
        <time>2015-05-25T15:49:04Z</time>
      </trkpt>
      <trkpt lat="43.9517" lon="5.1501">
        <ele>652.87</ele>
        <time>2015-05-25T15:49:06Z</time>
      </trkpt>
      <trkpt lat="43.95159" lon="5.15027">
        <ele>652.87</ele>
        <time>2015-05-25T15:49:09Z</time>
      </trkpt>
      <trkpt lat="43.95138" lon="5.15069">
        <ele>650.47</ele>
        <time>2015-05-25T15:49:15Z</time>
      </trkpt>
      <trkpt lat="43.95122" lon="5.15099">
        <ele>648.55</ele>
        <time>2015-05-25T15:49:19Z</time>
      </trkpt>
      <trkpt lat="43.95118" lon="5.15107">
        <ele>648.07</ele>
        <time>2015-05-25T15:49:20Z</time>
      </trkpt>
      <trkpt lat="43.95114" lon="5.15114">
        <ele>647.59</ele>
        <time>2015-05-25T15:49:21Z</time>
      </trkpt>
      <trkpt lat="43.95105" lon="5.15129">
        <ele>646.62</ele>
        <time>2015-05-25T15:49:23Z</time>
      </trkpt>
      <trkpt lat="43.95098" lon="5.15148">
        <ele>645.18</ele>
        <time>2015-05-25T15:49:25Z</time>
      </trkpt>
      <trkpt lat="43.95094" lon="5.15157">
        <ele>645.18</ele>
        <time>2015-05-25T15:49:26Z</time>
      </trkpt>
      <trkpt lat="43.95085" lon="5.15171">
        <ele>645.66</ele>
        <time>2015-05-25T15:49:28Z</time>
      </trkpt>
      <trkpt lat="43.95081" lon="5.15175">
        <ele>646.62</ele>
        <time>2015-05-25T15:49:29Z</time>
      </trkpt>
      <trkpt lat="43.95073" lon="5.15182">
        <ele>645.18</ele>
        <time>2015-05-25T15:49:32Z</time>
      </trkpt>
      <trkpt lat="43.95074" lon="5.15182">
        <ele>645.18</ele>
        <time>2015-05-25T15:49:38Z</time>
      </trkpt>
      <trkpt lat="43.95074" lon="5.15181">
        <ele>644.7</ele>
        <time>2015-05-25T15:49:52Z</time>
      </trkpt>
      <trkpt lat="43.95075" lon="5.15182">
        <ele>645.18</ele>
        <time>2015-05-25T15:50:02Z</time>
      </trkpt>
      <trkpt lat="43.95075" lon="5.15183">
        <ele>645.18</ele>
        <time>2015-05-25T15:50:17Z</time>
      </trkpt>
      <trkpt lat="43.95075" lon="5.15184">
        <ele>645.18</ele>
        <time>2015-05-25T15:50:18Z</time>
      </trkpt>
      <trkpt lat="43.95075" lon="5.15186">
        <ele>645.18</ele>
        <time>2015-05-25T15:50:19Z</time>
      </trkpt>
      <trkpt lat="43.95074" lon="5.1519">
        <ele>644.7</ele>
        <time>2015-05-25T15:50:20Z</time>
      </trkpt>
      <trkpt lat="43.95074" lon="5.15194">
        <ele>644.7</ele>
        <time>2015-05-25T15:50:21Z</time>
      </trkpt>
      <trkpt lat="43.95073" lon="5.15198">
        <ele>644.7</ele>
        <time>2015-05-25T15:50:22Z</time>
      </trkpt>
      <trkpt lat="43.95071" lon="5.15202">
        <ele>644.7</ele>
        <time>2015-05-25T15:50:23Z</time>
      </trkpt>
      <trkpt lat="43.95064" lon="5.1523">
        <ele>644.22</ele>
        <time>2015-05-25T15:50:30Z</time>
      </trkpt>
      <trkpt lat="43.95059" lon="5.15251">
        <ele>644.22</ele>
        <time>2015-05-25T15:50:34Z</time>
      </trkpt>
      <trkpt lat="43.95052" lon="5.15276">
        <ele>643.74</ele>
        <time>2015-05-25T15:50:38Z</time>
      </trkpt>
      <trkpt lat="43.95047" lon="5.15308">
        <ele>642.3</ele>
        <time>2015-05-25T15:50:43Z</time>
      </trkpt>
      <trkpt lat="43.95044" lon="5.15336">
        <ele>641.82</ele>
        <time>2015-05-25T15:50:47Z</time>
      </trkpt>
      <trkpt lat="43.95043" lon="5.15343">
        <ele>641.82</ele>
        <time>2015-05-25T15:50:48Z</time>
      </trkpt>
      <trkpt lat="43.95041" lon="5.15365">
        <ele>640.86</ele>
        <time>2015-05-25T15:50:51Z</time>
      </trkpt>
      <trkpt lat="43.95042" lon="5.15373">
        <ele>640.86</ele>
        <time>2015-05-25T15:50:52Z</time>
      </trkpt>
      <trkpt lat="43.95043" lon="5.15379">
        <ele>640.86</ele>
        <time>2015-05-25T15:50:53Z</time>
      </trkpt>
      <trkpt lat="43.95043" lon="5.15386">
        <ele>640.86</ele>
        <time>2015-05-25T15:50:54Z</time>
      </trkpt>
      <trkpt lat="43.95041" lon="5.15392">
        <ele>640.38</ele>
        <time>2015-05-25T15:50:55Z</time>
      </trkpt>
      <trkpt lat="43.9504" lon="5.15398">
        <ele>640.38</ele>
        <time>2015-05-25T15:50:56Z</time>
      </trkpt>
      <trkpt lat="43.95038" lon="5.15405">
        <ele>640.38</ele>
        <time>2015-05-25T15:50:57Z</time>
      </trkpt>
      <trkpt lat="43.95035" lon="5.15411">
        <ele>639.89</ele>
        <time>2015-05-25T15:50:58Z</time>
      </trkpt>
      <trkpt lat="43.95033" lon="5.15417">
        <ele>639.89</ele>
        <time>2015-05-25T15:50:59Z</time>
      </trkpt>
      <trkpt lat="43.95031" lon="5.15424">
        <ele>639.41</ele>
        <time>2015-05-25T15:51:00Z</time>
      </trkpt>
      <trkpt lat="43.9503" lon="5.15431">
        <ele>639.41</ele>
        <time>2015-05-25T15:51:01Z</time>
      </trkpt>
      <trkpt lat="43.95023" lon="5.15459">
        <ele>637.49</ele>
        <time>2015-05-25T15:51:05Z</time>
      </trkpt>
      <trkpt lat="43.9502" lon="5.15466">
        <ele>637.49</ele>
        <time>2015-05-25T15:51:06Z</time>
      </trkpt>
      <trkpt lat="43.9501" lon="5.15491">
        <ele>637.01</ele>
        <time>2015-05-25T15:51:11Z</time>
      </trkpt>
      <trkpt lat="43.94998" lon="5.15496">
        <ele>636.53</ele>
        <time>2015-05-25T15:51:16Z</time>
      </trkpt>
      <trkpt lat="43.94971" lon="5.15507">
        <ele>635.09</ele>
        <time>2015-05-25T15:51:24Z</time>
      </trkpt>
      <trkpt lat="43.94962" lon="5.15522">
        <ele>634.61</ele>
        <time>2015-05-25T15:51:28Z</time>
      </trkpt>
      <trkpt lat="43.94958" lon="5.1554">
        <ele>633.65</ele>
        <time>2015-05-25T15:51:31Z</time>
      </trkpt>
      <trkpt lat="43.94958" lon="5.15546">
        <ele>633.65</ele>
        <time>2015-05-25T15:51:32Z</time>
      </trkpt>
      <trkpt lat="43.94958" lon="5.15552">
        <ele>633.17</ele>
        <time>2015-05-25T15:51:33Z</time>
      </trkpt>
      <trkpt lat="43.94959" lon="5.15557">
        <ele>632.68</ele>
        <time>2015-05-25T15:51:34Z</time>
      </trkpt>
      <trkpt lat="43.9496" lon="5.15564">
        <ele>632.68</ele>
        <time>2015-05-25T15:51:35Z</time>
      </trkpt>
      <trkpt lat="43.94961" lon="5.1557">
        <ele>632.2</ele>
        <time>2015-05-25T15:51:36Z</time>
      </trkpt>
      <trkpt lat="43.94963" lon="5.15575">
        <ele>631.72</ele>
        <time>2015-05-25T15:51:37Z</time>
      </trkpt>
      <trkpt lat="43.94962" lon="5.15576">
        <ele>632.2</ele>
        <time>2015-05-25T15:51:40Z</time>
      </trkpt>
      <trkpt lat="43.94963" lon="5.15575">
        <ele>632.2</ele>
        <time>2015-05-25T15:51:41Z</time>
      </trkpt>
      <trkpt lat="43.94963" lon="5.15573">
        <ele>632.2</ele>
        <time>2015-05-25T15:51:42Z</time>
      </trkpt>
      <trkpt lat="43.94964" lon="5.15572">
        <ele>632.2</ele>
        <time>2015-05-25T15:51:43Z</time>
      </trkpt>
      <trkpt lat="43.94965" lon="5.15571">
        <ele>632.2</ele>
        <time>2015-05-25T15:51:44Z</time>
      </trkpt>
      <trkpt lat="43.94967" lon="5.15568">
        <ele>632.2</ele>
        <time>2015-05-25T15:51:50Z</time>
      </trkpt>
      <trkpt lat="43.94971" lon="5.15569">
        <ele>632.2</ele>
        <time>2015-05-25T15:51:59Z</time>
      </trkpt>
      <trkpt lat="43.94973" lon="5.1557">
        <ele>632.68</ele>
        <time>2015-05-25T15:52:02Z</time>
      </trkpt>
      <trkpt lat="43.94973" lon="5.15572">
        <ele>632.68</ele>
        <time>2015-05-25T15:52:03Z</time>
      </trkpt>
      <trkpt lat="43.94975" lon="5.15573">
        <ele>632.68</ele>
        <time>2015-05-25T15:52:04Z</time>
      </trkpt>
      <trkpt lat="43.94976" lon="5.15575">
        <ele>632.68</ele>
        <time>2015-05-25T15:52:05Z</time>
      </trkpt>
      <trkpt lat="43.94976" lon="5.15578">
        <ele>633.17</ele>
        <time>2015-05-25T15:52:07Z</time>
      </trkpt>
      <trkpt lat="43.94976" lon="5.1558">
        <ele>633.17</ele>
        <time>2015-05-25T15:52:08Z</time>
      </trkpt>
      <trkpt lat="43.94977" lon="5.15583">
        <ele>633.17</ele>
        <time>2015-05-25T15:52:09Z</time>
      </trkpt>
      <trkpt lat="43.94977" lon="5.15586">
        <ele>632.68</ele>
        <time>2015-05-25T15:52:10Z</time>
      </trkpt>
      <trkpt lat="43.94977" lon="5.15589">
        <ele>632.68</ele>
        <time>2015-05-25T15:52:11Z</time>
      </trkpt>
      <trkpt lat="43.94981" lon="5.15614">
        <ele>632.2</ele>
        <time>2015-05-25T15:52:18Z</time>
      </trkpt>
      <trkpt lat="43.94982" lon="5.15614">
        <ele>633.65</ele>
        <time>2015-05-25T15:52:27Z</time>
      </trkpt>
      <trkpt lat="43.94983" lon="5.15615">
        <ele>632.68</ele>
        <time>2015-05-25T15:52:43Z</time>
      </trkpt>
      <trkpt lat="43.94983" lon="5.15615">
        <ele>632.68</ele>
        <time>2015-05-25T15:52:59Z</time>
      </trkpt>
      <trkpt lat="43.94984" lon="5.15615">
        <ele>634.13</ele>
        <time>2015-05-25T15:53:11Z</time>
      </trkpt>
      <trkpt lat="43.94984" lon="5.15616">
        <ele>632.68</ele>
        <time>2015-05-25T15:53:18Z</time>
      </trkpt>
      <trkpt lat="43.94984" lon="5.15616">
        <ele>633.17</ele>
        <time>2015-05-25T15:53:32Z</time>
      </trkpt>
      <trkpt lat="43.94984" lon="5.15616">
        <ele>633.17</ele>
        <time>2015-05-25T15:53:48Z</time>
      </trkpt>
      <trkpt lat="43.94984" lon="5.15617">
        <ele>633.65</ele>
        <time>2015-05-25T15:54:01Z</time>
      </trkpt>
      <trkpt lat="43.94984" lon="5.15616">
        <ele>633.17</ele>
        <time>2015-05-25T15:54:11Z</time>
      </trkpt>
      <trkpt lat="43.94984" lon="5.15616">
        <ele>634.13</ele>
        <time>2015-05-25T15:54:27Z</time>
      </trkpt>
      <trkpt lat="43.94984" lon="5.15616">
        <ele>633.17</ele>
        <time>2015-05-25T15:54:39Z</time>
      </trkpt>
      <trkpt lat="43.94983" lon="5.15616">
        <ele>633.65</ele>
        <time>2015-05-25T15:54:58Z</time>
      </trkpt>
      <trkpt lat="43.94983" lon="5.15617">
        <ele>633.17</ele>
        <time>2015-05-25T15:55:12Z</time>
      </trkpt>
      <trkpt lat="43.94984" lon="5.15617">
        <ele>633.65</ele>
        <time>2015-05-25T15:55:25Z</time>
      </trkpt>
      <trkpt lat="43.94985" lon="5.15621">
        <ele>632.68</ele>
        <time>2015-05-25T15:55:29Z</time>
      </trkpt>
      <trkpt lat="43.94986" lon="5.15624">
        <ele>632.68</ele>
        <time>2015-05-25T15:55:30Z</time>
      </trkpt>
      <trkpt lat="43.94988" lon="5.15626">
        <ele>632.68</ele>
        <time>2015-05-25T15:55:31Z</time>
      </trkpt>
      <trkpt lat="43.95002" lon="5.15638">
        <ele>635.09</ele>
        <time>2015-05-25T15:55:37Z</time>
      </trkpt>
      <trkpt lat="43.9502" lon="5.15647">
        <ele>635.09</ele>
        <time>2015-05-25T15:55:43Z</time>
      </trkpt>
      <trkpt lat="43.95044" lon="5.15661">
        <ele>636.05</ele>
        <time>2015-05-25T15:55:51Z</time>
      </trkpt>
      <trkpt lat="43.95069" lon="5.15675">
        <ele>637.49</ele>
        <time>2015-05-25T15:55:59Z</time>
      </trkpt>
      <trkpt lat="43.95093" lon="5.15683">
        <ele>638.45</ele>
        <time>2015-05-25T15:56:07Z</time>
      </trkpt>
      <trkpt lat="43.95111" lon="5.15679">
        <ele>640.38</ele>
        <time>2015-05-25T15:56:13Z</time>
      </trkpt>
      <trkpt lat="43.95118" lon="5.15676">
        <ele>641.82</ele>
        <time>2015-05-25T15:56:16Z</time>
      </trkpt>
      <trkpt lat="43.95121" lon="5.15674">
        <ele>642.3</ele>
        <time>2015-05-25T15:56:18Z</time>
      </trkpt>
      <trkpt lat="43.95124" lon="5.15674">
        <ele>641.82</ele>
        <time>2015-05-25T15:56:19Z</time>
      </trkpt>
      <trkpt lat="43.95126" lon="5.15673">
        <ele>641.82</ele>
        <time>2015-05-25T15:56:20Z</time>
      </trkpt>
      <trkpt lat="43.95138" lon="5.15674">
        <ele>642.3</ele>
        <time>2015-05-25T15:56:25Z</time>
      </trkpt>
      <trkpt lat="43.95159" lon="5.15683">
        <ele>642.3</ele>
        <time>2015-05-25T15:56:32Z</time>
      </trkpt>
      <trkpt lat="43.95183" lon="5.15684">
        <ele>642.3</ele>
        <time>2015-05-25T15:56:39Z</time>
      </trkpt>
      <trkpt lat="43.95208" lon="5.15682">
        <ele>641.82</ele>
        <time>2015-05-25T15:56:46Z</time>
      </trkpt>
      <trkpt lat="43.95227" lon="5.15695">
        <ele>641.82</ele>
        <time>2015-05-25T15:56:51Z</time>
      </trkpt>
      <trkpt lat="43.95239" lon="5.15707">
        <ele>640.38</ele>
        <time>2015-05-25T15:56:54Z</time>
      </trkpt>
      <trkpt lat="43.95245" lon="5.15709">
        <ele>639.89</ele>
        <time>2015-05-25T15:56:55Z</time>
      </trkpt>
      <trkpt lat="43.95251" lon="5.15709">
        <ele>638.93</ele>
        <time>2015-05-25T15:56:56Z</time>
      </trkpt>
      <trkpt lat="43.95256" lon="5.15707">
        <ele>638.93</ele>
        <time>2015-05-25T15:56:57Z</time>
      </trkpt>
      <trkpt lat="43.95262" lon="5.15705">
        <ele>638.93</ele>
        <time>2015-05-25T15:56:58Z</time>
      </trkpt>
      <trkpt lat="43.95267" lon="5.15703">
        <ele>638.93</ele>
        <time>2015-05-25T15:56:59Z</time>
      </trkpt>
      <trkpt lat="43.95272" lon="5.15701">
        <ele>639.41</ele>
        <time>2015-05-25T15:57:00Z</time>
      </trkpt>
      <trkpt lat="43.95291" lon="5.15698">
        <ele>638.45</ele>
        <time>2015-05-25T15:57:04Z</time>
      </trkpt>
      <trkpt lat="43.9531" lon="5.15702">
        <ele>637.97</ele>
        <time>2015-05-25T15:57:09Z</time>
      </trkpt>
      <trkpt lat="43.95333" lon="5.15704">
        <ele>636.53</ele>
        <time>2015-05-25T15:57:15Z</time>
      </trkpt>
      <trkpt lat="43.95338" lon="5.15705">
        <ele>636.53</ele>
        <time>2015-05-25T15:57:16Z</time>
      </trkpt>
      <trkpt lat="43.95374" lon="5.15712">
        <ele>635.09</ele>
        <time>2015-05-25T15:57:23Z</time>
      </trkpt>
      <trkpt lat="43.95413" lon="5.15714">
        <ele>635.09</ele>
        <time>2015-05-25T15:57:31Z</time>
      </trkpt>
      <trkpt lat="43.95434" lon="5.15714">
        <ele>635.57</ele>
        <time>2015-05-25T15:57:36Z</time>
      </trkpt>
      <trkpt lat="43.95443" lon="5.15715">
        <ele>635.09</ele>
        <time>2015-05-25T15:57:38Z</time>
      </trkpt>
      <trkpt lat="43.95457" lon="5.15718">
        <ele>635.57</ele>
        <time>2015-05-25T15:57:41Z</time>
      </trkpt>
      <trkpt lat="43.95461" lon="5.1572">
        <ele>635.57</ele>
        <time>2015-05-25T15:57:42Z</time>
      </trkpt>
      <trkpt lat="43.95466" lon="5.15723">
        <ele>635.57</ele>
        <time>2015-05-25T15:57:43Z</time>
      </trkpt>
      <trkpt lat="43.95475" lon="5.15731">
        <ele>635.09</ele>
        <time>2015-05-25T15:57:45Z</time>
      </trkpt>
      <trkpt lat="43.95479" lon="5.15737">
        <ele>634.61</ele>
        <time>2015-05-25T15:57:46Z</time>
      </trkpt>
      <trkpt lat="43.95486" lon="5.1575">
        <ele>634.13</ele>
        <time>2015-05-25T15:57:48Z</time>
      </trkpt>
      <trkpt lat="43.95489" lon="5.15756">
        <ele>634.13</ele>
        <time>2015-05-25T15:57:49Z</time>
      </trkpt>
      <trkpt lat="43.95495" lon="5.15777">
        <ele>633.65</ele>
        <time>2015-05-25T15:57:52Z</time>
      </trkpt>
      <trkpt lat="43.95496" lon="5.15784">
        <ele>633.65</ele>
        <time>2015-05-25T15:57:53Z</time>
      </trkpt>
      <trkpt lat="43.95497" lon="5.15791">
        <ele>633.17</ele>
        <time>2015-05-25T15:57:54Z</time>
      </trkpt>
      <trkpt lat="43.95497" lon="5.15798">
        <ele>633.65</ele>
        <time>2015-05-25T15:57:55Z</time>
      </trkpt>
      <trkpt lat="43.95497" lon="5.15805">
        <ele>633.65</ele>
        <time>2015-05-25T15:57:56Z</time>
      </trkpt>
      <trkpt lat="43.95497" lon="5.15811">
        <ele>633.65</ele>
        <time>2015-05-25T15:57:57Z</time>
      </trkpt>
      <trkpt lat="43.95496" lon="5.15817">
        <ele>634.13</ele>
        <time>2015-05-25T15:57:58Z</time>
      </trkpt>
      <trkpt lat="43.95495" lon="5.1582">
        <ele>634.13</ele>
        <time>2015-05-25T15:57:59Z</time>
      </trkpt>
      <trkpt lat="43.95494" lon="5.15823">
        <ele>633.65</ele>
        <time>2015-05-25T15:58:03Z</time>
      </trkpt>
      <trkpt lat="43.95494" lon="5.15824">
        <ele>634.13</ele>
        <time>2015-05-25T15:58:15Z</time>
      </trkpt>
      <trkpt lat="43.95495" lon="5.15823">
        <ele>633.65</ele>
        <time>2015-05-25T15:58:20Z</time>
      </trkpt>
      <trkpt lat="43.95495" lon="5.15823">
        <ele>634.13</ele>
        <time>2015-05-25T15:58:31Z</time>
      </trkpt>
      <trkpt lat="43.95495" lon="5.15823">
        <ele>633.65</ele>
        <time>2015-05-25T15:58:44Z</time>
      </trkpt>
      <trkpt lat="43.95495" lon="5.15823">
        <ele>634.13</ele>
        <time>2015-05-25T15:58:59Z</time>
      </trkpt>
      <trkpt lat="43.95495" lon="5.15823">
        <ele>634.13</ele>
        <time>2015-05-25T15:59:11Z</time>
      </trkpt>
      <trkpt lat="43.95496" lon="5.15822">
        <ele>634.13</ele>
        <time>2015-05-25T15:59:24Z</time>
      </trkpt>
      <trkpt lat="43.95494" lon="5.15823">
        <ele>633.65</ele>
        <time>2015-05-25T15:59:31Z</time>
      </trkpt>
      <trkpt lat="43.95494" lon="5.15825">
        <ele>633.65</ele>
        <time>2015-05-25T15:59:32Z</time>
      </trkpt>
      <trkpt lat="43.95494" lon="5.15827">
        <ele>633.65</ele>
        <time>2015-05-25T15:59:33Z</time>
      </trkpt>
      <trkpt lat="43.95493" lon="5.1583">
        <ele>633.65</ele>
        <time>2015-05-25T15:59:34Z</time>
      </trkpt>
      <trkpt lat="43.95493" lon="5.15832">
        <ele>634.13</ele>
        <time>2015-05-25T15:59:35Z</time>
      </trkpt>
      <trkpt lat="43.95493" lon="5.15836">
        <ele>634.13</ele>
        <time>2015-05-25T15:59:36Z</time>
      </trkpt>
      <trkpt lat="43.95492" lon="5.15839">
        <ele>634.13</ele>
        <time>2015-05-25T15:59:37Z</time>
      </trkpt>
      <trkpt lat="43.95491" lon="5.15843">
        <ele>634.13</ele>
        <time>2015-05-25T15:59:38Z</time>
      </trkpt>
      <trkpt lat="43.9549" lon="5.15847">
        <ele>634.13</ele>
        <time>2015-05-25T15:59:39Z</time>
      </trkpt>
      <trkpt lat="43.95489" lon="5.1585">
        <ele>634.13</ele>
        <time>2015-05-25T15:59:40Z</time>
      </trkpt>
      <trkpt lat="43.95488" lon="5.15854">
        <ele>634.13</ele>
        <time>2015-05-25T15:59:41Z</time>
      </trkpt>
      <trkpt lat="43.95487" lon="5.15858">
        <ele>634.13</ele>
        <time>2015-05-25T15:59:42Z</time>
      </trkpt>
      <trkpt lat="43.95486" lon="5.15862">
        <ele>634.13</ele>
        <time>2015-05-25T15:59:43Z</time>
      </trkpt>
      <trkpt lat="43.95484" lon="5.15866">
        <ele>634.13</ele>
        <time>2015-05-25T15:59:44Z</time>
      </trkpt>
      <trkpt lat="43.95476" lon="5.15887">
        <ele>634.61</ele>
        <time>2015-05-25T15:59:48Z</time>
      </trkpt>
      <trkpt lat="43.95474" lon="5.15892">
        <ele>634.61</ele>
        <time>2015-05-25T15:59:49Z</time>
      </trkpt>
      <trkpt lat="43.95468" lon="5.15911">
        <ele>634.61</ele>
        <time>2015-05-25T15:59:52Z</time>
      </trkpt>
      <trkpt lat="43.95459" lon="5.15963">
        <ele>636.53</ele>
        <time>2015-05-25T16:00:00Z</time>
      </trkpt>
      <trkpt lat="43.95458" lon="5.15976">
        <ele>636.53</ele>
        <time>2015-05-25T16:00:02Z</time>
      </trkpt>
      <trkpt lat="43.95455" lon="5.15996">
        <ele>636.53</ele>
        <time>2015-05-25T16:00:05Z</time>
      </trkpt>
      <trkpt lat="43.95455" lon="5.16003">
        <ele>636.05</ele>
        <time>2015-05-25T16:00:06Z</time>
      </trkpt>
      <trkpt lat="43.95456" lon="5.16009">
        <ele>636.05</ele>
        <time>2015-05-25T16:00:07Z</time>
      </trkpt>
      <trkpt lat="43.95457" lon="5.16015">
        <ele>636.05</ele>
        <time>2015-05-25T16:00:08Z</time>
      </trkpt>
      <trkpt lat="43.95459" lon="5.16021">
        <ele>636.53</ele>
        <time>2015-05-25T16:00:09Z</time>
      </trkpt>
      <trkpt lat="43.95461" lon="5.16026">
        <ele>636.53</ele>
        <time>2015-05-25T16:00:10Z</time>
      </trkpt>
      <trkpt lat="43.95463" lon="5.16031">
        <ele>636.53</ele>
        <time>2015-05-25T16:00:11Z</time>
      </trkpt>
      <trkpt lat="43.95466" lon="5.16036">
        <ele>636.53</ele>
        <time>2015-05-25T16:00:12Z</time>
      </trkpt>
      <trkpt lat="43.95469" lon="5.1604">
        <ele>636.53</ele>
        <time>2015-05-25T16:00:13Z</time>
      </trkpt>
      <trkpt lat="43.95472" lon="5.16045">
        <ele>636.53</ele>
        <time>2015-05-25T16:00:14Z</time>
      </trkpt>
      <trkpt lat="43.95483" lon="5.16061">
        <ele>636.05</ele>
        <time>2015-05-25T16:00:17Z</time>
      </trkpt>
      <trkpt lat="43.95485" lon="5.16067">
        <ele>636.05</ele>
        <time>2015-05-25T16:00:18Z</time>
      </trkpt>
      <trkpt lat="43.95488" lon="5.16073">
        <ele>636.05</ele>
        <time>2015-05-25T16:00:19Z</time>
      </trkpt>
      <trkpt lat="43.95498" lon="5.16093">
        <ele>635.09</ele>
        <time>2015-05-25T16:00:22Z</time>
      </trkpt>
      <trkpt lat="43.95525" lon="5.16143">
        <ele>635.57</ele>
        <time>2015-05-25T16:00:30Z</time>
      </trkpt>
      <trkpt lat="43.95528" lon="5.16148">
        <ele>635.57</ele>
        <time>2015-05-25T16:00:31Z</time>
      </trkpt>
      <trkpt lat="43.95538" lon="5.16168">
        <ele>636.05</ele>
        <time>2015-05-25T16:00:35Z</time>
      </trkpt>
      <trkpt lat="43.95553" lon="5.16198">
        <ele>637.97</ele>
        <time>2015-05-25T16:00:42Z</time>
      </trkpt>
      <trkpt lat="43.95577" lon="5.16216">
        <ele>637.49</ele>
        <time>2015-05-25T16:00:49Z</time>
      </trkpt>
      <trkpt lat="43.95595" lon="5.1624">
        <ele>636.05</ele>
        <time>2015-05-25T16:00:56Z</time>
      </trkpt>
      <trkpt lat="43.95597" lon="5.16246">
        <ele>636.05</ele>
        <time>2015-05-25T16:00:57Z</time>
      </trkpt>
      <trkpt lat="43.95601" lon="5.16259">
        <ele>634.13</ele>
        <time>2015-05-25T16:00:59Z</time>
      </trkpt>
      <trkpt lat="43.95612" lon="5.1629">
        <ele>632.2</ele>
        <time>2015-05-25T16:01:05Z</time>
      </trkpt>
      <trkpt lat="43.95614" lon="5.16294">
        <ele>631.72</ele>
        <time>2015-05-25T16:01:06Z</time>
      </trkpt>
      <trkpt lat="43.95617" lon="5.16299">
        <ele>630.28</ele>
        <time>2015-05-25T16:01:07Z</time>
      </trkpt>
      <trkpt lat="43.95619" lon="5.16303">
        <ele>630.28</ele>
        <time>2015-05-25T16:01:08Z</time>
      </trkpt>
      <trkpt lat="43.95627" lon="5.16315">
        <ele>628.36</ele>
        <time>2015-05-25T16:01:11Z</time>
      </trkpt>
      <trkpt lat="43.95639" lon="5.1633">
        <ele>625.96</ele>
        <time>2015-05-25T16:01:14Z</time>
      </trkpt>
      <trkpt lat="43.95654" lon="5.16345">
        <ele>624.03</ele>
        <time>2015-05-25T16:01:17Z</time>
      </trkpt>
      <trkpt lat="43.95657" lon="5.16351">
        <ele>623.55</ele>
        <time>2015-05-25T16:01:18Z</time>
      </trkpt>
      <trkpt lat="43.95658" lon="5.16358">
        <ele>622.59</ele>
        <time>2015-05-25T16:01:19Z</time>
      </trkpt>
      <trkpt lat="43.95658" lon="5.16366">
        <ele>622.11</ele>
        <time>2015-05-25T16:01:20Z</time>
      </trkpt>
      <trkpt lat="43.95657" lon="5.16373">
        <ele>621.15</ele>
        <time>2015-05-25T16:01:21Z</time>
      </trkpt>
      <trkpt lat="43.95655" lon="5.16381">
        <ele>620.67</ele>
        <time>2015-05-25T16:01:22Z</time>
      </trkpt>
      <trkpt lat="43.95652" lon="5.16388">
        <ele>619.71</ele>
        <time>2015-05-25T16:01:23Z</time>
      </trkpt>
      <trkpt lat="43.95649" lon="5.16394">
        <ele>619.23</ele>
        <time>2015-05-25T16:01:24Z</time>
      </trkpt>
      <trkpt lat="43.95645" lon="5.16402">
        <ele>618.26</ele>
        <time>2015-05-25T16:01:25Z</time>
      </trkpt>
      <trkpt lat="43.95643" lon="5.16412">
        <ele>617.3</ele>
        <time>2015-05-25T16:01:26Z</time>
      </trkpt>
      <trkpt lat="43.95638" lon="5.16455">
        <ele>613.94</ele>
        <time>2015-05-25T16:01:30Z</time>
      </trkpt>
      <trkpt lat="43.95633" lon="5.16488">
        <ele>612.02</ele>
        <time>2015-05-25T16:01:33Z</time>
      </trkpt>
      <trkpt lat="43.95626" lon="5.16535">
        <ele>610.09</ele>
        <time>2015-05-25T16:01:38Z</time>
      </trkpt>
      <trkpt lat="43.95622" lon="5.16544">
        <ele>610.09</ele>
        <time>2015-05-25T16:01:39Z</time>
      </trkpt>
      <trkpt lat="43.95618" lon="5.16551">
        <ele>609.61</ele>
        <time>2015-05-25T16:01:40Z</time>
      </trkpt>
      <trkpt lat="43.95594" lon="5.16586">
        <ele>608.17</ele>
        <time>2015-05-25T16:01:45Z</time>
      </trkpt>
      <trkpt lat="43.95589" lon="5.16591">
        <ele>607.69</ele>
        <time>2015-05-25T16:01:46Z</time>
      </trkpt>
      <trkpt lat="43.95586" lon="5.16596">
        <ele>607.69</ele>
        <time>2015-05-25T16:01:47Z</time>
      </trkpt>
      <trkpt lat="43.95585" lon="5.16598">
        <ele>607.69</ele>
        <time>2015-05-25T16:01:48Z</time>
      </trkpt>
      <trkpt lat="43.95584" lon="5.16604">
        <ele>607.69</ele>
        <time>2015-05-25T16:01:54Z</time>
      </trkpt>
      <trkpt lat="43.95585" lon="5.16606">
        <ele>608.17</ele>
        <time>2015-05-25T16:01:55Z</time>
      </trkpt>
      <trkpt lat="43.95588" lon="5.16606">
        <ele>608.17</ele>
        <time>2015-05-25T16:02:01Z</time>
      </trkpt>
      <trkpt lat="43.95587" lon="5.16605">
        <ele>608.17</ele>
        <time>2015-05-25T16:02:07Z</time>
      </trkpt>
      <trkpt lat="43.95588" lon="5.16607">
        <ele>608.17</ele>
        <time>2015-05-25T16:02:08Z</time>
      </trkpt>
      <trkpt lat="43.95589" lon="5.16609">
        <ele>607.69</ele>
        <time>2015-05-25T16:02:09Z</time>
      </trkpt>
      <trkpt lat="43.95592" lon="5.16611">
        <ele>607.69</ele>
        <time>2015-05-25T16:02:10Z</time>
      </trkpt>
      <trkpt lat="43.95595" lon="5.16611">
        <ele>607.69</ele>
        <time>2015-05-25T16:02:11Z</time>
      </trkpt>
      <trkpt lat="43.95598" lon="5.16612">
        <ele>607.69</ele>
        <time>2015-05-25T16:02:12Z</time>
      </trkpt>
      <trkpt lat="43.95606" lon="5.16612">
        <ele>607.69</ele>
        <time>2015-05-25T16:02:14Z</time>
      </trkpt>
      <trkpt lat="43.9561" lon="5.16612">
        <ele>608.17</ele>
        <time>2015-05-25T16:02:15Z</time>
      </trkpt>
      <trkpt lat="43.95618" lon="5.16612">
        <ele>608.65</ele>
        <time>2015-05-25T16:02:17Z</time>
      </trkpt>
      <trkpt lat="43.95622" lon="5.16613">
        <ele>609.13</ele>
        <time>2015-05-25T16:02:18Z</time>
      </trkpt>
      <trkpt lat="43.95642" lon="5.16606">
        <ele>608.17</ele>
        <time>2015-05-25T16:02:23Z</time>
      </trkpt>
      <trkpt lat="43.9566" lon="5.16601">
        <ele>610.09</ele>
        <time>2015-05-25T16:02:28Z</time>
      </trkpt>
      <trkpt lat="43.95668" lon="5.16596">
        <ele>609.13</ele>
        <time>2015-05-25T16:02:30Z</time>
      </trkpt>
      <trkpt lat="43.95671" lon="5.16592">
        <ele>608.65</ele>
        <time>2015-05-25T16:02:31Z</time>
      </trkpt>
      <trkpt lat="43.95674" lon="5.16588">
        <ele>608.65</ele>
        <time>2015-05-25T16:02:32Z</time>
      </trkpt>
      <trkpt lat="43.95686" lon="5.1657">
        <ele>608.65</ele>
        <time>2015-05-25T16:02:36Z</time>
      </trkpt>
      <trkpt lat="43.9569" lon="5.16565">
        <ele>608.65</ele>
        <time>2015-05-25T16:02:37Z</time>
      </trkpt>
      <trkpt lat="43.95693" lon="5.16561">
        <ele>608.17</ele>
        <time>2015-05-25T16:02:38Z</time>
      </trkpt>
      <trkpt lat="43.95703" lon="5.16551">
        <ele>607.69</ele>
        <time>2015-05-25T16:02:41Z</time>
      </trkpt>
      <trkpt lat="43.95707" lon="5.16548">
        <ele>607.69</ele>
        <time>2015-05-25T16:02:42Z</time>
      </trkpt>
      <trkpt lat="43.95711" lon="5.16547">
        <ele>607.69</ele>
        <time>2015-05-25T16:02:43Z</time>
      </trkpt>
      <trkpt lat="43.95731" lon="5.16541">
        <ele>606.73</ele>
        <time>2015-05-25T16:02:47Z</time>
      </trkpt>
      <trkpt lat="43.95735" lon="5.16538">
        <ele>606.25</ele>
        <time>2015-05-25T16:02:48Z</time>
      </trkpt>
      <trkpt lat="43.9574" lon="5.16534">
        <ele>605.29</ele>
        <time>2015-05-25T16:02:49Z</time>
      </trkpt>
      <trkpt lat="43.95745" lon="5.16529">
        <ele>605.29</ele>
        <time>2015-05-25T16:02:50Z</time>
      </trkpt>
      <trkpt lat="43.95749" lon="5.16523">
        <ele>605.29</ele>
        <time>2015-05-25T16:02:51Z</time>
      </trkpt>
      <trkpt lat="43.95754" lon="5.16518">
        <ele>605.29</ele>
        <time>2015-05-25T16:02:52Z</time>
      </trkpt>
      <trkpt lat="43.95758" lon="5.16514">
        <ele>604.33</ele>
        <time>2015-05-25T16:02:53Z</time>
      </trkpt>
      <trkpt lat="43.95764" lon="5.1651">
        <ele>603.36</ele>
        <time>2015-05-25T16:02:54Z</time>
      </trkpt>
      <trkpt lat="43.95769" lon="5.16506">
        <ele>602.4</ele>
        <time>2015-05-25T16:02:55Z</time>
      </trkpt>
      <trkpt lat="43.95775" lon="5.16501">
        <ele>602.4</ele>
        <time>2015-05-25T16:02:56Z</time>
      </trkpt>
      <trkpt lat="43.9578" lon="5.16497">
        <ele>601.92</ele>
        <time>2015-05-25T16:02:57Z</time>
      </trkpt>
      <trkpt lat="43.95786" lon="5.16492">
        <ele>601.44</ele>
        <time>2015-05-25T16:02:58Z</time>
      </trkpt>
      <trkpt lat="43.95818" lon="5.1647">
        <ele>601.44</ele>
        <time>2015-05-25T16:03:04Z</time>
      </trkpt>
      <trkpt lat="43.95823" lon="5.16466">
        <ele>600.48</ele>
        <time>2015-05-25T16:03:05Z</time>
      </trkpt>
      <trkpt lat="43.95827" lon="5.16461">
        <ele>599.52</ele>
        <time>2015-05-25T16:03:06Z</time>
      </trkpt>
      <trkpt lat="43.95831" lon="5.16454">
        <ele>600</ele>
        <time>2015-05-25T16:03:07Z</time>
      </trkpt>
      <trkpt lat="43.95833" lon="5.16448">
        <ele>600.48</ele>
        <time>2015-05-25T16:03:08Z</time>
      </trkpt>
      <trkpt lat="43.95835" lon="5.1644">
        <ele>600</ele>
        <time>2015-05-25T16:03:09Z</time>
      </trkpt>
      <trkpt lat="43.95837" lon="5.16433">
        <ele>600</ele>
        <time>2015-05-25T16:03:10Z</time>
      </trkpt>
      <trkpt lat="43.95841" lon="5.16428">
        <ele>599.04</ele>
        <time>2015-05-25T16:03:11Z</time>
      </trkpt>
      <trkpt lat="43.95845" lon="5.16425">
        <ele>598.08</ele>
        <time>2015-05-25T16:03:12Z</time>
      </trkpt>
      <trkpt lat="43.95864" lon="5.16416">
        <ele>594.71</ele>
        <time>2015-05-25T16:03:15Z</time>
      </trkpt>
      <trkpt lat="43.95884" lon="5.164">
        <ele>593.27</ele>
        <time>2015-05-25T16:03:18Z</time>
      </trkpt>
      <trkpt lat="43.95913" lon="5.16376">
        <ele>589.91</ele>
        <time>2015-05-25T16:03:22Z</time>
      </trkpt>
      <trkpt lat="43.95921" lon="5.16371">
        <ele>589.91</ele>
        <time>2015-05-25T16:03:23Z</time>
      </trkpt>
      <trkpt lat="43.95929" lon="5.16368">
        <ele>589.43</ele>
        <time>2015-05-25T16:03:24Z</time>
      </trkpt>
      <trkpt lat="43.9596" lon="5.1636">
        <ele>589.91</ele>
        <time>2015-05-25T16:03:28Z</time>
      </trkpt>
      <trkpt lat="43.96004" lon="5.16343">
        <ele>590.39</ele>
        <time>2015-05-25T16:03:35Z</time>
      </trkpt>
      <trkpt lat="43.9601" lon="5.16343">
        <ele>590.39</ele>
        <time>2015-05-25T16:03:36Z</time>
      </trkpt>
      <trkpt lat="43.96016" lon="5.16342">
        <ele>589.91</ele>
        <time>2015-05-25T16:03:37Z</time>
      </trkpt>
      <trkpt lat="43.96022" lon="5.16341">
        <ele>589.91</ele>
        <time>2015-05-25T16:03:38Z</time>
      </trkpt>
      <trkpt lat="43.96027" lon="5.16339">
        <ele>590.39</ele>
        <time>2015-05-25T16:03:39Z</time>
      </trkpt>
      <trkpt lat="43.96033" lon="5.16337">
        <ele>589.91</ele>
        <time>2015-05-25T16:03:40Z</time>
      </trkpt>
      <trkpt lat="43.96038" lon="5.16336">
        <ele>589.91</ele>
        <time>2015-05-25T16:03:41Z</time>
      </trkpt>
      <trkpt lat="43.96043" lon="5.16335">
        <ele>589.91</ele>
        <time>2015-05-25T16:03:42Z</time>
      </trkpt>
      <trkpt lat="43.96048" lon="5.16333">
        <ele>589.43</ele>
        <time>2015-05-25T16:03:43Z</time>
      </trkpt>
      <trkpt lat="43.96052" lon="5.1633">
        <ele>589.91</ele>
        <time>2015-05-25T16:03:44Z</time>
      </trkpt>
      <trkpt lat="43.96056" lon="5.16327">
        <ele>590.87</ele>
        <time>2015-05-25T16:03:45Z</time>
      </trkpt>
      <trkpt lat="43.9606" lon="5.16326">
        <ele>591.35</ele>
        <time>2015-05-25T16:03:46Z</time>
      </trkpt>
      <trkpt lat="43.96064" lon="5.16326">
        <ele>591.35</ele>
        <time>2015-05-25T16:03:47Z</time>
      </trkpt>
      <trkpt lat="43.96068" lon="5.16326">
        <ele>591.35</ele>
        <time>2015-05-25T16:03:48Z</time>
      </trkpt>
      <trkpt lat="43.96072" lon="5.16327">
        <ele>591.35</ele>
        <time>2015-05-25T16:03:49Z</time>
      </trkpt>
      <trkpt lat="43.96076" lon="5.16327">
        <ele>590.87</ele>
        <time>2015-05-25T16:03:50Z</time>
      </trkpt>
      <trkpt lat="43.96091" lon="5.16333">
        <ele>591.83</ele>
        <time>2015-05-25T16:03:54Z</time>
      </trkpt>
      <trkpt lat="43.96095" lon="5.16333">
        <ele>591.83</ele>
        <time>2015-05-25T16:03:55Z</time>
      </trkpt>
      <trkpt lat="43.961" lon="5.16333">
        <ele>591.83</ele>
        <time>2015-05-25T16:03:56Z</time>
      </trkpt>
      <trkpt lat="43.96108" lon="5.16332">
        <ele>592.31</ele>
        <time>2015-05-25T16:03:58Z</time>
      </trkpt>
      <trkpt lat="43.96117" lon="5.1633">
        <ele>591.83</ele>
        <time>2015-05-25T16:04:00Z</time>
      </trkpt>
      <trkpt lat="43.96121" lon="5.16328">
        <ele>592.79</ele>
        <time>2015-05-25T16:04:01Z</time>
      </trkpt>
      <trkpt lat="43.96125" lon="5.16326">
        <ele>592.31</ele>
        <time>2015-05-25T16:04:02Z</time>
      </trkpt>
      <trkpt lat="43.9614" lon="5.16323">
        <ele>591.35</ele>
        <time>2015-05-25T16:04:05Z</time>
      </trkpt>
      <trkpt lat="43.96185" lon="5.16326">
        <ele>588.95</ele>
        <time>2015-05-25T16:04:12Z</time>
      </trkpt>
      <trkpt lat="43.96206" lon="5.16326">
        <ele>587.5</ele>
        <time>2015-05-25T16:04:15Z</time>
      </trkpt>
      <trkpt lat="43.96225" lon="5.16323">
        <ele>587.02</ele>
        <time>2015-05-25T16:04:18Z</time>
      </trkpt>
      <trkpt lat="43.9626" lon="5.16311">
        <ele>586.06</ele>
        <time>2015-05-25T16:04:24Z</time>
      </trkpt>
      <trkpt lat="43.96296" lon="5.1629">
        <ele>582.7</ele>
        <time>2015-05-25T16:04:31Z</time>
      </trkpt>
      <trkpt lat="43.96301" lon="5.16288">
        <ele>582.22</ele>
        <time>2015-05-25T16:04:32Z</time>
      </trkpt>
      <trkpt lat="43.96325" lon="5.16287">
        <ele>579.81</ele>
        <time>2015-05-25T16:04:36Z</time>
      </trkpt>
      <trkpt lat="43.96368" lon="5.16297">
        <ele>578.85</ele>
        <time>2015-05-25T16:04:43Z</time>
      </trkpt>
      <trkpt lat="43.96421" lon="5.16304">
        <ele>578.37</ele>
        <time>2015-05-25T16:04:52Z</time>
      </trkpt>
      <trkpt lat="43.9643" lon="5.16305">
        <ele>578.37</ele>
        <time>2015-05-25T16:04:54Z</time>
      </trkpt>
      <trkpt lat="43.96435" lon="5.16306">
        <ele>577.41</ele>
        <time>2015-05-25T16:04:55Z</time>
      </trkpt>
      <trkpt lat="43.9647" lon="5.16312">
        <ele>575.97</ele>
        <time>2015-05-25T16:05:02Z</time>
      </trkpt>
      <trkpt lat="43.96498" lon="5.16319">
        <ele>574.53</ele>
        <time>2015-05-25T16:05:08Z</time>
      </trkpt>
      <trkpt lat="43.96502" lon="5.16319">
        <ele>574.53</ele>
        <time>2015-05-25T16:05:09Z</time>
      </trkpt>
      <trkpt lat="43.96543" lon="5.16319">
        <ele>572.12</ele>
        <time>2015-05-25T16:05:17Z</time>
      </trkpt>
      <trkpt lat="43.96591" lon="5.16314">
        <ele>569.72</ele>
        <time>2015-05-25T16:05:26Z</time>
      </trkpt>
      <trkpt lat="43.96626" lon="5.1631">
        <ele>567.8</ele>
        <time>2015-05-25T16:05:33Z</time>
      </trkpt>
      <trkpt lat="43.96658" lon="5.16303">
        <ele>565.39</ele>
        <time>2015-05-25T16:05:39Z</time>
      </trkpt>
      <trkpt lat="43.96662" lon="5.16302">
        <ele>565.39</ele>
        <time>2015-05-25T16:05:40Z</time>
      </trkpt>
      <trkpt lat="43.96675" lon="5.16298">
        <ele>564.43</ele>
        <time>2015-05-25T16:05:43Z</time>
      </trkpt>
      <trkpt lat="43.96679" lon="5.16296">
        <ele>564.43</ele>
        <time>2015-05-25T16:05:44Z</time>
      </trkpt>
      <trkpt lat="43.96683" lon="5.16293">
        <ele>565.39</ele>
        <time>2015-05-25T16:05:45Z</time>
      </trkpt>
      <trkpt lat="43.96688" lon="5.1629">
        <ele>565.39</ele>
        <time>2015-05-25T16:05:46Z</time>
      </trkpt>
      <trkpt lat="43.96692" lon="5.16286">
        <ele>565.87</ele>
        <time>2015-05-25T16:05:47Z</time>
      </trkpt>
      <trkpt lat="43.96696" lon="5.16282">
        <ele>565.87</ele>
        <time>2015-05-25T16:05:48Z</time>
      </trkpt>
      <trkpt lat="43.96716" lon="5.16258">
        <ele>565.39</ele>
        <time>2015-05-25T16:05:53Z</time>
      </trkpt>
      <trkpt lat="43.96732" lon="5.16242">
        <ele>564.91</ele>
        <time>2015-05-25T16:05:57Z</time>
      </trkpt>
      <trkpt lat="43.96747" lon="5.16233">
        <ele>565.39</ele>
        <time>2015-05-25T16:06:00Z</time>
      </trkpt>
      <trkpt lat="43.96784" lon="5.16208">
        <ele>564.43</ele>
        <time>2015-05-25T16:06:08Z</time>
      </trkpt>
      <trkpt lat="43.96789" lon="5.16206">
        <ele>564.43</ele>
        <time>2015-05-25T16:06:09Z</time>
      </trkpt>
      <trkpt lat="43.96794" lon="5.16205">
        <ele>564.91</ele>
        <time>2015-05-25T16:06:10Z</time>
      </trkpt>
      <trkpt lat="43.96799" lon="5.16205">
        <ele>564.91</ele>
        <time>2015-05-25T16:06:11Z</time>
      </trkpt>
      <trkpt lat="43.96833" lon="5.16209">
        <ele>563.95</ele>
        <time>2015-05-25T16:06:18Z</time>
      </trkpt>
      <trkpt lat="43.96847" lon="5.16214">
        <ele>564.43</ele>
        <time>2015-05-25T16:06:21Z</time>
      </trkpt>
      <trkpt lat="43.96878" lon="5.16224">
        <ele>562.51</ele>
        <time>2015-05-25T16:06:27Z</time>
      </trkpt>
      <trkpt lat="43.96888" lon="5.16227">
        <ele>561.55</ele>
        <time>2015-05-25T16:06:29Z</time>
      </trkpt>
      <trkpt lat="43.96925" lon="5.16235">
        <ele>559.14</ele>
        <time>2015-05-25T16:06:37Z</time>
      </trkpt>
      <trkpt lat="43.96942" lon="5.1624">
        <ele>556.74</ele>
        <time>2015-05-25T16:06:42Z</time>
      </trkpt>
      <trkpt lat="43.96945" lon="5.16243">
        <ele>557.22</ele>
        <time>2015-05-25T16:06:43Z</time>
      </trkpt>
      <trkpt lat="43.96948" lon="5.16248">
        <ele>556.26</ele>
        <time>2015-05-25T16:06:44Z</time>
      </trkpt>
      <trkpt lat="43.96949" lon="5.16253">
        <ele>556.26</ele>
        <time>2015-05-25T16:06:45Z</time>
      </trkpt>
      <trkpt lat="43.96951" lon="5.16257">
        <ele>555.78</ele>
        <time>2015-05-25T16:06:46Z</time>
      </trkpt>
      <trkpt lat="43.96962" lon="5.16283">
        <ele>552.9</ele>
        <time>2015-05-25T16:06:50Z</time>
      </trkpt>
      <trkpt lat="43.96973" lon="5.16315">
        <ele>549.53</ele>
        <time>2015-05-25T16:06:54Z</time>
      </trkpt>
      <trkpt lat="43.9699" lon="5.16355">
        <ele>546.17</ele>
        <time>2015-05-25T16:06:59Z</time>
      </trkpt>
      <trkpt lat="43.96995" lon="5.16362">
        <ele>545.69</ele>
        <time>2015-05-25T16:07:00Z</time>
      </trkpt>
      <trkpt lat="43.97001" lon="5.16369">
        <ele>545.2</ele>
        <time>2015-05-25T16:07:01Z</time>
      </trkpt>
      <trkpt lat="43.97023" lon="5.1639">
        <ele>541.84</ele>
        <time>2015-05-25T16:07:04Z</time>
      </trkpt>
      <trkpt lat="43.97039" lon="5.16403">
        <ele>539.44</ele>
        <time>2015-05-25T16:07:06Z</time>
      </trkpt>
      <trkpt lat="43.97059" lon="5.16416">
        <ele>538.48</ele>
        <time>2015-05-25T16:07:09Z</time>
      </trkpt>
      <trkpt lat="43.97072" lon="5.16421">
        <ele>538.48</ele>
        <time>2015-05-25T16:07:11Z</time>
      </trkpt>
      <trkpt lat="43.97078" lon="5.1642">
        <ele>538.48</ele>
        <time>2015-05-25T16:07:12Z</time>
      </trkpt>
      <trkpt lat="43.97084" lon="5.16418">
        <ele>537.99</ele>
        <time>2015-05-25T16:07:13Z</time>
      </trkpt>
      <trkpt lat="43.97089" lon="5.16414">
        <ele>537.99</ele>
        <time>2015-05-25T16:07:14Z</time>
      </trkpt>
      <trkpt lat="43.97094" lon="5.1641">
        <ele>537.99</ele>
        <time>2015-05-25T16:07:15Z</time>
      </trkpt>
      <trkpt lat="43.97098" lon="5.16405">
        <ele>538.48</ele>
        <time>2015-05-25T16:07:16Z</time>
      </trkpt>
      <trkpt lat="43.97103" lon="5.164">
        <ele>538.48</ele>
        <time>2015-05-25T16:07:17Z</time>
      </trkpt>
      <trkpt lat="43.97135" lon="5.16358">
        <ele>537.99</ele>
        <time>2015-05-25T16:07:24Z</time>
      </trkpt>
      <trkpt lat="43.97149" lon="5.16339">
        <ele>536.07</ele>
        <time>2015-05-25T16:07:27Z</time>
      </trkpt>
      <trkpt lat="43.97154" lon="5.16332">
        <ele>535.59</ele>
        <time>2015-05-25T16:07:28Z</time>
      </trkpt>
      <trkpt lat="43.97158" lon="5.16325">
        <ele>535.11</ele>
        <time>2015-05-25T16:07:29Z</time>
      </trkpt>
      <trkpt lat="43.97161" lon="5.16318">
        <ele>534.63</ele>
        <time>2015-05-25T16:07:30Z</time>
      </trkpt>
      <trkpt lat="43.97177" lon="5.1629">
        <ele>533.19</ele>
        <time>2015-05-25T16:07:35Z</time>
      </trkpt>
      <trkpt lat="43.97187" lon="5.16276">
        <ele>533.19</ele>
        <time>2015-05-25T16:07:41Z</time>
      </trkpt>
      <trkpt lat="43.97207" lon="5.16254">
        <ele>530.3</ele>
        <time>2015-05-25T16:07:46Z</time>
      </trkpt>
      <trkpt lat="43.97212" lon="5.16249">
        <ele>529.82</ele>
        <time>2015-05-25T16:07:47Z</time>
      </trkpt>
      <trkpt lat="43.97224" lon="5.16236">
        <ele>528.38</ele>
        <time>2015-05-25T16:07:49Z</time>
      </trkpt>
      <trkpt lat="43.9723" lon="5.16227">
        <ele>526.46</ele>
        <time>2015-05-25T16:07:50Z</time>
      </trkpt>
      <trkpt lat="43.97234" lon="5.16217">
        <ele>525.5</ele>
        <time>2015-05-25T16:07:51Z</time>
      </trkpt>
      <trkpt lat="43.97238" lon="5.16206">
        <ele>524.54</ele>
        <time>2015-05-25T16:07:52Z</time>
      </trkpt>
      <trkpt lat="43.97239" lon="5.16195">
        <ele>523.58</ele>
        <time>2015-05-25T16:07:53Z</time>
      </trkpt>
      <trkpt lat="43.97239" lon="5.16185">
        <ele>522.61</ele>
        <time>2015-05-25T16:07:54Z</time>
      </trkpt>
      <trkpt lat="43.97239" lon="5.16174">
        <ele>522.13</ele>
        <time>2015-05-25T16:07:55Z</time>
      </trkpt>
      <trkpt lat="43.97239" lon="5.16165">
        <ele>521.17</ele>
        <time>2015-05-25T16:07:56Z</time>
      </trkpt>
      <trkpt lat="43.9724" lon="5.16143">
        <ele>520.21</ele>
        <time>2015-05-25T16:07:59Z</time>
      </trkpt>
      <trkpt lat="43.9724" lon="5.16135">
        <ele>519.25</ele>
        <time>2015-05-25T16:08:00Z</time>
      </trkpt>
      <trkpt lat="43.9724" lon="5.16125">
        <ele>518.77</ele>
        <time>2015-05-25T16:08:01Z</time>
      </trkpt>
      <trkpt lat="43.97238" lon="5.16105">
        <ele>516.85</ele>
        <time>2015-05-25T16:08:03Z</time>
      </trkpt>
      <trkpt lat="43.97236" lon="5.16094">
        <ele>516.37</ele>
        <time>2015-05-25T16:08:04Z</time>
      </trkpt>
      <trkpt lat="43.97233" lon="5.16083">
        <ele>515.4</ele>
        <time>2015-05-25T16:08:05Z</time>
      </trkpt>
      <trkpt lat="43.97229" lon="5.16073">
        <ele>514.44</ele>
        <time>2015-05-25T16:08:06Z</time>
      </trkpt>
      <trkpt lat="43.97226" lon="5.16064">
        <ele>513.96</ele>
        <time>2015-05-25T16:08:07Z</time>
      </trkpt>
      <trkpt lat="43.97225" lon="5.16054">
        <ele>513</ele>
        <time>2015-05-25T16:08:08Z</time>
      </trkpt>
      <trkpt lat="43.97224" lon="5.16045">
        <ele>512.04</ele>
        <time>2015-05-25T16:08:09Z</time>
      </trkpt>
      <trkpt lat="43.97223" lon="5.16036">
        <ele>511.08</ele>
        <time>2015-05-25T16:08:10Z</time>
      </trkpt>
      <trkpt lat="43.97222" lon="5.16028">
        <ele>510.6</ele>
        <time>2015-05-25T16:08:11Z</time>
      </trkpt>
      <trkpt lat="43.97221" lon="5.1602">
        <ele>510.12</ele>
        <time>2015-05-25T16:08:12Z</time>
      </trkpt>
      <trkpt lat="43.97219" lon="5.16013">
        <ele>508.67</ele>
        <time>2015-05-25T16:08:13Z</time>
      </trkpt>
      <trkpt lat="43.97216" lon="5.16008">
        <ele>507.71</ele>
        <time>2015-05-25T16:08:14Z</time>
      </trkpt>
      <trkpt lat="43.97214" lon="5.16003">
        <ele>507.71</ele>
        <time>2015-05-25T16:08:15Z</time>
      </trkpt>
      <trkpt lat="43.97212" lon="5.15998">
        <ele>507.23</ele>
        <time>2015-05-25T16:08:16Z</time>
      </trkpt>
      <trkpt lat="43.9721" lon="5.15993">
        <ele>506.27</ele>
        <time>2015-05-25T16:08:17Z</time>
      </trkpt>
      <trkpt lat="43.9721" lon="5.15989">
        <ele>506.27</ele>
        <time>2015-05-25T16:08:18Z</time>
      </trkpt>
      <trkpt lat="43.97211" lon="5.15985">
        <ele>506.27</ele>
        <time>2015-05-25T16:08:19Z</time>
      </trkpt>
      <trkpt lat="43.97212" lon="5.15983">
        <ele>505.79</ele>
        <time>2015-05-25T16:08:20Z</time>
      </trkpt>
      <trkpt lat="43.97213" lon="5.15983">
        <ele>506.27</ele>
        <time>2015-05-25T16:08:26Z</time>
      </trkpt>
      <trkpt lat="43.97213" lon="5.15982">
        <ele>505.79</ele>
        <time>2015-05-25T16:08:35Z</time>
      </trkpt>
      <trkpt lat="43.97212" lon="5.15981">
        <ele>505.31</ele>
        <time>2015-05-25T16:08:45Z</time>
      </trkpt>
      <trkpt lat="43.97212" lon="5.1598">
        <ele>506.27</ele>
        <time>2015-05-25T16:09:00Z</time>
      </trkpt>
      <trkpt lat="43.97212" lon="5.15979">
        <ele>506.27</ele>
        <time>2015-05-25T16:09:16Z</time>
      </trkpt>
      <trkpt lat="43.97212" lon="5.15979">
        <ele>506.75</ele>
        <time>2015-05-25T16:09:30Z</time>
      </trkpt>
      <trkpt lat="43.97212" lon="5.15979">
        <ele>506.27</ele>
        <time>2015-05-25T16:09:41Z</time>
      </trkpt>
      <trkpt lat="43.97212" lon="5.15979">
        <ele>506.27</ele>
        <time>2015-05-25T16:10:02Z</time>
      </trkpt>
      <trkpt lat="43.97212" lon="5.15979">
        <ele>505.79</ele>
        <time>2015-05-25T16:10:19Z</time>
      </trkpt>
      <trkpt lat="43.97212" lon="5.15979">
        <ele>505.79</ele>
        <time>2015-05-25T16:10:36Z</time>
      </trkpt>
      <trkpt lat="43.97212" lon="5.15979">
        <ele>506.27</ele>
        <time>2015-05-25T16:10:53Z</time>
      </trkpt>
      <trkpt lat="43.97212" lon="5.15979">
        <ele>506.75</ele>
        <time>2015-05-25T16:11:09Z</time>
      </trkpt>
      <trkpt lat="43.97212" lon="5.15979">
        <ele>506.27</ele>
        <time>2015-05-25T16:11:20Z</time>
      </trkpt>
      <trkpt lat="43.97212" lon="5.15979">
        <ele>507.23</ele>
        <time>2015-05-25T16:11:34Z</time>
      </trkpt>
      <trkpt lat="43.97212" lon="5.15979">
        <ele>507.71</ele>
        <time>2015-05-25T16:11:52Z</time>
      </trkpt>
      <trkpt lat="43.97214" lon="5.15979">
        <ele>506.75</ele>
        <time>2015-05-25T16:11:59Z</time>
      </trkpt>
      <trkpt lat="43.97218" lon="5.15978">
        <ele>506.27</ele>
        <time>2015-05-25T16:12:01Z</time>
      </trkpt>
      <trkpt lat="43.97221" lon="5.15977">
        <ele>506.27</ele>
        <time>2015-05-25T16:12:02Z</time>
      </trkpt>
      <trkpt lat="43.97224" lon="5.15977">
        <ele>504.83</ele>
        <time>2015-05-25T16:12:03Z</time>
      </trkpt>
      <trkpt lat="43.97227" lon="5.15977">
        <ele>504.83</ele>
        <time>2015-05-25T16:12:04Z</time>
      </trkpt>
      <trkpt lat="43.9723" lon="5.15976">
        <ele>504.83</ele>
        <time>2015-05-25T16:12:05Z</time>
      </trkpt>
      <trkpt lat="43.97234" lon="5.15974">
        <ele>503.87</ele>
        <time>2015-05-25T16:12:06Z</time>
      </trkpt>
      <trkpt lat="43.97238" lon="5.15972">
        <ele>502.91</ele>
        <time>2015-05-25T16:12:07Z</time>
      </trkpt>
      <trkpt lat="43.97243" lon="5.15971">
        <ele>501.95</ele>
        <time>2015-05-25T16:12:08Z</time>
      </trkpt>
      <trkpt lat="43.97248" lon="5.15969">
        <ele>501.46</ele>
        <time>2015-05-25T16:12:09Z</time>
      </trkpt>
      <trkpt lat="43.97253" lon="5.15968">
        <ele>500.98</ele>
        <time>2015-05-25T16:12:10Z</time>
      </trkpt>
      <trkpt lat="43.97257" lon="5.15967">
        <ele>500.5</ele>
        <time>2015-05-25T16:12:11Z</time>
      </trkpt>
      <trkpt lat="43.97265" lon="5.15964">
        <ele>499.54</ele>
        <time>2015-05-25T16:12:13Z</time>
      </trkpt>
      <trkpt lat="43.97279" lon="5.15959">
        <ele>498.1</ele>
        <time>2015-05-25T16:12:16Z</time>
      </trkpt>
      <trkpt lat="43.97297" lon="5.15951">
        <ele>494.74</ele>
        <time>2015-05-25T16:12:20Z</time>
      </trkpt>
      <trkpt lat="43.97301" lon="5.15949">
        <ele>494.26</ele>
        <time>2015-05-25T16:12:24Z</time>
      </trkpt>
      <trkpt lat="43.97307" lon="5.15951">
        <ele>492.81</ele>
        <time>2015-05-25T16:12:29Z</time>
      </trkpt>
      <trkpt lat="43.97311" lon="5.15953">
        <ele>492.81</ele>
        <time>2015-05-25T16:12:30Z</time>
      </trkpt>
      <trkpt lat="43.97315" lon="5.15956">
        <ele>491.37</ele>
        <time>2015-05-25T16:12:31Z</time>
      </trkpt>
      <trkpt lat="43.97319" lon="5.15961">
        <ele>490.41</ele>
        <time>2015-05-25T16:12:32Z</time>
      </trkpt>
      <trkpt lat="43.97322" lon="5.15967">
        <ele>489.93</ele>
        <time>2015-05-25T16:12:33Z</time>
      </trkpt>
      <trkpt lat="43.97323" lon="5.15974">
        <ele>489.93</ele>
        <time>2015-05-25T16:12:34Z</time>
      </trkpt>
      <trkpt lat="43.97324" lon="5.1598">
        <ele>489.45</ele>
        <time>2015-05-25T16:12:35Z</time>
      </trkpt>
      <trkpt lat="43.97325" lon="5.15986">
        <ele>488.97</ele>
        <time>2015-05-25T16:12:36Z</time>
      </trkpt>
      <trkpt lat="43.97328" lon="5.15991">
        <ele>488.97</ele>
        <time>2015-05-25T16:12:37Z</time>
      </trkpt>
      <trkpt lat="43.9733" lon="5.15993">
        <ele>488.49</ele>
        <time>2015-05-25T16:12:38Z</time>
      </trkpt>
      <trkpt lat="43.97332" lon="5.15995">
        <ele>488.01</ele>
        <time>2015-05-25T16:12:39Z</time>
      </trkpt>
      <trkpt lat="43.97336" lon="5.15994">
        <ele>487.53</ele>
        <time>2015-05-25T16:12:43Z</time>
      </trkpt>
      <trkpt lat="43.97336" lon="5.15991">
        <ele>487.53</ele>
        <time>2015-05-25T16:12:48Z</time>
      </trkpt>
      <trkpt lat="43.97337" lon="5.15989">
        <ele>487.53</ele>
        <time>2015-05-25T16:12:53Z</time>
      </trkpt>
      <trkpt lat="43.97337" lon="5.15987">
        <ele>487.05</ele>
        <time>2015-05-25T16:12:54Z</time>
      </trkpt>
      <trkpt lat="43.97337" lon="5.15983">
        <ele>486.56</ele>
        <time>2015-05-25T16:12:55Z</time>
      </trkpt>
      <trkpt lat="43.97336" lon="5.15979">
        <ele>486.56</ele>
        <time>2015-05-25T16:12:56Z</time>
      </trkpt>
      <trkpt lat="43.97336" lon="5.15976">
        <ele>486.08</ele>
        <time>2015-05-25T16:12:57Z</time>
      </trkpt>
      <trkpt lat="43.97336" lon="5.1597">
        <ele>486.08</ele>
        <time>2015-05-25T16:13:00Z</time>
      </trkpt>
      <trkpt lat="43.97336" lon="5.15969">
        <ele>486.56</ele>
        <time>2015-05-25T16:13:01Z</time>
      </trkpt>
      <trkpt lat="43.97336" lon="5.15967">
        <ele>486.56</ele>
        <time>2015-05-25T16:13:02Z</time>
      </trkpt>
      <trkpt lat="43.97336" lon="5.15965">
        <ele>485.12</ele>
        <time>2015-05-25T16:13:03Z</time>
      </trkpt>
      <trkpt lat="43.97336" lon="5.15963">
        <ele>484.64</ele>
        <time>2015-05-25T16:13:04Z</time>
      </trkpt>
      <trkpt lat="43.97337" lon="5.1596">
        <ele>484.64</ele>
        <time>2015-05-25T16:13:05Z</time>
      </trkpt>
      <trkpt lat="43.97336" lon="5.15949">
        <ele>484.16</ele>
        <time>2015-05-25T16:13:09Z</time>
      </trkpt>
      <trkpt lat="43.97337" lon="5.15947">
        <ele>484.16</ele>
        <time>2015-05-25T16:13:10Z</time>
      </trkpt>
      <trkpt lat="43.97337" lon="5.15944">
        <ele>484.16</ele>
        <time>2015-05-25T16:13:11Z</time>
      </trkpt>
      <trkpt lat="43.97337" lon="5.15942">
        <ele>484.16</ele>
        <time>2015-05-25T16:13:12Z</time>
      </trkpt>
      <trkpt lat="43.97337" lon="5.15939">
        <ele>483.2</ele>
        <time>2015-05-25T16:13:13Z</time>
      </trkpt>
      <trkpt lat="43.97336" lon="5.15937">
        <ele>483.2</ele>
        <time>2015-05-25T16:13:14Z</time>
      </trkpt>
      <trkpt lat="43.97336" lon="5.15934">
        <ele>482.72</ele>
        <time>2015-05-25T16:13:15Z</time>
      </trkpt>
      <trkpt lat="43.97335" lon="5.1593">
        <ele>482.24</ele>
        <time>2015-05-25T16:13:16Z</time>
      </trkpt>
      <trkpt lat="43.97331" lon="5.15912">
        <ele>479.84</ele>
        <time>2015-05-25T16:13:20Z</time>
      </trkpt>
      <trkpt lat="43.97331" lon="5.15907">
        <ele>479.84</ele>
        <time>2015-05-25T16:13:21Z</time>
      </trkpt>
      <trkpt lat="43.97329" lon="5.15892">
        <ele>478.39</ele>
        <time>2015-05-25T16:13:25Z</time>
      </trkpt>
      <trkpt lat="43.97327" lon="5.15888">
        <ele>477.43</ele>
        <time>2015-05-25T16:13:26Z</time>
      </trkpt>
      <trkpt lat="43.97326" lon="5.15884">
        <ele>476.47</ele>
        <time>2015-05-25T16:13:27Z</time>
      </trkpt>
      <trkpt lat="43.97324" lon="5.15879">
        <ele>475.03</ele>
        <time>2015-05-25T16:13:28Z</time>
      </trkpt>
      <trkpt lat="43.97323" lon="5.15874">
        <ele>474.07</ele>
        <time>2015-05-25T16:13:29Z</time>
      </trkpt>
      <trkpt lat="43.97322" lon="5.1587">
        <ele>473.11</ele>
        <time>2015-05-25T16:13:30Z</time>
      </trkpt>
      <trkpt lat="43.97321" lon="5.15865">
        <ele>473.11</ele>
        <time>2015-05-25T16:13:31Z</time>
      </trkpt>
      <trkpt lat="43.97321" lon="5.1586">
        <ele>473.11</ele>
        <time>2015-05-25T16:13:32Z</time>
      </trkpt>
      <trkpt lat="43.97321" lon="5.15855">
        <ele>472.63</ele>
        <time>2015-05-25T16:13:33Z</time>
      </trkpt>
      <trkpt lat="43.97323" lon="5.1585">
        <ele>472.14</ele>
        <time>2015-05-25T16:13:34Z</time>
      </trkpt>
      <trkpt lat="43.97325" lon="5.15845">
        <ele>471.18</ele>
        <time>2015-05-25T16:13:35Z</time>
      </trkpt>
      <trkpt lat="43.97327" lon="5.1584">
        <ele>470.7</ele>
        <time>2015-05-25T16:13:36Z</time>
      </trkpt>
      <trkpt lat="43.9733" lon="5.15834">
        <ele>469.74</ele>
        <time>2015-05-25T16:13:37Z</time>
      </trkpt>
      <trkpt lat="43.97331" lon="5.15829">
        <ele>469.74</ele>
        <time>2015-05-25T16:13:38Z</time>
      </trkpt>
      <trkpt lat="43.97332" lon="5.15823">
        <ele>469.26</ele>
        <time>2015-05-25T16:13:39Z</time>
      </trkpt>
      <trkpt lat="43.97333" lon="5.15816">
        <ele>468.78</ele>
        <time>2015-05-25T16:13:40Z</time>
      </trkpt>
      <trkpt lat="43.97335" lon="5.15792">
        <ele>466.38</ele>
        <time>2015-05-25T16:13:43Z</time>
      </trkpt>
      <trkpt lat="43.97338" lon="5.15785">
        <ele>466.38</ele>
        <time>2015-05-25T16:13:44Z</time>
      </trkpt>
      <trkpt lat="43.97342" lon="5.15778">
        <ele>465.42</ele>
        <time>2015-05-25T16:13:45Z</time>
      </trkpt>
      <trkpt lat="43.97346" lon="5.15771">
        <ele>464.93</ele>
        <time>2015-05-25T16:13:46Z</time>
      </trkpt>
      <trkpt lat="43.97351" lon="5.15764">
        <ele>464.45</ele>
        <time>2015-05-25T16:13:47Z</time>
      </trkpt>
      <trkpt lat="43.97356" lon="5.15758">
        <ele>464.45</ele>
        <time>2015-05-25T16:13:48Z</time>
      </trkpt>
      <trkpt lat="43.97359" lon="5.15751">
        <ele>464.45</ele>
        <time>2015-05-25T16:13:49Z</time>
      </trkpt>
      <trkpt lat="43.97362" lon="5.15744">
        <ele>463.97</ele>
        <time>2015-05-25T16:13:50Z</time>
      </trkpt>
      <trkpt lat="43.97365" lon="5.15737">
        <ele>463.01</ele>
        <time>2015-05-25T16:13:51Z</time>
      </trkpt>
      <trkpt lat="43.97373" lon="5.15711">
        <ele>462.05</ele>
        <time>2015-05-25T16:13:54Z</time>
      </trkpt>
      <trkpt lat="43.97374" lon="5.15701">
        <ele>461.57</ele>
        <time>2015-05-25T16:13:55Z</time>
      </trkpt>
      <trkpt lat="43.97376" lon="5.15691">
        <ele>461.09</ele>
        <time>2015-05-25T16:13:56Z</time>
      </trkpt>
      <trkpt lat="43.97377" lon="5.15681">
        <ele>460.61</ele>
        <time>2015-05-25T16:13:57Z</time>
      </trkpt>
      <trkpt lat="43.9738" lon="5.15641">
        <ele>459.17</ele>
        <time>2015-05-25T16:14:02Z</time>
      </trkpt>
      <trkpt lat="43.9738" lon="5.15626">
        <ele>458.21</ele>
        <time>2015-05-25T16:14:04Z</time>
      </trkpt>
      <trkpt lat="43.97379" lon="5.15619">
        <ele>457.72</ele>
        <time>2015-05-25T16:14:05Z</time>
      </trkpt>
      <trkpt lat="43.97379" lon="5.15613">
        <ele>456.76</ele>
        <time>2015-05-25T16:14:06Z</time>
      </trkpt>
      <trkpt lat="43.97378" lon="5.15608">
        <ele>456.28</ele>
        <time>2015-05-25T16:14:07Z</time>
      </trkpt>
      <trkpt lat="43.97377" lon="5.15602">
        <ele>455.32</ele>
        <time>2015-05-25T16:14:08Z</time>
      </trkpt>
      <trkpt lat="43.97376" lon="5.15595">
        <ele>455.32</ele>
        <time>2015-05-25T16:14:09Z</time>
      </trkpt>
      <trkpt lat="43.97374" lon="5.15588">
        <ele>454.84</ele>
        <time>2015-05-25T16:14:10Z</time>
      </trkpt>
      <trkpt lat="43.97367" lon="5.15557">
        <ele>452.44</ele>
        <time>2015-05-25T16:14:14Z</time>
      </trkpt>
      <trkpt lat="43.97366" lon="5.15547">
        <ele>451.96</ele>
        <time>2015-05-25T16:14:15Z</time>
      </trkpt>
      <trkpt lat="43.97366" lon="5.15516">
        <ele>450.03</ele>
        <time>2015-05-25T16:14:18Z</time>
      </trkpt>
      <trkpt lat="43.97368" lon="5.15504">
        <ele>449.55</ele>
        <time>2015-05-25T16:14:19Z</time>
      </trkpt>
      <trkpt lat="43.97375" lon="5.15429">
        <ele>447.63</ele>
        <time>2015-05-25T16:14:26Z</time>
      </trkpt>
      <trkpt lat="43.97375" lon="5.15418">
        <ele>447.63</ele>
        <time>2015-05-25T16:14:27Z</time>
      </trkpt>
      <trkpt lat="43.97373" lon="5.15408">
        <ele>447.63</ele>
        <time>2015-05-25T16:14:28Z</time>
      </trkpt>
      <trkpt lat="43.97372" lon="5.15399">
        <ele>446.67</ele>
        <time>2015-05-25T16:14:29Z</time>
      </trkpt>
      <trkpt lat="43.97372" lon="5.1537">
        <ele>446.19</ele>
        <time>2015-05-25T16:14:32Z</time>
      </trkpt>
      <trkpt lat="43.97372" lon="5.15361">
        <ele>445.71</ele>
        <time>2015-05-25T16:14:33Z</time>
      </trkpt>
      <trkpt lat="43.97374" lon="5.15334">
        <ele>444.27</ele>
        <time>2015-05-25T16:14:36Z</time>
      </trkpt>
      <trkpt lat="43.97375" lon="5.15325">
        <ele>444.27</ele>
        <time>2015-05-25T16:14:37Z</time>
      </trkpt>
      <trkpt lat="43.97377" lon="5.15317">
        <ele>444.27</ele>
        <time>2015-05-25T16:14:38Z</time>
      </trkpt>
      <trkpt lat="43.97379" lon="5.15308">
        <ele>443.31</ele>
        <time>2015-05-25T16:14:39Z</time>
      </trkpt>
      <trkpt lat="43.9738" lon="5.15298">
        <ele>443.79</ele>
        <time>2015-05-25T16:14:40Z</time>
      </trkpt>
      <trkpt lat="43.97381" lon="5.15288">
        <ele>442.82</ele>
        <time>2015-05-25T16:14:41Z</time>
      </trkpt>
      <trkpt lat="43.97381" lon="5.15279">
        <ele>442.34</ele>
        <time>2015-05-25T16:14:42Z</time>
      </trkpt>
      <trkpt lat="43.97382" lon="5.15245">
        <ele>440.42</ele>
        <time>2015-05-25T16:14:46Z</time>
      </trkpt>
      <trkpt lat="43.97383" lon="5.15238">
        <ele>439.46</ele>
        <time>2015-05-25T16:14:47Z</time>
      </trkpt>
      <trkpt lat="43.97385" lon="5.15232">
        <ele>438.98</ele>
        <time>2015-05-25T16:14:48Z</time>
      </trkpt>
      <trkpt lat="43.97387" lon="5.15225">
        <ele>438.98</ele>
        <time>2015-05-25T16:14:49Z</time>
      </trkpt>
      <trkpt lat="43.9739" lon="5.15219">
        <ele>438.98</ele>
        <time>2015-05-25T16:14:50Z</time>
      </trkpt>
      <trkpt lat="43.97393" lon="5.15213">
        <ele>438.02</ele>
        <time>2015-05-25T16:14:51Z</time>
      </trkpt>
      <trkpt lat="43.97395" lon="5.15206">
        <ele>438.02</ele>
        <time>2015-05-25T16:14:52Z</time>
      </trkpt>
      <trkpt lat="43.97398" lon="5.15199">
        <ele>437.54</ele>
        <time>2015-05-25T16:14:53Z</time>
      </trkpt>
      <trkpt lat="43.97404" lon="5.15185">
        <ele>436.58</ele>
        <time>2015-05-25T16:14:55Z</time>
      </trkpt>
      <trkpt lat="43.97407" lon="5.15179">
        <ele>435.61</ele>
        <time>2015-05-25T16:14:56Z</time>
      </trkpt>
      <trkpt lat="43.97418" lon="5.15155">
        <ele>434.17</ele>
        <time>2015-05-25T16:15:00Z</time>
      </trkpt>
      <trkpt lat="43.97421" lon="5.15151">
        <ele>433.21</ele>
        <time>2015-05-25T16:15:01Z</time>
      </trkpt>
      <trkpt lat="43.97425" lon="5.15147">
        <ele>432.25</ele>
        <time>2015-05-25T16:15:02Z</time>
      </trkpt>
      <trkpt lat="43.97428" lon="5.15143">
        <ele>432.25</ele>
        <time>2015-05-25T16:15:03Z</time>
      </trkpt>
      <trkpt lat="43.97431" lon="5.15138">
        <ele>432.25</ele>
        <time>2015-05-25T16:15:04Z</time>
      </trkpt>
      <trkpt lat="43.97434" lon="5.15134">
        <ele>431.77</ele>
        <time>2015-05-25T16:15:05Z</time>
      </trkpt>
      <trkpt lat="43.97438" lon="5.15129">
        <ele>431.77</ele>
        <time>2015-05-25T16:15:06Z</time>
      </trkpt>
      <trkpt lat="43.97441" lon="5.15124">
        <ele>431.29</ele>
        <time>2015-05-25T16:15:07Z</time>
      </trkpt>
      <trkpt lat="43.97445" lon="5.15118">
        <ele>430.81</ele>
        <time>2015-05-25T16:15:08Z</time>
      </trkpt>
      <trkpt lat="43.97448" lon="5.15112">
        <ele>429.85</ele>
        <time>2015-05-25T16:15:09Z</time>
      </trkpt>
      <trkpt lat="43.97451" lon="5.15105">
        <ele>429.37</ele>
        <time>2015-05-25T16:15:10Z</time>
      </trkpt>
      <trkpt lat="43.97455" lon="5.15099">
        <ele>428.89</ele>
        <time>2015-05-25T16:15:11Z</time>
      </trkpt>
      <trkpt lat="43.97459" lon="5.15092">
        <ele>428.4</ele>
        <time>2015-05-25T16:15:12Z</time>
      </trkpt>
      <trkpt lat="43.97463" lon="5.15086">
        <ele>428.4</ele>
        <time>2015-05-25T16:15:13Z</time>
      </trkpt>
      <trkpt lat="43.97468" lon="5.15081">
        <ele>426.96</ele>
        <time>2015-05-25T16:15:14Z</time>
      </trkpt>
      <trkpt lat="43.97473" lon="5.15076">
        <ele>426.96</ele>
        <time>2015-05-25T16:15:15Z</time>
      </trkpt>
      <trkpt lat="43.97476" lon="5.15069">
        <ele>426.48</ele>
        <time>2015-05-25T16:15:16Z</time>
      </trkpt>
      <trkpt lat="43.97478" lon="5.15063">
        <ele>426.48</ele>
        <time>2015-05-25T16:15:17Z</time>
      </trkpt>
      <trkpt lat="43.9748" lon="5.15055">
        <ele>426.48</ele>
        <time>2015-05-25T16:15:18Z</time>
      </trkpt>
      <trkpt lat="43.97488" lon="5.15034">
        <ele>424.56</ele>
        <time>2015-05-25T16:15:21Z</time>
      </trkpt>
      <trkpt lat="43.9749" lon="5.15026">
        <ele>424.08</ele>
        <time>2015-05-25T16:15:22Z</time>
      </trkpt>
      <trkpt lat="43.97491" lon="5.15019">
        <ele>424.08</ele>
        <time>2015-05-25T16:15:23Z</time>
      </trkpt>
      <trkpt lat="43.97494" lon="5.14997">
        <ele>422.16</ele>
        <time>2015-05-25T16:15:26Z</time>
      </trkpt>
      <trkpt lat="43.97494" lon="5.14993">
        <ele>421.68</ele>
        <time>2015-05-25T16:15:27Z</time>
      </trkpt>
      <trkpt lat="43.97495" lon="5.1499">
        <ele>421.19</ele>
        <time>2015-05-25T16:15:28Z</time>
      </trkpt>
      <trkpt lat="43.97496" lon="5.14985">
        <ele>420.71</ele>
        <time>2015-05-25T16:15:32Z</time>
      </trkpt>
      <trkpt lat="43.97498" lon="5.14981">
        <ele>420.71</ele>
        <time>2015-05-25T16:15:33Z</time>
      </trkpt>
      <trkpt lat="43.975" lon="5.14976">
        <ele>420.23</ele>
        <time>2015-05-25T16:15:34Z</time>
      </trkpt>
      <trkpt lat="43.97501" lon="5.14969">
        <ele>419.75</ele>
        <time>2015-05-25T16:15:35Z</time>
      </trkpt>
      <trkpt lat="43.97501" lon="5.14962">
        <ele>419.27</ele>
        <time>2015-05-25T16:15:36Z</time>
      </trkpt>
      <trkpt lat="43.97502" lon="5.14927">
        <ele>416.39</ele>
        <time>2015-05-25T16:15:41Z</time>
      </trkpt>
      <trkpt lat="43.97503" lon="5.1492">
        <ele>416.39</ele>
        <time>2015-05-25T16:15:42Z</time>
      </trkpt>
      <trkpt lat="43.97506" lon="5.14914">
        <ele>415.91</ele>
        <time>2015-05-25T16:15:43Z</time>
      </trkpt>
      <trkpt lat="43.97509" lon="5.14907">
        <ele>414.47</ele>
        <time>2015-05-25T16:15:44Z</time>
      </trkpt>
      <trkpt lat="43.97513" lon="5.149">
        <ele>414.95</ele>
        <time>2015-05-25T16:15:45Z</time>
      </trkpt>
      <trkpt lat="43.97517" lon="5.14893">
        <ele>414.95</ele>
        <time>2015-05-25T16:15:46Z</time>
      </trkpt>
      <trkpt lat="43.97521" lon="5.14884">
        <ele>413.5</ele>
        <time>2015-05-25T16:15:47Z</time>
      </trkpt>
      <trkpt lat="43.97524" lon="5.14874">
        <ele>412.06</ele>
        <time>2015-05-25T16:15:48Z</time>
      </trkpt>
      <trkpt lat="43.97531" lon="5.14851">
        <ele>408.7</ele>
        <time>2015-05-25T16:15:50Z</time>
      </trkpt>
      <trkpt lat="43.97536" lon="5.1484">
        <ele>408.22</ele>
        <time>2015-05-25T16:15:51Z</time>
      </trkpt>
      <trkpt lat="43.97553" lon="5.14812">
        <ele>404.85</ele>
        <time>2015-05-25T16:15:54Z</time>
      </trkpt>
      <trkpt lat="43.97559" lon="5.14805">
        <ele>403.89</ele>
        <time>2015-05-25T16:15:55Z</time>
      </trkpt>
      <trkpt lat="43.97576" lon="5.14785">
        <ele>400.05</ele>
        <time>2015-05-25T16:15:59Z</time>
      </trkpt>
      <trkpt lat="43.97596" lon="5.14757">
        <ele>396.68</ele>
        <time>2015-05-25T16:16:03Z</time>
      </trkpt>
      <trkpt lat="43.97606" lon="5.14741">
        <ele>394.28</ele>
        <time>2015-05-25T16:16:05Z</time>
      </trkpt>
      <trkpt lat="43.97609" lon="5.14732">
        <ele>392.84</ele>
        <time>2015-05-25T16:16:06Z</time>
      </trkpt>
      <trkpt lat="43.97612" lon="5.14722">
        <ele>391.39</ele>
        <time>2015-05-25T16:16:07Z</time>
      </trkpt>
      <trkpt lat="43.97613" lon="5.14712">
        <ele>389.95</ele>
        <time>2015-05-25T16:16:08Z</time>
      </trkpt>
      <trkpt lat="43.97615" lon="5.14701">
        <ele>388.51</ele>
        <time>2015-05-25T16:16:09Z</time>
      </trkpt>
      <trkpt lat="43.97616" lon="5.14691">
        <ele>387.07</ele>
        <time>2015-05-25T16:16:10Z</time>
      </trkpt>
      <trkpt lat="43.97618" lon="5.14681">
        <ele>385.63</ele>
        <time>2015-05-25T16:16:11Z</time>
      </trkpt>
      <trkpt lat="43.97621" lon="5.14672">
        <ele>383.7</ele>
        <time>2015-05-25T16:16:12Z</time>
      </trkpt>
      <trkpt lat="43.97624" lon="5.14664">
        <ele>382.26</ele>
        <time>2015-05-25T16:16:13Z</time>
      </trkpt>
      <trkpt lat="43.97628" lon="5.14657">
        <ele>380.34</ele>
        <time>2015-05-25T16:16:14Z</time>
      </trkpt>
      <trkpt lat="43.97639" lon="5.14638">
        <ele>377.45</ele>
        <time>2015-05-25T16:16:17Z</time>
      </trkpt>
      <trkpt lat="43.97649" lon="5.14622">
        <ele>375.53</ele>
        <time>2015-05-25T16:16:19Z</time>
      </trkpt>
      <trkpt lat="43.97665" lon="5.14597">
        <ele>374.09</ele>
        <time>2015-05-25T16:16:22Z</time>
      </trkpt>
      <trkpt lat="43.97706" lon="5.14543">
        <ele>371.21</ele>
        <time>2015-05-25T16:16:29Z</time>
      </trkpt>
      <trkpt lat="43.97736" lon="5.14519">
        <ele>370.24</ele>
        <time>2015-05-25T16:16:34Z</time>
      </trkpt>
      <trkpt lat="43.97749" lon="5.14511">
        <ele>368.8</ele>
        <time>2015-05-25T16:16:36Z</time>
      </trkpt>
      <trkpt lat="43.97767" lon="5.14498">
        <ele>368.32</ele>
        <time>2015-05-25T16:16:40Z</time>
      </trkpt>
      <trkpt lat="43.97767" lon="5.14495">
        <ele>368.8</ele>
        <time>2015-05-25T16:16:42Z</time>
      </trkpt>
      <trkpt lat="43.97768" lon="5.14494">
        <ele>368.8</ele>
        <time>2015-05-25T16:16:43Z</time>
      </trkpt>
      <trkpt lat="43.97769" lon="5.14492">
        <ele>368.32</ele>
        <time>2015-05-25T16:16:44Z</time>
      </trkpt>
      <trkpt lat="43.9777" lon="5.1449">
        <ele>368.32</ele>
        <time>2015-05-25T16:16:49Z</time>
      </trkpt>
      <trkpt lat="43.97769" lon="5.14491">
        <ele>368.32</ele>
        <time>2015-05-25T16:17:08Z</time>
      </trkpt>
      <trkpt lat="43.97769" lon="5.14492">
        <ele>368.32</ele>
        <time>2015-05-25T16:17:29Z</time>
      </trkpt>
      <trkpt lat="43.97769" lon="5.14492">
        <ele>368.8</ele>
        <time>2015-05-25T16:17:47Z</time>
      </trkpt>
      <trkpt lat="43.97769" lon="5.14492">
        <ele>367.84</ele>
        <time>2015-05-25T16:18:08Z</time>
      </trkpt>
      <trkpt lat="43.97769" lon="5.14492">
        <ele>368.32</ele>
        <time>2015-05-25T16:18:29Z</time>
      </trkpt>
      <trkpt lat="43.9777" lon="5.14493">
        <ele>368.32</ele>
        <time>2015-05-25T16:18:47Z</time>
      </trkpt>
      <trkpt lat="43.97771" lon="5.14493">
        <ele>367.84</ele>
        <time>2015-05-25T16:18:48Z</time>
      </trkpt>
      <trkpt lat="43.97773" lon="5.14492">
        <ele>368.32</ele>
        <time>2015-05-25T16:18:49Z</time>
      </trkpt>
      <trkpt lat="43.97786" lon="5.14482">
        <ele>367.36</ele>
        <time>2015-05-25T16:18:55Z</time>
      </trkpt>
      <trkpt lat="43.97813" lon="5.14459">
        <ele>366.4</ele>
        <time>2015-05-25T16:19:03Z</time>
      </trkpt>
      <trkpt lat="43.9782" lon="5.14453">
        <ele>366.4</ele>
        <time>2015-05-25T16:19:05Z</time>
      </trkpt>
      <trkpt lat="43.97854" lon="5.14426">
        <ele>365.44</ele>
        <time>2015-05-25T16:19:13Z</time>
      </trkpt>
      <trkpt lat="43.97888" lon="5.14399">
        <ele>364</ele>
        <time>2015-05-25T16:19:20Z</time>
      </trkpt>
      <trkpt lat="43.9792" lon="5.14359">
        <ele>361.11</ele>
        <time>2015-05-25T16:19:27Z</time>
      </trkpt>
      <trkpt lat="43.97936" lon="5.14339">
        <ele>358.71</ele>
        <time>2015-05-25T16:19:31Z</time>
      </trkpt>
      <trkpt lat="43.9794" lon="5.14333">
        <ele>358.23</ele>
        <time>2015-05-25T16:19:32Z</time>
      </trkpt>
      <trkpt lat="43.97946" lon="5.14327">
        <ele>357.75</ele>
        <time>2015-05-25T16:19:33Z</time>
      </trkpt>
      <trkpt lat="43.97951" lon="5.1432">
        <ele>356.79</ele>
        <time>2015-05-25T16:19:34Z</time>
      </trkpt>
      <trkpt lat="43.97957" lon="5.14312">
        <ele>356.31</ele>
        <time>2015-05-25T16:19:35Z</time>
      </trkpt>
      <trkpt lat="43.97962" lon="5.14303">
        <ele>354.86</ele>
        <time>2015-05-25T16:19:36Z</time>
      </trkpt>
      <trkpt lat="43.97971" lon="5.14284">
        <ele>353.42</ele>
        <time>2015-05-25T16:19:38Z</time>
      </trkpt>
      <trkpt lat="43.97974" lon="5.14274">
        <ele>353.42</ele>
        <time>2015-05-25T16:19:39Z</time>
      </trkpt>
      <trkpt lat="43.97975" lon="5.14262">
        <ele>352.94</ele>
        <time>2015-05-25T16:19:40Z</time>
      </trkpt>
      <trkpt lat="43.97974" lon="5.14251">
        <ele>351.98</ele>
        <time>2015-05-25T16:19:41Z</time>
      </trkpt>
      <trkpt lat="43.97972" lon="5.1424">
        <ele>351.98</ele>
        <time>2015-05-25T16:19:42Z</time>
      </trkpt>
      <trkpt lat="43.97971" lon="5.14229">
        <ele>351.5</ele>
        <time>2015-05-25T16:19:43Z</time>
      </trkpt>
      <trkpt lat="43.97972" lon="5.14219">
        <ele>351.02</ele>
        <time>2015-05-25T16:19:44Z</time>
      </trkpt>
      <trkpt lat="43.97974" lon="5.14209">
        <ele>350.54</ele>
        <time>2015-05-25T16:19:45Z</time>
      </trkpt>
      <trkpt lat="43.97977" lon="5.14201">
        <ele>350.06</ele>
        <time>2015-05-25T16:19:46Z</time>
      </trkpt>
      <trkpt lat="43.97979" lon="5.14194">
        <ele>350.06</ele>
        <time>2015-05-25T16:19:47Z</time>
      </trkpt>
      <trkpt lat="43.97981" lon="5.14189">
        <ele>350.06</ele>
        <time>2015-05-25T16:19:48Z</time>
      </trkpt>
      <trkpt lat="43.97983" lon="5.14186">
        <ele>350.54</ele>
        <time>2015-05-25T16:19:49Z</time>
      </trkpt>
      <trkpt lat="43.97984" lon="5.14184">
        <ele>350.54</ele>
        <time>2015-05-25T16:19:50Z</time>
      </trkpt>
      <trkpt lat="43.97984" lon="5.14182">
        <ele>350.06</ele>
        <time>2015-05-25T16:19:51Z</time>
      </trkpt>
      <trkpt lat="43.97983" lon="5.14182">
        <ele>350.54</ele>
        <time>2015-05-25T16:19:52Z</time>
      </trkpt>
      <trkpt lat="43.97982" lon="5.14183">
        <ele>350.06</ele>
        <time>2015-05-25T16:19:53Z</time>
      </trkpt>
      <trkpt lat="43.97981" lon="5.14185">
        <ele>350.06</ele>
        <time>2015-05-25T16:19:54Z</time>
      </trkpt>
      <trkpt lat="43.9798" lon="5.14188">
        <ele>350.54</ele>
        <time>2015-05-25T16:19:55Z</time>
      </trkpt>
      <trkpt lat="43.97979" lon="5.14192">
        <ele>350.54</ele>
        <time>2015-05-25T16:19:56Z</time>
      </trkpt>
      <trkpt lat="43.97978" lon="5.14196">
        <ele>350.06</ele>
        <time>2015-05-25T16:19:57Z</time>
      </trkpt>
      <trkpt lat="43.97977" lon="5.142">
        <ele>350.06</ele>
        <time>2015-05-25T16:19:58Z</time>
      </trkpt>
      <trkpt lat="43.97976" lon="5.14205">
        <ele>350.06</ele>
        <time>2015-05-25T16:19:59Z</time>
      </trkpt>
      <trkpt lat="43.97975" lon="5.14209">
        <ele>350.54</ele>
        <time>2015-05-25T16:20:00Z</time>
      </trkpt>
      <trkpt lat="43.97973" lon="5.14212">
        <ele>350.54</ele>
        <time>2015-05-25T16:20:01Z</time>
      </trkpt>
      <trkpt lat="43.9797" lon="5.14212">
        <ele>351.02</ele>
        <time>2015-05-25T16:20:02Z</time>
      </trkpt>
      <trkpt lat="43.97968" lon="5.14211">
        <ele>351.02</ele>
        <time>2015-05-25T16:20:03Z</time>
      </trkpt>
      <trkpt lat="43.97965" lon="5.14209">
        <ele>351.02</ele>
        <time>2015-05-25T16:20:04Z</time>
      </trkpt>
      <trkpt lat="43.97963" lon="5.14207">
        <ele>351.02</ele>
        <time>2015-05-25T16:20:05Z</time>
      </trkpt>
      <trkpt lat="43.97951" lon="5.14199">
        <ele>350.54</ele>
        <time>2015-05-25T16:20:09Z</time>
      </trkpt>
      <trkpt lat="43.97949" lon="5.14199">
        <ele>350.06</ele>
        <time>2015-05-25T16:20:10Z</time>
      </trkpt>
      <trkpt lat="43.97947" lon="5.14199">
        <ele>350.06</ele>
        <time>2015-05-25T16:20:11Z</time>
      </trkpt>
      <trkpt lat="43.97945" lon="5.142">
        <ele>350.06</ele>
        <time>2015-05-25T16:20:12Z</time>
      </trkpt>
      <trkpt lat="43.97942" lon="5.14202">
        <ele>349.1</ele>
        <time>2015-05-25T16:20:13Z</time>
      </trkpt>
      <trkpt lat="43.9794" lon="5.14202">
        <ele>349.1</ele>
        <time>2015-05-25T16:20:14Z</time>
      </trkpt>
      <trkpt lat="43.97939" lon="5.142">
        <ele>349.1</ele>
        <time>2015-05-25T16:20:15Z</time>
      </trkpt>
      <trkpt lat="43.97939" lon="5.14196">
        <ele>349.1</ele>
        <time>2015-05-25T16:20:16Z</time>
      </trkpt>
      <trkpt lat="43.97941" lon="5.14192">
        <ele>348.62</ele>
        <time>2015-05-25T16:20:17Z</time>
      </trkpt>
      <trkpt lat="43.97943" lon="5.14188">
        <ele>348.13</ele>
        <time>2015-05-25T16:20:18Z</time>
      </trkpt>
      <trkpt lat="43.97945" lon="5.14183">
        <ele>347.65</ele>
        <time>2015-05-25T16:20:19Z</time>
      </trkpt>
      <trkpt lat="43.97947" lon="5.14177">
        <ele>347.17</ele>
        <time>2015-05-25T16:20:20Z</time>
      </trkpt>
      <trkpt lat="43.97948" lon="5.14172">
        <ele>346.69</ele>
        <time>2015-05-25T16:20:21Z</time>
      </trkpt>
      <trkpt lat="43.97949" lon="5.14165">
        <ele>345.73</ele>
        <time>2015-05-25T16:20:25Z</time>
      </trkpt>
      <trkpt lat="43.97948" lon="5.14164">
        <ele>346.21</ele>
        <time>2015-05-25T16:20:26Z</time>
      </trkpt>
      <trkpt lat="43.97948" lon="5.14163">
        <ele>345.73</ele>
        <time>2015-05-25T16:20:27Z</time>
      </trkpt>
      <trkpt lat="43.97947" lon="5.14161">
        <ele>345.25</ele>
        <time>2015-05-25T16:20:28Z</time>
      </trkpt>
      <trkpt lat="43.97942" lon="5.14157">
        <ele>344.29</ele>
        <time>2015-05-25T16:20:32Z</time>
      </trkpt>
      <trkpt lat="43.97939" lon="5.14158">
        <ele>343.81</ele>
        <time>2015-05-25T16:20:33Z</time>
      </trkpt>
      <trkpt lat="43.97936" lon="5.14161">
        <ele>343.33</ele>
        <time>2015-05-25T16:20:34Z</time>
      </trkpt>
      <trkpt lat="43.97934" lon="5.14163">
        <ele>343.33</ele>
        <time>2015-05-25T16:20:35Z</time>
      </trkpt>
      <trkpt lat="43.97932" lon="5.14165">
        <ele>343.33</ele>
        <time>2015-05-25T16:20:36Z</time>
      </trkpt>
      <trkpt lat="43.9793" lon="5.14168">
        <ele>342.85</ele>
        <time>2015-05-25T16:20:37Z</time>
      </trkpt>
      <trkpt lat="43.97927" lon="5.1417">
        <ele>342.85</ele>
        <time>2015-05-25T16:20:38Z</time>
      </trkpt>
      <trkpt lat="43.97924" lon="5.14172">
        <ele>342.37</ele>
        <time>2015-05-25T16:20:39Z</time>
      </trkpt>
      <trkpt lat="43.97921" lon="5.14175">
        <ele>341.89</ele>
        <time>2015-05-25T16:20:40Z</time>
      </trkpt>
      <trkpt lat="43.97917" lon="5.14178">
        <ele>341.41</ele>
        <time>2015-05-25T16:20:41Z</time>
      </trkpt>
      <trkpt lat="43.97914" lon="5.14181">
        <ele>341.41</ele>
        <time>2015-05-25T16:20:42Z</time>
      </trkpt>
      <trkpt lat="43.97894" lon="5.14197">
        <ele>341.41</ele>
        <time>2015-05-25T16:20:48Z</time>
      </trkpt>
      <trkpt lat="43.97873" lon="5.14219">
        <ele>340.92</ele>
        <time>2015-05-25T16:20:55Z</time>
      </trkpt>
      <trkpt lat="43.97865" lon="5.14218">
        <ele>339.48</ele>
        <time>2015-05-25T16:20:57Z</time>
      </trkpt>
      <trkpt lat="43.97859" lon="5.14219">
        <ele>339.48</ele>
        <time>2015-05-25T16:21:00Z</time>
      </trkpt>
      <trkpt lat="43.97859" lon="5.14219">
        <ele>339</ele>
        <time>2015-05-25T16:21:08Z</time>
      </trkpt>
      <trkpt lat="43.97859" lon="5.14219">
        <ele>339</ele>
        <time>2015-05-25T16:21:11Z</time>
      </trkpt>
      <trkpt lat="43.97863" lon="5.14205">
        <ele>336.6</ele>
        <time>2015-05-25T16:21:16Z</time>
      </trkpt>
      <trkpt lat="43.97867" lon="5.14196">
        <ele>336.12</ele>
        <time>2015-05-25T16:21:18Z</time>
      </trkpt>
      <trkpt lat="43.97869" lon="5.14191">
        <ele>335.64</ele>
        <time>2015-05-25T16:21:19Z</time>
      </trkpt>
      <trkpt lat="43.97871" lon="5.14187">
        <ele>335.16</ele>
        <time>2015-05-25T16:21:20Z</time>
      </trkpt>
      <trkpt lat="43.97882" lon="5.14162">
        <ele>333.23</ele>
        <time>2015-05-25T16:21:26Z</time>
      </trkpt>
      <trkpt lat="43.97892" lon="5.14135">
        <ele>331.31</ele>
        <time>2015-05-25T16:21:32Z</time>
      </trkpt>
      <trkpt lat="43.97896" lon="5.14126">
        <ele>330.35</ele>
        <time>2015-05-25T16:21:34Z</time>
      </trkpt>
      <trkpt lat="43.97899" lon="5.14122">
        <ele>329.87</ele>
        <time>2015-05-25T16:21:35Z</time>
      </trkpt>
      <trkpt lat="43.97902" lon="5.14118">
        <ele>329.39</ele>
        <time>2015-05-25T16:21:36Z</time>
      </trkpt>
      <trkpt lat="43.97904" lon="5.14114">
        <ele>328.43</ele>
        <time>2015-05-25T16:21:37Z</time>
      </trkpt>
      <trkpt lat="43.97905" lon="5.1411">
        <ele>328.43</ele>
        <time>2015-05-25T16:21:38Z</time>
      </trkpt>
      <trkpt lat="43.97907" lon="5.14106">
        <ele>327.95</ele>
        <time>2015-05-25T16:21:39Z</time>
      </trkpt>
      <trkpt lat="43.97909" lon="5.14102">
        <ele>327.47</ele>
        <time>2015-05-25T16:21:40Z</time>
      </trkpt>
      <trkpt lat="43.97911" lon="5.14098">
        <ele>326.5</ele>
        <time>2015-05-25T16:21:41Z</time>
      </trkpt>
      <trkpt lat="43.97914" lon="5.14093">
        <ele>326.02</ele>
        <time>2015-05-25T16:21:42Z</time>
      </trkpt>
      <trkpt lat="43.97916" lon="5.14087">
        <ele>326.02</ele>
        <time>2015-05-25T16:21:43Z</time>
      </trkpt>
      <trkpt lat="43.97919" lon="5.14072">
        <ele>325.06</ele>
        <time>2015-05-25T16:21:47Z</time>
      </trkpt>
      <trkpt lat="43.9792" lon="5.1407">
        <ele>325.06</ele>
        <time>2015-05-25T16:21:50Z</time>
      </trkpt>
      <trkpt lat="43.97921" lon="5.14067">
        <ele>324.58</ele>
        <time>2015-05-25T16:21:51Z</time>
      </trkpt>
      <trkpt lat="43.97922" lon="5.14063">
        <ele>324.1</ele>
        <time>2015-05-25T16:21:52Z</time>
      </trkpt>
      <trkpt lat="43.97924" lon="5.14059">
        <ele>323.62</ele>
        <time>2015-05-25T16:21:53Z</time>
      </trkpt>
      <trkpt lat="43.97925" lon="5.14056">
        <ele>323.14</ele>
        <time>2015-05-25T16:21:54Z</time>
      </trkpt>
      <trkpt lat="43.97926" lon="5.14054">
        <ele>322.66</ele>
        <time>2015-05-25T16:21:55Z</time>
      </trkpt>
      <trkpt lat="43.97927" lon="5.14052">
        <ele>322.18</ele>
        <time>2015-05-25T16:21:56Z</time>
      </trkpt>
      <trkpt lat="43.97926" lon="5.14051">
        <ele>322.18</ele>
        <time>2015-05-25T16:21:57Z</time>
      </trkpt>
      <trkpt lat="43.97924" lon="5.14052">
        <ele>321.7</ele>
        <time>2015-05-25T16:21:58Z</time>
      </trkpt>
      <trkpt lat="43.97921" lon="5.14054">
        <ele>321.7</ele>
        <time>2015-05-25T16:21:59Z</time>
      </trkpt>
      <trkpt lat="43.97919" lon="5.14055">
        <ele>321.22</ele>
        <time>2015-05-25T16:22:00Z</time>
      </trkpt>
      <trkpt lat="43.97918" lon="5.14057">
        <ele>321.22</ele>
        <time>2015-05-25T16:22:05Z</time>
      </trkpt>
      <trkpt lat="43.97916" lon="5.14057">
        <ele>321.22</ele>
        <time>2015-05-25T16:22:06Z</time>
      </trkpt>
      <trkpt lat="43.97912" lon="5.14056">
        <ele>320.26</ele>
        <time>2015-05-25T16:22:11Z</time>
      </trkpt>
      <trkpt lat="43.9791" lon="5.14056">
        <ele>320.26</ele>
        <time>2015-05-25T16:22:12Z</time>
      </trkpt>
      <trkpt lat="43.97908" lon="5.14055">
        <ele>320.26</ele>
        <time>2015-05-25T16:22:13Z</time>
      </trkpt>
      <trkpt lat="43.97901" lon="5.14051">
        <ele>319.78</ele>
        <time>2015-05-25T16:22:19Z</time>
      </trkpt>
      <trkpt lat="43.97899" lon="5.14051">
        <ele>319.78</ele>
        <time>2015-05-25T16:22:37Z</time>
      </trkpt>
      <trkpt lat="43.97898" lon="5.1405">
        <ele>320.26</ele>
        <time>2015-05-25T16:22:53Z</time>
      </trkpt>
      <trkpt lat="43.97895" lon="5.14049">
        <ele>319.78</ele>
        <time>2015-05-25T16:22:55Z</time>
      </trkpt>
      <trkpt lat="43.97894" lon="5.1405">
        <ele>319.78</ele>
        <time>2015-05-25T16:23:00Z</time>
      </trkpt>
      <trkpt lat="43.97894" lon="5.1405">
        <ele>316.41</ele>
        <time>2015-05-25T16:23:02Z</time>
      </trkpt>
      <trkpt lat="43.97894" lon="5.1405">
        <ele>320.26</ele>
        <time>2015-05-25T16:23:03Z</time>
      </trkpt>
      <trkpt lat="43.97894" lon="5.14046">
        <ele>318.33</ele>
        <time>2015-05-25T16:23:08Z</time>
      </trkpt>
      <trkpt lat="43.97894" lon="5.1404">
        <ele>316.89</ele>
        <time>2015-05-25T16:23:14Z</time>
      </trkpt>
      <trkpt lat="43.97893" lon="5.14034">
        <ele>315.93</ele>
        <time>2015-05-25T16:23:19Z</time>
      </trkpt>
      <trkpt lat="43.97893" lon="5.14032">
        <ele>315.45</ele>
        <time>2015-05-25T16:23:20Z</time>
      </trkpt>
      <trkpt lat="43.97893" lon="5.14028">
        <ele>314.97</ele>
        <time>2015-05-25T16:23:26Z</time>
      </trkpt>
      <trkpt lat="43.9789" lon="5.14028">
        <ele>314.49</ele>
        <time>2015-05-25T16:23:31Z</time>
      </trkpt>
      <trkpt lat="43.97889" lon="5.14029">
        <ele>314.49</ele>
        <time>2015-05-25T16:23:36Z</time>
      </trkpt>
      <trkpt lat="43.97888" lon="5.1403">
        <ele>314.01</ele>
        <time>2015-05-25T16:23:43Z</time>
      </trkpt>
      <trkpt lat="43.97888" lon="5.14032">
        <ele>313.05</ele>
        <time>2015-05-25T16:23:48Z</time>
      </trkpt>
      <trkpt lat="43.97888" lon="5.14032">
        <ele>313.53</ele>
        <time>2015-05-25T16:24:02Z</time>
      </trkpt>
      <trkpt lat="43.97887" lon="5.14032">
        <ele>313.53</ele>
        <time>2015-05-25T16:24:15Z</time>
      </trkpt>
      <trkpt lat="43.97887" lon="5.14032">
        <ele>314.01</ele>
        <time>2015-05-25T16:24:23Z</time>
      </trkpt>
      <trkpt lat="43.97886" lon="5.14032">
        <ele>314.01</ele>
        <time>2015-05-25T16:24:25Z</time>
      </trkpt>
      <trkpt lat="43.97884" lon="5.14032">
        <ele>313.53</ele>
        <time>2015-05-25T16:24:26Z</time>
      </trkpt>
      <trkpt lat="43.9787" lon="5.14019">
        <ele>311.6</ele>
        <time>2015-05-25T16:24:33Z</time>
      </trkpt>
      <trkpt lat="43.97864" lon="5.14004">
        <ele>311.6</ele>
        <time>2015-05-25T16:24:37Z</time>
      </trkpt>
      <trkpt lat="43.97866" lon="5.13982">
        <ele>312.09</ele>
        <time>2015-05-25T16:24:42Z</time>
      </trkpt>
      <trkpt lat="43.9788" lon="5.13927">
        <ele>312.57</ele>
        <time>2015-05-25T16:24:52Z</time>
      </trkpt>
      <trkpt lat="43.97883" lon="5.13915">
        <ele>312.09</ele>
        <time>2015-05-25T16:24:54Z</time>
      </trkpt>
      <trkpt lat="43.9789" lon="5.13888">
        <ele>310.64</ele>
        <time>2015-05-25T16:24:58Z</time>
      </trkpt>
      <trkpt lat="43.97889" lon="5.13881">
        <ele>310.64</ele>
        <time>2015-05-25T16:24:59Z</time>
      </trkpt>
      <trkpt lat="43.97881" lon="5.13822">
        <ele>309.68</ele>
        <time>2015-05-25T16:25:07Z</time>
      </trkpt>
      <trkpt lat="43.9788" lon="5.13814">
        <ele>309.68</ele>
        <time>2015-05-25T16:25:08Z</time>
      </trkpt>
      <trkpt lat="43.97873" lon="5.13781">
        <ele>310.16</ele>
        <time>2015-05-25T16:25:13Z</time>
      </trkpt>
      <trkpt lat="43.97867" lon="5.13747">
        <ele>312.57</ele>
        <time>2015-05-25T16:25:19Z</time>
      </trkpt>
      <trkpt lat="43.97863" lon="5.13709">
        <ele>312.57</ele>
        <time>2015-05-25T16:25:27Z</time>
      </trkpt>
      <trkpt lat="43.97863" lon="5.13692">
        <ele>313.05</ele>
        <time>2015-05-25T16:25:31Z</time>
      </trkpt>
      <trkpt lat="43.97863" lon="5.13686">
        <ele>313.05</ele>
        <time>2015-05-25T16:25:32Z</time>
      </trkpt>
      <trkpt lat="43.97867" lon="5.13653">
        <ele>311.6</ele>
        <time>2015-05-25T16:25:37Z</time>
      </trkpt>
      <trkpt lat="43.97866" lon="5.13645">
        <ele>311.6</ele>
        <time>2015-05-25T16:25:38Z</time>
      </trkpt>
      <trkpt lat="43.97864" lon="5.13638">
        <ele>311.12</ele>
        <time>2015-05-25T16:25:39Z</time>
      </trkpt>
      <trkpt lat="43.97852" lon="5.13603">
        <ele>311.6</ele>
        <time>2015-05-25T16:25:44Z</time>
      </trkpt>
      <trkpt lat="43.97852" lon="5.13595">
        <ele>311.6</ele>
        <time>2015-05-25T16:25:45Z</time>
      </trkpt>
      <trkpt lat="43.97851" lon="5.13588">
        <ele>312.09</ele>
        <time>2015-05-25T16:25:46Z</time>
      </trkpt>
      <trkpt lat="43.97852" lon="5.13582">
        <ele>312.09</ele>
        <time>2015-05-25T16:25:47Z</time>
      </trkpt>
      <trkpt lat="43.97853" lon="5.13575">
        <ele>312.09</ele>
        <time>2015-05-25T16:25:48Z</time>
      </trkpt>
      <trkpt lat="43.97854" lon="5.13569">
        <ele>312.57</ele>
        <time>2015-05-25T16:25:49Z</time>
      </trkpt>
      <trkpt lat="43.97856" lon="5.13563">
        <ele>312.57</ele>
        <time>2015-05-25T16:25:50Z</time>
      </trkpt>
      <trkpt lat="43.97858" lon="5.13557">
        <ele>312.57</ele>
        <time>2015-05-25T16:25:51Z</time>
      </trkpt>
      <trkpt lat="43.97877" lon="5.1351">
        <ele>312.09</ele>
        <time>2015-05-25T16:25:59Z</time>
      </trkpt>
      <trkpt lat="43.979" lon="5.1346">
        <ele>310.64</ele>
        <time>2015-05-25T16:26:06Z</time>
      </trkpt>
      <trkpt lat="43.97916" lon="5.13404">
        <ele>310.16</ele>
        <time>2015-05-25T16:26:13Z</time>
      </trkpt>
      <trkpt lat="43.97922" lon="5.13379">
        <ele>309.68</ele>
        <time>2015-05-25T16:26:16Z</time>
      </trkpt>
      <trkpt lat="43.97923" lon="5.13371">
        <ele>309.68</ele>
        <time>2015-05-25T16:26:17Z</time>
      </trkpt>
      <trkpt lat="43.97922" lon="5.13363">
        <ele>310.16</ele>
        <time>2015-05-25T16:26:18Z</time>
      </trkpt>
      <trkpt lat="43.97922" lon="5.13355">
        <ele>310.16</ele>
        <time>2015-05-25T16:26:19Z</time>
      </trkpt>
      <trkpt lat="43.97921" lon="5.13347">
        <ele>310.64</ele>
        <time>2015-05-25T16:26:20Z</time>
      </trkpt>
      <trkpt lat="43.97921" lon="5.1334">
        <ele>310.64</ele>
        <time>2015-05-25T16:26:21Z</time>
      </trkpt>
      <trkpt lat="43.97919" lon="5.1332">
        <ele>311.6</ele>
        <time>2015-05-25T16:26:25Z</time>
      </trkpt>
      <trkpt lat="43.97919" lon="5.13311">
        <ele>311.6</ele>
        <time>2015-05-25T16:26:30Z</time>
      </trkpt>
      <trkpt lat="43.97919" lon="5.13307">
        <ele>311.6</ele>
        <time>2015-05-25T16:26:37Z</time>
      </trkpt>
      <trkpt lat="43.97918" lon="5.13304">
        <ele>311.6</ele>
        <time>2015-05-25T16:26:38Z</time>
      </trkpt>
      <trkpt lat="43.97918" lon="5.133">
        <ele>311.12</ele>
        <time>2015-05-25T16:26:39Z</time>
      </trkpt>
      <trkpt lat="43.97917" lon="5.13297">
        <ele>311.12</ele>
        <time>2015-05-25T16:26:40Z</time>
      </trkpt>
      <trkpt lat="43.97918" lon="5.13294">
        <ele>311.12</ele>
        <time>2015-05-25T16:26:41Z</time>
      </trkpt>
      <trkpt lat="43.9792" lon="5.13291">
        <ele>310.64</ele>
        <time>2015-05-25T16:26:42Z</time>
      </trkpt>
      <trkpt lat="43.97922" lon="5.13289">
        <ele>310.64</ele>
        <time>2015-05-25T16:26:43Z</time>
      </trkpt>
      <trkpt lat="43.97923" lon="5.13286">
        <ele>310.16</ele>
        <time>2015-05-25T16:26:44Z</time>
      </trkpt>
      <trkpt lat="43.97938" lon="5.13262">
        <ele>309.68</ele>
        <time>2015-05-25T16:26:50Z</time>
      </trkpt>
      <trkpt lat="43.97947" lon="5.13247">
        <ele>308.72</ele>
        <time>2015-05-25T16:26:53Z</time>
      </trkpt>
      <trkpt lat="43.97954" lon="5.13237">
        <ele>308.24</ele>
        <time>2015-05-25T16:26:55Z</time>
      </trkpt>
      <trkpt lat="43.97957" lon="5.13232">
        <ele>307.76</ele>
        <time>2015-05-25T16:26:56Z</time>
      </trkpt>
      <trkpt lat="43.97969" lon="5.13218">
        <ele>307.28</ele>
        <time>2015-05-25T16:26:59Z</time>
      </trkpt>
      <trkpt lat="43.97988" lon="5.13204">
        <ele>306.8</ele>
        <time>2015-05-25T16:27:03Z</time>
      </trkpt>
      <trkpt lat="43.97992" lon="5.13199">
        <ele>306.32</ele>
        <time>2015-05-25T16:27:04Z</time>
      </trkpt>
      <trkpt lat="43.97995" lon="5.13193">
        <ele>306.32</ele>
        <time>2015-05-25T16:27:05Z</time>
      </trkpt>
      <trkpt lat="43.98012" lon="5.13166">
        <ele>304.88</ele>
        <time>2015-05-25T16:27:10Z</time>
      </trkpt>
      <trkpt lat="43.98015" lon="5.13161">
        <ele>304.88</ele>
        <time>2015-05-25T16:27:11Z</time>
      </trkpt>
      <trkpt lat="43.98041" lon="5.13117">
        <ele>303.91</ele>
        <time>2015-05-25T16:27:19Z</time>
      </trkpt>
      <trkpt lat="43.98048" lon="5.13106">
        <ele>303.91</ele>
        <time>2015-05-25T16:27:21Z</time>
      </trkpt>
      <trkpt lat="43.98049" lon="5.13098">
        <ele>303.43</ele>
        <time>2015-05-25T16:27:22Z</time>
      </trkpt>
      <trkpt lat="43.9805" lon="5.13091">
        <ele>303.43</ele>
        <time>2015-05-25T16:27:23Z</time>
      </trkpt>
      <trkpt lat="43.98051" lon="5.13083">
        <ele>303.43</ele>
        <time>2015-05-25T16:27:24Z</time>
      </trkpt>
      <trkpt lat="43.98054" lon="5.13076">
        <ele>303.43</ele>
        <time>2015-05-25T16:27:25Z</time>
      </trkpt>
      <trkpt lat="43.98056" lon="5.13069">
        <ele>303.43</ele>
        <time>2015-05-25T16:27:26Z</time>
      </trkpt>
      <trkpt lat="43.98057" lon="5.13061">
        <ele>302.95</ele>
        <time>2015-05-25T16:27:27Z</time>
      </trkpt>
      <trkpt lat="43.98057" lon="5.13053">
        <ele>303.43</ele>
        <time>2015-05-25T16:27:28Z</time>
      </trkpt>
      <trkpt lat="43.98057" lon="5.13044">
        <ele>303.43</ele>
        <time>2015-05-25T16:27:29Z</time>
      </trkpt>
      <trkpt lat="43.98058" lon="5.13036">
        <ele>303.43</ele>
        <time>2015-05-25T16:27:30Z</time>
      </trkpt>
      <trkpt lat="43.9806" lon="5.13028">
        <ele>303.43</ele>
        <time>2015-05-25T16:27:31Z</time>
      </trkpt>
      <trkpt lat="43.98063" lon="5.1302">
        <ele>303.43</ele>
        <time>2015-05-25T16:27:32Z</time>
      </trkpt>
      <trkpt lat="43.98068" lon="5.13004">
        <ele>303.43</ele>
        <time>2015-05-25T16:27:34Z</time>
      </trkpt>
      <trkpt lat="43.98073" lon="5.12988">
        <ele>303.43</ele>
        <time>2015-05-25T16:27:36Z</time>
      </trkpt>
      <trkpt lat="43.98075" lon="5.1298">
        <ele>303.91</ele>
        <time>2015-05-25T16:27:37Z</time>
      </trkpt>
      <trkpt lat="43.98082" lon="5.12949">
        <ele>304.39</ele>
        <time>2015-05-25T16:27:41Z</time>
      </trkpt>
      <trkpt lat="43.98087" lon="5.12935">
        <ele>305.36</ele>
        <time>2015-05-25T16:27:43Z</time>
      </trkpt>
      <trkpt lat="43.98089" lon="5.12928">
        <ele>305.36</ele>
        <time>2015-05-25T16:27:44Z</time>
      </trkpt>
      <trkpt lat="43.9809" lon="5.12921">
        <ele>304.88</ele>
        <time>2015-05-25T16:27:45Z</time>
      </trkpt>
      <trkpt lat="43.98092" lon="5.12915">
        <ele>304.88</ele>
        <time>2015-05-25T16:27:46Z</time>
      </trkpt>
      <trkpt lat="43.98094" lon="5.12909">
        <ele>304.88</ele>
        <time>2015-05-25T16:27:47Z</time>
      </trkpt>
      <trkpt lat="43.98097" lon="5.12903">
        <ele>304.88</ele>
        <time>2015-05-25T16:27:48Z</time>
      </trkpt>
      <trkpt lat="43.981" lon="5.12898">
        <ele>304.88</ele>
        <time>2015-05-25T16:27:49Z</time>
      </trkpt>
      <trkpt lat="43.98103" lon="5.12893">
        <ele>304.88</ele>
        <time>2015-05-25T16:27:50Z</time>
      </trkpt>
      <trkpt lat="43.98108" lon="5.12882">
        <ele>305.36</ele>
        <time>2015-05-25T16:27:52Z</time>
      </trkpt>
      <trkpt lat="43.98111" lon="5.12877">
        <ele>305.36</ele>
        <time>2015-05-25T16:27:53Z</time>
      </trkpt>
      <trkpt lat="43.98117" lon="5.12868">
        <ele>305.84</ele>
        <time>2015-05-25T16:27:55Z</time>
      </trkpt>
      <trkpt lat="43.9812" lon="5.12862">
        <ele>305.84</ele>
        <time>2015-05-25T16:27:56Z</time>
      </trkpt>
      <trkpt lat="43.98123" lon="5.12856">
        <ele>305.36</ele>
        <time>2015-05-25T16:27:57Z</time>
      </trkpt>
      <trkpt lat="43.98125" lon="5.12849">
        <ele>305.36</ele>
        <time>2015-05-25T16:27:58Z</time>
      </trkpt>
      <trkpt lat="43.98128" lon="5.12843">
        <ele>303.91</ele>
        <time>2015-05-25T16:27:59Z</time>
      </trkpt>
      <trkpt lat="43.98132" lon="5.12838">
        <ele>303.43</ele>
        <time>2015-05-25T16:28:00Z</time>
      </trkpt>
      <trkpt lat="43.98137" lon="5.12833">
        <ele>303.91</ele>
        <time>2015-05-25T16:28:01Z</time>
      </trkpt>
      <trkpt lat="43.98148" lon="5.12821">
        <ele>303.91</ele>
        <time>2015-05-25T16:28:04Z</time>
      </trkpt>
      <trkpt lat="43.98152" lon="5.12817">
        <ele>304.39</ele>
        <time>2015-05-25T16:28:05Z</time>
      </trkpt>
      <trkpt lat="43.98156" lon="5.12813">
        <ele>304.88</ele>
        <time>2015-05-25T16:28:06Z</time>
      </trkpt>
      <trkpt lat="43.98172" lon="5.12786">
        <ele>303.91</ele>
        <time>2015-05-25T16:28:11Z</time>
      </trkpt>
      <trkpt lat="43.98176" lon="5.12781">
        <ele>303.43</ele>
        <time>2015-05-25T16:28:12Z</time>
      </trkpt>
      <trkpt lat="43.98181" lon="5.12776">
        <ele>303.43</ele>
        <time>2015-05-25T16:28:13Z</time>
      </trkpt>
      <trkpt lat="43.98185" lon="5.12771">
        <ele>302.95</ele>
        <time>2015-05-25T16:28:14Z</time>
      </trkpt>
      <trkpt lat="43.98189" lon="5.12766">
        <ele>302.95</ele>
        <time>2015-05-25T16:28:15Z</time>
      </trkpt>
      <trkpt lat="43.98194" lon="5.12761">
        <ele>302.95</ele>
        <time>2015-05-25T16:28:16Z</time>
      </trkpt>
      <trkpt lat="43.98199" lon="5.12756">
        <ele>302.47</ele>
        <time>2015-05-25T16:28:17Z</time>
      </trkpt>
      <trkpt lat="43.98203" lon="5.1275">
        <ele>302.47</ele>
        <time>2015-05-25T16:28:18Z</time>
      </trkpt>
      <trkpt lat="43.98208" lon="5.12744">
        <ele>302.47</ele>
        <time>2015-05-25T16:28:19Z</time>
      </trkpt>
      <trkpt lat="43.98212" lon="5.12738">
        <ele>301.99</ele>
        <time>2015-05-25T16:28:20Z</time>
      </trkpt>
      <trkpt lat="43.98222" lon="5.12728">
        <ele>301.99</ele>
        <time>2015-05-25T16:28:22Z</time>
      </trkpt>
      <trkpt lat="43.98227" lon="5.12725">
        <ele>301.03</ele>
        <time>2015-05-25T16:28:23Z</time>
      </trkpt>
      <trkpt lat="43.98232" lon="5.12722">
        <ele>301.51</ele>
        <time>2015-05-25T16:28:24Z</time>
      </trkpt>
      <trkpt lat="43.98234" lon="5.12718">
        <ele>302.47</ele>
        <time>2015-05-25T16:28:25Z</time>
      </trkpt>
      <trkpt lat="43.98233" lon="5.12715">
        <ele>301.99</ele>
        <time>2015-05-25T16:28:26Z</time>
      </trkpt>
      <trkpt lat="43.9823" lon="5.12714">
        <ele>301.03</ele>
        <time>2015-05-25T16:28:27Z</time>
      </trkpt>
      <trkpt lat="43.98227" lon="5.12714">
        <ele>300.55</ele>
        <time>2015-05-25T16:28:28Z</time>
      </trkpt>
      <trkpt lat="43.98223" lon="5.12717">
        <ele>300.07</ele>
        <time>2015-05-25T16:28:29Z</time>
      </trkpt>
      <trkpt lat="43.98219" lon="5.12719">
        <ele>299.59</ele>
        <time>2015-05-25T16:28:30Z</time>
      </trkpt>
      <trkpt lat="43.98214" lon="5.12721">
        <ele>299.59</ele>
        <time>2015-05-25T16:28:31Z</time>
      </trkpt>
      <trkpt lat="43.98209" lon="5.12723">
        <ele>298.63</ele>
        <time>2015-05-25T16:28:32Z</time>
      </trkpt>
      <trkpt lat="43.98197" lon="5.12729">
        <ele>297.18</ele>
        <time>2015-05-25T16:28:34Z</time>
      </trkpt>
      <trkpt lat="43.98191" lon="5.12733">
        <ele>297.18</ele>
        <time>2015-05-25T16:28:35Z</time>
      </trkpt>
      <trkpt lat="43.98185" lon="5.12738">
        <ele>297.18</ele>
        <time>2015-05-25T16:28:36Z</time>
      </trkpt>
      <trkpt lat="43.98174" lon="5.12745">
        <ele>296.7</ele>
        <time>2015-05-25T16:28:38Z</time>
      </trkpt>
      <trkpt lat="43.98168" lon="5.12748">
        <ele>296.7</ele>
        <time>2015-05-25T16:28:39Z</time>
      </trkpt>
      <trkpt lat="43.9816" lon="5.12754">
        <ele>295.26</ele>
        <time>2015-05-25T16:28:41Z</time>
      </trkpt>
      <trkpt lat="43.98156" lon="5.12756">
        <ele>295.26</ele>
        <time>2015-05-25T16:28:42Z</time>
      </trkpt>
      <trkpt lat="43.98152" lon="5.12753">
        <ele>294.78</ele>
        <time>2015-05-25T16:28:43Z</time>
      </trkpt>
      <trkpt lat="43.98151" lon="5.12747">
        <ele>294.78</ele>
        <time>2015-05-25T16:28:44Z</time>
      </trkpt>
      <trkpt lat="43.9815" lon="5.12741">
        <ele>294.78</ele>
        <time>2015-05-25T16:28:45Z</time>
      </trkpt>
      <trkpt lat="43.98151" lon="5.12735">
        <ele>294.78</ele>
        <time>2015-05-25T16:28:46Z</time>
      </trkpt>
      <trkpt lat="43.98153" lon="5.12731">
        <ele>294.3</ele>
        <time>2015-05-25T16:28:47Z</time>
      </trkpt>
      <trkpt lat="43.98157" lon="5.12729">
        <ele>294.3</ele>
        <time>2015-05-25T16:28:48Z</time>
      </trkpt>
      <trkpt lat="43.98162" lon="5.12728">
        <ele>293.82</ele>
        <time>2015-05-25T16:28:49Z</time>
      </trkpt>
      <trkpt lat="43.98167" lon="5.12727">
        <ele>294.3</ele>
        <time>2015-05-25T16:28:50Z</time>
      </trkpt>
      <trkpt lat="43.98171" lon="5.12724">
        <ele>293.82</ele>
        <time>2015-05-25T16:28:51Z</time>
      </trkpt>
      <trkpt lat="43.98175" lon="5.12719">
        <ele>293.34</ele>
        <time>2015-05-25T16:28:52Z</time>
      </trkpt>
      <trkpt lat="43.98179" lon="5.12715">
        <ele>293.34</ele>
        <time>2015-05-25T16:28:53Z</time>
      </trkpt>
      <trkpt lat="43.98182" lon="5.1271">
        <ele>293.34</ele>
        <time>2015-05-25T16:28:54Z</time>
      </trkpt>
      <trkpt lat="43.98184" lon="5.12704">
        <ele>293.34</ele>
        <time>2015-05-25T16:28:55Z</time>
      </trkpt>
      <trkpt lat="43.98188" lon="5.12701">
        <ele>293.34</ele>
        <time>2015-05-25T16:28:56Z</time>
      </trkpt>
      <trkpt lat="43.98192" lon="5.12698">
        <ele>293.34</ele>
        <time>2015-05-25T16:28:57Z</time>
      </trkpt>
      <trkpt lat="43.98197" lon="5.12695">
        <ele>292.86</ele>
        <time>2015-05-25T16:28:58Z</time>
      </trkpt>
      <trkpt lat="43.98201" lon="5.12691">
        <ele>292.86</ele>
        <time>2015-05-25T16:28:59Z</time>
      </trkpt>
      <trkpt lat="43.98205" lon="5.12688">
        <ele>292.38</ele>
        <time>2015-05-25T16:29:00Z</time>
      </trkpt>
      <trkpt lat="43.9821" lon="5.12685">
        <ele>292.38</ele>
        <time>2015-05-25T16:29:01Z</time>
      </trkpt>
      <trkpt lat="43.98215" lon="5.12683">
        <ele>291.9</ele>
        <time>2015-05-25T16:29:02Z</time>
      </trkpt>
      <trkpt lat="43.9822" lon="5.12681">
        <ele>291.9</ele>
        <time>2015-05-25T16:29:03Z</time>
      </trkpt>
      <trkpt lat="43.98225" lon="5.12677">
        <ele>291.9</ele>
        <time>2015-05-25T16:29:04Z</time>
      </trkpt>
      <trkpt lat="43.98229" lon="5.12674">
        <ele>291.42</ele>
        <time>2015-05-25T16:29:05Z</time>
      </trkpt>
      <trkpt lat="43.98234" lon="5.12671">
        <ele>290.94</ele>
        <time>2015-05-25T16:29:06Z</time>
      </trkpt>
      <trkpt lat="43.98238" lon="5.12667">
        <ele>290.94</ele>
        <time>2015-05-25T16:29:07Z</time>
      </trkpt>
      <trkpt lat="43.98242" lon="5.12663">
        <ele>290.94</ele>
        <time>2015-05-25T16:29:08Z</time>
      </trkpt>
      <trkpt lat="43.98247" lon="5.12661">
        <ele>290.94</ele>
        <time>2015-05-25T16:29:09Z</time>
      </trkpt>
      <trkpt lat="43.98253" lon="5.12661">
        <ele>290.94</ele>
        <time>2015-05-25T16:29:10Z</time>
      </trkpt>
      <trkpt lat="43.98258" lon="5.1266">
        <ele>290.46</ele>
        <time>2015-05-25T16:29:11Z</time>
      </trkpt>
      <trkpt lat="43.98264" lon="5.12658">
        <ele>289.97</ele>
        <time>2015-05-25T16:29:12Z</time>
      </trkpt>
      <trkpt lat="43.98269" lon="5.12656">
        <ele>289.49</ele>
        <time>2015-05-25T16:29:13Z</time>
      </trkpt>
      <trkpt lat="43.98275" lon="5.12654">
        <ele>289.49</ele>
        <time>2015-05-25T16:29:14Z</time>
      </trkpt>
      <trkpt lat="43.9828" lon="5.12654">
        <ele>289.49</ele>
        <time>2015-05-25T16:29:15Z</time>
      </trkpt>
      <trkpt lat="43.98284" lon="5.12657">
        <ele>289.01</ele>
        <time>2015-05-25T16:29:16Z</time>
      </trkpt>
      <trkpt lat="43.9829" lon="5.12665">
        <ele>289.01</ele>
        <time>2015-05-25T16:29:18Z</time>
      </trkpt>
      <trkpt lat="43.98293" lon="5.12671">
        <ele>288.53</ele>
        <time>2015-05-25T16:29:19Z</time>
      </trkpt>
      <trkpt lat="43.98294" lon="5.12677">
        <ele>288.05</ele>
        <time>2015-05-25T16:29:20Z</time>
      </trkpt>
      <trkpt lat="43.98299" lon="5.12696">
        <ele>287.09</ele>
        <time>2015-05-25T16:29:23Z</time>
      </trkpt>
      <trkpt lat="43.98299" lon="5.12703">
        <ele>287.09</ele>
        <time>2015-05-25T16:29:24Z</time>
      </trkpt>
      <trkpt lat="43.98299" lon="5.12717">
        <ele>287.09</ele>
        <time>2015-05-25T16:29:26Z</time>
      </trkpt>
      <trkpt lat="43.98299" lon="5.12724">
        <ele>286.61</ele>
        <time>2015-05-25T16:29:27Z</time>
      </trkpt>
      <trkpt lat="43.98294" lon="5.12753">
        <ele>286.61</ele>
        <time>2015-05-25T16:29:31Z</time>
      </trkpt>
      <trkpt lat="43.98291" lon="5.12767">
        <ele>286.61</ele>
        <time>2015-05-25T16:29:33Z</time>
      </trkpt>
      <trkpt lat="43.98289" lon="5.12773">
        <ele>286.61</ele>
        <time>2015-05-25T16:29:34Z</time>
      </trkpt>
      <trkpt lat="43.98286" lon="5.12779">
        <ele>286.61</ele>
        <time>2015-05-25T16:29:35Z</time>
      </trkpt>
      <trkpt lat="43.98284" lon="5.12785">
        <ele>287.09</ele>
        <time>2015-05-25T16:29:36Z</time>
      </trkpt>
      <trkpt lat="43.98282" lon="5.12792">
        <ele>287.09</ele>
        <time>2015-05-25T16:29:37Z</time>
      </trkpt>
      <trkpt lat="43.98278" lon="5.12798">
        <ele>287.09</ele>
        <time>2015-05-25T16:29:38Z</time>
      </trkpt>
      <trkpt lat="43.98275" lon="5.12804">
        <ele>287.09</ele>
        <time>2015-05-25T16:29:39Z</time>
      </trkpt>
      <trkpt lat="43.98272" lon="5.1281">
        <ele>287.09</ele>
        <time>2015-05-25T16:29:40Z</time>
      </trkpt>
      <trkpt lat="43.98268" lon="5.12816">
        <ele>287.09</ele>
        <time>2015-05-25T16:29:41Z</time>
      </trkpt>
      <trkpt lat="43.98247" lon="5.12859">
        <ele>288.05</ele>
        <time>2015-05-25T16:29:48Z</time>
      </trkpt>
      <trkpt lat="43.98245" lon="5.12865">
        <ele>288.05</ele>
        <time>2015-05-25T16:29:49Z</time>
      </trkpt>
      <trkpt lat="43.98234" lon="5.12885">
        <ele>289.01</ele>
        <time>2015-05-25T16:29:53Z</time>
      </trkpt>
      <trkpt lat="43.98232" lon="5.1289">
        <ele>289.01</ele>
        <time>2015-05-25T16:29:54Z</time>
      </trkpt>
      <trkpt lat="43.98227" lon="5.129">
        <ele>289.49</ele>
        <time>2015-05-25T16:29:56Z</time>
      </trkpt>
      <trkpt lat="43.98224" lon="5.12905">
        <ele>289.49</ele>
        <time>2015-05-25T16:29:57Z</time>
      </trkpt>
      <trkpt lat="43.98221" lon="5.1291">
        <ele>289.49</ele>
        <time>2015-05-25T16:29:58Z</time>
      </trkpt>
      <trkpt lat="43.98212" lon="5.12922">
        <ele>289.97</ele>
        <time>2015-05-25T16:30:01Z</time>
      </trkpt>
      <trkpt lat="43.9821" lon="5.12926">
        <ele>289.97</ele>
        <time>2015-05-25T16:30:02Z</time>
      </trkpt>
      <trkpt lat="43.982" lon="5.1294">
        <ele>290.94</ele>
        <time>2015-05-25T16:30:05Z</time>
      </trkpt>
      <trkpt lat="43.98197" lon="5.12944">
        <ele>290.94</ele>
        <time>2015-05-25T16:30:06Z</time>
      </trkpt>
      <trkpt lat="43.98194" lon="5.12949">
        <ele>290.94</ele>
        <time>2015-05-25T16:30:07Z</time>
      </trkpt>
      <trkpt lat="43.9819" lon="5.12953">
        <ele>290.94</ele>
        <time>2015-05-25T16:30:08Z</time>
      </trkpt>
      <trkpt lat="43.98186" lon="5.12958">
        <ele>290.94</ele>
        <time>2015-05-25T16:30:09Z</time>
      </trkpt>
      <trkpt lat="43.98183" lon="5.12963">
        <ele>290.94</ele>
        <time>2015-05-25T16:30:10Z</time>
      </trkpt>
      <trkpt lat="43.98173" lon="5.12978">
        <ele>290.94</ele>
        <time>2015-05-25T16:30:13Z</time>
      </trkpt>
      <trkpt lat="43.9817" lon="5.12984">
        <ele>290.94</ele>
        <time>2015-05-25T16:30:14Z</time>
      </trkpt>
      <trkpt lat="43.98167" lon="5.12989">
        <ele>290.94</ele>
        <time>2015-05-25T16:30:15Z</time>
      </trkpt>
      <trkpt lat="43.98164" lon="5.12994">
        <ele>291.42</ele>
        <time>2015-05-25T16:30:16Z</time>
      </trkpt>
      <trkpt lat="43.98161" lon="5.13">
        <ele>291.42</ele>
        <time>2015-05-25T16:30:17Z</time>
      </trkpt>
      <trkpt lat="43.98159" lon="5.13006">
        <ele>291.42</ele>
        <time>2015-05-25T16:30:18Z</time>
      </trkpt>
      <trkpt lat="43.98155" lon="5.13012">
        <ele>290.94</ele>
        <time>2015-05-25T16:30:19Z</time>
      </trkpt>
      <trkpt lat="43.98151" lon="5.13018">
        <ele>290.94</ele>
        <time>2015-05-25T16:30:20Z</time>
      </trkpt>
      <trkpt lat="43.98143" lon="5.13032">
        <ele>290.46</ele>
        <time>2015-05-25T16:30:22Z</time>
      </trkpt>
      <trkpt lat="43.98138" lon="5.13039">
        <ele>290.46</ele>
        <time>2015-05-25T16:30:23Z</time>
      </trkpt>
      <trkpt lat="43.98127" lon="5.13059">
        <ele>289.97</ele>
        <time>2015-05-25T16:30:26Z</time>
      </trkpt>
      <trkpt lat="43.98124" lon="5.13065">
        <ele>289.97</ele>
        <time>2015-05-25T16:30:27Z</time>
      </trkpt>
      <trkpt lat="43.98121" lon="5.13071">
        <ele>289.97</ele>
        <time>2015-05-25T16:30:28Z</time>
      </trkpt>
      <trkpt lat="43.98118" lon="5.13077">
        <ele>289.97</ele>
        <time>2015-05-25T16:30:29Z</time>
      </trkpt>
      <trkpt lat="43.98114" lon="5.13082">
        <ele>289.97</ele>
        <time>2015-05-25T16:30:30Z</time>
      </trkpt>
      <trkpt lat="43.9811" lon="5.13086">
        <ele>289.97</ele>
        <time>2015-05-25T16:30:31Z</time>
      </trkpt>
      <trkpt lat="43.98107" lon="5.13092">
        <ele>290.46</ele>
        <time>2015-05-25T16:30:32Z</time>
      </trkpt>
      <trkpt lat="43.98103" lon="5.13099">
        <ele>289.97</ele>
        <time>2015-05-25T16:30:33Z</time>
      </trkpt>
      <trkpt lat="43.98095" lon="5.1312">
        <ele>289.97</ele>
        <time>2015-05-25T16:30:36Z</time>
      </trkpt>
      <trkpt lat="43.9809" lon="5.13136">
        <ele>290.46</ele>
        <time>2015-05-25T16:30:38Z</time>
      </trkpt>
      <trkpt lat="43.98089" lon="5.13143">
        <ele>290.46</ele>
        <time>2015-05-25T16:30:39Z</time>
      </trkpt>
      <trkpt lat="43.98088" lon="5.13151">
        <ele>289.97</ele>
        <time>2015-05-25T16:30:40Z</time>
      </trkpt>
      <trkpt lat="43.98088" lon="5.1316">
        <ele>289.49</ele>
        <time>2015-05-25T16:30:41Z</time>
      </trkpt>
      <trkpt lat="43.98086" lon="5.13169">
        <ele>289.49</ele>
        <time>2015-05-25T16:30:42Z</time>
      </trkpt>
      <trkpt lat="43.98084" lon="5.13176">
        <ele>289.49</ele>
        <time>2015-05-25T16:30:43Z</time>
      </trkpt>
      <trkpt lat="43.98084" lon="5.13183">
        <ele>289.49</ele>
        <time>2015-05-25T16:30:44Z</time>
      </trkpt>
      <trkpt lat="43.98084" lon="5.13189">
        <ele>289.01</ele>
        <time>2015-05-25T16:30:45Z</time>
      </trkpt>
      <trkpt lat="43.98083" lon="5.13194">
        <ele>288.53</ele>
        <time>2015-05-25T16:30:46Z</time>
      </trkpt>
      <trkpt lat="43.9808" lon="5.13198">
        <ele>288.53</ele>
        <time>2015-05-25T16:30:47Z</time>
      </trkpt>
      <trkpt lat="43.98076" lon="5.13202">
        <ele>288.53</ele>
        <time>2015-05-25T16:30:48Z</time>
      </trkpt>
      <trkpt lat="43.98072" lon="5.13207">
        <ele>289.01</ele>
        <time>2015-05-25T16:30:49Z</time>
      </trkpt>
      <trkpt lat="43.98061" lon="5.13223">
        <ele>289.01</ele>
        <time>2015-05-25T16:30:52Z</time>
      </trkpt>
      <trkpt lat="43.98051" lon="5.13232">
        <ele>289.49</ele>
        <time>2015-05-25T16:30:54Z</time>
      </trkpt>
      <trkpt lat="43.98047" lon="5.13237">
        <ele>289.49</ele>
        <time>2015-05-25T16:30:55Z</time>
      </trkpt>
      <trkpt lat="43.98044" lon="5.13243">
        <ele>289.49</ele>
        <time>2015-05-25T16:30:56Z</time>
      </trkpt>
      <trkpt lat="43.98041" lon="5.1325">
        <ele>289.49</ele>
        <time>2015-05-25T16:30:57Z</time>
      </trkpt>
      <trkpt lat="43.98037" lon="5.13255">
        <ele>289.49</ele>
        <time>2015-05-25T16:30:58Z</time>
      </trkpt>
      <trkpt lat="43.98032" lon="5.13258">
        <ele>289.49</ele>
        <time>2015-05-25T16:30:59Z</time>
      </trkpt>
      <trkpt lat="43.98028" lon="5.13262">
        <ele>289.97</ele>
        <time>2015-05-25T16:31:00Z</time>
      </trkpt>
      <trkpt lat="43.98025" lon="5.13267">
        <ele>290.46</ele>
        <time>2015-05-25T16:31:01Z</time>
      </trkpt>
      <trkpt lat="43.98021" lon="5.13271">
        <ele>290.46</ele>
        <time>2015-05-25T16:31:02Z</time>
      </trkpt>
      <trkpt lat="43.98018" lon="5.13275">
        <ele>290.94</ele>
        <time>2015-05-25T16:31:03Z</time>
      </trkpt>
      <trkpt lat="43.98014" lon="5.13277">
        <ele>291.42</ele>
        <time>2015-05-25T16:31:04Z</time>
      </trkpt>
      <trkpt lat="43.98011" lon="5.13279">
        <ele>291.9</ele>
        <time>2015-05-25T16:31:05Z</time>
      </trkpt>
      <trkpt lat="43.98009" lon="5.13283">
        <ele>292.38</ele>
        <time>2015-05-25T16:31:06Z</time>
      </trkpt>
      <trkpt lat="43.98007" lon="5.13286">
        <ele>292.38</ele>
        <time>2015-05-25T16:31:07Z</time>
      </trkpt>
      <trkpt lat="43.98005" lon="5.1329">
        <ele>292.38</ele>
        <time>2015-05-25T16:31:08Z</time>
      </trkpt>
      <trkpt lat="43.98003" lon="5.13294">
        <ele>292.86</ele>
        <time>2015-05-25T16:31:09Z</time>
      </trkpt>
      <trkpt lat="43.98001" lon="5.13297">
        <ele>292.86</ele>
        <time>2015-05-25T16:31:10Z</time>
      </trkpt>
      <trkpt lat="43.97999" lon="5.133">
        <ele>292.86</ele>
        <time>2015-05-25T16:31:11Z</time>
      </trkpt>
      <trkpt lat="43.97998" lon="5.13304">
        <ele>292.86</ele>
        <time>2015-05-25T16:31:12Z</time>
      </trkpt>
      <trkpt lat="43.97996" lon="5.13307">
        <ele>292.86</ele>
        <time>2015-05-25T16:31:13Z</time>
      </trkpt>
      <trkpt lat="43.97995" lon="5.13311">
        <ele>293.34</ele>
        <time>2015-05-25T16:31:14Z</time>
      </trkpt>
      <trkpt lat="43.97994" lon="5.13314">
        <ele>293.82</ele>
        <time>2015-05-25T16:31:15Z</time>
      </trkpt>
      <trkpt lat="43.97994" lon="5.13318">
        <ele>293.82</ele>
        <time>2015-05-25T16:31:16Z</time>
      </trkpt>
      <trkpt lat="43.97993" lon="5.13322">
        <ele>294.3</ele>
        <time>2015-05-25T16:31:17Z</time>
      </trkpt>
      <trkpt lat="43.9799" lon="5.13324">
        <ele>294.3</ele>
        <time>2015-05-25T16:31:18Z</time>
      </trkpt>
      <trkpt lat="43.97989" lon="5.13325">
        <ele>294.78</ele>
        <time>2015-05-25T16:31:19Z</time>
      </trkpt>
      <trkpt lat="43.97988" lon="5.13327">
        <ele>295.26</ele>
        <time>2015-05-25T16:31:24Z</time>
      </trkpt>
      <trkpt lat="43.97987" lon="5.13327">
        <ele>295.74</ele>
        <time>2015-05-25T16:31:25Z</time>
      </trkpt>
      <trkpt lat="43.97985" lon="5.13327">
        <ele>295.74</ele>
        <time>2015-05-25T16:31:27Z</time>
      </trkpt>
      <trkpt lat="43.97984" lon="5.13329">
        <ele>296.22</ele>
        <time>2015-05-25T16:31:28Z</time>
      </trkpt>
      <trkpt lat="43.97983" lon="5.13332">
        <ele>296.22</ele>
        <time>2015-05-25T16:31:32Z</time>
      </trkpt>
      <trkpt lat="43.97984" lon="5.13334">
        <ele>296.22</ele>
        <time>2015-05-25T16:31:38Z</time>
      </trkpt>
      <trkpt lat="43.97984" lon="5.13335">
        <ele>295.26</ele>
        <time>2015-05-25T16:31:47Z</time>
      </trkpt>
      <trkpt lat="43.97988" lon="5.13334">
        <ele>294.3</ele>
        <time>2015-05-25T16:31:54Z</time>
      </trkpt>
      <trkpt lat="43.97988" lon="5.13334">
        <ele>294.3</ele>
        <time>2015-05-25T16:32:06Z</time>
      </trkpt>
      <trkpt lat="43.97988" lon="5.13334">
        <ele>294.3</ele>
        <time>2015-05-25T16:32:23Z</time>
      </trkpt>
      <trkpt lat="43.97988" lon="5.13334">
        <ele>293.34</ele>
        <time>2015-05-25T16:32:27Z</time>
      </trkpt>
      <trkpt lat="43.97998" lon="5.13328">
        <ele>290.94</ele>
        <time>2015-05-25T16:32:31Z</time>
      </trkpt>
      <trkpt lat="43.98003" lon="5.13323">
        <ele>288.05</ele>
        <time>2015-05-25T16:32:35Z</time>
      </trkpt>
      <trkpt lat="43.98006" lon="5.13322">
        <ele>288.53</ele>
        <time>2015-05-25T16:32:45Z</time>
      </trkpt>
      <trkpt lat="43.98006" lon="5.1332">
        <ele>287.57</ele>
        <time>2015-05-25T16:32:49Z</time>
      </trkpt>
      <trkpt lat="43.98007" lon="5.1332">
        <ele>287.57</ele>
        <time>2015-05-25T16:33:06Z</time>
      </trkpt>
      <trkpt lat="43.98007" lon="5.1332">
        <ele>288.05</ele>
        <time>2015-05-25T16:33:25Z</time>
      </trkpt>
      <trkpt lat="43.98006" lon="5.1332">
        <ele>287.09</ele>
        <time>2015-05-25T16:33:44Z</time>
      </trkpt>
      <trkpt lat="43.98006" lon="5.1332">
        <ele>287.57</ele>
        <time>2015-05-25T16:34:02Z</time>
      </trkpt>
      <trkpt lat="43.98006" lon="5.1332">
        <ele>288.05</ele>
        <time>2015-05-25T16:34:21Z</time>
      </trkpt>
      <trkpt lat="43.98006" lon="5.1332">
        <ele>287.09</ele>
        <time>2015-05-25T16:34:40Z</time>
      </trkpt>
      <trkpt lat="43.98006" lon="5.13321">
        <ele>287.09</ele>
        <time>2015-05-25T16:34:57Z</time>
      </trkpt>
      <trkpt lat="43.98006" lon="5.13321">
        <ele>287.09</ele>
        <time>2015-05-25T16:35:16Z</time>
      </trkpt>
      <trkpt lat="43.98007" lon="5.13321">
        <ele>287.57</ele>
        <time>2015-05-25T16:35:23Z</time>
      </trkpt>
      <trkpt lat="43.98011" lon="5.13317">
        <ele>286.61</ele>
        <time>2015-05-25T16:35:29Z</time>
      </trkpt>
      <trkpt lat="43.98013" lon="5.13315">
        <ele>286.13</ele>
        <time>2015-05-25T16:35:30Z</time>
      </trkpt>
      <trkpt lat="43.98015" lon="5.13313">
        <ele>285.65</ele>
        <time>2015-05-25T16:35:31Z</time>
      </trkpt>
      <trkpt lat="43.98018" lon="5.13311">
        <ele>285.17</ele>
        <time>2015-05-25T16:35:32Z</time>
      </trkpt>
      <trkpt lat="43.98021" lon="5.1331">
        <ele>284.21</ele>
        <time>2015-05-25T16:35:33Z</time>
      </trkpt>
      <trkpt lat="43.98023" lon="5.13307">
        <ele>284.21</ele>
        <time>2015-05-25T16:35:34Z</time>
      </trkpt>
      <trkpt lat="43.98026" lon="5.13306">
        <ele>282.77</ele>
        <time>2015-05-25T16:35:35Z</time>
      </trkpt>
      <trkpt lat="43.98029" lon="5.13305">
        <ele>282.28</ele>
        <time>2015-05-25T16:35:36Z</time>
      </trkpt>
      <trkpt lat="43.98032" lon="5.13305">
        <ele>281.8</ele>
        <time>2015-05-25T16:35:37Z</time>
      </trkpt>
      <trkpt lat="43.98035" lon="5.13304">
        <ele>281.32</ele>
        <time>2015-05-25T16:35:38Z</time>
      </trkpt>
      <trkpt lat="43.98038" lon="5.13302">
        <ele>281.32</ele>
        <time>2015-05-25T16:35:39Z</time>
      </trkpt>
      <trkpt lat="43.98044" lon="5.13295">
        <ele>280.84</ele>
        <time>2015-05-25T16:35:45Z</time>
      </trkpt>
      <trkpt lat="43.98044" lon="5.13293">
        <ele>280.84</ele>
        <time>2015-05-25T16:35:57Z</time>
      </trkpt>
      <trkpt lat="43.98044" lon="5.13292">
        <ele>281.32</ele>
        <time>2015-05-25T16:36:08Z</time>
      </trkpt>
      <trkpt lat="43.98044" lon="5.1329">
        <ele>280.84</ele>
        <time>2015-05-25T16:36:12Z</time>
      </trkpt>
      <trkpt lat="43.98045" lon="5.13289">
        <ele>280.36</ele>
        <time>2015-05-25T16:36:13Z</time>
      </trkpt>
      <trkpt lat="43.98046" lon="5.13287">
        <ele>280.84</ele>
        <time>2015-05-25T16:36:14Z</time>
      </trkpt>
      <trkpt lat="43.98048" lon="5.13285">
        <ele>280.84</ele>
        <time>2015-05-25T16:36:15Z</time>
      </trkpt>
      <trkpt lat="43.98049" lon="5.13283">
        <ele>280.84</ele>
        <time>2015-05-25T16:36:16Z</time>
      </trkpt>
      <trkpt lat="43.98061" lon="5.13267">
        <ele>279.4</ele>
        <time>2015-05-25T16:36:22Z</time>
      </trkpt>
      <trkpt lat="43.98062" lon="5.13266">
        <ele>279.4</ele>
        <time>2015-05-25T16:36:23Z</time>
      </trkpt>
      <trkpt lat="43.98064" lon="5.13265">
        <ele>278.92</ele>
        <time>2015-05-25T16:36:24Z</time>
      </trkpt>
      <trkpt lat="43.98067" lon="5.13266">
        <ele>277.96</ele>
        <time>2015-05-25T16:36:25Z</time>
      </trkpt>
      <trkpt lat="43.9807" lon="5.13264">
        <ele>277.48</ele>
        <time>2015-05-25T16:36:26Z</time>
      </trkpt>
      <trkpt lat="43.98073" lon="5.13261">
        <ele>277.48</ele>
        <time>2015-05-25T16:36:27Z</time>
      </trkpt>
      <trkpt lat="43.98075" lon="5.13257">
        <ele>277</ele>
        <time>2015-05-25T16:36:28Z</time>
      </trkpt>
      <trkpt lat="43.98077" lon="5.13253">
        <ele>277</ele>
        <time>2015-05-25T16:36:29Z</time>
      </trkpt>
      <trkpt lat="43.98084" lon="5.13235">
        <ele>277.48</ele>
        <time>2015-05-25T16:36:34Z</time>
      </trkpt>
      <trkpt lat="43.98086" lon="5.13231">
        <ele>277</ele>
        <time>2015-05-25T16:36:40Z</time>
      </trkpt>
      <trkpt lat="43.98088" lon="5.1323">
        <ele>276.52</ele>
        <time>2015-05-25T16:36:41Z</time>
      </trkpt>
      <trkpt lat="43.9809" lon="5.1323">
        <ele>276.04</ele>
        <time>2015-05-25T16:36:42Z</time>
      </trkpt>
      <trkpt lat="43.98094" lon="5.1323">
        <ele>275.56</ele>
        <time>2015-05-25T16:36:43Z</time>
      </trkpt>
      <trkpt lat="43.98097" lon="5.13229">
        <ele>275.56</ele>
        <time>2015-05-25T16:36:44Z</time>
      </trkpt>
      <trkpt lat="43.981" lon="5.13228">
        <ele>275.56</ele>
        <time>2015-05-25T16:36:45Z</time>
      </trkpt>
      <trkpt lat="43.98102" lon="5.13225">
        <ele>275.56</ele>
        <time>2015-05-25T16:36:46Z</time>
      </trkpt>
      <trkpt lat="43.98111" lon="5.13217">
        <ele>275.56</ele>
        <time>2015-05-25T16:36:49Z</time>
      </trkpt>
      <trkpt lat="43.98113" lon="5.13214">
        <ele>275.56</ele>
        <time>2015-05-25T16:36:50Z</time>
      </trkpt>
      <trkpt lat="43.98116" lon="5.13211">
        <ele>275.07</ele>
        <time>2015-05-25T16:36:51Z</time>
      </trkpt>
      <trkpt lat="43.98122" lon="5.13202">
        <ele>274.59</ele>
        <time>2015-05-25T16:36:53Z</time>
      </trkpt>
      <trkpt lat="43.98124" lon="5.13196">
        <ele>274.59</ele>
        <time>2015-05-25T16:36:54Z</time>
      </trkpt>
      <trkpt lat="43.98129" lon="5.13175">
        <ele>273.63</ele>
        <time>2015-05-25T16:36:57Z</time>
      </trkpt>
      <trkpt lat="43.98128" lon="5.13163">
        <ele>272.67</ele>
        <time>2015-05-25T16:36:59Z</time>
      </trkpt>
      <trkpt lat="43.98129" lon="5.13158">
        <ele>273.15</ele>
        <time>2015-05-25T16:37:00Z</time>
      </trkpt>
      <trkpt lat="43.98135" lon="5.13129">
        <ele>272.67</ele>
        <time>2015-05-25T16:37:06Z</time>
      </trkpt>
      <trkpt lat="43.98139" lon="5.13126">
        <ele>272.67</ele>
        <time>2015-05-25T16:37:07Z</time>
      </trkpt>
      <trkpt lat="43.98143" lon="5.13124">
        <ele>272.19</ele>
        <time>2015-05-25T16:37:08Z</time>
      </trkpt>
      <trkpt lat="43.98158" lon="5.13123">
        <ele>271.23</ele>
        <time>2015-05-25T16:37:11Z</time>
      </trkpt>
      <trkpt lat="43.98161" lon="5.13123">
        <ele>271.71</ele>
        <time>2015-05-25T16:37:12Z</time>
      </trkpt>
      <trkpt lat="43.98164" lon="5.13124">
        <ele>271.71</ele>
        <time>2015-05-25T16:37:13Z</time>
      </trkpt>
      <trkpt lat="43.98167" lon="5.13123">
        <ele>271.71</ele>
        <time>2015-05-25T16:37:14Z</time>
      </trkpt>
      <trkpt lat="43.9817" lon="5.13121">
        <ele>272.19</ele>
        <time>2015-05-25T16:37:15Z</time>
      </trkpt>
      <trkpt lat="43.98175" lon="5.13116">
        <ele>271.23</ele>
        <time>2015-05-25T16:37:17Z</time>
      </trkpt>
      <trkpt lat="43.98181" lon="5.13106">
        <ele>270.27</ele>
        <time>2015-05-25T16:37:19Z</time>
      </trkpt>
      <trkpt lat="43.98185" lon="5.13101">
        <ele>270.27</ele>
        <time>2015-05-25T16:37:20Z</time>
      </trkpt>
      <trkpt lat="43.98197" lon="5.13088">
        <ele>269.79</ele>
        <time>2015-05-25T16:37:23Z</time>
      </trkpt>
      <trkpt lat="43.98203" lon="5.13078">
        <ele>269.31</ele>
        <time>2015-05-25T16:37:25Z</time>
      </trkpt>
      <trkpt lat="43.98207" lon="5.13072">
        <ele>269.31</ele>
        <time>2015-05-25T16:37:26Z</time>
      </trkpt>
      <trkpt lat="43.98213" lon="5.13062">
        <ele>267.86</ele>
        <time>2015-05-25T16:37:28Z</time>
      </trkpt>
      <trkpt lat="43.98213" lon="5.1306">
        <ele>267.38</ele>
        <time>2015-05-25T16:37:29Z</time>
      </trkpt>
      <trkpt lat="43.98213" lon="5.13057">
        <ele>266.9</ele>
        <time>2015-05-25T16:37:30Z</time>
      </trkpt>
      <trkpt lat="43.98212" lon="5.13056">
        <ele>266.9</ele>
        <time>2015-05-25T16:37:31Z</time>
      </trkpt>
      <trkpt lat="43.9821" lon="5.1305">
        <ele>266.9</ele>
        <time>2015-05-25T16:37:42Z</time>
      </trkpt>
      <trkpt lat="43.98211" lon="5.13049">
        <ele>267.38</ele>
        <time>2015-05-25T16:37:59Z</time>
      </trkpt>
      <trkpt lat="43.9821" lon="5.13049">
        <ele>268.35</ele>
        <time>2015-05-25T16:38:13Z</time>
      </trkpt>
      <trkpt lat="43.9821" lon="5.13049">
        <ele>268.35</ele>
        <time>2015-05-25T16:38:19Z</time>
      </trkpt>
      <trkpt lat="43.98222" lon="5.13038">
        <ele>268.35</ele>
        <time>2015-05-25T16:38:25Z</time>
      </trkpt>
      <trkpt lat="43.98238" lon="5.13021">
        <ele>266.9</ele>
        <time>2015-05-25T16:38:30Z</time>
      </trkpt>
      <trkpt lat="43.98241" lon="5.13017">
        <ele>266.9</ele>
        <time>2015-05-25T16:38:31Z</time>
      </trkpt>
      <trkpt lat="43.98245" lon="5.13014">
        <ele>266.9</ele>
        <time>2015-05-25T16:38:32Z</time>
      </trkpt>
      <trkpt lat="43.98249" lon="5.13011">
        <ele>266.9</ele>
        <time>2015-05-25T16:38:33Z</time>
      </trkpt>
      <trkpt lat="43.98253" lon="5.13007">
        <ele>266.42</ele>
        <time>2015-05-25T16:38:34Z</time>
      </trkpt>
      <trkpt lat="43.98255" lon="5.13002">
        <ele>266.42</ele>
        <time>2015-05-25T16:38:35Z</time>
      </trkpt>
      <trkpt lat="43.98258" lon="5.12997">
        <ele>266.42</ele>
        <time>2015-05-25T16:38:36Z</time>
      </trkpt>
      <trkpt lat="43.9826" lon="5.12991">
        <ele>265.94</ele>
        <time>2015-05-25T16:38:37Z</time>
      </trkpt>
      <trkpt lat="43.98262" lon="5.12986">
        <ele>265.46</ele>
        <time>2015-05-25T16:38:38Z</time>
      </trkpt>
      <trkpt lat="43.98266" lon="5.12982">
        <ele>264.98</ele>
        <time>2015-05-25T16:38:39Z</time>
      </trkpt>
      <trkpt lat="43.9827" lon="5.12977">
        <ele>264.98</ele>
        <time>2015-05-25T16:38:40Z</time>
      </trkpt>
      <trkpt lat="43.98282" lon="5.12961">
        <ele>264.98</ele>
        <time>2015-05-25T16:38:45Z</time>
      </trkpt>
      <trkpt lat="43.98285" lon="5.12956">
        <ele>264.5</ele>
        <time>2015-05-25T16:38:47Z</time>
      </trkpt>
      <trkpt lat="43.98286" lon="5.12952">
        <ele>264.02</ele>
        <time>2015-05-25T16:38:48Z</time>
      </trkpt>
      <trkpt lat="43.98292" lon="5.12925">
        <ele>261.14</ele>
        <time>2015-05-25T16:38:53Z</time>
      </trkpt>
      <trkpt lat="43.98297" lon="5.12903">
        <ele>260.17</ele>
        <time>2015-05-25T16:38:58Z</time>
      </trkpt>
      <trkpt lat="43.98298" lon="5.12895">
        <ele>259.69</ele>
        <time>2015-05-25T16:39:03Z</time>
      </trkpt>
      <trkpt lat="43.98301" lon="5.12887">
        <ele>259.69</ele>
        <time>2015-05-25T16:39:12Z</time>
      </trkpt>
      <trkpt lat="43.98305" lon="5.12882">
        <ele>259.69</ele>
        <time>2015-05-25T16:39:15Z</time>
      </trkpt>
      <trkpt lat="43.98306" lon="5.1288">
        <ele>259.21</ele>
        <time>2015-05-25T16:39:16Z</time>
      </trkpt>
      <trkpt lat="43.98309" lon="5.12873">
        <ele>259.21</ele>
        <time>2015-05-25T16:39:19Z</time>
      </trkpt>
      <trkpt lat="43.9831" lon="5.12871">
        <ele>259.21</ele>
        <time>2015-05-25T16:39:20Z</time>
      </trkpt>
      <trkpt lat="43.98317" lon="5.12859">
        <ele>258.73</ele>
        <time>2015-05-25T16:39:26Z</time>
      </trkpt>
      <trkpt lat="43.98326" lon="5.12848">
        <ele>258.73</ele>
        <time>2015-05-25T16:39:32Z</time>
      </trkpt>
      <trkpt lat="43.98327" lon="5.12846">
        <ele>259.21</ele>
        <time>2015-05-25T16:39:38Z</time>
      </trkpt>
      <trkpt lat="43.98328" lon="5.12842">
        <ele>258.25</ele>
        <time>2015-05-25T16:39:44Z</time>
      </trkpt>
      <trkpt lat="43.98329" lon="5.1284">
        <ele>258.25</ele>
        <time>2015-05-25T16:39:45Z</time>
      </trkpt>
      <trkpt lat="43.98328" lon="5.12838">
        <ele>258.25</ele>
        <time>2015-05-25T16:39:46Z</time>
      </trkpt>
      <trkpt lat="43.98327" lon="5.12836">
        <ele>258.25</ele>
        <time>2015-05-25T16:39:47Z</time>
      </trkpt>
      <trkpt lat="43.98327" lon="5.12833">
        <ele>258.25</ele>
        <time>2015-05-25T16:39:48Z</time>
      </trkpt>
      <trkpt lat="43.98328" lon="5.1283">
        <ele>257.77</ele>
        <time>2015-05-25T16:39:49Z</time>
      </trkpt>
      <trkpt lat="43.98328" lon="5.12827">
        <ele>257.77</ele>
        <time>2015-05-25T16:39:50Z</time>
      </trkpt>
      <trkpt lat="43.98329" lon="5.12825">
        <ele>257.77</ele>
        <time>2015-05-25T16:39:51Z</time>
      </trkpt>
      <trkpt lat="43.9833" lon="5.12822">
        <ele>257.29</ele>
        <time>2015-05-25T16:39:52Z</time>
      </trkpt>
      <trkpt lat="43.98335" lon="5.12802">
        <ele>256.81</ele>
        <time>2015-05-25T16:39:57Z</time>
      </trkpt>
      <trkpt lat="43.98334" lon="5.12797">
        <ele>256.81</ele>
        <time>2015-05-25T16:39:58Z</time>
      </trkpt>
      <trkpt lat="43.98334" lon="5.12792">
        <ele>257.29</ele>
        <time>2015-05-25T16:39:59Z</time>
      </trkpt>
      <trkpt lat="43.98336" lon="5.12769">
        <ele>258.25</ele>
        <time>2015-05-25T16:40:04Z</time>
      </trkpt>
      <trkpt lat="43.98336" lon="5.12748">
        <ele>257.77</ele>
        <time>2015-05-25T16:40:08Z</time>
      </trkpt>
      <trkpt lat="43.98335" lon="5.12743">
        <ele>257.77</ele>
        <time>2015-05-25T16:40:09Z</time>
      </trkpt>
      <trkpt lat="43.98335" lon="5.12738">
        <ele>258.25</ele>
        <time>2015-05-25T16:40:10Z</time>
      </trkpt>
      <trkpt lat="43.98332" lon="5.12716">
        <ele>258.25</ele>
        <time>2015-05-25T16:40:15Z</time>
      </trkpt>
      <trkpt lat="43.98331" lon="5.1271">
        <ele>257.77</ele>
        <time>2015-05-25T16:40:16Z</time>
      </trkpt>
      <trkpt lat="43.98331" lon="5.12702">
        <ele>257.29</ele>
        <time>2015-05-25T16:40:17Z</time>
      </trkpt>
      <trkpt lat="43.9833" lon="5.12664">
        <ele>255.85</ele>
        <time>2015-05-25T16:40:22Z</time>
      </trkpt>
      <trkpt lat="43.9833" lon="5.12649">
        <ele>255.85</ele>
        <time>2015-05-25T16:40:24Z</time>
      </trkpt>
      <trkpt lat="43.98332" lon="5.12642">
        <ele>255.37</ele>
        <time>2015-05-25T16:40:25Z</time>
      </trkpt>
      <trkpt lat="43.98334" lon="5.12636">
        <ele>254.89</ele>
        <time>2015-05-25T16:40:26Z</time>
      </trkpt>
      <trkpt lat="43.98335" lon="5.1263">
        <ele>253.93</ele>
        <time>2015-05-25T16:40:27Z</time>
      </trkpt>
      <trkpt lat="43.98335" lon="5.12624">
        <ele>253.44</ele>
        <time>2015-05-25T16:40:28Z</time>
      </trkpt>
      <trkpt lat="43.98335" lon="5.12618">
        <ele>252.96</ele>
        <time>2015-05-25T16:40:29Z</time>
      </trkpt>
      <trkpt lat="43.98334" lon="5.12612">
        <ele>252.48</ele>
        <time>2015-05-25T16:40:30Z</time>
      </trkpt>
      <trkpt lat="43.98334" lon="5.12606">
        <ele>251.52</ele>
        <time>2015-05-25T16:40:31Z</time>
      </trkpt>
      <trkpt lat="43.98334" lon="5.12598">
        <ele>251.04</ele>
        <time>2015-05-25T16:40:33Z</time>
      </trkpt>
      <trkpt lat="43.98336" lon="5.12586">
        <ele>248.16</ele>
        <time>2015-05-25T16:40:36Z</time>
      </trkpt>
      <trkpt lat="43.98335" lon="5.12581">
        <ele>248.16</ele>
        <time>2015-05-25T16:40:37Z</time>
      </trkpt>
      <trkpt lat="43.98336" lon="5.12577">
        <ele>247.68</ele>
        <time>2015-05-25T16:40:38Z</time>
      </trkpt>
      <trkpt lat="43.98337" lon="5.12572">
        <ele>247.68</ele>
        <time>2015-05-25T16:40:39Z</time>
      </trkpt>
      <trkpt lat="43.98337" lon="5.12568">
        <ele>247.68</ele>
        <time>2015-05-25T16:40:40Z</time>
      </trkpt>
      <trkpt lat="43.98336" lon="5.12547">
        <ele>247.2</ele>
        <time>2015-05-25T16:40:45Z</time>
      </trkpt>
      <trkpt lat="43.98333" lon="5.12539">
        <ele>247.2</ele>
        <time>2015-05-25T16:40:52Z</time>
      </trkpt>
      <trkpt lat="43.98332" lon="5.12532">
        <ele>247.2</ele>
        <time>2015-05-25T16:40:57Z</time>
      </trkpt>
      <trkpt lat="43.98331" lon="5.12526">
        <ele>247.2</ele>
        <time>2015-05-25T16:41:03Z</time>
      </trkpt>
      <trkpt lat="43.98331" lon="5.12524">
        <ele>247.2</ele>
        <time>2015-05-25T16:41:04Z</time>
      </trkpt>
      <trkpt lat="43.98328" lon="5.12502">
        <ele>249.12</ele>
        <time>2015-05-25T16:41:10Z</time>
      </trkpt>
      <trkpt lat="43.98327" lon="5.12493">
        <ele>250.08</ele>
        <time>2015-05-25T16:41:12Z</time>
      </trkpt>
      <trkpt lat="43.98327" lon="5.1249">
        <ele>250.08</ele>
        <time>2015-05-25T16:41:13Z</time>
      </trkpt>
      <trkpt lat="43.98327" lon="5.12488">
        <ele>250.56</ele>
        <time>2015-05-25T16:41:14Z</time>
      </trkpt>
      <trkpt lat="43.98327" lon="5.12485">
        <ele>251.04</ele>
        <time>2015-05-25T16:41:15Z</time>
      </trkpt>
      <trkpt lat="43.98328" lon="5.12481">
        <ele>251.52</ele>
        <time>2015-05-25T16:41:16Z</time>
      </trkpt>
      <trkpt lat="43.98328" lon="5.12477">
        <ele>251.52</ele>
        <time>2015-05-25T16:41:17Z</time>
      </trkpt>
      <trkpt lat="43.98329" lon="5.12474">
        <ele>252</ele>
        <time>2015-05-25T16:41:18Z</time>
      </trkpt>
      <trkpt lat="43.98329" lon="5.12471">
        <ele>252.48</ele>
        <time>2015-05-25T16:41:19Z</time>
      </trkpt>
      <trkpt lat="43.9833" lon="5.12465">
        <ele>252.48</ele>
        <time>2015-05-25T16:41:22Z</time>
      </trkpt>
      <trkpt lat="43.98331" lon="5.12463">
        <ele>252.96</ele>
        <time>2015-05-25T16:41:23Z</time>
      </trkpt>
      <trkpt lat="43.98344" lon="5.1245">
        <ele>252</ele>
        <time>2015-05-25T16:41:28Z</time>
      </trkpt>
      <trkpt lat="43.98362" lon="5.12426">
        <ele>250.08</ele>
        <time>2015-05-25T16:41:33Z</time>
      </trkpt>
      <trkpt lat="43.98366" lon="5.12421">
        <ele>249.6</ele>
        <time>2015-05-25T16:41:34Z</time>
      </trkpt>
      <trkpt lat="43.98375" lon="5.1241">
        <ele>249.6</ele>
        <time>2015-05-25T16:41:36Z</time>
      </trkpt>
      <trkpt lat="43.98387" lon="5.12388">
        <ele>248.16</ele>
        <time>2015-05-25T16:41:39Z</time>
      </trkpt>
      <trkpt lat="43.98391" lon="5.12379">
        <ele>248.16</ele>
        <time>2015-05-25T16:41:40Z</time>
      </trkpt>
      <trkpt lat="43.98394" lon="5.1237">
        <ele>247.68</ele>
        <time>2015-05-25T16:41:41Z</time>
      </trkpt>
      <trkpt lat="43.98396" lon="5.12361">
        <ele>247.68</ele>
        <time>2015-05-25T16:41:42Z</time>
      </trkpt>
      <trkpt lat="43.98398" lon="5.12352">
        <ele>247.2</ele>
        <time>2015-05-25T16:41:43Z</time>
      </trkpt>
      <trkpt lat="43.984" lon="5.12343">
        <ele>246.72</ele>
        <time>2015-05-25T16:41:44Z</time>
      </trkpt>
      <trkpt lat="43.98402" lon="5.12335">
        <ele>246.72</ele>
        <time>2015-05-25T16:41:45Z</time>
      </trkpt>
      <trkpt lat="43.98404" lon="5.1232">
        <ele>246.23</ele>
        <time>2015-05-25T16:41:47Z</time>
      </trkpt>
      <trkpt lat="43.98407" lon="5.12305">
        <ele>245.75</ele>
        <time>2015-05-25T16:41:49Z</time>
      </trkpt>
      <trkpt lat="43.98408" lon="5.12298">
        <ele>246.23</ele>
        <time>2015-05-25T16:41:50Z</time>
      </trkpt>
      <trkpt lat="43.98411" lon="5.12249">
        <ele>245.75</ele>
        <time>2015-05-25T16:41:58Z</time>
      </trkpt>
      <trkpt lat="43.98415" lon="5.12223">
        <ele>245.27</ele>
        <time>2015-05-25T16:42:03Z</time>
      </trkpt>
      <trkpt lat="43.98417" lon="5.12205">
        <ele>245.75</ele>
        <time>2015-05-25T16:42:06Z</time>
      </trkpt>
      <trkpt lat="43.98418" lon="5.12198">
        <ele>244.79</ele>
        <time>2015-05-25T16:42:07Z</time>
      </trkpt>
      <trkpt lat="43.98419" lon="5.12192">
        <ele>244.31</ele>
        <time>2015-05-25T16:42:08Z</time>
      </trkpt>
      <trkpt lat="43.9842" lon="5.12185">
        <ele>243.35</ele>
        <time>2015-05-25T16:42:09Z</time>
      </trkpt>
      <trkpt lat="43.98421" lon="5.12178">
        <ele>243.83</ele>
        <time>2015-05-25T16:42:10Z</time>
      </trkpt>
      <trkpt lat="43.98426" lon="5.12149">
        <ele>244.31</ele>
        <time>2015-05-25T16:42:14Z</time>
      </trkpt>
      <trkpt lat="43.98437" lon="5.12097">
        <ele>243.35</ele>
        <time>2015-05-25T16:42:20Z</time>
      </trkpt>
      <trkpt lat="43.98447" lon="5.12041">
        <ele>243.83</ele>
        <time>2015-05-25T16:42:26Z</time>
      </trkpt>
      <trkpt lat="43.98448" lon="5.12032">
        <ele>243.35</ele>
        <time>2015-05-25T16:42:27Z</time>
      </trkpt>
      <trkpt lat="43.98454" lon="5.1197">
        <ele>240.95</ele>
        <time>2015-05-25T16:42:33Z</time>
      </trkpt>
      <trkpt lat="43.98455" lon="5.11959">
        <ele>240.47</ele>
        <time>2015-05-25T16:42:34Z</time>
      </trkpt>
      <trkpt lat="43.98469" lon="5.11891">
        <ele>237.58</ele>
        <time>2015-05-25T16:42:40Z</time>
      </trkpt>
      <trkpt lat="43.98474" lon="5.11877">
        <ele>236.62</ele>
        <time>2015-05-25T16:42:42Z</time>
      </trkpt>
      <trkpt lat="43.98473" lon="5.11873">
        <ele>236.62</ele>
        <time>2015-05-25T16:42:43Z</time>
      </trkpt>
      <trkpt lat="43.98472" lon="5.1187">
        <ele>236.14</ele>
        <time>2015-05-25T16:42:44Z</time>
      </trkpt>
      <trkpt lat="43.9846" lon="5.11861">
        <ele>237.1</ele>
        <time>2015-05-25T16:42:50Z</time>
      </trkpt>
      <trkpt lat="43.98442" lon="5.11856">
        <ele>237.58</ele>
        <time>2015-05-25T16:42:55Z</time>
      </trkpt>
      <trkpt lat="43.98437" lon="5.11854">
        <ele>238.06</ele>
        <time>2015-05-25T16:42:56Z</time>
      </trkpt>
      <trkpt lat="43.98432" lon="5.11853">
        <ele>238.54</ele>
        <time>2015-05-25T16:42:57Z</time>
      </trkpt>
      <trkpt lat="43.98428" lon="5.1185">
        <ele>239.02</ele>
        <time>2015-05-25T16:42:58Z</time>
      </trkpt>
      <trkpt lat="43.98425" lon="5.11847">
        <ele>239.02</ele>
        <time>2015-05-25T16:42:59Z</time>
      </trkpt>
      <trkpt lat="43.98423" lon="5.11842">
        <ele>239.51</ele>
        <time>2015-05-25T16:43:00Z</time>
      </trkpt>
      <trkpt lat="43.98421" lon="5.11838">
        <ele>239.99</ele>
        <time>2015-05-25T16:43:01Z</time>
      </trkpt>
      <trkpt lat="43.98419" lon="5.11833">
        <ele>240.47</ele>
        <time>2015-05-25T16:43:02Z</time>
      </trkpt>
      <trkpt lat="43.98418" lon="5.11828">
        <ele>240.95</ele>
        <time>2015-05-25T16:43:03Z</time>
      </trkpt>
      <trkpt lat="43.98417" lon="5.11822">
        <ele>240.95</ele>
        <time>2015-05-25T16:43:04Z</time>
      </trkpt>
      <trkpt lat="43.98416" lon="5.11816">
        <ele>241.43</ele>
        <time>2015-05-25T16:43:05Z</time>
      </trkpt>
      <trkpt lat="43.98412" lon="5.11806">
        <ele>242.87</ele>
        <time>2015-05-25T16:43:07Z</time>
      </trkpt>
      <trkpt lat="43.98409" lon="5.11803">
        <ele>243.35</ele>
        <time>2015-05-25T16:43:08Z</time>
      </trkpt>
      <trkpt lat="43.98405" lon="5.11802">
        <ele>243.83</ele>
        <time>2015-05-25T16:43:09Z</time>
      </trkpt>
      <trkpt lat="43.98401" lon="5.11804">
        <ele>244.31</ele>
        <time>2015-05-25T16:43:10Z</time>
      </trkpt>
      <trkpt lat="43.98396" lon="5.11806">
        <ele>244.79</ele>
        <time>2015-05-25T16:43:11Z</time>
      </trkpt>
      <trkpt lat="43.98392" lon="5.11808">
        <ele>244.79</ele>
        <time>2015-05-25T16:43:12Z</time>
      </trkpt>
      <trkpt lat="43.98388" lon="5.11811">
        <ele>245.27</ele>
        <time>2015-05-25T16:43:13Z</time>
      </trkpt>
      <trkpt lat="43.98384" lon="5.11815">
        <ele>245.75</ele>
        <time>2015-05-25T16:43:14Z</time>
      </trkpt>
      <trkpt lat="43.98376" lon="5.11821">
        <ele>246.72</ele>
        <time>2015-05-25T16:43:16Z</time>
      </trkpt>
      <trkpt lat="43.98372" lon="5.11825">
        <ele>246.72</ele>
        <time>2015-05-25T16:43:17Z</time>
      </trkpt>
      <trkpt lat="43.9835" lon="5.11847">
        <ele>249.12</ele>
        <time>2015-05-25T16:43:24Z</time>
      </trkpt>
      <trkpt lat="43.98335" lon="5.11863">
        <ele>251.52</ele>
        <time>2015-05-25T16:43:31Z</time>
      </trkpt>
      <trkpt lat="43.98327" lon="5.11872">
        <ele>252.48</ele>
        <time>2015-05-25T16:43:36Z</time>
      </trkpt>
      <trkpt lat="43.98322" lon="5.11878">
        <ele>252.96</ele>
        <time>2015-05-25T16:43:40Z</time>
      </trkpt>
      <trkpt lat="43.98321" lon="5.11879">
        <ele>252.96</ele>
        <time>2015-05-25T16:43:41Z</time>
      </trkpt>
      <trkpt lat="43.98321" lon="5.11881">
        <ele>252.96</ele>
        <time>2015-05-25T16:43:42Z</time>
      </trkpt>
      <trkpt lat="43.98321" lon="5.11882">
        <ele>253.44</ele>
        <time>2015-05-25T16:43:43Z</time>
      </trkpt>
      <trkpt lat="43.98321" lon="5.11885">
        <ele>252.96</ele>
        <time>2015-05-25T16:43:44Z</time>
      </trkpt>
      <trkpt lat="43.9832" lon="5.11886">
        <ele>252.96</ele>
        <time>2015-05-25T16:43:45Z</time>
      </trkpt>
      <trkpt lat="43.98318" lon="5.11887">
        <ele>252.96</ele>
        <time>2015-05-25T16:43:46Z</time>
      </trkpt>
      <trkpt lat="43.98317" lon="5.11886">
        <ele>252.96</ele>
        <time>2015-05-25T16:43:47Z</time>
      </trkpt>
      <trkpt lat="43.98315" lon="5.11887">
        <ele>253.44</ele>
        <time>2015-05-25T16:43:51Z</time>
      </trkpt>
      <trkpt lat="43.98312" lon="5.11887">
        <ele>253.44</ele>
        <time>2015-05-25T16:43:58Z</time>
      </trkpt>
      <trkpt lat="43.98312" lon="5.11887">
        <ele>253.44</ele>
        <time>2015-05-25T16:44:03Z</time>
      </trkpt>
      <trkpt lat="43.98313" lon="5.11888">
        <ele>253.93</ele>
        <time>2015-05-25T16:44:09Z</time>
      </trkpt>
      <trkpt lat="43.98313" lon="5.11888">
        <ele>253.44</ele>
        <time>2015-05-25T16:44:23Z</time>
      </trkpt>
      <trkpt lat="43.98312" lon="5.11886">
        <ele>252.96</ele>
        <time>2015-05-25T16:44:41Z</time>
      </trkpt>
      <trkpt lat="43.98312" lon="5.11887">
        <ele>252.96</ele>
        <time>2015-05-25T16:44:57Z</time>
      </trkpt>
      <trkpt lat="43.98312" lon="5.11886">
        <ele>252.48</ele>
        <time>2015-05-25T16:45:13Z</time>
      </trkpt>
      <trkpt lat="43.98312" lon="5.11886">
        <ele>252.48</ele>
        <time>2015-05-25T16:45:29Z</time>
      </trkpt>
      <trkpt lat="43.98312" lon="5.11886">
        <ele>252.48</ele>
        <time>2015-05-25T16:45:46Z</time>
      </trkpt>
      <trkpt lat="43.98312" lon="5.11886">
        <ele>253.44</ele>
        <time>2015-05-25T16:45:55Z</time>
      </trkpt>
      <trkpt lat="43.98311" lon="5.11888">
        <ele>252.96</ele>
        <time>2015-05-25T16:45:57Z</time>
      </trkpt>
      <trkpt lat="43.98311" lon="5.11889">
        <ele>252.96</ele>
        <time>2015-05-25T16:46:01Z</time>
      </trkpt>
      <trkpt lat="43.98311" lon="5.11889">
        <ele>252</ele>
        <time>2015-05-25T16:46:13Z</time>
      </trkpt>
      <trkpt lat="43.98311" lon="5.11888">
        <ele>254.41</ele>
        <time>2015-05-25T16:46:28Z</time>
      </trkpt>
      <trkpt lat="43.98311" lon="5.11888">
        <ele>251.04</ele>
        <time>2015-05-25T16:46:33Z</time>
      </trkpt>
    </trkseg>
  </trk>
</gpx>